# Wetter Temperatur Luftdruck Luftfeuchtigkeit Sichtweite Windgeschwindigkeit Windrichtung Zeit
1 Clear 18 1021 82 10000 2 340 19:56 17.10.2019
2 Clear 18 1021 82 10000 3 330 19:38 17.10.2019
3 Clear 18 1021 82 10000 3 330 19:19 17.10.2019
4 Clear 17 1022 77 10000 2 340 18:43 17.10.2019
5 Clear 18 1022 77 10000 2 340 18:21 17.10.2019
6 Clear 17 1022 77 10000 2 350 17:58 17.10.2019
7 Clouds 18 1022 77 10000 2 350 17:40 17.10.2019
8 Clouds 18 1022 77 10000 2 350 17:22 17.10.2019
9 Clouds 18 1022 72 10000 3 360 16:55 17.10.2019
10 Clouds 18 1022 77 10000 2 360 16:36 17.10.2019
11 Clouds 18 1022 77 10000 2 360 16:18 17.10.2019
12 Clouds 18 1022 68 10000 4 10 15:41 17.10.2019
13 Clouds 18 1022 68 10000 4 10 15:21 17.10.2019
14 Clouds 19 1022 63 10000 4 10 14:58 17.10.2019
15 Clouds 19 1022 68 10000 4 10 14:39 17.10.2019
16 Clouds 19 1022 68 10000 4 10 14:21 17.10.2019
17 Clouds 19 1022 56 10000 4 360 13:42 17.10.2019
18 Clouds 19 1022 56 10000 4 360 13:21 17.10.2019
19 Clouds 20 1021 56 10000 3 360 12:58 17.10.2019
20 Clouds 19 1021 52 10000 4 360 12:40 17.10.2019
21 Rain 20 1021 52 10000 4 360 12:20 17.10.2019
22 Rain 20 1021 52 10000 4 360 12:20 17.10.2019
23 Rain 20 1021 56 10000 4 10 11:57 17.10.2019
24 Rain 20 1021 56 10000 4 10 11:57 17.10.2019
25 Rain 21 1021 49 10000 5 10 11:38 17.10.2019
26 Rain 21 1021 49 10000 5 10 11:18 17.10.2019
27 Rain 21 1021 49 10000 5 10 10:42 17.10.2019
28 Rain 21 1021 49 10000 5 10 10:20 17.10.2019
29 Rain 21 1021 53 10000 4 350 09:58 17.10.2019
30 Rain 22 1021 53 10000 4 360 09:38 17.10.2019
31 Rain 23 1021 53 10000 4 360 09:20 17.10.2019
32 Clouds 23 1021 53 10000 4 20 08:57 17.10.2019
33 Clouds 22 1021 53 10000 4 20 08:57 17.10.2019
34 Clouds 22 1021 53 10000 4 360 08:38 17.10.2019
35 Clouds 22 1021 53 10000 4 360 08:18 17.10.2019
36 Clouds 22 1022 53 10000 5 360 07:43 17.10.2019
37 Clouds 23 1022 53 10000 5 360 07:21 17.10.2019
38 Clouds 23 1022 53 10000 4 340 06:56 17.10.2019
39 Clouds 23 1022 60 10000 5 360 06:38 17.10.2019
40 Clouds 21 1022 60 10000 5 360 06:19 17.10.2019
41 Clouds 22 1023 64 10000 3 350 05:41 17.10.2019
42 Clouds 21 1023 64 10000 3 350 05:20 17.10.2019
43 Clouds 21 1023 64 10000 4 340 04:48 17.10.2019
44 Clouds 21 1024 64 10000 5 360 03:49 17.10.2019
45 Rain 20 1024 72 10000 4 350 02:32 17.10.2019
46 Rain 18 1023 77 10000 3 340 00:42 17.10.2019
47 Rain 18 1023 77 10000 3 340 00:21 17.10.2019
48 Rain 18 1023 77 10000 3 350 23:59 16.10.2019
49 Rain 18 1023 77 10000 4 340 23:41 16.10.2019
50 Rain 19 1023 77 10000 4 340 23:19 16.10.2019
51 Rain 18 1023 77 10000 4 340 22:54 16.10.2019
52 Rain 18 1023 77 10000 3 340 22:36 16.10.2019
53 Rain 18 1023 77 10000 3 340 22:36 16.10.2019
54 Rain 18 1023 77 10000 3 340 22:18 16.10.2019
55 Rain 18 1022 93 10000 4 330 21:54 16.10.2019
56 Rain 18 1022 88 10000 4 330 21:36 16.10.2019
57 Rain 18 1023 82 10000 3 340 21:18 16.10.2019
58 Rain 18 1023 82 10000 3 340 20:56 16.10.2019
59 Rain 19 1023 77 10000 3 340 20:37 16.10.2019
60 Rain 19 1023 77 10000 3 340 20:37 16.10.2019
61 Rain 19 1023 77 10000 3 340 20:37 16.10.2019
62 Rain 19 1023 77 10000 3 340 20:19 16.10.2019
63 Rain 18 1023 77 10000 3 360 19:40 16.10.2019
64 Rain 18 1023 77 10000 3 360 19:40 16.10.2019
65 Rain 18 1023 77 10000 3 360 19:21 16.10.2019
66 Rain 19 1024 77 10000 3 360 18:58 16.10.2019
67 Rain 19 1024 77 10000 3 360 18:58 16.10.2019
68 Rain 19 1024 77 10000 3 340 18:38 16.10.2019
69 Clouds 19 1024 77 10000 3 340 18:18 16.10.2019
70 Clouds 19 1024 77 10000 3 340 18:18 16.10.2019
71 Clouds 18 1024 77 10000 3 360 17:56 16.10.2019
72 Clouds 18 1024 77 10000 3 360 17:37 16.10.2019
73 Clouds 18 1024 77 10000 3 360 17:37 16.10.2019
74 -273 0 0 0 0 0 17:37 16.10.2019
75 Clouds 18 1024 77 10000 3 360 17:19 16.10.2019
76 Clouds 18 1024 77 10000 3 360 16:56 16.10.2019
77 Clouds 18 1024 72 10000 2 20 16:37 16.10.2019
78 Clouds 18 1024 72 10000 2 20 16:18 16.10.2019
79 Clouds 19 1024 68 10000 5 40 15:40 16.10.2019
80 Clouds 19 1024 68 10000 5 40 15:40 16.10.2019
81 Clouds 19 1024 68 10000 5 40 15:19 16.10.2019
82 Clouds 19 1024 68 10000 5 40 14:58 16.10.2019
83 Clouds 19 1024 68 10000 5 40 14:58 16.10.2019
84 Clouds 19 1024 68 10000 5 40 14:39 16.10.2019
85 Clouds 19 1024 68 10000 5 40 14:20 16.10.2019
86 Clouds 19 1024 68 10000 5 50 13:57 16.10.2019
87 Clouds 19 1024 68 10000 5 50 13:39 16.10.2019
88 Clouds 19 1024 68 10000 5 20 13:21 16.10.2019
89 Clouds 19 1024 63 10000 5 30 12:42 16.10.2019
90 Clouds 19 1024 63 10000 5 30 12:42 16.10.2019
91 Clouds 20 1023 60 10000 5 30 12:20 16.10.2019
92 Clouds 20 1023 60 10000 5 30 11:55 16.10.2019
93 Clouds 20 1023 60 10000 5 10 11:36 16.10.2019
94 Clouds 21 1023 60 10000 5 10 11:18 16.10.2019
95 Clouds 21 1023 56 10000 5 10 10:36 16.10.2019
96 Clouds 21 1023 56 10000 5 10 10:36 16.10.2019
97 Clouds 21 1023 56 10000 5 10 10:18 16.10.2019
98 Clouds 21 1023 53 10000 5 30 09:40 16.10.2019
99 Clouds 22 1023 52 10000 3 10 09:22 16.10.2019
100 Clouds 21 1023 52 10000 3 20 08:56 16.10.2019
101 Clouds 21 1023 52 10000 3 20 08:56 16.10.2019
102 Clouds 21 1023 52 10000 2 30 08:38 16.10.2019
103 Clouds 22 1023 52 10000 2 30 08:19 16.10.2019
104 Clouds 23 1023 49 10000 2 0 07:41 16.10.2019
105 Clouds 22 1023 49 10000 3 360 07:23 16.10.2019
106 Clouds 22 1024 49 10000 4 340 06:47 16.10.2019
107 Clouds 22 1024 49 10000 4 340 06:28 16.10.2019
108 Clouds 23 1026 52 10000 4 20 04:25 16.10.2019
109 Clouds 19 1026 59 10000 3 10 02:51 16.10.2019
110 Clouds 19 1026 72 10000 3 360 01:20 16.10.2019
111 Clouds 18 1026 76 10000 3 350 00:59 16.10.2019
112 Clouds 18 1026 76 10000 3 350 00:39 16.10.2019
113 Clouds 15 1026 71 10000 2 330 23:58 15.10.2019
114 Clouds 16 1026 71 10000 2 330 23:38 15.10.2019
115 Clouds 16 1026 71 10000 3 330 23:19 15.10.2019
116 Clouds 16 1026 71 10000 4 310 22:55 15.10.2019
117 Clouds 17 1026 67 10000 3 300 22:37 15.10.2019
118 Clouds 15 1026 67 10000 3 300 22:18 15.10.2019
119 Clouds 15 1026 67 10000 2 320 21:54 15.10.2019
120 Clouds 15 1026 67 10000 3 310 21:36 15.10.2019
121 Clouds 15 1026 67 10000 3 310 21:18 15.10.2019
122 Clouds 15 1027 67 10000 3 320 20:54 15.10.2019
123 Clouds 15 1027 67 10000 3 320 20:54 15.10.2019
124 -273 0 0 0 0 0 20:54 15.10.2019
125 Clouds 15 1027 67 10000 3 330 20:36 15.10.2019
126 Clouds 16 1027 67 10000 3 330 20:18 15.10.2019
127 Clouds 16 1027 62 10000 3 320 19:41 15.10.2019
128 Clouds 16 1028 62 10000 4 310 19:20 15.10.2019
129 Clouds 16 1028 62 10000 4 310 19:20 15.10.2019
130 Clouds 16 1028 62 10000 4 310 18:55 15.10.2019
131 Clouds 16 1028 62 10000 4 310 18:55 15.10.2019
132 Clouds 16 1028 62 10000 5 330 18:37 15.10.2019
133 Clouds 16 1028 62 10000 5 330 18:19 15.10.2019
134 Clouds 16 1028 62 10000 4 320 17:42 15.10.2019
135 -273 0 0 0 0 0 17:42 15.10.2019
136 Clouds 16 1028 62 10000 4 320 17:42 15.10.2019
137 Clouds 16 1028 62 10000 3 330 17:21 15.10.2019
138 Clouds 16 1029 59 10000 5 330 16:59 15.10.2019
139 Clouds 16 1029 59 10000 5 330 16:41 15.10.2019
140 Clouds 16 1029 59 10000 4 360 16:21 15.10.2019
141 Clouds 16 1029 59 10000 4 360 16:21 15.10.2019
142 Clouds 16 1029 55 10000 4 360 15:55 15.10.2019
143 Clouds 16 1028 67 10000 4 330 15:37 15.10.2019
144 Clouds 16 1028 55 10000 5 360 15:19 15.10.2019
145 Clouds 16 1028 55 10000 5 360 14:38 15.10.2019
146 Clouds 16 1028 55 10000 5 10 14:20 15.10.2019
147 Clouds 16 1028 55 10000 5 10 13:59 15.10.2019
148 Clouds 16 1028 55 10000 5 10 13:40 15.10.2019
149 Clouds 16 1028 55 10000 5 20 13:20 15.10.2019
150 Clouds 17 1027 51 10000 6 10 12:44 15.10.2019
151 Clear 17 1027 51 10000 7 10 12:22 15.10.2019
152 Clear 17 1027 51 10000 7 360 11:58 15.10.2019
153 Clear 18 1027 45 10000 6 20 11:40 15.10.2019
154 Clear 18 1027 45 10000 6 20 11:19 15.10.2019
155 Clear 18 1027 48 10000 7 20 10:46 15.10.2019
156 Clear 18 1027 48 10000 7 20 10:23 15.10.2019
157 Clear 18 1027 45 10000 8 360 09:59 15.10.2019
158 Clear 19 1028 45 10000 7 10 09:40 15.10.2019
159 Clear 19 1028 45 10000 7 10 09:20 15.10.2019
160 Clear 20 1028 42 10000 8 20 08:57 15.10.2019
161 Clear 19 1028 48 10000 8 20 08:38 15.10.2019
162 Clear 19 1028 48 10000 8 20 08:18 15.10.2019
163 Clear 20 1028 45 10000 7 20 07:43 15.10.2019
164 Clear 20 1028 48 10000 8 10 07:21 15.10.2019
165 Clear 19 1029 45 10000 7 360 06:54 15.10.2019
166 Clouds 19 1029 52 10000 7 10 06:36 15.10.2019
167 Clouds 19 1030 52 10000 6 10 05:54 15.10.2019
168 Clouds 20 1030 52 10000 7 360 05:35 15.10.2019
169 Clouds 20 1030 52 10000 7 20 04:39 15.10.2019
170 Clouds 19 1030 52 10000 8 10 03:57 15.10.2019
171 Clouds 19 1030 52 10000 8 10 03:27 15.10.2019
172 Clouds 18 1030 59 10000 6 360 01:51 15.10.2019
173 Clouds 18 1030 63 10000 5 360 01:23 15.10.2019
174 Clear 17 1030 72 10000 5 360 00:52 15.10.2019
175 Clear 16 1029 72 10000 4 360 00:22 15.10.2019
176 Clear 16 1029 72 10000 4 360 23:46 14.10.2019
177 Clear 16 1029 67 10000 4 360 23:21 14.10.2019
178 Clouds 17 1029 67 10000 6 10 22:59 14.10.2019
179 Clouds 17 1029 67 10000 5 10 22:39 14.10.2019
180 Clouds 17 1029 67 10000 5 10 22:19 14.10.2019
181 Clouds 17 1029 67 10000 5 10 22:19 14.10.2019
182 Clouds 17 1029 67 10000 5 10 22:19 14.10.2019
183 Clouds 17 1029 72 10000 7 360 21:56 14.10.2019
184 Clouds 17 1029 72 10000 7 360 21:56 14.10.2019
185 Clouds 17 1029 67 10000 6 10 21:37 14.10.2019
186 Clouds 17 1029 67 10000 6 10 21:19 14.10.2019
187 Clear 17 1029 63 10000 6 10 20:55 14.10.2019
188 Clouds 17 1029 63 10000 7 10 20:37 14.10.2019
189 Clouds 17 1029 63 10000 7 10 20:18 14.10.2019
190 Clouds 17 1029 67 10000 5 20 19:42 14.10.2019
191 Clouds 17 1029 67 10000 5 20 19:23 14.10.2019
192 Clouds 18 1029 68 10000 6 30 18:59 14.10.2019
193 Clouds 18 1029 63 10000 7 30 18:39 14.10.2019
194 Clouds 18 1029 63 10000 8 30 18:19 14.10.2019
195 Clouds 18 1029 63 10000 8 30 18:19 14.10.2019
196 Clouds 18 1029 63 10000 8 30 18:19 14.10.2019
197 Clouds 18 1029 63 10000 8 30 17:57 14.10.2019
198 Clouds 18 1029 63 10000 8 30 17:57 14.10.2019
199 Clouds 18 1029 63 10000 8 20 17:38 14.10.2019
200 Clouds 18 1029 63 10000 8 20 17:20 14.10.2019
201 Clouds 18 1029 63 10000 8 30 16:44 14.10.2019
202 Clouds 18 1030 63 10000 8 30 16:21 14.10.2019
203 Clouds 19 1029 72 10000 7 30 15:44 14.10.2019
204 Rain 19 1029 72 10000 7 30 15:25 14.10.2019
205 Rain 19 1029 77 10000 7 20 14:58 14.10.2019
206 Clouds 19 1029 77 10000 7 10 14:39 14.10.2019
207 Clouds 20 1029 77 10000 7 10 14:20 14.10.2019
208 Clouds 19 1028 77 10000 7 20 13:44 14.10.2019
209 Clouds 20 1028 77 10000 8 20 13:21 14.10.2019
210 Clouds 20 1027 72 10000 9 20 12:55 14.10.2019
211 Clouds 20 1027 77 10000 9 20 12:37 14.10.2019
212 Clouds 20 1027 77 10000 9 20 12:18 14.10.2019
213 Rain 20 1027 88 8000 6 20 11:44 14.10.2019
214 Rain 20 1027 88 8000 6 20 11:26 14.10.2019
215 Rain 20 1027 88 8000 6 20 11:26 14.10.2019
216 Rain 20 1027 88 8000 6 30 10:57 14.10.2019
217 Rain 20 1027 88 7000 8 50 10:38 14.10.2019
218 Rain 19 1027 88 7000 8 50 10:19 14.10.2019
219 Clouds 21 1026 60 10000 6 40 09:42 14.10.2019
220 Clouds 22 1026 60 10000 6 40 09:21 14.10.2019
221 Clouds 22 1025 64 10000 8 30 08:51 14.10.2019
222 Clouds 22 1025 64 10000 5 20 08:23 14.10.2019
223 Clouds 23 1025 68 10000 7 30 07:59 14.10.2019
224 Clouds 23 1025 64 10000 7 10 07:39 14.10.2019
225 Clouds 24 1025 64 10000 7 10 07:18 14.10.2019
226 Clouds 24 1025 69 10000 7 10 06:29 14.10.2019
227 Clouds 23 1025 73 10000 8 20 05:57 14.10.2019
228 Clouds 24 1025 44 10000 4 40 05:29 14.10.2019
229 Clouds 24 1025 64 10000 4 360 04:34 14.10.2019
230 Clouds 24 1025 73 10000 4 10 03:26 14.10.2019
231 Clouds 24 1025 73 10000 4 10 03:26 14.10.2019
232 Clouds 23 1025 83 10000 4 360 02:32 14.10.2019
233 Clouds 23 1024 83 10000 4 360 01:21 14.10.2019
234 Clear 22 1023 88 10000 3 360 00:44 14.10.2019
235 Clear 21 1023 88 10000 3 360 00:19 14.10.2019
236 Clear 20 1023 88 10000 2 360 23:43 13.10.2019
237 Clear 21 1022 83 10000 2 20 23:20 13.10.2019
238 Clear 21 1022 88 10000 2 360 22:57 13.10.2019
239 Clear 21 1022 88 10000 1 10 22:39 13.10.2019
240 Clear 21 1022 88 10000 1 10 22:39 13.10.2019
241 Clear 21 1022 88 10000 1 10 22:20 13.10.2019
242 Clouds 21 1022 83 10000 1 0 21:57 13.10.2019
243 Clouds 21 1022 88 10000 2 10 21:36 13.10.2019
244 Clouds 21 1022 88 10000 2 10 21:18 13.10.2019
245 Clouds 21 1022 88 10000 3 350 20:56 13.10.2019
246 Clouds 21 1022 88 10000 3 350 20:56 13.10.2019
247 Clear 21 1022 83 10000 3 360 20:37 13.10.2019
248 Clear 21 1022 83 10000 3 360 20:19 13.10.2019
249 -273 0 0 0 0 0 19:55 13.10.2019
250 Rain 21 1022 83 10000 3 360 19:36 13.10.2019
251 Rain 21 1022 83 10000 3 360 19:18 13.10.2019
252 Clear 21 1022 83 10000 2 20 18:41 13.10.2019
253 Clear 21 1022 83 10000 2 20 18:21 13.10.2019
254 Clear 22 1022 83 10000 3 30 17:59 13.10.2019
255 Clear 22 1022 88 10000 3 20 17:41 13.10.2019
256 Clear 22 1022 88 10000 3 20 17:23 13.10.2019
257 Clear 22 1022 83 10000 3 350 16:44 13.10.2019
258 Clear 22 1022 83 10000 3 350 16:20 13.10.2019
259 Clear 22 1022 83 10000 3 350 16:20 13.10.2019
260 Clouds 22 1022 88 10000 1 0 15:58 13.10.2019
261 Clouds 22 1022 88 10000 1 0 15:58 13.10.2019
262 Clouds 22 1021 88 10000 2.33 40.313 15:39 13.10.2019
263 Clouds 22 1021 88 10000 3.78 59.002 15:21 13.10.2019
264 Rain 22 1021 88 10000 1 0 14:58 13.10.2019
265 Rain 22 1021 88 7000 4 360 14:39 13.10.2019
266 Rain 22 1021 88 7000 4 360 14:39 13.10.2019
267 Rain 22 1021 88 7000 4 360 14:21 13.10.2019
268 Clouds 22 1021 88 10000 2 160 13:56 13.10.2019
269 Clouds 22 1020 83 10000 2 150 13:37 13.10.2019
270 Clouds 22 1020 83 10000 2 150 13:18 13.10.2019
271 Clouds 22 1020 88 10000 4 150 12:55 13.10.2019
272 Clouds 22 1020 88 10000 4 150 12:55 13.10.2019
273 Rain 22 1020 88 10000 4 150 12:37 13.10.2019
274 Rain 23 1020 88 10000 4 150 12:18 13.10.2019
275 -273 0 0 0 0 0 11:55 13.10.2019
276 Rain 23 1020 88 10000 4 150 11:55 13.10.2019
277 Rain 24 1019 83 10000 4 150 11:36 13.10.2019
278 Rain 24 1019 83 10000 4 150 11:18 13.10.2019
279 Clouds 24 1019 64 10000 3 110 10:41 13.10.2019
280 Clouds 24 1019 64 10000 3 110 10:22 13.10.2019
281 Clouds 25 1018 57 10000 4 20 09:41 13.10.2019
282 Clouds 25 1018 57 10000 4 20 09:21 13.10.2019
283 Clear 25 1018 57 10000 4 10 08:57 13.10.2019
284 Clear 26 1018 54 10000 5 350 08:37 13.10.2019
285 Clear 26 1018 54 10000 5 350 08:18 13.10.2019
286 Clouds 26 1018 50 10000 2 0 07:45 13.10.2019
287 Clouds 26 1018 50 10000 2 0 07:45 13.10.2019
288 Clouds 25 1019 47 10000 3 30 06:58 13.10.2019
289 Clouds 26 1019 47 10000 2 0 06:31 13.10.2019
290 Clouds 25 1019 53 10000 3 360 05:34 13.10.2019
291 Clouds 25 1019 53 10000 3 360 05:34 13.10.2019
292 Clouds 27 1020 50 10000 2 0 04:46 13.10.2019
293 Clouds 24 1020 64 10000 2 30 03:39 13.10.2019
294 Clouds 23 1019 69 10000 4 50 02:35 13.10.2019
295 Clear 23 1019 73 10000 3 60 01:51 13.10.2019
296 Clear 21 1018 77 10000 2 40 01:21 13.10.2019
297 Clear 22 1018 82 10000 2 350 00:43 13.10.2019
298 Clear 21 1018 82 10000 2 350 00:20 13.10.2019
299 Clear 20 1018 82 10000 3 340 23:54 12.10.2019
300 Clear 20 1018 82 10000 3 340 23:54 12.10.2019
301 Clear 20 1017 82 10000 2 360 23:36 12.10.2019
302 Clear 20 1017 82 10000 2 360 23:36 12.10.2019
303 Clear 20 1017 82 10000 2 360 23:18 12.10.2019
304 Clear 21 1017 82 10000 1 10 22:54 12.10.2019
305 Clear 21 1017 82 10000 2 10 22:36 12.10.2019
306 Clear 21 1017 82 10000 2 10 22:18 12.10.2019
307 Clear 21 1017 82 10000 3 10 21:41 12.10.2019
308 Clear 21 1017 82 10000 3 10 21:23 12.10.2019
309 Clear 21 1017 77 10000 3 20 20:56 12.10.2019
310 Clear 21 1017 77 10000 3 30 20:38 12.10.2019
311 Clear 21 1017 77 10000 3 30 20:38 12.10.2019
312 Clear 21 1017 77 10000 3 30 20:20 12.10.2019
313 Clear 21 1017 77 10000 4 30 19:37 12.10.2019
314 Clear 21 1017 77 10000 4 30 19:18 12.10.2019
315 Clear 21 1017 77 10000 4 40 18:44 12.10.2019
316 Clear 21 1017 77 10000 4 20 18:26 12.10.2019
317 Clear 22 1017 73 10000 3 20 17:56 12.10.2019
318 Clear 22 1017 73 10000 3 20 17:56 12.10.2019
319 Clouds 22 1017 73 10000 4 10 17:37 12.10.2019
320 Clouds 22 1017 73 10000 4 10 17:18 12.10.2019
321 Clouds 22 1017 68 10000 4 30 16:40 12.10.2019
322 Clouds 22 1017 68 10000 4 30 16:21 12.10.2019
323 Clouds 22 1017 68 10000 4 40 15:57 12.10.2019
324 Clouds 22 1017 68 10000 4 40 15:57 12.10.2019
325 Clouds 22 1017 64 10000 5 40 15:38 12.10.2019
326 Clouds 22 1017 64 10000 5 40 15:18 12.10.2019
327 Clouds 22 1016 69 10000 6 10 14:40 12.10.2019
328 Clouds 22 1016 69 10000 6 10 14:20 12.10.2019
329 Clouds 23 1016 69 10000 5 10 13:51 12.10.2019
330 Clouds 23 1016 64 10000 6 30 13:32 12.10.2019
331 Clouds 23 1015 64 10000 4 30 12:56 12.10.2019
332 Clouds 23 1015 60 10000 6 20 12:38 12.10.2019
333 Clouds 24 1015 60 10000 6 20 12:20 12.10.2019
334 Clouds 23 1015 57 10000 5 10 11:45 12.10.2019
335 Clouds 24 1015 57 10000 7 30 11:24 12.10.2019
336 Clouds 25 1014 53 10000 6 20 10:58 12.10.2019
337 Clouds 24 1014 53 10000 5 20 10:39 12.10.2019
338 Clouds 25 1014 53 10000 5 20 10:20 12.10.2019
339 Clouds 25 1014 50 10000 6 360 09:57 12.10.2019
340 Clouds 25 1014 50 10000 6 360 09:57 12.10.2019
341 Clouds 25 1014 47 10000 6 10 09:38 12.10.2019
342 Clouds 26 1014 47 10000 6 10 09:19 12.10.2019
343 Clouds 26 1014 47 10000 6 10 09:19 12.10.2019
344 Clouds 26 1014 50 10000 6 10 08:44 12.10.2019
345 Clouds 27 1014 47 10000 6 350 08:24 12.10.2019
346 Clouds 27 1014 50 10000 6 10 07:50 12.10.2019
347 Clouds 25 1014 54 10000 5 350 07:30 12.10.2019
348 Clouds 25 1015 61 10000 7 10 06:27 12.10.2019
349 Clouds 25 1015 64 10000 5 360 05:42 12.10.2019
350 Clouds 25 1015 64 10000 5 10 04:34 12.10.2019
351 Clouds 25 1015 64 10000 5 10 03:53 12.10.2019
352 Clouds 23 1015 69 10000 5 20 02:45 12.10.2019
353 Clouds 23 1015 83 10000 3 10 01:32 12.10.2019
354 Clouds 22 1015 83 10000 4 10 00:55 12.10.2019
355 Clouds 22 1015 83 10000 4 10 00:55 12.10.2019
356 Clouds 21 1014 83 10000 4 10 00:37 12.10.2019
357 Clouds 21 1014 83 10000 5 20 23:55 11.10.2019
358 Clouds 21 1014 83 10000 4 360 23:36 11.10.2019
359 Clouds 21 1014 83 10000 4 360 23:36 11.10.2019
360 Clouds 21 1014 83 10000 4 360 23:18 11.10.2019
361 Clouds 21 1014 83 10000 4 360 23:18 11.10.2019
362 Clouds 21 1014 94 7000 2 360 22:37 11.10.2019
363 Clouds 21 1014 94 7000 2 360 22:18 11.10.2019
364 Rain 21 1014 94 4000 4 360 21:42 11.10.2019
365 Rain 21 1014 94 4000 4 360 21:21 11.10.2019
366 Clouds 21 1014 88 7000 5 10 20:55 11.10.2019
367 Clouds 21 1014 88 8000 4 10 20:37 11.10.2019
368 Clouds 21 1014 88 8000 4 10 20:18 11.10.2019
369 Clouds 21 1014 88 8000 3 360 19:55 11.10.2019
370 Clouds 21 1014 88 8000 2 350 19:36 11.10.2019
371 Clouds 22 1014 88 8000 2 350 19:18 11.10.2019
372 Clouds 21 1014 88 7000 3 10 18:39 11.10.2019
373 Clouds 21 1014 88 7000 3 10 18:19 11.10.2019
374 Clouds 21 1014 94 6000 2 30 17:59 11.10.2019
375 Clouds 22 1014 88 6000 4 10 17:38 11.10.2019
376 Clouds 22 1014 88 6000 4 10 17:20 11.10.2019
377 Clouds 22 1014 83 7000 3 360 16:59 11.10.2019
378 Clouds 21 1014 83 7000 4 360 16:39 11.10.2019
379 Clouds 21 1014 83 7000 4 360 16:19 11.10.2019
380 Clouds 22 1014 83 7000 3 360 15:57 11.10.2019
381 Clouds 22 1014 83 7000 3 360 15:37 11.10.2019
382 Clouds 22 1014 83 7000 3 360 15:18 11.10.2019
383 Clouds 21 1014 83 7000 4 10 14:43 11.10.2019
384 Clouds 21 1014 83 7000 4 10 14:43 11.10.2019
385 Clouds 21 1014 83 7000 4 10 14:23 11.10.2019
386 Rain 22 1014 83 7000 5 10 13:47 11.10.2019
387 Mist 22 1013 83 6000 5 10 13:26 11.10.2019
388 Mist 23 1013 78 6000 4 10 12:58 11.10.2019
389 Mist 23 1013 78 6000 5 10 12:40 11.10.2019
390 Mist 23 1013 78 6000 5 10 12:21 11.10.2019
391 Mist 23 1013 78 5000 5 360 11:59 11.10.2019
392 Mist 23 1013 78 5000 6 10 11:39 11.10.2019
393 Mist 23 1013 78 5000 6 10 11:21 11.10.2019
394 Mist 23 1013 83 5000 6 360 10:56 11.10.2019
395 Mist 24 1013 78 5000 5 360 10:37 11.10.2019
396 Mist 24 1013 78 5000 5 360 10:18 11.10.2019
397 Mist 24 1013 78 5000 5 360 10:18 11.10.2019
398 Mist 24 1012 78 5000 5 360 09:42 11.10.2019
399 Mist 24 1012 78 5000 5 360 09:21 11.10.2019
400 Clouds 25 1012 73 6000 5 360 08:59 11.10.2019
401 Clouds 25 1012 73 7000 5 360 08:39 11.10.2019
402 Clouds 25 1012 73 7000 5 360 08:39 11.10.2019
403 Clouds 26 1012 73 10000 4 10 08:20 11.10.2019
404 Clouds 26 1012 73 10000 4 10 07:54 11.10.2019
405 Clouds 26 1012 73 10000 5 340 07:34 11.10.2019
406 Clouds 26 1012 69 10000 4 340 06:50 11.10.2019
407 Clear 26 1013 73 10000 4 330 06:25 11.10.2019
408 Clear 26 1013 69 10000 3 340 05:48 11.10.2019
409 Clear 27 1013 69 10000 3 350 05:30 11.10.2019
410 Clear 27 1014 69 10000 4 330 04:58 11.10.2019
411 Clear 27 1014 65 10000 2 340 03:45 11.10.2019
412 Clear 24 1013 83 10000 1 0 01:28 11.10.2019
413 Clear 23 1013 83 10000 1.38 354.971 00:41 11.10.2019
414 Clear 22 1013 83 10000 0.23 319.808 00:20 11.10.2019
415 Clear 22 1013 83 10000 0.23 319.808 00:20 11.10.2019
416 Clear 22 1012 78 10000 2 140 23:41 10.10.2019
417 Clear 22 1012 78 10000 2 140 23:20 10.10.2019
418 Clear 22 1012 78 10000 1 0 22:56 10.10.2019
419 Clear 22 1012 78 10000 1 0 22:36 10.10.2019
420 Clear 22 1012 78 10000 1 0 22:18 10.10.2019
421 Clear 22 1012 78 10000 1 0 21:42 10.10.2019
422 Clear 22 1012 78 10000 1 0 21:22 10.10.2019
423 Clear 22 1012 78 10000 2 120 20:59 10.10.2019
424 Clear 22 1013 78 10000 2 140 20:40 10.10.2019
425 Clear 22 1013 78 10000 2 140 20:20 10.10.2019
426 Clear 22 1013 78 10000 2 150 19:57 10.10.2019
427 Clear 22 1013 78 10000 2 150 19:39 10.10.2019
428 Clear 22 1013 78 10000 2 150 19:19 10.10.2019
429 Clear 22 1013 78 10000 2 150 19:19 10.10.2019
430 Clear 22 1013 73 10000 3 150 18:42 10.10.2019
431 Clear 22 1013 73 10000 3 150 18:21 10.10.2019
432 Clear 22 1013 73 10000 4 150 17:59 10.10.2019
433 Clear 23 1014 73 10000 3 150 17:40 10.10.2019
434 Clear 23 1014 73 10000 3 150 17:18 10.10.2019
435 Clear 22 1014 73 10000 4 160 16:56 10.10.2019
436 Clear 22 1014 73 10000 4 150 16:37 10.10.2019
437 Clear 22 1014 73 10000 4 150 16:18 10.10.2019
438 Clear 23 1013 73 10000 4 140 15:40 10.10.2019
439 Clear 23 1013 73 10000 4 140 15:22 10.10.2019
440 Clear 23 1014 73 10000 4 150 14:57 10.10.2019
441 Clear 23 1013 73 10000 4 150 14:37 10.10.2019
442 Clear 22 1013 73 10000 4 150 14:19 10.10.2019
443 Clear 23 1013 69 10000 4 150 13:55 10.10.2019
444 Clear 23 1013 69 10000 4 150 13:37 10.10.2019
445 Clear 23 1013 69 10000 4 150 13:18 10.10.2019
446 Clear 24 1012 65 10000 4 160 12:42 10.10.2019
447 Clear 25 1012 65 10000 4 160 12:21 10.10.2019
448 Clear 26 1012 61 10000 4 200 11:58 10.10.2019
449 Clear 26 1012 61 10000 3 190 11:39 10.10.2019
450 Clear 26 1012 61 10000 3 190 11:19 10.10.2019
451 Clear 26 1012 61 10000 3 200 10:46 10.10.2019
452 Clear 27 1012 54 10000 3 190 10:27 10.10.2019
453 Clear 27 1012 54 10000 4 160 09:58 10.10.2019
454 Clear 27 1012 54 10000 4 150 09:40 10.10.2019
455 Clear 27 1012 54 10000 4 150 09:22 10.10.2019
456 Clear 27 1012 54 10000 4 190 08:58 10.10.2019
457 Clouds 27 1012 54 10000 3 230 08:38 10.10.2019
458 Clouds 27 1012 54 10000 3 230 08:38 10.10.2019
459 Clouds 27 1012 54 10000 3 230 08:19 10.10.2019
460 Clouds 27 1012 54 10000 3 190 07:45 10.10.2019
461 Clouds 27 1012 54 10000 3 190 07:23 10.10.2019
462 Clouds 27 1012 54 10000 3 220 06:49 10.10.2019
463 Clouds 27 1012 54 10000 3 220 06:49 10.10.2019
464 Clouds 27 1013 57 10000 2 190 06:29 10.10.2019
465 Clear 26 1014 54 10000 4 180 05:28 10.10.2019
466 Clear 28 1014 57 10000 4 170 04:54 10.10.2019
467 Clear 28 1015 57 10000 4 160 04:33 10.10.2019
468 Clear 24 1015 68 10000 2 150 01:46 10.10.2019
469 Clear 24 1015 68 10000 2 150 01:46 10.10.2019
470 Clear 23 1015 73 10000 3 150 01:26 10.10.2019
471 Clear 23 1014 68 10000 3 140 01:00 10.10.2019
472 Clear 20 1014 72 10000 3 140 00:23 10.10.2019
473 Clear 20 1014 72 10000 3 140 23:40 09.10.2019
474 Clear 20 1014 72 10000 3 140 23:22 09.10.2019
475 Clear 20 1014 72 10000 3 140 22:59 09.10.2019
476 Clear 20 1014 68 10000 2 130 22:40 09.10.2019
477 Clear 20 1014 68 10000 2 130 22:22 09.10.2019
478 Clear 20 1015 68 10000 2 140 21:41 09.10.2019
479 Clear 20 1015 68 10000 2 140 21:21 09.10.2019
480 Clear 20 1015 68 10000 2 140 20:56 09.10.2019
481 Clear 20 1015 64 10000 3 130 20:38 09.10.2019
482 Clear 20 1015 64 10000 3 130 20:19 09.10.2019
483 Clear 20 1015 64 10000 3 130 20:19 09.10.2019
484 Clear 20 1015 64 10000 3 130 20:19 09.10.2019
485 Clear 21 1015 64 10000 3 130 19:58 09.10.2019
486 Clear 21 1016 64 10000 3 130 19:40 09.10.2019
487 Clear 21 1016 64 10000 3 130 19:21 09.10.2019
488 Clear 21 1016 60 10000 3 140 18:38 09.10.2019
489 Clear 21 1016 60 10000 3 140 18:20 09.10.2019
490 Clear 21 1016 60 10000 3 140 17:57 09.10.2019
491 Clear 21 1016 60 10000 3 130 17:37 09.10.2019
492 Clear 21 1016 60 10000 3 130 17:19 09.10.2019
493 Clear 21 1017 60 10000 3 140 16:55 09.10.2019
494 Clear 21 1017 60 10000 3 140 16:36 09.10.2019
495 Clear 21 1017 60 10000 3 140 16:18 09.10.2019
496 Clear 21 1017 60 10000 3 140 15:55 09.10.2019
497 Clear 21 1017 60 10000 3 140 15:55 09.10.2019
498 Clear 21 1017 60 10000 2 130 15:36 09.10.2019
499 Clear 21 1017 60 10000 2 130 15:36 09.10.2019
500 Clear 21 1017 60 10000 2 130 15:18 09.10.2019
501 Clear 21 1017 60 10000 2 130 15:18 09.10.2019
502 Clear 21 1017 60 10000 5 110 14:41 09.10.2019
503 Clear 21 1017 60 10000 5 110 14:18 09.10.2019
504 Clear 21 1017 56 10000 5 110 13:40 09.10.2019
505 Clear 21 1017 56 10000 5 110 13:22 09.10.2019
506 Clear 21 1017 56 10000 5 110 13:22 09.10.2019
507 Clear 21 1017 56 10000 4 120 12:59 09.10.2019
508 Clouds 21 1016 60 10000 4 120 12:41 09.10.2019
509 Clouds 22 1016 60 10000 4 120 12:22 09.10.2019
510 Clouds 22 1016 60 10000 4 140 11:57 09.10.2019
511 Clouds 22 1016 56 10000 3 150 11:37 09.10.2019
512 Clouds 22 1016 56 10000 3 150 11:37 09.10.2019
513 Clouds 23 1016 56 10000 3 150 11:19 09.10.2019
514 Clouds 22 1016 56 10000 3 100 10:45 09.10.2019
515 Clouds 23 1016 56 10000 3 120 10:22 09.10.2019
516 Clouds 23 1016 56 10000 4 110 09:59 09.10.2019
517 Clouds 23 1016 56 10000 3 100 09:41 09.10.2019
518 Clouds 23 1016 56 10000 3 100 09:41 09.10.2019
519 Clouds 23 1016 56 10000 3 100 09:19 09.10.2019
520 Clouds 23 1017 57 10000 5 80 08:43 09.10.2019
521 Clouds 23 1017 56 10000 3 90 08:23 09.10.2019
522 Clouds 23 1017 53 10000 2 140 07:59 09.10.2019
523 Clouds 24 1017 53 10000 3 100 07:39 09.10.2019
524 Clouds 24 1017 53 10000 3 100 07:21 09.10.2019
525 Clouds 24 1018 53 10000 4 100 06:51 09.10.2019
526 Clouds 23 1019 57 10000 3 70 05:56 09.10.2019
527 Clouds 23 1019 60 10000 4 90 05:37 09.10.2019
528 Clouds 25 1020 64 10000 3 90 04:25 09.10.2019
529 Clear 22 1021 73 10000 3 60 02:52 09.10.2019
530 Mist 22 1021 82 4000 2 10 01:43 09.10.2019
531 Mist 21 1021 82 4000 1 10 01:20 09.10.2019
532 Mist 21 1021 82 5000 2 360 00:57 09.10.2019
533 Mist 20 1021 82 5000 1 360 00:38 09.10.2019
534 Mist 18 1021 82 5000 1 360 00:20 09.10.2019
535 Mist 18 1021 82 5000 1 330 23:39 08.10.2019
536 Mist 18 1021 82 5000 1 330 23:19 08.10.2019
537 Mist 18 1020 88 5000 1 350 22:56 08.10.2019
538 Mist 17 1020 88 5000 1 330 22:38 08.10.2019
539 Mist 18 1020 88 5000 1 330 22:19 08.10.2019
540 Mist 17 1020 82 5000 1 340 21:57 08.10.2019
541 Mist 18 1021 88 5000 1 330 21:39 08.10.2019
542 Mist 18 1021 88 5000 1 330 21:19 08.10.2019
543 Mist 18 1021 88 5000 1 330 21:19 08.10.2019
544 Mist 17 1021 82 4000 1 0 20:56 08.10.2019
545 Mist 18 1021 82 4000 1 350 20:37 08.10.2019
546 Mist 18 1021 82 4000 1 350 20:19 08.10.2019
547 Mist 18 1021 82 4000 1 340 19:56 08.10.2019
548 Mist 18 1021 82 4000 1 340 19:37 08.10.2019
549 Mist 18 1021 82 4000 1 340 19:18 08.10.2019
550 Mist 18 1021 82 4200 2 330 18:45 08.10.2019
551 Mist 18 1022 82 4500 3 330 18:25 08.10.2019
552 Mist 19 1022 77 4500 3 340 17:58 08.10.2019
553 Mist 19 1022 77 4500 4 340 17:39 08.10.2019
554 Mist 18 1022 77 4500 4 340 17:20 08.10.2019
555 Mist 19 1022 77 4500 3 340 16:56 08.10.2019
556 Mist 19 1022 77 4500 3 340 16:56 08.10.2019
557 Mist 19 1022 77 5000 3 340 16:37 08.10.2019
558 Mist 19 1022 77 5000 3 340 16:18 08.10.2019
559 Mist 19 1023 72 6000 3 350 15:39 08.10.2019
560 Mist 19 1023 72 6000 3 350 15:39 08.10.2019
561 Mist 19 1023 72 6000 3 350 15:20 08.10.2019
562 Clouds 19 1023 72 6000 3 340 14:56 08.10.2019
563 Clouds 19 1023 77 6000 3 340 14:38 08.10.2019
564 Clouds 19 1023 77 6000 3 340 14:19 08.10.2019
565 Clouds 19 1022 72 6000 4 340 13:55 08.10.2019
566 Clouds 19 1022 72 6000 3 330 13:37 08.10.2019
567 Clouds 19 1022 72 6000 3 330 13:18 08.10.2019
568 Clouds 19 1022 72 6000 3 330 13:18 08.10.2019
569 Clouds 19 1022 72 6000 3 330 13:18 08.10.2019
570 Clouds 19 1022 72 6000 3 330 13:18 08.10.2019
571 Clouds 19 1022 77 6000 3 320 12:41 08.10.2019
572 Clouds 19 1022 77 6000 3 320 12:20 08.10.2019
573 Mist 19 1022 77 8000 3 330 11:57 08.10.2019
574 Mist 19 1022 77 8000 3 330 11:57 08.10.2019
575 Rain 19 1022 77 10000 4 350 11:38 08.10.2019
576 Rain 19 1022 77 10000 4 350 11:20 08.10.2019
577 Clouds 20 1022 68 10000 4 360 10:42 08.10.2019
578 Clouds 20 1022 68 10000 4 360 10:23 08.10.2019
579 Clouds 20 1021 68 10000 5 10 09:59 08.10.2019
580 Clouds 20 1021 68 10000 5 10 09:40 08.10.2019
581 Clouds 20 1021 68 10000 5 10 09:40 08.10.2019
582 Clouds 21 1021 68 10000 5 10 09:21 08.10.2019
583 Clouds 21 1021 64 10000 4 360 08:45 08.10.2019
584 Clouds 21 1021 64 10000 4 360 08:25 08.10.2019
585 Clouds 21 1021 64 10000 4 360 07:47 08.10.2019
586 Clouds 22 1022 56 10000 3 310 07:23 08.10.2019
587 Clouds 22 1022 64 10000 3 340 06:57 08.10.2019
588 Clouds 22 1022 64 10000 3 360 06:35 08.10.2019
589 Clear 22 1022 64 10000 5 350 05:58 08.10.2019
590 Clear 22 1022 64 10000 5 350 05:58 08.10.2019
591 Clear 20 1022 64 10000 3 10 05:38 08.10.2019
592 Clear 20 1022 64 10000 3 10 05:38 08.10.2019
593 Clear 22 1023 64 10000 4 330 04:42 08.10.2019
594 Clouds 21 1023 63 10000 5 330 03:30 08.10.2019
595 Clouds 18 1022 68 10000 5 330 02:40 08.10.2019
596 Clouds 18 1022 72 10000 5 330 01:49 08.10.2019
597 Clouds 19 1022 72 10000 6 330 01:31 08.10.2019
598 Clouds 19 1022 72 10000 6 330 01:31 08.10.2019
599 Clouds 18 1021 72 10000 5 330 00:51 08.10.2019
600 Clouds 18 1021 77 10000 4 340 00:22 08.10.2019
601 Clouds 18 1021 77 10000 4 330 23:42 07.10.2019
602 Clouds 18 1021 77 10000 4 330 23:21 07.10.2019
603 Clouds 18 1020 77 10000 5 330 22:58 07.10.2019
604 Clouds 18 1020 77 10000 4 330 22:40 07.10.2019
605 Clouds 18 1020 77 10000 4 330 22:20 07.10.2019
606 Clouds 18 1020 72 10000 4 320 21:57 07.10.2019
607 Clouds 18 1020 77 10000 5 330 21:39 07.10.2019
608 Clouds 18 1020 77 10000 5 330 21:20 07.10.2019
609 Clouds 18 1020 72 10000 4 320 20:58 07.10.2019
610 Clouds 18 1020 72 10000 5 320 20:39 07.10.2019
611 Clouds 19 1020 72 10000 5 320 20:20 07.10.2019
612 Clouds 19 1020 77 10000 4 340 19:58 07.10.2019
613 Clouds 19 1020 77 10000 5 350 19:40 07.10.2019
614 Clouds 18 1020 77 10000 5 350 19:19 07.10.2019
615 Clouds 19 1020 77 10000 5 330 18:56 07.10.2019
616 Clouds 18 1020 77 10000 5 330 18:56 07.10.2019
617 Clouds 19 1020 77 10000 5 330 18:38 07.10.2019
618 Clouds 19 1020 77 10000 5 330 18:18 07.10.2019
619 Clouds 19 1020 77 10000 7 330 17:43 07.10.2019
620 Clouds 19 1020 77 10000 6 340 17:20 07.10.2019
621 Clouds 19 1021 77 10000 6 340 16:56 07.10.2019
622 Clouds 19 1021 77 10000 5 340 16:38 07.10.2019
623 Clouds 19 1021 77 10000 5 340 16:19 07.10.2019
624 Clouds 20 1020 77 10000 6 330 15:43 07.10.2019
625 Clouds 20 1020 77 10000 6 330 15:25 07.10.2019
626 Clouds 20 1020 77 8000 6 330 14:42 07.10.2019
627 -273 0 0 0 0 0 14:24 07.10.2019
628 Clouds 21 1020 77 8000 6 330 14:24 07.10.2019
629 Clouds 20 1020 77 7000 5 330 13:59 07.10.2019
630 Clouds 20 1020 77 7000 5 330 13:59 07.10.2019
631 Clouds 21 1020 77 6000 6 330 13:40 07.10.2019
632 Clouds 21 1020 77 6000 6 330 13:19 07.10.2019
633 Clouds 21 1019 77 6000 5 340 12:55 07.10.2019
634 Clouds 21 1019 77 6000 5 340 12:55 07.10.2019
635 Clouds 21 1019 77 6000 5 330 12:36 07.10.2019
636 Clouds 22 1019 77 6000 5 330 12:18 07.10.2019
637 Mist 22 1019 77 6000 5 330 11:56 07.10.2019
638 Mist 22 1019 73 6000 5 330 11:36 07.10.2019
639 Mist 22 1019 73 6000 5 330 11:18 07.10.2019
640 Clouds 22 1019 73 7000 5 320 10:40 07.10.2019
641 Clouds 22 1019 73 7000 5 320 10:20 07.10.2019
642 Clouds 23 1018 78 8000 4 340 09:42 07.10.2019
643 Clouds 23 1018 78 8000 4 340 09:23 07.10.2019
644 Clouds 23 1018 78 8000 6 330 08:56 07.10.2019
645 Clouds 24 1018 73 10000 5 320 08:37 07.10.2019
646 Clouds 24 1018 73 10000 5 320 08:18 07.10.2019
647 Clouds 24 1018 73 10000 5 330 07:40 07.10.2019
648 Clouds 25 1018 73 10000 5 330 07:20 07.10.2019
649 Clouds 25 1018 69 10000 4 310 06:44 07.10.2019
650 Clouds 25 1018 69 10000 4 310 06:23 07.10.2019
651 Clouds 25 1019 69 10000 4 290 05:30 07.10.2019
652 Clouds 25 1019 69 10000 3 280 04:58 07.10.2019
653 Clouds 25 1019 73 10000 2 290 04:20 07.10.2019
654 Clouds 25 1019 73 10000 2 290 03:44 07.10.2019
655 Clouds 23 1019 73 10000 1 0 03:18 07.10.2019
656 Clouds 22 1019 73 10000 1 0 02:20 07.10.2019
657 Clouds 22 1019 73 10000 0.83 4.889 01:42 07.10.2019
658 Clouds 23 1019 73 10000 0.96 354.474 01:18 07.10.2019
659 Clear 21 1018 73 10000 3 160 00:38 07.10.2019
660 Clear 21 1018 73 10000 3 160 00:19 07.10.2019
661 Clear 21 1018 73 10000 2 150 23:42 06.10.2019
662 Clear 21 1018 73 10000 2 150 23:21 06.10.2019
663 Clear 21 1018 73 10000 2 140 22:58 06.10.2019
664 Clear 20 1018 73 10000 1 110 22:39 06.10.2019
665 Clear 20 1018 73 10000 1 110 22:21 06.10.2019
666 Clear 20 1018 68 10000 2 70 21:56 06.10.2019
667 Clear 20 1018 68 10000 2 130 21:37 06.10.2019
668 Clear 20 1018 68 10000 2 130 21:19 06.10.2019
669 Clear 20 1018 68 10000 2 140 20:56 06.10.2019
670 Clear 20 1018 68 10000 2 130 20:38 06.10.2019
671 Clear 20 1018 68 10000 2 130 20:38 06.10.2019
672 Clear 20 1018 68 10000 2 130 20:19 06.10.2019
673 Clear 20 1018 68 10000 2 130 20:19 06.10.2019
674 Clear 20 1019 68 10000 1 0 19:56 06.10.2019
675 Clear 20 1019 68 10000 2 130 19:36 06.10.2019
676 Clear 20 1019 68 10000 2 130 19:18 06.10.2019
677 Clear 21 1019 68 10000 3 150 18:55 06.10.2019
678 Clear 21 1019 68 10000 3 140 18:37 06.10.2019
679 Clear 21 1020 68 10000 3 150 18:18 06.10.2019
680 Clear 21 1020 68 10000 3 150 18:18 06.10.2019
681 Clear 21 1020 68 10000 3 150 18:18 06.10.2019
682 Clear 21 1020 68 10000 3 150 18:18 06.10.2019
683 Clear 21 1020 68 10000 2 130 17:43 06.10.2019
684 Clear 21 1020 68 10000 2 130 17:20 06.10.2019
685 Clear 21 1020 64 10000 4 140 16:56 06.10.2019
686 Clear 21 1020 64 10000 4 140 16:56 06.10.2019
687 Clear 21 1020 64 10000 3 120 16:37 06.10.2019
688 Clear 21 1020 64 10000 3 120 16:18 06.10.2019
689 Clear 22 1020 64 10000 2 100 15:43 06.10.2019
690 Clear 22 1020 64 10000 2 100 15:21 06.10.2019
691 Clear 21 1020 64 10000 3 130 14:44 06.10.2019
692 Clear 21 1020 64 10000 3 130 14:26 06.10.2019
693 Clear 22 1020 60 10000 3 130 13:59 06.10.2019
694 Clear 22 1020 60 10000 3 110 13:40 06.10.2019
695 Clear 22 1020 60 10000 3 110 13:22 06.10.2019
696 Clear 22 1019 60 10000 4 120 12:59 06.10.2019
697 Clear 22 1019 60 10000 4 120 12:40 06.10.2019
698 Clear 23 1019 60 10000 4 120 12:21 06.10.2019
699 Clear 23 1020 57 10000 2 140 11:59 06.10.2019
700 Clear 23 1019 57 10000 3 150 11:40 06.10.2019
701 Clear 24 1019 57 10000 3 150 11:21 06.10.2019
702 Clear 23 1019 53 10000 3 160 10:54 06.10.2019
703 Clear 24 1019 50 10000 2 150 10:36 06.10.2019
704 Clear 24 1019 50 10000 2 150 10:18 06.10.2019
705 Clear 24 1019 50 10000 1 0 09:41 06.10.2019
706 Clear 25 1019 50 10000 1 0 09:19 06.10.2019
707 Clear 24 1019 50 10000 2 0 08:47 06.10.2019
708 Clear 24 1019 50 10000 2 10 08:21 06.10.2019
709 Clear 24 1020 53 10000 2 40 07:57 06.10.2019
710 Clear 24 1020 50 10000 1 0 07:38 06.10.2019
711 Clouds 24 1021 50 10000 2 0 06:39 06.10.2019
712 Clouds 24 1022 60 10000 2 70 05:35 06.10.2019
713 Clouds 23 1023 60 10000 2 0 04:27 06.10.2019
714 Clouds 22 1022 60 10000 3 60 02:47 06.10.2019
715 Clear 22 1022 60 10000 3 80 02:27 06.10.2019
716 Clear 22 1022 64 10000 4 40 01:46 06.10.2019
717 Clear 21 1022 64 10000 4 40 01:27 06.10.2019
718 Clear 21 1022 68 10000 4 40 00:59 06.10.2019
719 Clear 21 1022 68 10000 5 30 00:29 06.10.2019
720 Clear 20 1021 68 10000 4 30 23:45 05.10.2019
721 Clear 20 1021 68 10000 3 30 23:23 05.10.2019
722 Clear 20 1021 68 10000 5 30 22:59 05.10.2019
723 Clear 20 1021 68 10000 5 30 22:40 05.10.2019
724 Clear 20 1021 68 10000 5 30 22:20 05.10.2019
725 Clear 20 1021 68 10000 5 30 21:57 05.10.2019
726 Clear 20 1021 68 10000 3 30 21:39 05.10.2019
727 Clear 20 1021 68 10000 3 30 21:39 05.10.2019
728 Clear 20 1021 68 10000 3 30 21:20 05.10.2019
729 Clear 20 1021 68 10000 4 30 20:56 05.10.2019
730 Clear 20 1021 68 10000 3 30 20:38 05.10.2019
731 Clear 20 1021 68 10000 3 30 20:19 05.10.2019
732 Clear 20 1021 68 10000 3 30 20:19 05.10.2019
733 Clear 20 1021 68 10000 5 30 19:38 05.10.2019
734 Clear 20 1021 68 10000 5 30 19:19 05.10.2019
735 Clouds 20 1022 68 10000 5 30 18:56 05.10.2019
736 Clouds 20 1022 64 10000 4 30 18:37 05.10.2019
737 Clouds 20 1022 64 10000 4 30 18:19 05.10.2019
738 Clouds 21 1022 68 10000 5 30 17:43 05.10.2019
739 Clouds 21 1022 68 10000 6 40 17:25 05.10.2019
740 Clouds 21 1022 68 10000 6 40 16:58 05.10.2019
741 Clouds 21 1022 68 10000 6 40 16:40 05.10.2019
742 Clouds 21 1022 68 10000 6 40 16:21 05.10.2019
743 Clouds 21 1022 68 10000 6 20 15:57 05.10.2019
744 Clouds 21 1022 73 10000 6 20 15:38 05.10.2019
745 Clouds 22 1021 73 10000 6 20 15:20 05.10.2019
746 Clouds 22 1021 73 10000 6 20 14:44 05.10.2019
747 Clouds 22 1021 73 10000 6 20 14:25 05.10.2019
748 Clouds 22 1021 73 10000 6 20 13:58 05.10.2019
749 Clouds 21 1020 77 10000 5 40 13:40 05.10.2019
750 Clouds 21 1020 77 10000 5 40 13:19 05.10.2019
751 Clouds 22 1020 73 10000 7 20 12:43 05.10.2019
752 Clouds 22 1020 73 10000 6 30 12:19 05.10.2019
753 Clouds 22 1019 78 10000 6 30 11:43 05.10.2019
754 Rain 22 1019 78 10000 6 30 11:21 05.10.2019
755 Rain 22 1019 78 10000 6 30 10:58 05.10.2019
756 Clouds 22 1019 83 10000 5 30 10:39 05.10.2019
757 Clouds 22 1019 83 10000 5 30 10:21 05.10.2019
758 Clouds 22 1019 88 10000 3 40 09:45 05.10.2019
759 Rain 22 1019 88 7000 4 30 09:23 05.10.2019
760 Rain 22 1019 88 7000 6 40 08:56 05.10.2019
761 Rain 22 1019 83 10000 8 10 08:38 05.10.2019
762 Rain 23 1019 83 10000 8 10 08:18 05.10.2019
763 Rain 22 1019 83 10000 8 20 07:46 05.10.2019
764 Rain 22 1019 83 10000 8 20 07:28 05.10.2019
765 Rain 23 1019 69 10000 8 40 06:56 05.10.2019
766 Clouds 24 1018 65 10000 8 50 06:22 05.10.2019
767 Clouds 25 1019 61 10000 5 30 05:20 05.10.2019
768 Clear 25 1018 61 10000 6 40 03:32 05.10.2019
769 Clear 24 1018 60 10000 5 30 02:29 05.10.2019
770 Clear 23 1017 78 10000 4 30 01:27 05.10.2019
771 Clouds 23 1017 83 10000 5 30 00:49 05.10.2019
772 Clouds 23 1016 83 10000 5 30 00:27 05.10.2019
773 Clouds 22 1016 83 10000 6 40 23:57 04.10.2019
774 Clouds 23 1015 88 10000 6 20 23:39 04.10.2019
775 Clouds 23 1015 88 10000 6 20 23:21 04.10.2019
776 Clouds 23 1015 83 10000 5 20 22:43 04.10.2019
777 Clouds 23 1015 83 10000 5 20 22:24 04.10.2019
778 Clouds 23 1015 88 10000 3 20 21:59 04.10.2019
779 Clouds 23 1015 88 10000 4 40 21:40 04.10.2019
780 Clouds 24 1015 88 10000 4 40 21:22 04.10.2019
781 Clouds 24 1015 88 10000 3 40 20:58 04.10.2019
782 Clouds 24 1015 88 10000 3 60 20:40 04.10.2019
783 Clouds 24 1015 88 10000 3 60 20:21 04.10.2019
784 Clouds 24 1015 88 10000 2 70 19:55 04.10.2019
785 Clouds 24 1014 83 10000 2 70 19:37 04.10.2019
786 Clouds 24 1014 83 10000 2 70 19:19 04.10.2019
787 Clouds 24 1015 83 10000 3 70 18:40 04.10.2019
788 Clouds 24 1015 83 10000 3 70 18:20 04.10.2019
789 Clear 24 1015 83 10000 3 80 17:59 04.10.2019
790 Clear 24 1014 83 10000 3 70 17:39 04.10.2019
791 Clear 25 1014 83 10000 3 70 17:21 04.10.2019
792 Clear 25 1014 83 10000 3 80 16:55 04.10.2019
793 Clear 25 1014 83 10000 4 70 16:37 04.10.2019
794 Clear 25 1014 83 10000 4 70 16:18 04.10.2019
795 -273 0 0 0 0 0 15:55 04.10.2019
796 Clouds 25 1014 78 10000 3 80 15:37 04.10.2019
797 Clouds 25 1014 78 10000 3 80 15:19 04.10.2019
798 Clouds 25 1014 78 10000 4 70 14:54 04.10.2019
799 Clouds 25 1013 78 10000 3 80 14:36 04.10.2019
800 Clouds 25 1013 78 10000 3 80 14:18 04.10.2019
801 Clouds 26 1013 74 10000 3 90 13:42 04.10.2019
802 Clouds 26 1013 74 10000 3 90 13:19 04.10.2019
803 Clear 26 1012 69 10000 4 80 12:46 04.10.2019
804 Clear 26 1013 74 10000 4 80 12:46 04.10.2019
805 Clear 26 1012 69 10000 4 80 12:27 04.10.2019
806 Clear 27 1012 65 10000 4 90 11:57 04.10.2019
807 Clouds 26 1011 65 10000 4 90 11:38 04.10.2019
808 Clouds 27 1011 65 10000 4 90 11:19 04.10.2019
809 Clouds 27 1011 58 10000 4 80 10:39 04.10.2019
810 Clouds 29 1011 58 10000 4 80 10:20 04.10.2019
811 Clouds 29 1011 58 10000 4 70 09:45 04.10.2019
812 Clouds 29 1011 58 10000 5 70 09:27 04.10.2019
813 Clouds 30 1011 52 10000 3 60 08:56 04.10.2019
814 Clouds 30 1011 55 10000 4 60 08:37 04.10.2019
815 Clouds 30 1011 55 10000 4 60 08:19 04.10.2019
816 Clouds 31 1011 52 10000 2 50 07:43 04.10.2019
817 Clouds 31 1011 52 10000 2 50 07:21 04.10.2019
818 Clouds 31 1012 62 10000 3 80 06:41 04.10.2019
819 Clouds 29 1012 58 10000 3 110 06:23 04.10.2019
820 Clouds 29 1013 66 10000 3 110 05:24 04.10.2019
821 Clouds 31 1013 69 10000 4 110 04:56 04.10.2019
822 Clouds 29 1013 83 7000 3 140 03:43 04.10.2019
823 Clouds 25 1013 88 8000 2 120 02:53 04.10.2019
824 Mist 26 1013 94 6000 2 130 01:55 04.10.2019
825 Mist 26 1013 94 5000 2 120 01:29 04.10.2019
826 Mist 25 1012 100 4000 2 100 00:50 04.10.2019
827 Mist 24 1012 94 5000 1 90 23:54 03.10.2019
828 Fog 24 1012 94 6000 1 70 23:36 03.10.2019
829 Fog 23 1012 94 6000 1 70 23:18 03.10.2019
830 Mist 23 1012 94 7000 1 0 22:54 03.10.2019
831 Mist 23 1011 88 8000 1 110 22:36 03.10.2019
832 Mist 24 1011 88 8000 1 110 22:18 03.10.2019
833 Mist 23 1012 88 10000 1 0 21:41 03.10.2019
834 Mist 23 1012 88 10000 1 0 21:21 03.10.2019
835 Mist 23 1012 88 10000 1 0 20:59 03.10.2019
836 Mist 23 1012 94 10000 2 130 20:41 03.10.2019
837 Mist 24 1012 94 10000 2 130 20:23 03.10.2019
838 Clear 23 1012 88 10000 3 130 19:59 03.10.2019
839 Clear 24 1012 88 10000 3 120 19:41 03.10.2019
840 Clear 24 1012 88 10000 3 120 19:22 03.10.2019
841 Clear 24 1013 88 10000 3 130 18:57 03.10.2019
842 Clear 24 1013 88 10000 3 120 18:38 03.10.2019
843 Clear 24 1013 88 10000 3 120 18:38 03.10.2019
844 Clear 24 1013 88 10000 3 120 18:19 03.10.2019
845 Clear 24 1013 83 10000 3 120 17:43 03.10.2019
846 Clear 24 1013 83 10000 3 120 17:23 03.10.2019
847 Clear 24 1013 78 10000 3 130 16:58 03.10.2019
848 Clear 24 1013 78 10000 3 120 16:40 03.10.2019
849 Clear 24 1013 78 10000 3 120 16:21 03.10.2019
850 Clear 24 1013 78 10000 3 130 15:54 03.10.2019
851 Clear 24 1013 73 10000 4 120 15:36 03.10.2019
852 Clear 25 1013 73 10000 4 120 15:18 03.10.2019
853 Clear 25 1012 74 10000 4 120 14:39 03.10.2019
854 Clear 25 1012 74 10000 4 120 14:20 03.10.2019
855 Clear 25 1012 69 10000 3 150 13:55 03.10.2019
856 Clear 25 1012 74 10000 3 150 13:36 03.10.2019
857 Clear 26 1012 65 10000 3 150 13:18 03.10.2019
858 Clear 26 1011 65 10000 3 140 12:40 03.10.2019
859 Clear 26 1011 65 10000 3 140 12:20 03.10.2019
860 Clear 27 1011 61 10000 4 110 11:59 03.10.2019
861 Clear 27 1011 61 10000 4 110 11:59 03.10.2019
862 Clear 27 1011 61 10000 4 110 11:40 03.10.2019
863 Clear 27 1011 61 10000 4 110 11:21 03.10.2019
864 Clear 28 1011 62 10000 4 90 10:58 03.10.2019
865 Clouds 28 1011 62 10000 5 70 10:39 03.10.2019
866 Clouds 29 1011 62 10000 5 70 10:18 03.10.2019
867 Clouds 29 1011 62 10000 5 70 10:18 03.10.2019
868 Clouds 28 1010 58 10000 5 90 09:56 03.10.2019
869 Clouds 29 1010 52 10000 2 240 09:38 03.10.2019
870 Clouds 29 1010 52 10000 2 240 09:19 03.10.2019
871 Clouds 29 1011 48 10000 2 0 08:43 03.10.2019
872 Clouds 29 1011 48 10000 2 0 08:43 03.10.2019
873 Clouds 29 1011 48 10000 2 0 08:25 03.10.2019
874 Clouds 29 1011 48 10000 2 220 07:45 03.10.2019
875 Clouds 30 1011 55 10000 3 240 07:20 03.10.2019
876 Clouds 30 1011 52 10000 3 240 06:56 03.10.2019
877 Clouds 30 1012 51 10000 2 180 06:27 03.10.2019
878 Clouds 29 1012 58 10000 2 0 05:49 03.10.2019
879 Clouds 29 1013 62 10000 2 230 05:29 03.10.2019
880 Clouds 29 1013 58 10000 2 0 04:45 03.10.2019
881 Clear 30 1013 61 10000 2 0 03:55 03.10.2019
882 Clear 27 1014 69 10000 2 210 03:19 03.10.2019
883 Clear 24 1014 83 10000 3 190 02:27 03.10.2019
884 Clear 25 1013 94 10000 2 180 01:40 03.10.2019
885 Clear 24 1013 100 10000 1 160 00:53 03.10.2019
886 Clear 24 1013 94 10000 0.64 165.338 00:32 03.10.2019
887 Clear 22 1013 100 10000 0.23 169.762 23:57 02.10.2019
888 Clear 21 1013 100 10000 0.23 169.762 23:37 02.10.2019
889 Clear 21 1013 100 10000 0.23 169.762 23:18 02.10.2019
890 Clear 21 1012 100 10000 1 200 22:42 02.10.2019
891 Clear 21 1012 100 10000 1 200 22:20 02.10.2019
892 Clear 21 1012 100 10000 1 210 21:55 02.10.2019
893 Clear 21 1012 100 10000 2 210 21:37 02.10.2019
894 Clear 22 1012 100 10000 2 210 21:18 02.10.2019
895 Clear 22 1012 94 10000 1 200 20:55 02.10.2019
896 Clear 22 1012 94 10000 1 200 20:55 02.10.2019
897 Clear 22 1012 94 10000 1 200 20:55 02.10.2019
898 Clear 22 1012 88 10000 0.34 316.664 20:37 02.10.2019
899 Clear 22 1012 88 10000 0.34 316.664 20:18 02.10.2019
900 Clear 22 1012 94 10000 1 0 19:44 02.10.2019
901 Clear 22 1012 94 10000 1 0 19:23 02.10.2019
902 Clear 22 1012 88 10000 1 190 18:58 02.10.2019
903 Clear 22 1012 88 10000 1 190 18:58 02.10.2019
904 Clear 22 1012 94 10000 1 0 18:39 02.10.2019
905 Clear 22 1012 94 10000 1 0 18:21 02.10.2019
906 Clear 23 1012 88 10000 1 0 17:57 02.10.2019
907 Clear 23 1012 88 10000 1 0 17:57 02.10.2019
908 Clear 23 1012 88 10000 1 0 17:57 02.10.2019
909 Clear 23 1012 88 10000 2 10 17:38 02.10.2019
910 Clear 23 1012 88 10000 2 10 17:38 02.10.2019
911 Clear 23 1012 88 10000 2 10 17:20 02.10.2019
912 Clear 23 1012 88 10000 2 10 16:45 02.10.2019
913 Clouds 23 1012 83 10000 2 30 16:22 02.10.2019
914 Clouds 23 1012 83 10000 2 30 15:59 02.10.2019
915 Clouds 24 1012 88 10000 2 30 15:40 02.10.2019
916 Clouds 24 1012 83 10000 3 10 15:22 02.10.2019
917 Clouds 24 1012 83 10000 3 10 14:57 02.10.2019
918 Clouds 24 1011 83 10000 2 10 14:39 02.10.2019
919 Clouds 24 1011 83 10000 2 10 14:39 02.10.2019
920 Clouds 24 1011 83 10000 2 10 14:20 02.10.2019
921 Clouds 24 1011 78 10000 3 20 13:45 02.10.2019
922 Clouds 24 1011 78 10000 3 20 13:25 02.10.2019
923 Clouds 25 1010 74 10000 3 330 12:58 02.10.2019
924 Clouds 24 1010 88 10000 5 330 12:37 02.10.2019
925 Clouds 26 1010 69 10000 5 330 12:19 02.10.2019
926 Clouds 26 1010 69 10000 6 320 11:44 02.10.2019
927 Clouds 26 1010 69 10000 6 320 11:23 02.10.2019
928 Clouds 27 1009 78 10000 5 350 10:42 02.10.2019
929 Rain 27 1009 65 10000 6 320 10:20 02.10.2019
930 Rain 27 1009 65 10000 6 320 09:58 02.10.2019
931 Clouds 27 1008 66 10000 6 310 09:37 02.10.2019
932 Clouds 27 1008 65 10000 8 300 09:18 02.10.2019
933 Clouds 27 1008 65 10000 8 300 09:18 02.10.2019
934 Clouds 27 1008 66 10000 6 310 09:18 02.10.2019
935 Clouds 26 1008 65 10000 8 300 08:44 02.10.2019
936 Clouds 26 1008 65 10000 8 300 08:23 02.10.2019
937 Clouds 26 1008 69 10000 7 310 07:57 02.10.2019
938 Clouds 26 1008 69 10000 7 310 07:38 02.10.2019
939 Clouds 27 1009 69 10000 8 310 07:19 02.10.2019
940 Clouds 26 1009 78 10000 7 310 06:31 02.10.2019
941 Clouds 26 1009 78 10000 7 310 06:31 02.10.2019
942 Clouds 26 1009 74 10000 8 310 05:52 02.10.2019
943 Clouds 26 1009 78 10000 8 290 05:23 02.10.2019
944 Rain 25 1009 94 10000 6 300 04:43 02.10.2019
945 Clouds 26 1009 83 10000 7 310 03:51 02.10.2019
946 Rain 23 1007 94 10000 7 290 02:39 02.10.2019
947 Rain 23 1007 94 10000 7 290 02:21 02.10.2019
948 Rain 23 1006 94 10000 9 310 01:19 02.10.2019
949 Rain 22 1005 88 10000 8 310 00:42 02.10.2019
950 Rain 23 1005 88 10000 8 310 00:23 02.10.2019
951 Rain 23 1004 100 10000 7 320 23:42 01.10.2019
952 Rain 22 1004 100 10000 7 320 23:24 01.10.2019
953 Rain 24 1004 94 10000 7 320 22:58 01.10.2019
954 Rain 23 1003 94 10000 9 340 22:38 01.10.2019
955 Rain 23 1003 94 10000 9 340 22:18 01.10.2019
956 Rain 23 1002 94 10000 12 350 21:44 01.10.2019
957 Rain 23 1002 94 10000 12 350 21:24 01.10.2019
958 Rain 23 1002 94 10000 11 350 20:59 01.10.2019
959 Rain 23 1002 94 10000 12 10 20:39 01.10.2019
960 Rain 23 1002 94 10000 12 10 20:21 01.10.2019
961 Rain 23 1002 94 10000 12 10 19:59 01.10.2019
962 Rain 23 1002 94 6000 12 20 19:41 01.10.2019
963 Rain 23 1002 94 6000 12 20 19:41 01.10.2019
964 Rain 23 1002 94 6000 12 20 19:23 01.10.2019
965 Rain 23 1002 100 5000 13 10 18:56 01.10.2019
966 Rain 23 1002 100 5000 15 360 18:38 01.10.2019
967 Rain 24 1002 100 7000 14 10 18:19 01.10.2019
968 Rain 23 1002 100 6000 15 10 17:43 01.10.2019
969 Rain 24 1002 100 6000 15 10 17:22 01.10.2019
970 Rain 23 1003 100 6000 13 20 16:59 01.10.2019
971 Rain 22 1003 94 7000 15 10 16:41 01.10.2019
972 Rain 23 1003 94 7000 15 10 16:22 01.10.2019
973 Rain 23 1004 94 7000 15 20 15:49 01.10.2019
974 Rain 22 1004 88 10000 15 30 15:25 01.10.2019
975 Rain 22 1005 94 7000 13 30 14:58 01.10.2019
976 Rain 22 1005 94 7000 14 30 14:40 01.10.2019
977 Rain 22 1005 94 7000 14 30 14:20 01.10.2019
978 Rain 23 1005 94 10000 12 30 13:56 01.10.2019
979 Rain 22 1005 88 8000 12 40 13:37 01.10.2019
980 Rain 22 1006 88 10000 11 50 13:18 01.10.2019
981 -273 0 0 0 0 0 12:55 01.10.2019
982 Rain 23 1006 88 10000 11 50 12:55 01.10.2019
983 Rain 22 1006 94 10000 9 50 12:37 01.10.2019
984 Rain 22 1006 88 10000 9 50 12:18 01.10.2019
985 Rain 22 1006 88 10000 9 50 11:54 01.10.2019
986 Rain 22 1007 88 10000 8 40 11:36 01.10.2019
987 Rain 22 1007 94 10000 9 40 11:18 01.10.2019
988 Rain 22 1007 94 10000 9 50 10:44 01.10.2019
989 Rain 23 1007 94 10000 9 50 10:25 01.10.2019
990 Rain 23 1007 94 8000 7 50 09:44 01.10.2019
991 Rain 23 1007 94 8000 7 50 09:26 01.10.2019
992 Rain 23 1008 94 10000 6 50 08:44 01.10.2019
993 Rain 23 1008 94 10000 6 50 08:25 01.10.2019
994 Rain 23 1009 94 10000 7 50 07:50 01.10.2019
995 Rain 24 1010 88 10000 5 50 07:26 01.10.2019
996 Rain 24 1010 88 10000 5 50 06:51 01.10.2019
997 Rain 24 1010 83 10000 6 70 06:25 01.10.2019
998 Rain 24 1010 83 10000 6 50 05:59 01.10.2019
999 Rain 24 1010 83 10000 7 60 05:38 01.10.2019
1000 Rain 24 1013 88 10000 5 80 04:40 01.10.2019
1001 Rain 23 1013 94 10000 5 80 03:32 01.10.2019
1002 Rain 23 1012 94 1600 8 110 02:19 01.10.2019
1003 Rain 25 1012 88 10000 4 60 01:41 01.10.2019
1004 Clouds 25 1012 94 10000 3 60 00:42 01.10.2019
1005 Clouds 25 1012 94 10000 3 60 00:24 01.10.2019
1006 Clouds 25 1012 94 7000 2 60 23:41 30.09.2019
1007 Clouds 25 1012 94 7000 2 60 23:41 30.09.2019
1008 Clouds 25 1012 94 7000 2 60 23:22 30.09.2019
1009 Rain 25 1012 94 5000 2 40 22:46 30.09.2019
1010 Rain 25 1012 94 5000 2 40 22:27 30.09.2019
1011 Rain 25 1013 94 6000 2 70 21:58 30.09.2019
1012 Rain 25 1013 88 7000 2 60 21:40 30.09.2019
1013 Rain 25 1013 88 7000 2 60 21:20 30.09.2019
1014 Rain 25 1012 88 8000 3 70 20:58 30.09.2019
1015 Clouds 25 1012 88 8000 3 50 20:39 30.09.2019
1016 Clouds 25 1012 88 8000 3 50 20:20 30.09.2019
1017 Rain 25 1012 83 10000 4 40 19:58 30.09.2019
1018 Rain 25 1013 83 10000 3 20 19:40 30.09.2019
1019 Clouds 25 1013 83 10000 2 40 19:19 30.09.2019
1020 Clouds 25 1013 83 10000 2 40 18:58 30.09.2019
1021 Clouds 25 1013 83 10000 2 40 18:58 30.09.2019
1022 Clouds 25 1013 83 10000 3 30 18:39 30.09.2019
1023 Clouds 25 1014 83 10000 3 40 18:20 30.09.2019
1024 -273 0 0 0 0 0 17:44 30.09.2019
1025 Clouds 25 1014 78 10000 3 60 17:24 30.09.2019
1026 Clouds 24 1014 83 10000 2 60 16:59 30.09.2019
1027 Clouds 25 1014 78 10000 3 80 16:41 30.09.2019
1028 Clouds 25 1014 78 10000 3 80 16:19 30.09.2019
1029 Clouds 25 1015 78 10000 2 70 15:58 30.09.2019
1030 Clear 24 1015 78 10000 4 80 15:38 30.09.2019
1031 Clear 24 1015 78 10000 4 80 15:19 30.09.2019
1032 Clear 25 1015 73 10000 3 80 14:57 30.09.2019
1033 Clear 25 1015 73 10000 3 80 14:37 30.09.2019
1034 Clear 24 1014 73 10000 4 70 14:19 30.09.2019
1035 Clear 24 1014 73 10000 4 70 13:57 30.09.2019
1036 Clear 24 1014 73 10000 3 70 13:38 30.09.2019
1037 Clear 24 1014 73 10000 3 70 13:38 30.09.2019
1038 Clouds 25 1014 65 10000 4 70 13:20 30.09.2019
1039 Clouds 25 1014 69 10000 4 70 12:43 30.09.2019
1040 Clouds 25 1014 69 10000 4 70 12:22 30.09.2019
1041 Clouds 25 1014 69 10000 4 90 11:57 30.09.2019
1042 Clouds 25 1014 65 10000 4 80 11:38 30.09.2019
1043 Clouds 26 1014 65 10000 4 80 11:19 30.09.2019
1044 Clouds 27 1014 61 10000 4 70 10:41 30.09.2019
1045 Clouds 27 1014 54 10000 4 70 10:20 30.09.2019
1046 Clouds 28 1014 54 10000 4 70 09:59 30.09.2019
1047 Clouds 28 1014 58 10000 3 80 09:39 30.09.2019
1048 Clouds 28 1014 54 10000 3 60 09:20 30.09.2019
1049 Clouds 28 1014 58 10000 3 60 08:47 30.09.2019
1050 Clouds 28 1014 58 10000 3 60 08:47 30.09.2019
1051 Clouds 28 1014 58 10000 3 60 08:29 30.09.2019
1052 Clouds 30 1015 54 10000 2 60 07:46 30.09.2019
1053 Clouds 28 1015 54 10000 2 60 07:28 30.09.2019
1054 -273 0 0 0 0 0 06:56 30.09.2019
1055 Clouds 28 1015 58 10000 3 40 06:34 30.09.2019
1056 Clouds 28 1015 58 10000 3 40 06:34 30.09.2019
1057 Clouds 28 1016 61 10000 2 70 05:48 30.09.2019
1058 Clouds 28 1016 61 10000 3 30 04:40 30.09.2019
1059 Clouds 25 1016 78 10000 3 30 02:48 30.09.2019
1060 Clouds 23 1015 88 8000 3 360 01:38 30.09.2019
1061 Clouds 22 1015 94 8000 3 350 00:43 30.09.2019
1062 Clouds 22 1015 94 8000 3 350 00:22 30.09.2019
1063 Clouds 22 1015 94 10000 3 360 23:48 29.09.2019
1064 Clouds 22 1015 94 10000 3 360 23:28 29.09.2019
1065 Clouds 22 1015 94 10000 2 350 22:59 29.09.2019
1066 Clouds 22 1015 94 10000 2 10 22:41 29.09.2019
1067 Clouds 22 1015 94 10000 2 10 22:23 29.09.2019
1068 Clouds 22 1015 94 10000 2 360 21:58 29.09.2019
1069 Clouds 22 1015 94 10000 2 360 21:37 29.09.2019
1070 Clouds 22 1015 88 10000 2 30 21:19 29.09.2019
1071 Clouds 22 1015 94 10000 3 10 20:45 29.09.2019
1072 Clouds 22 1015 94 10000 3 10 20:20 29.09.2019
1073 Clouds 22 1015 94 10000 3 10 20:20 29.09.2019
1074 Clouds 22 1015 88 10000 2 350 19:59 29.09.2019
1075 Clouds 22 1016 88 10000 2 20 19:38 29.09.2019
1076 Clouds 23 1016 88 10000 3 10 19:19 29.09.2019
1077 Clouds 23 1016 88 10000 3 10 19:19 29.09.2019
1078 Clouds 22 1016 88 10000 3 10 18:56 29.09.2019
1079 Clouds 23 1016 88 10000 3 360 18:38 29.09.2019
1080 Clouds 23 1016 88 10000 3 360 18:19 29.09.2019
1081 Clouds 23 1016 88 10000 2 10 17:58 29.09.2019
1082 Clouds 23 1016 83 10000 3 20 17:40 29.09.2019
1083 Clear 23 1016 78 10000 3 20 17:20 29.09.2019
1084 Clear 23 1016 78 10000 3 20 16:58 29.09.2019
1085 Clear 23 1016 78 10000 2 60 16:40 29.09.2019
1086 Clear 23 1016 78 10000 2 60 16:19 29.09.2019
1087 Clear 23 1016 73 10000 3 70 15:57 29.09.2019
1088 Clear 23 1016 73 10000 4 80 15:36 29.09.2019
1089 Clear 23 1016 73 10000 4 80 15:18 29.09.2019
1090 Clear 23 1016 73 10000 3 80 14:55 29.09.2019
1091 Clear 23 1016 73 10000 3 90 14:36 29.09.2019
1092 Clear 23 1016 73 10000 3 90 14:18 29.09.2019
1093 Clear 24 1016 69 10000 3 50 13:42 29.09.2019
1094 Clear 24 1016 69 10000 3 50 13:19 29.09.2019
1095 Clear 24 1016 65 10000 4 50 12:58 29.09.2019
1096 Clear 24 1015 65 10000 4 50 12:40 29.09.2019
1097 Clear 24 1015 65 10000 4 50 12:40 29.09.2019
1098 Clear 25 1015 61 10000 4 50 12:21 29.09.2019
1099 Clear 25 1015 61 10000 4 50 11:57 29.09.2019
1100 Clear 26 1015 54 10000 4 20 11:39 29.09.2019
1101 Clear 26 1015 54 10000 4 20 11:18 29.09.2019
1102 Clear 26 1015 54 10000 3 20 10:57 29.09.2019
1103 Clear 26 1015 54 10000 4 20 10:36 29.09.2019
1104 Clear 26 1015 54 10000 4 20 10:18 29.09.2019
1105 Clear 27 1015 51 10000 4 80 09:44 29.09.2019
1106 Clear 27 1015 51 10000 4 80 09:21 29.09.2019
1107 Clear 28 1015 48 10000 4 30 08:58 29.09.2019
1108 Clouds 28 1015 51 10000 4 30 08:38 29.09.2019
1109 Clouds 28 1015 51 10000 4 30 08:18 29.09.2019
1110 Clouds 29 1016 51 10000 4 20 07:41 29.09.2019
1111 Clouds 29 1016 51 10000 4 20 07:41 29.09.2019
1112 Clouds 29 1016 51 10000 4 20 07:23 29.09.2019
1113 Clouds 29 1016 51 10000 4 20 07:23 29.09.2019
1114 Clouds 27 1016 51 10000 5 10 06:42 29.09.2019
1115 Clouds 27 1018 57 10000 4 30 04:59 29.09.2019
1116 Clouds 26 1018 61 10000 4 360 04:25 29.09.2019
1117 Clouds 26 1018 65 10000 3 10 03:55 29.09.2019
1118 Clouds 24 1018 73 8000 3 350 02:45 29.09.2019
1119 Clouds 23 1018 73 8000 3 350 02:18 29.09.2019
1120 Mist 23 1017 88 5000 2 10 01:30 29.09.2019
1121 Clouds 22 1017 88 6000 2 10 00:47 29.09.2019
1122 Clouds 22 1017 88 6000 2 10 00:20 29.09.2019
1123 Clouds 21 1017 88 8000 3 360 23:42 28.09.2019
1124 Clouds 21 1017 88 8000 3 360 23:22 28.09.2019
1125 Clouds 21 1017 88 8000 3 360 22:56 28.09.2019
1126 Clouds 22 1017 88 8000 2 10 22:37 28.09.2019
1127 Clouds 21 1017 88 8000 2 10 22:19 28.09.2019
1128 Clouds 22 1017 88 8000 3 360 21:55 28.09.2019
1129 Clouds 22 1017 88 8000 3 360 21:55 28.09.2019
1130 Clear 22 1017 88 10000 3 10 21:36 28.09.2019
1131 Clear 22 1017 88 10000 3 10 21:18 28.09.2019
1132 Clear 22 1017 88 10000 3 10 20:55 28.09.2019
1133 Clear 22 1017 88 10000 2 10 20:36 28.09.2019
1134 Clear 22 1017 88 10000 2 10 20:18 28.09.2019
1135 Clear 22 1017 83 10000 3 360 19:42 28.09.2019
1136 Clouds 22 1017 78 10000 2 20 19:22 28.09.2019
1137 Clouds 22 1017 78 10000 2 20 19:22 28.09.2019
1138 Clouds 22 1017 78 10000 2 20 18:59 28.09.2019
1139 Clouds 23 1018 78 10000 2 10 18:41 28.09.2019
1140 Clouds 23 1018 78 10000 2 10 18:21 28.09.2019
1141 Clouds 23 1018 78 10000 2 10 17:57 28.09.2019
1142 Clouds 23 1018 78 10000 2 10 17:39 28.09.2019
1143 Clouds 23 1018 78 10000 2 10 17:21 28.09.2019
1144 Clouds 23 1018 78 10000 3 50 16:48 28.09.2019
1145 Clouds 23 1018 73 10000 4 10 16:28 28.09.2019
1146 Clouds 23 1018 78 10000 2 0 15:57 28.09.2019
1147 Clouds 23 1018 78 10000 2 130 15:38 28.09.2019
1148 Clouds 23 1018 78 10000 2 130 15:20 28.09.2019
1149 Clouds 24 1018 73 10000 2 120 14:54 28.09.2019
1150 Clouds 24 1018 73 10000 3 130 14:36 28.09.2019
1151 Clouds 24 1018 73 10000 3 130 14:18 28.09.2019
1152 Clouds 24 1017 73 10000 3 120 13:42 28.09.2019
1153 Clouds 24 1017 69 10000 4 120 13:20 28.09.2019
1154 Clear 24 1017 83 10000 5 50 12:46 28.09.2019
1155 Clear 24 1017 83 10000 5 30 12:21 28.09.2019
1156 Clear 24 1017 83 10000 5 30 11:59 28.09.2019
1157 Clear 25 1017 78 10000 5 40 11:40 28.09.2019
1158 Clear 25 1017 78 10000 5 40 11:40 28.09.2019
1159 Clouds 26 1016 51 10000 4 40 11:19 28.09.2019
1160 Clouds 27 1016 45 10000 2 0 10:44 28.09.2019
1161 Clouds 26 1016 45 10000 2 0 10:21 28.09.2019
1162 Clouds 27 1016 45 10000 3 10 09:58 28.09.2019
1163 Clouds 27 1016 45 10000 3 10 09:58 28.09.2019
1164 Clouds 28 1016 48 10000 2 30 09:40 28.09.2019
1165 Clouds 30 1016 48 10000 2 30 09:18 28.09.2019
1166 Clouds 30 1016 45 10000 4 10 08:47 28.09.2019
1167 Clouds 30 1017 45 10000 3 360 08:29 28.09.2019
1168 Clouds 29 1017 48 10000 3 360 07:47 28.09.2019
1169 Clouds 28 1017 54 10000 4 360 07:24 28.09.2019
1170 Clouds 27 1017 54 10000 4 360 06:59 28.09.2019
1171 Clouds 28 1018 48 10000 4 340 06:33 28.09.2019
1172 Clouds 27 1018 57 10000 3 10 05:59 28.09.2019
1173 Clouds 26 1018 61 10000 4 360 05:24 28.09.2019
1174 Clouds 28 1019 61 10000 3 30 04:44 28.09.2019
1175 Clouds 28 1019 61 10000 3 30 04:21 28.09.2019
1176 Clouds 25 1019 69 10000 4 340 03:25 28.09.2019
1177 Clouds 24 1019 73 8000 3 350 02:57 28.09.2019
1178 Clouds 24 1019 83 7000 3 340 02:35 28.09.2019
1179 Clouds 23 1019 88 6000 3 340 01:51 28.09.2019
1180 Clouds 23 1019 88 6000 3 340 01:51 28.09.2019
1181 Mist 23 1019 88 7000 3 350 01:27 28.09.2019
1182 Mist 23 1019 94 7000 2 330 00:58 28.09.2019
1183 Mist 22 1018 88 7000 2 330 00:39 28.09.2019
1184 Clouds 22 1018 88 8000 2 340 00:18 28.09.2019
1185 Clouds 22 1018 88 10000 2 320 23:38 27.09.2019
1186 Clouds 22 1018 88 10000 2 320 23:38 27.09.2019
1187 Clouds 21 1018 88 10000 2 320 23:19 27.09.2019
1188 Clear 21 1018 88 10000 1 310 22:47 27.09.2019
1189 Clear 21 1018 88 10000 2 340 22:20 27.09.2019
1190 Clear 21 1018 88 10000 2 340 21:58 27.09.2019
1191 Clear 22 1018 88 10000 2 340 21:39 27.09.2019
1192 Clear 22 1018 88 10000 2 360 21:20 27.09.2019
1193 Clear 21 1018 88 10000 2 360 20:58 27.09.2019
1194 Clear 21 1018 88 10000 2 360 20:58 27.09.2019
1195 Clear 21 1019 88 10000 2 360 20:39 27.09.2019
1196 Clear 22 1019 88 10000 2 360 20:19 27.09.2019
1197 Clear 22 1019 88 10000 3 360 19:57 27.09.2019
1198 Clear 22 1019 88 10000 3 360 19:57 27.09.2019
1199 Clear 22 1019 83 10000 2 360 19:37 27.09.2019
1200 Clear 22 1019 83 10000 2 10 19:18 27.09.2019
1201 Clear 22 1019 83 10000 2 10 18:41 27.09.2019
1202 Clear 22 1019 83 10000 2 10 18:22 27.09.2019
1203 Clear 22 1019 83 10000 2 10 18:22 27.09.2019
1204 Clear 22 1019 83 10000 2 10 17:56 27.09.2019
1205 Clear 22 1019 78 10000 3 10 17:37 27.09.2019
1206 Clear 22 1019 78 10000 3 10 17:18 27.09.2019
1207 Clear 22 1019 73 10000 2 50 16:57 27.09.2019
1208 Clear 22 1019 73 10000 2 50 16:56 27.09.2019
1209 Clouds 22 1020 73 10000 3 40 16:37 27.09.2019
1210 Clouds 22 1020 73 10000 3 40 16:37 27.09.2019
1211 Clouds 23 1020 73 10000 3 40 16:18 27.09.2019
1212 Clear 22 1020 73 10000 2 50 15:44 27.09.2019
1213 Clear 23 1020 73 10000 2 50 15:20 27.09.2019
1214 Clear 23 1020 69 10000 3 60 14:57 27.09.2019
1215 Clear 23 1020 64 10000 2 110 14:38 27.09.2019
1216 Clear 23 1020 64 10000 2 110 14:20 27.09.2019
1217 Clear 23 1019 61 10000 3 90 13:57 27.09.2019
1218 Clear 24 1019 57 10000 2 90 13:38 27.09.2019
1219 Clear 24 1019 53 10000 3 40 13:19 27.09.2019
1220 Clear 24 1019 50 10000 3 50 12:44 27.09.2019
1221 Clear 25 1019 47 10000 3 30 12:22 27.09.2019
1222 Clear 25 1019 47 10000 3 30 11:55 27.09.2019
1223 Clear 25 1019 47 10000 4 10 11:37 27.09.2019
1224 Clear 26 1019 47 10000 4 10 11:19 27.09.2019
1225 Clouds 26 1019 44 10000 4 10 10:41 27.09.2019
1226 Clouds 27 1019 44 10000 4 10 10:21 27.09.2019
1227 Clouds 27 1019 47 10000 3 20 09:44 27.09.2019
1228 Clouds 27 1019 47 10000 3 20 09:44 27.09.2019
1229 Clouds 28 1019 47 10000 3 20 09:23 27.09.2019
1230 Clouds 28 1019 47 10000 3 20 09:23 27.09.2019
1231 Clouds 28 1019 47 10000 3 80 08:58 27.09.2019
1232 Clouds 28 1019 45 10000 3 340 08:39 27.09.2019
1233 Clouds 27 1019 45 10000 3 340 08:20 27.09.2019
1234 Clouds 27 1020 45 10000 3 20 07:46 27.09.2019
1235 Clouds 27 1020 45 10000 3 20 07:24 27.09.2019
1236 Clouds 26 1021 51 10000 3 40 06:43 27.09.2019
1237 -273 0 0 0 0 0 06:25 27.09.2019
1238 Clouds 26 1021 54 10000 2 60 05:51 27.09.2019
1239 Clouds 27 1021 54 10000 2 60 05:33 27.09.2019
1240 Clouds 26 1022 57 10000 2 360 03:56 27.09.2019
1241 Clouds 27 1022 57 10000 1 0 03:34 27.09.2019
1242 Clear 25 1021 78 10000 2 90 01:52 27.09.2019
1243 Clear 23 1021 83 10000 1 0 01:28 27.09.2019
1244 Clear 23 1021 88 10000 2 360 00:30 27.09.2019
1245 Clear 20 1021 88 10000 3 350 23:56 26.09.2019
1246 Clear 21 1020 82 10000 2 20 23:38 26.09.2019
1247 Clear 21 1020 82 10000 2 20 23:18 26.09.2019
1248 Clear 21 1020 82 10000 2 20 23:18 26.09.2019
1249 Clear 21 1020 88 10000 2 10 22:57 26.09.2019
1250 Clear 21 1020 83 10000 1 10 22:39 26.09.2019
1251 Clear 21 1020 82 10000 1.73 56.172 22:18 26.09.2019
1252 Clear 21 1020 82 10000 1.73 56.172 21:55 26.09.2019
1253 Clear 21 1020 78 10000 1 260 21:37 26.09.2019
1254 Clear 21 1020 78 10000 1 260 21:18 26.09.2019
1255 Clear 21 1020 83 10000 1 190 20:57 26.09.2019
1256 Clear 21 1020 78 10000 1 110 20:39 26.09.2019
1257 Clear 21 1020 78 10000 1 110 20:20 26.09.2019
1258 Clear 22 1021 73 10000 1 80 19:40 26.09.2019
1259 Clear 22 1021 73 10000 1 80 19:19 26.09.2019
1260 Clear 22 1021 73 10000 1 80 18:59 26.09.2019
1261 Clear 22 1021 73 10000 1 80 18:59 26.09.2019
1262 Clear 22 1021 73 10000 1 80 18:59 26.09.2019
1263 Clear 22 1021 73 10000 2 100 18:39 26.09.2019
1264 Clear 23 1021 73 10000 2 100 18:21 26.09.2019
1265 Clear 23 1021 73 10000 3 100 17:56 26.09.2019
1266 Clear 22 1021 73 10000 3 100 17:37 26.09.2019
1267 Clear 23 1021 73 10000 4 100 17:18 26.09.2019
1268 Clear 23 1021 73 10000 4 100 17:18 26.09.2019
1269 Clear 23 1022 73 10000 4 100 16:40 26.09.2019
1270 Clear 23 1022 73 10000 4 100 16:21 26.09.2019
1271 Clear 23 1022 73 10000 4 100 16:21 26.09.2019
1272 Clear 23 1022 73 10000 3 100 15:58 26.09.2019
1273 Clear 23 1022 73 10000 3 80 15:38 26.09.2019
1274 Clear 23 1022 73 10000 3 80 15:19 26.09.2019
1275 Clear 23 1022 69 10000 3 90 14:57 26.09.2019
1276 Clear 23 1022 69 10000 3 90 14:57 26.09.2019
1277 Clear 23 1022 64 10000 4 90 14:37 26.09.2019
1278 Clear 23 1022 64 10000 4 90 14:37 26.09.2019
1279 Clear 23 1022 64 10000 4 90 14:19 26.09.2019
1280 Clear 23 1021 60 10000 4 90 13:41 26.09.2019
1281 Clear 23 1021 60 10000 4 90 13:41 26.09.2019
1282 Clear 24 1020 57 10000 4 90 13:20 26.09.2019
1283 Clear 24 1020 57 10000 4 90 12:59 26.09.2019
1284 Clear 24 1020 57 10000 4 90 12:59 26.09.2019
1285 Clear 24 1020 53 10000 4 90 12:41 26.09.2019
1286 Clear 24 1020 53 10000 4 80 12:20 26.09.2019
1287 Clear 25 1020 50 10000 4 80 11:42 26.09.2019
1288 Clear 25 1020 50 10000 4 80 11:22 26.09.2019
1289 Clear 26 1020 47 10000 4 100 10:56 26.09.2019
1290 Clear 26 1020 44 10000 5 120 10:38 26.09.2019
1291 Clear 26 1020 44 10000 5 120 10:20 26.09.2019
1292 Clouds 27 1019 47 10000 4 70 09:44 26.09.2019
1293 Clouds 27 1019 47 10000 4 70 09:25 26.09.2019
1294 Clouds 28 1019 44 10000 4 50 08:57 26.09.2019
1295 Clouds 27 1019 47 10000 3 50 08:39 26.09.2019
1296 Clouds 27 1020 45 10000 3 70 08:21 26.09.2019
1297 Clouds 27 1020 47 10000 3 70 07:42 26.09.2019
1298 Clouds 27 1020 45 10000 3 0 07:20 26.09.2019
1299 Clouds 28 1020 42 10000 2 0 06:43 26.09.2019
1300 Clouds 28 1020 42 10000 2 0 06:25 26.09.2019
1301 Clouds 28 1020 42 10000 2 0 06:25 26.09.2019
1302 Clouds 28 1021 42 10000 2 110 05:44 26.09.2019
1303 Clouds 27 1021 42 10000 2 110 05:24 26.09.2019
1304 Clouds 25 1021 57 10000 2 120 02:50 26.09.2019
1305 Clear 23 1021 69 10000 2 50 01:53 26.09.2019
1306 Clear 23 1021 73 10000 2 30 01:28 26.09.2019
1307 Clear 22 1020 82 10000 1 10 00:55 26.09.2019
1308 Clear 21 1020 82 10000 1 10 00:37 26.09.2019
1309 Clear 21 1020 77 10000 1 30 23:47 25.09.2019
1310 Clear 20 1020 77 10000 1 30 23:28 25.09.2019
1311 Clear 21 1020 77 10000 2 10 22:58 25.09.2019
1312 Clear 21 1019 77 10000 2 360 22:40 25.09.2019
1313 Clear 21 1019 77 10000 2 360 22:20 25.09.2019
1314 Clear 21 1019 73 10000 1 40 21:56 25.09.2019
1315 Clear 21 1019 73 10000 1 60 21:38 25.09.2019
1316 Clear 21 1019 73 10000 1 60 21:19 25.09.2019
1317 Clear 21 1020 68 10000 1 80 20:56 25.09.2019
1318 Clear 21 1020 68 10000 2 80 20:38 25.09.2019
1319 Clear 21 1020 68 10000 2 80 20:38 25.09.2019
1320 Clear 21 1020 68 10000 2 80 20:19 25.09.2019
1321 Clear 22 1020 68 10000 2 100 19:43 25.09.2019
1322 Clear 22 1020 68 10000 2 90 19:22 25.09.2019
1323 Clear 22 1020 73 10000 3 110 18:57 25.09.2019
1324 Clear 22 1020 73 10000 3 110 18:39 25.09.2019
1325 Clear 22 1020 73 10000 3 110 18:21 25.09.2019
1326 Clear 22 1020 73 10000 3 100 17:58 25.09.2019
1327 Clear 22 1020 73 10000 4 90 17:37 25.09.2019
1328 Clear 22 1021 73 10000 3 90 17:19 25.09.2019
1329 Clear 22 1021 69 10000 3 90 16:45 25.09.2019
1330 Clear 22 1021 69 10000 3 90 16:27 25.09.2019
1331 Clouds 23 1021 69 10000 3 90 15:58 25.09.2019
1332 Clouds 22 1021 69 10000 4 100 15:40 25.09.2019
1333 Clouds 22 1021 69 10000 4 100 15:21 25.09.2019
1334 Clouds 22 1021 69 10000 5 100 14:54 25.09.2019
1335 Clouds 23 1020 69 10000 4 110 14:36 25.09.2019
1336 Clouds 23 1020 69 10000 4 110 14:18 25.09.2019
1337 Clouds 23 1020 64 10000 4 110 13:41 25.09.2019
1338 Clouds 24 1020 64 10000 4 110 13:20 25.09.2019
1339 Clear 24 1019 61 10000 5 120 12:58 25.09.2019
1340 Clear 24 1019 50 10000 3 30 12:39 25.09.2019
1341 Clear 25 1019 50 10000 4 40 12:21 25.09.2019
1342 Clear 26 1019 44 10000 3 20 11:42 25.09.2019
1343 Clear 26 1019 44 10000 3 20 11:21 25.09.2019
1344 Clear 26 1018 42 10000 4 30 10:57 25.09.2019
1345 Clear 27 1018 42 10000 4 30 10:38 25.09.2019
1346 Clear 27 1018 42 10000 4 30 10:19 25.09.2019
1347 Clear 27 1018 42 10000 4 30 10:19 25.09.2019
1348 Clear 27 1018 42 10000 4 30 10:19 25.09.2019
1349 Clear 27 1018 39 10000 4 20 09:55 25.09.2019
1350 Clear 27 1018 42 10000 4 10 09:36 25.09.2019
1351 Clear 28 1018 39 10000 4 20 09:18 25.09.2019
1352 Clear 28 1018 39 10000 4 10 08:41 25.09.2019
1353 Clear 28 1018 39 10000 4 10 08:20 25.09.2019
1354 Clear 29 1018 35 10000 4 20 07:55 25.09.2019
1355 Clear 29 1018 35 10000 4 20 07:55 25.09.2019
1356 Clear 29 1018 32 10000 4 40 07:36 25.09.2019
1357 Clear 28 1019 32 10000 3 360 07:18 25.09.2019
1358 Clear 28 1019 35 10000 3 340 06:37 25.09.2019
1359 Clear 27 1020 39 10000 2 0 05:52 25.09.2019
1360 Clear 27 1020 39 10000 2 0 05:26 25.09.2019
1361 Clear 26 1020 44 10000 3 50 04:45 25.09.2019
1362 Clouds 23 1020 83 8000 1 0 01:44 25.09.2019
1363 Clear 22 1020 82 10000 1 20 00:42 25.09.2019
1364 Clear 21 1020 82 10000 1 20 00:23 25.09.2019
1365 Clear 21 1019 82 10000 1 360 23:45 24.09.2019
1366 Clear 20 1019 82 10000 1 360 23:23 24.09.2019
1367 Clear 20 1019 82 10000 2 350 22:59 24.09.2019
1368 Clear 20 1019 82 10000 2 10 22:38 24.09.2019
1369 Clear 21 1019 82 10000 1 340 22:20 24.09.2019
1370 Clear 21 1019 82 10000 1 340 21:55 24.09.2019
1371 Clear 21 1019 82 10000 1 340 21:55 24.09.2019
1372 Clear 21 1019 77 10000 1.04 12.958 21:37 24.09.2019
1373 Clear 21 1019 77 10000 0.15 123.471 21:18 24.09.2019
1374 Clear 21 1019 77 10000 1 180 20:56 24.09.2019
1375 Clear 21 1019 77 10000 1 210 20:38 24.09.2019
1376 Clear 21 1019 77 10000 1 180 20:19 24.09.2019
1377 Clear 21 1019 77 10000 2 150 19:43 24.09.2019
1378 Clear 21 1019 73 10000 1 150 19:21 24.09.2019
1379 Clear 22 1020 73 10000 2 150 18:58 24.09.2019
1380 Clear 22 1020 73 10000 2 150 18:39 24.09.2019
1381 Clear 22 1020 69 10000 2 150 18:20 24.09.2019
1382 Clear 22 1020 69 10000 2 150 18:20 24.09.2019
1383 Clear 22 1020 69 10000 2 150 17:57 24.09.2019
1384 Clear 22 1020 69 10000 2 150 17:38 24.09.2019
1385 Clear 22 1020 69 10000 2 150 17:19 24.09.2019
1386 Clear 22 1020 69 10000 2 130 16:42 24.09.2019
1387 Clear 22 1020 69 10000 2 130 16:21 24.09.2019
1388 Clear 23 1020 64 10000 2 120 15:58 24.09.2019
1389 Clear 22 1020 69 10000 2 150 15:40 24.09.2019
1390 Clear 23 1020 69 10000 2 150 15:21 24.09.2019
1391 Clear 23 1020 64 10000 3 210 14:40 24.09.2019
1392 Clear 23 1020 60 10000 3 150 14:19 24.09.2019
1393 Clear 24 1019 44 10000 1 0 13:45 24.09.2019
1394 Clear 24 1019 44 10000 1 0 13:45 24.09.2019
1395 Clear 24 1019 41 10000 3 350 13:23 24.09.2019
1396 Clear 24 1019 41 10000 3 350 12:57 24.09.2019
1397 Clear 25 1019 41 10000 3 340 12:39 24.09.2019
1398 Clear 26 1019 39 10000 3 350 12:18 24.09.2019
1399 Clear 27 1019 39 10000 3 30 11:41 24.09.2019
1400 Clear 27 1019 39 10000 3 30 11:21 24.09.2019
1401 Clear 27 1019 39 10000 4 350 10:55 24.09.2019
1402 Clear 27 1018 39 10000 4 0 10:36 24.09.2019
1403 Clear 27 1018 39 10000 4 0 10:18 24.09.2019
1404 Clear 27 1018 39 10000 4 0 10:18 24.09.2019
1405 Clear 28 1018 34 10000 4 30 09:43 24.09.2019
1406 Clear 28 1018 34 10000 4 30 09:21 24.09.2019
1407 Clear 28 1018 34 10000 3 40 08:57 24.09.2019
1408 Clear 27 1018 32 10000 4 360 08:38 24.09.2019
1409 Clear 27 1018 32 10000 4 360 08:19 24.09.2019
1410 Clear 29 1019 35 10000 5 10 07:46 24.09.2019
1411 Clear 28 1019 37 10000 4 20 07:25 24.09.2019
1412 Clear 27 1019 37 10000 4 20 06:51 24.09.2019
1413 Clear 27 1020 39 10000 4 50 06:32 24.09.2019
1414 Clear 27 1020 36 10000 4 20 05:51 24.09.2019
1415 Clear 26 1020 47 10000 4 20 05:18 24.09.2019
1416 Clear 27 1021 57 10000 4 330 03:43 24.09.2019
1417 Clear 23 1021 64 10000 3 310 02:46 24.09.2019
1418 Clear 21 1021 78 10000 2 280 01:51 24.09.2019
1419 Clear 22 1020 93 10000 2.11 324.364 00:43 24.09.2019
1420 Clear 19 1020 93 10000 1.39 291.144 00:23 24.09.2019
1421 Clear 19 1020 93 10000 1.39 291.144 23:56 23.09.2019
1422 Clear 19 1020 93 10000 1.39 291.144 23:37 23.09.2019
1423 Clear 19 1020 93 10000 1.39 291.144 23:19 23.09.2019
1424 Clear 20 1019 93 10000 1.39 291.144 22:39 23.09.2019
1425 Clear 20 1019 93 10000 1.39 291.144 22:20 23.09.2019
1426 Clear 20 1019 88 10000 1 300 21:57 23.09.2019
1427 Clear 20 1019 88 10000 1 250 21:38 23.09.2019
1428 Clear 20 1019 88 10000 1 250 21:19 23.09.2019
1429 Clear 20 1019 77 10000 1.14 304.426 20:41 23.09.2019
1430 Clear 20 1019 77 10000 1.14 304.426 20:20 23.09.2019
1431 Clear 20 1019 82 10000 1 0 19:58 23.09.2019
1432 Clear 20 1019 82 10000 2 280 19:38 23.09.2019
1433 Clear 21 1019 77 10000 2 270 19:20 23.09.2019
1434 Clear 21 1019 77 10000 2 270 19:20 23.09.2019
1435 Clear 21 1019 77 10000 2 230 18:43 23.09.2019
1436 Clear 21 1020 77 10000 1 350 18:21 23.09.2019
1437 Clear 21 1020 77 10000 1 350 17:59 23.09.2019
1438 Clear 21 1020 68 10000 1 0 17:39 23.09.2019
1439 Clear 22 1020 68 10000 1 0 17:21 23.09.2019
1440 Clear 22 1020 73 10000 1 0 16:59 23.09.2019
1441 Clear 22 1020 73 10000 2 40 16:38 23.09.2019
1442 Clear 22 1020 68 10000 2 50 16:19 23.09.2019
1443 Clear 22 1020 68 10000 2 50 15:57 23.09.2019
1444 Clear 23 1020 64 10000 2 60 15:39 23.09.2019
1445 Clear 23 1020 64 10000 2 60 15:19 23.09.2019
1446 Clear 23 1020 60 10000 3 50 14:40 23.09.2019
1447 Clouds 23 1020 60 10000 3 50 14:21 23.09.2019
1448 Clouds 23 1020 60 10000 3 50 13:59 23.09.2019
1449 Clouds 23 1019 60 10000 3 60 13:39 23.09.2019
1450 Clouds 24 1019 57 10000 3 10 13:19 23.09.2019
1451 Clouds 24 1019 57 10000 3 10 12:56 23.09.2019
1452 Clouds 24 1019 50 10000 4 10 12:37 23.09.2019
1453 Clouds 24 1018 53 10000 4 20 12:19 23.09.2019
1454 Clouds 26 1018 50 10000 4 20 11:44 23.09.2019
1455 Clouds 26 1018 50 10000 4 20 11:26 23.09.2019
1456 Clouds 26 1018 50 10000 5 10 10:55 23.09.2019
1457 Clouds 26 1018 44 10000 6 330 10:37 23.09.2019
1458 Clouds 26 1018 44 10000 6 330 10:19 23.09.2019
1459 Clouds 27 1017 39 10000 5 350 09:40 23.09.2019
1460 Clouds 27 1017 39 10000 5 350 09:21 23.09.2019
1461 Clouds 28 1018 39 10000 4 330 08:50 23.09.2019
1462 Clouds 28 1018 39 10000 7 360 08:30 23.09.2019
1463 Clouds 28 1018 39 10000 6 350 07:58 23.09.2019
1464 Clouds 27 1018 42 10000 6 350 07:33 23.09.2019
1465 Clouds 27 1018 44 10000 6 350 06:44 23.09.2019
1466 Clouds 27 1019 45 10000 6 330 06:18 23.09.2019
1467 Clouds 26 1019 54 10000 6 340 05:22 23.09.2019
1468 Clouds 26 1019 54 10000 6 340 04:55 23.09.2019
1469 Clouds 26 1019 61 10000 5 330 03:34 23.09.2019
1470 Clear 22 1018 73 10000 4 320 01:22 23.09.2019
1471 Clear 20 1017 77 10000 4 310 00:23 23.09.2019
1472 Clear 20 1016 77 10000 4 310 23:57 22.09.2019
1473 Clear 19 1016 82 10000 4 310 23:33 22.09.2019
1474 Clear 20 1016 77 10000 4 310 22:59 22.09.2019
1475 Clear 20 1016 77 10000 4 310 22:41 22.09.2019
1476 Clear 20 1016 77 10000 4 310 22:22 22.09.2019
1477 Clear 21 1015 77 10000 4 310 21:43 22.09.2019
1478 Clear 20 1015 77 10000 4 310 21:23 22.09.2019
1479 Clear 20 1015 77 10000 4 310 20:59 22.09.2019
1480 Clear 20 1015 77 10000 4 310 20:41 22.09.2019
1481 Clear 21 1015 77 10000 4 310 20:23 22.09.2019
1482 Clear 21 1015 77 10000 4 310 19:42 22.09.2019
1483 Clear 21 1015 77 10000 5 310 19:24 22.09.2019
1484 Clear 21 1015 77 10000 5 310 18:59 22.09.2019
1485 Clear 21 1015 77 10000 5 320 18:40 22.09.2019
1486 Clear 21 1015 77 10000 4 320 18:20 22.09.2019
1487 Clear 21 1015 77 10000 4 320 17:58 22.09.2019
1488 Clear 21 1015 77 10000 4 320 17:58 22.09.2019
1489 Clear 21 1015 77 10000 5 320 17:40 22.09.2019
1490 Clear 21 1015 77 10000 5 320 17:19 22.09.2019
1491 Clear 21 1015 77 10000 5 320 16:45 22.09.2019
1492 Clear 21 1015 77 10000 5 320 16:26 22.09.2019
1493 Rain 21 1015 77 10000 5 310 15:57 22.09.2019
1494 Rain 21 1015 77 10000 5 310 15:38 22.09.2019
1495 Rain 21 1015 77 10000 5 310 15:19 22.09.2019
1496 Rain 21 1015 68 10000 6 330 14:43 22.09.2019
1497 Rain 21 1015 68 10000 6 330 14:43 22.09.2019
1498 Rain 21 1015 68 10000 6 330 14:25 22.09.2019
1499 Rain 21 1015 77 10000 6 350 13:57 22.09.2019
1500 Rain 21 1014 73 10000 7 350 13:39 22.09.2019
1501 Rain 21 1014 73 10000 7 350 13:21 22.09.2019
1502 Clouds 22 1014 77 10000 10 340 12:44 22.09.2019
1503 Clouds 21 1013 88 10000 6 10 12:24 22.09.2019
1504 Clouds 21 1013 88 10000 6 10 11:56 22.09.2019
1505 Clouds 21 1013 83 10000 6 360 11:38 22.09.2019
1506 Clouds 21 1013 83 10000 6 360 11:38 22.09.2019
1507 Clouds 21 1013 83 10000 6 360 11:38 22.09.2019
1508 Clouds 22 1013 83 10000 6 360 11:19 22.09.2019
1509 Clouds 22 1013 83 10000 6 360 11:19 22.09.2019
1510 Clouds 23 1012 69 10000 7 350 10:44 22.09.2019
1511 Clouds 23 1012 73 10000 7 350 10:20 22.09.2019
1512 Clouds 22 1012 73 10000 7 350 09:57 22.09.2019
1513 Rain 22 1011 78 10000 9 350 09:38 22.09.2019
1514 Rain 22 1011 78 10000 9 350 09:19 22.09.2019
1515 Rain 22 1011 88 10000 11 350 08:44 22.09.2019
1516 Rain 22 1011 88 10000 11 350 08:24 22.09.2019
1517 Rain 22 1011 78 10000 9 340 07:54 22.09.2019
1518 Rain 22 1011 83 10000 9 360 07:36 22.09.2019
1519 Rain 22 1011 83 7000 9 340 07:18 22.09.2019
1520 Rain 22 1011 83 7000 9 340 07:18 22.09.2019
1521 Clouds 23 1011 69 10000 9 360 06:46 22.09.2019
1522 Rain 21 1011 69 10000 10 350 05:23 22.09.2019
1523 Rain 21 1010 83 10000 9 350 02:59 22.09.2019
1524 Rain 21 1010 77 10000 9 350 02:36 22.09.2019
1525 Rain 21 1010 77 10000 9 350 02:18 22.09.2019
1526 Rain 21 1009 88 10000 8 340 00:57 22.09.2019
1527 Rain 21 1008 88 10000 10 350 00:33 22.09.2019
1528 Rain 20 1008 88 10000 11 350 23:57 21.09.2019
1529 Rain 21 1008 88 7000 11 350 23:39 21.09.2019
1530 Rain 20 1007 88 10000 11 360 22:57 21.09.2019
1531 Rain 21 1007 94 6000 10 360 22:38 21.09.2019
1532 Rain 21 1007 94 6000 10 360 22:20 21.09.2019
1533 Rain 21 1007 94 6000 10 360 22:20 21.09.2019
1534 Rain 21 1007 94 6000 10 360 22:20 21.09.2019
1535 Rain 20 1007 94 6000 9 350 21:42 21.09.2019
1536 Rain 20 1007 94 6000 9 350 21:20 21.09.2019
1537 Rain 20 1007 100 10000 8 330 20:58 21.09.2019
1538 Rain 20 1007 93 10000 9 330 20:38 21.09.2019
1539 Rain 20 1007 93 10000 9 330 20:38 21.09.2019
1540 Rain 20 1007 93 10000 9 330 20:19 21.09.2019
1541 Rain 20 1008 88 10000 12 350 19:46 21.09.2019
1542 Rain 20 1008 88 10000 12 350 19:22 21.09.2019
1543 Rain 21 1008 77 10000 12 360 18:42 21.09.2019
1544 Rain 21 1009 77 10000 11 360 18:22 21.09.2019
1545 Rain 21 1009 77 10000 9 360 17:44 21.09.2019
1546 Rain 22 1009 77 10000 9 360 17:24 21.09.2019
1547 Clouds 22 1009 77 10000 11 360 16:58 21.09.2019
1548 Clouds 22 1009 77 10000 11 10 16:40 21.09.2019
1549 Clouds 22 1009 77 10000 11 10 16:20 21.09.2019
1550 Rain 21 1010 83 10000 10 10 15:45 21.09.2019
1551 Rain 22 1010 83 10000 10 10 15:23 21.09.2019
1552 Rain 21 1010 83 10000 10 10 14:50 21.09.2019
1553 Rain 21 1010 83 10000 10 10 14:31 21.09.2019
1554 Rain 21 1010 83 10000 8 10 13:55 21.09.2019
1555 Rain 21 1010 83 10000 8 10 13:37 21.09.2019
1556 Rain 21 1010 94 10000 7 20 13:18 21.09.2019
1557 Rain 21 1010 94 10000 8 10 12:55 21.09.2019
1558 Rain 21 1010 94 10000 8 10 12:36 21.09.2019
1559 Rain 21 1010 94 10000 7 10 12:18 21.09.2019
1560 Rain 21 1010 88 10000 9 10 11:42 21.09.2019
1561 Rain 21 1010 88 10000 9 10 11:23 21.09.2019
1562 Rain 21 1010 88 10000 8 10 10:45 21.09.2019
1563 Rain 21 1010 88 10000 8 10 10:25 21.09.2019
1564 Rain 20 1010 94 10000 8 10 09:58 21.09.2019
1565 Rain 21 1010 94 6000 8 10 09:39 21.09.2019
1566 Rain 21 1010 94 6000 8 10 09:20 21.09.2019
1567 Rain 21 1010 94 6000 8 10 09:20 21.09.2019
1568 Rain 21 1010 94 8000 7 10 08:52 21.09.2019
1569 Rain 21 1010 88 7000 10 360 08:27 21.09.2019
1570 Rain 21 1011 88 7000 10 10 07:42 21.09.2019
1571 Rain 21 1011 88 7000 10 10 07:23 21.09.2019
1572 Rain 21 1011 94 7000 8 10 06:51 21.09.2019
1573 Rain 21 1011 94 7000 8 10 06:31 21.09.2019
1574 Rain 21 1011 94 8000 8 30 04:53 21.09.2019
1575 Rain 21 1011 94 8000 8 30 04:53 21.09.2019
1576 Rain 21 1011 88 8000 9 20 04:34 21.09.2019
1577 Rain 22 1011 94 8000 8 20 02:31 21.09.2019
1578 Rain 23 1011 94 8000 6 360 01:54 21.09.2019
1579 Rain 23 1011 94 8000 6 360 01:36 21.09.2019
1580 Rain 23 1010 94 8000 5 10 00:40 21.09.2019
1581 Rain 22 1010 94 8000 5 10 00:18 21.09.2019
1582 Rain 22 1010 78 10000 9 10 23:42 20.09.2019
1583 Rain 22 1010 78 10000 9 10 23:23 20.09.2019
1584 Rain 22 1010 73 10000 9 10 22:41 20.09.2019
1585 Rain 23 1010 73 10000 9 10 22:23 20.09.2019
1586 Rain 23 1010 69 10000 7 10 21:57 20.09.2019
1587 Rain 23 1010 73 10000 7 360 21:37 20.09.2019
1588 Rain 23 1010 73 10000 7 360 21:18 20.09.2019
1589 Clear 23 1011 73 10000 6 10 20:55 20.09.2019
1590 Clear 23 1011 73 10000 6 360 20:36 20.09.2019
1591 Clouds 23 1011 68 10000 6 10 20:18 20.09.2019
1592 Clouds 23 1012 64 10000 6 10 19:42 20.09.2019
1593 Clear 23 1012 64 10000 6 20 19:21 20.09.2019
1594 Clear 23 1012 64 10000 6 20 18:56 20.09.2019
1595 Clear 23 1012 64 10000 6 20 18:36 20.09.2019
1596 Clear 23 1013 64 10000 6 20 18:18 20.09.2019
1597 Clear 23 1013 64 10000 6 20 17:43 20.09.2019
1598 Clear 23 1013 64 10000 6 20 17:25 20.09.2019
1599 Clear 23 1013 64 10000 6 20 16:43 20.09.2019
1600 Clear 23 1013 64 10000 6 20 16:21 20.09.2019
1601 Clear 23 1013 64 10000 6 30 15:58 20.09.2019
1602 Clear 23 1013 64 10000 6 30 15:58 20.09.2019
1603 Clear 23 1013 69 10000 6 20 15:39 20.09.2019
1604 Clear 24 1013 69 10000 6 20 15:21 20.09.2019
1605 Clear 24 1013 64 10000 6 30 14:42 20.09.2019
1606 Clear 24 1011 61 0 4.07 32.925 14:19 20.09.2019
1607 Clouds 24 1013 53 10000 8 20 13:48 20.09.2019
1608 Clouds 24 1013 53 10000 8 20 13:28 20.09.2019
1609 Clouds 24 1013 53 10000 8 20 12:57 20.09.2019
1610 Clouds 24 1013 53 10000 7 30 12:37 20.09.2019
1611 Clouds 25 1013 47 10000 8 30 12:18 20.09.2019
1612 Clouds 25 1013 50 10000 7 40 11:49 20.09.2019
1613 Clouds 26 1012 44 10000 7 30 11:21 20.09.2019
1614 Clouds 26 1012 44 10000 8 20 10:43 20.09.2019
1615 Clouds 26 1012 44 10000 8 20 10:43 20.09.2019
1616 Clouds 26 1012 44 10000 8 20 10:24 20.09.2019
1617 Clouds 26 1012 39 10000 7 30 09:59 20.09.2019
1618 Clouds 26 1012 44 10000 8 360 09:37 20.09.2019
1619 Clouds 26 1012 44 10000 8 360 09:37 20.09.2019
1620 Clouds 27 1012 44 10000 8 360 09:18 20.09.2019
1621 Clouds 27 1012 44 10000 6 20 08:41 20.09.2019
1622 Clouds 28 1012 44 10000 6 20 08:23 20.09.2019
1623 Clouds 27 1012 42 10000 7 360 07:47 20.09.2019
1624 Clouds 27 1012 42 10000 7 360 07:28 20.09.2019
1625 Clouds 28 1013 42 10000 6 10 06:44 20.09.2019
1626 Clouds 27 1013 42 10000 6 10 06:22 20.09.2019
1627 Clouds 27 1014 44 10000 6 10 05:47 20.09.2019
1628 Clouds 26 1015 53 10000 6 20 03:42 20.09.2019
1629 Clouds 25 1015 53 10000 6 20 03:19 20.09.2019
1630 Clouds 25 1014 73 10000 5 360 01:44 20.09.2019
1631 Clouds 24 1014 77 10000 4 360 00:53 20.09.2019
1632 Clouds 23 1014 77 10000 4 360 00:25 20.09.2019
1633 Clouds 21 1014 77 10000 3 350 23:42 19.09.2019
1634 Clouds 21 1014 77 10000 3 360 23:19 19.09.2019
1635 Clouds 21 1014 77 10000 3 360 22:56 19.09.2019
1636 Clouds 21 1014 77 10000 4 360 22:37 19.09.2019
1637 Clouds 21 1014 77 10000 4 360 22:18 19.09.2019
1638 Clouds 22 1014 77 10000 4 360 21:55 19.09.2019
1639 Clouds 21 1014 77 10000 5 360 21:36 19.09.2019
1640 Clouds 22 1014 77 10000 4 360 21:18 19.09.2019
1641 Clouds 21 1015 77 10000 3 360 20:43 19.09.2019
1642 Clouds 22 1015 77 10000 3 360 20:22 19.09.2019
1643 Clear 21 1015 77 10000 4 360 19:55 19.09.2019
1644 Clear 22 1015 77 10000 4 360 19:37 19.09.2019
1645 Clear 22 1015 77 10000 4 360 19:19 19.09.2019
1646 Clear 22 1016 73 10000 4 360 18:42 19.09.2019
1647 Clear 22 1016 73 10000 4 360 18:24 19.09.2019
1648 Clear 22 1016 73 10000 4 360 17:54 19.09.2019
1649 Clear 22 1016 73 10000 4 360 17:36 19.09.2019
1650 Clear 22 1016 73 10000 4 360 17:18 19.09.2019
1651 Clear 22 1016 68 10000 4 10 16:43 19.09.2019
1652 Clear 22 1016 68 10000 4 10 16:43 19.09.2019
1653 Clear 22 1016 68 10000 4 10 16:20 19.09.2019
1654 Clear 22 1017 64 10000 5 10 15:56 19.09.2019
1655 Clouds 22 1017 64 10000 5 10 15:38 19.09.2019
1656 Clouds 22 1017 64 10000 5 10 15:18 19.09.2019
1657 Clouds 23 1017 60 10000 6 10 14:41 19.09.2019
1658 Clouds 23 1017 60 10000 6 10 14:22 19.09.2019
1659 Clouds 23 1016 60 10000 6 10 13:58 19.09.2019
1660 Clouds 23 1016 60 10000 7 10 13:37 19.09.2019
1661 Clouds 23 1016 53 10000 7 10 13:18 19.09.2019
1662 Clouds 23 1016 57 10000 6 10 12:37 19.09.2019
1663 Clouds 24 1016 50 10000 7 10 12:18 19.09.2019
1664 Clouds 24 1016 53 10000 6 10 11:41 19.09.2019
1665 Clouds 25 1016 53 10000 6 10 11:22 19.09.2019
1666 Clouds 25 1016 53 10000 6 10 11:22 19.09.2019
1667 Clouds 25 1016 47 10000 6 30 10:59 19.09.2019
1668 Clouds 25 1016 47 10000 6 20 10:39 19.09.2019
1669 Clouds 25 1016 50 10000 6 30 10:21 19.09.2019
1670 Clouds 25 1016 50 10000 6 30 10:21 19.09.2019
1671 Clouds 26 1016 50 10000 6 30 09:57 19.09.2019
1672 Clouds 26 1016 50 10000 6 30 09:57 19.09.2019
1673 Clouds 26 1016 44 10000 6 10 09:39 19.09.2019
1674 Clouds 26 1016 44 10000 6 10 09:19 19.09.2019
1675 Clouds 26 1016 44 10000 6 20 08:50 19.09.2019
1676 Clouds 26 1016 44 10000 7 20 08:23 19.09.2019
1677 Clouds 28 1017 45 10000 8 10 07:44 19.09.2019
1678 Clouds 27 1017 44 10000 7 360 07:22 19.09.2019
1679 Clouds 27 1017 44 10000 7 360 06:54 19.09.2019
1680 Clouds 27 1017 47 10000 6 10 06:32 19.09.2019
1681 Clouds 26 1018 50 10000 6 20 05:53 19.09.2019
1682 Clouds 26 1018 50 10000 6 20 05:34 19.09.2019
1683 Clouds 27 1019 50 10000 7 10 04:18 19.09.2019
1684 Clouds 24 1019 57 10000 7 10 03:19 19.09.2019
1685 Clouds 23 1019 68 10000 5 10 01:36 19.09.2019
1686 Clear 23 1018 72 10000 5 360 00:53 19.09.2019
1687 Clear 22 1018 72 10000 5 360 00:26 19.09.2019
1688 Clear 22 1018 72 10000 5 360 23:57 18.09.2019
1689 Clear 21 1018 68 10000 5 10 23:36 18.09.2019
1690 Clear 21 1018 68 10000 5 10 23:18 18.09.2019
1691 Clear 22 1018 64 10000 6 10 22:37 18.09.2019
1692 Clear 22 1018 64 10000 6 10 22:19 18.09.2019
1693 Clear 21 1018 68 10000 6 10 21:57 18.09.2019
1694 Clouds 22 1018 68 10000 5 30 21:38 18.09.2019
1695 Clouds 22 1018 68 10000 5 30 21:18 18.09.2019
1696 Clouds 22 1018 68 10000 5 20 20:56 18.09.2019
1697 Clouds 22 1018 64 10000 7 20 20:38 18.09.2019
1698 Clouds 22 1018 68 10000 6 20 20:20 18.09.2019
1699 Clouds 22 1018 68 10000 6 20 19:55 18.09.2019
1700 Clouds 22 1018 68 10000 6 20 19:55 18.09.2019
1701 Clouds 22 1018 68 10000 6 20 19:37 18.09.2019
1702 Clouds 22 1018 68 10000 7 20 19:18 18.09.2019
1703 Clouds 22 1018 68 10000 7 20 18:54 18.09.2019
1704 Clouds 22 1018 68 10000 6 10 18:36 18.09.2019
1705 Clouds 23 1019 64 10000 6 20 18:18 18.09.2019
1706 Clouds 23 1019 64 10000 7 30 17:41 18.09.2019
1707 Clouds 23 1019 64 10000 7 30 17:19 18.09.2019
1708 Clouds 23 1019 64 10000 7 20 16:59 18.09.2019
1709 Clouds 23 1019 60 10000 8 30 16:41 18.09.2019
1710 Clouds 24 1019 60 10000 8 30 16:22 18.09.2019
1711 Clouds 24 1019 64 10000 8 30 15:56 18.09.2019
1712 Clouds 24 1019 64 10000 9 30 15:38 18.09.2019
1713 Clouds 24 1019 64 10000 9 30 15:20 18.09.2019
1714 Clouds 24 1019 61 10000 8 50 14:58 18.09.2019
1715 Clouds 25 1019 65 10000 8 30 14:39 18.09.2019
1716 Clouds 25 1019 65 10000 8 30 14:21 18.09.2019
1717 Clouds 25 1018 65 10000 7 20 13:57 18.09.2019
1718 Clouds 25 1018 65 10000 6 30 13:37 18.09.2019
1719 Clouds 25 1018 57 10000 5 10 13:18 18.09.2019
1720 Clouds 25 1018 54 10000 6 10 12:41 18.09.2019
1721 Clouds 26 1018 51 10000 8 20 12:22 18.09.2019
1722 Clear 27 1018 42 10000 7 30 11:40 18.09.2019
1723 Clear 27 1018 42 10000 7 30 11:20 18.09.2019
1724 Clear 27 1018 45 10000 9 20 10:56 18.09.2019
1725 Clear 28 1017 39 10000 8 10 10:37 18.09.2019
1726 Clear 28 1017 39 10000 8 10 10:18 18.09.2019
1727 Clear 28 1017 37 10000 8 30 09:42 18.09.2019
1728 Clear 29 1017 37 10000 8 30 09:22 18.09.2019
1729 Clear 29 1017 37 10000 8 30 09:22 18.09.2019
1730 Clear 29 1017 37 10000 8 30 09:22 18.09.2019
1731 Clear 29 1017 37 10000 8 30 09:22 18.09.2019
1732 Clear 29 1017 35 10000 10 20 08:58 18.09.2019
1733 Clear 29 1017 39 10000 9 40 08:40 18.09.2019
1734 Clear 29 1017 39 10000 9 40 08:21 18.09.2019
1735 Clear 29 1018 35 10000 8 40 07:44 18.09.2019
1736 Clear 29 1018 33 10000 10 20 07:23 18.09.2019
1737 Clear 29 1018 33 10000 9 30 06:46 18.09.2019
1738 Clear 29 1018 33 10000 9 30 06:21 18.09.2019
1739 Clear 28 1018 39 10000 8 40 05:27 18.09.2019
1740 Clouds 28 1019 51 10000 8 30 03:40 18.09.2019
1741 Clouds 26 1018 65 10000 8 10 02:40 18.09.2019
1742 Clear 27 1017 69 10000 6 360 01:44 18.09.2019
1743 Clear 26 1017 78 10000 4 360 00:56 18.09.2019
1744 Clear 25 1017 78 10000 4 360 00:32 18.09.2019
1745 Clouds 24 1016 78 10000 5 360 23:48 17.09.2019
1746 Clouds 24 1016 78 10000 5 360 23:25 17.09.2019
1747 Clear 24 1016 88 10000 4 360 23:25 17.09.2019
1748 Clear 24 1016 83 10000 4 360 22:56 17.09.2019
1749 Clear 24 1016 83 10000 4 360 22:56 17.09.2019
1750 Clear 24 1016 83 10000 4 360 22:37 17.09.2019
1751 Clear 24 1016 83 10000 4 360 22:19 17.09.2019
1752 Clear 24 1015 78 10000 4 360 21:54 17.09.2019
1753 Clear 24 1015 78 10000 4 360 21:36 17.09.2019
1754 Clear 24 1015 78 10000 4 360 21:18 17.09.2019
1755 Clear 24 1015 78 10000 4 360 20:55 17.09.2019
1756 Clear 24 1015 73 10000 4 10 20:36 17.09.2019
1757 Clear 24 1016 73 10000 4 20 20:18 17.09.2019
1758 Clear 24 1015 78 10000 5 30 19:40 17.09.2019
1759 Clouds 25 1015 73 10000 5 30 19:20 17.09.2019
1760 Clouds 25 1015 73 10000 5 30 18:59 17.09.2019
1761 Clouds 25 1015 73 10000 4 50 18:59 17.09.2019
1762 Clouds 25 1015 73 10000 4 50 18:41 17.09.2019
1763 Clouds 25 1015 73 10000 4 50 18:22 17.09.2019
1764 Clouds 25 1015 78 10000 7 30 17:47 17.09.2019
1765 Clouds 25 1015 78 10000 7 20 17:21 17.09.2019
1766 Clouds 25 1015 78 10000 7 20 16:59 17.09.2019
1767 Clouds 25 1015 73 10000 7 30 16:41 17.09.2019
1768 Clouds 25 1015 73 10000 7 30 16:22 17.09.2019
1769 Clouds 25 1015 74 10000 6 20 15:54 17.09.2019
1770 Clouds 25 1015 74 10000 5 30 15:36 17.09.2019
1771 Clouds 26 1015 74 10000 5 30 15:18 17.09.2019
1772 Clouds 26 1015 74 10000 6 10 14:54 17.09.2019
1773 Clouds 26 1015 74 10000 6 10 14:36 17.09.2019
1774 Clouds 26 1015 69 10000 4 20 14:18 17.09.2019
1775 Clouds 26 1014 69 10000 7 10 13:41 17.09.2019
1776 Clouds 26 1014 69 10000 7 10 13:22 17.09.2019
1777 Clouds 26 1013 61 10000 7 40 12:43 17.09.2019
1778 Clouds 27 1013 58 10000 6 40 12:20 17.09.2019
1779 Clouds 27 1013 58 10000 6 40 11:58 17.09.2019
1780 Clouds 27 1013 58 10000 6 40 11:58 17.09.2019
1781 Clear 27 1013 58 10000 7 30 11:40 17.09.2019
1782 Clear 28 1013 58 10000 7 30 11:18 17.09.2019
1783 Clear 28 1013 58 10000 7 30 11:18 17.09.2019
1784 Clear 28 1012 54 10000 5 30 10:42 17.09.2019
1785 Clear 28 1012 54 10000 5 30 10:22 17.09.2019
1786 Clear 29 1012 45 10000 6 20 09:58 17.09.2019
1787 Clear 29 1012 45 10000 6 30 09:39 17.09.2019
1788 Clear 29 1012 45 10000 6 10 09:19 17.09.2019
1789 Clear 29 1012 45 10000 6 10 08:44 17.09.2019
1790 Clear 29 1012 45 10000 6 10 08:25 17.09.2019
1791 Clear 29 1013 48 10000 5 40 07:46 17.09.2019
1792 Clear 29 1013 48 10000 5 40 07:28 17.09.2019
1793 Clouds 29 1013 48 10000 5 10 06:59 17.09.2019
1794 Clouds 28 1014 51 10000 5 20 06:40 17.09.2019
1795 Clouds 29 1014 54 10000 5 10 05:58 17.09.2019
1796 Clouds 28 1014 51 10000 6 30 05:33 17.09.2019
1797 Clouds 30 1014 58 10000 5 30 04:19 17.09.2019
1798 Rain 25 1014 78 10000 5 360 02:41 17.09.2019
1799 Rain 26 1014 78 10000 5 350 01:53 17.09.2019
1800 Clouds 25 1013 88 10000 4 340 00:58 17.09.2019
1801 Clouds 25 1013 88 10000 4 340 00:58 17.09.2019
1802 Clear 23 1013 83 10000 4 340 23:55 16.09.2019
1803 Clear 23 1013 83 10000 4 340 23:36 16.09.2019
1804 Clear 23 1012 83 10000 3 340 23:18 16.09.2019
1805 Clear 23 1012 88 10000 3 360 22:41 16.09.2019
1806 Clear 23 1012 88 10000 3 360 22:23 16.09.2019
1807 Clear 23 1012 83 10000 3 360 21:58 16.09.2019
1808 Clear 23 1012 83 10000 3 360 21:38 16.09.2019
1809 Clear 24 1012 83 10000 3 360 21:20 16.09.2019
1810 Clouds 24 1012 83 10000 4 360 20:55 16.09.2019
1811 Clouds 24 1012 83 10000 5 360 20:37 16.09.2019
1812 Clouds 24 1012 83 10000 5 360 20:18 16.09.2019
1813 Clouds 24 1012 83 10000 4 360 19:42 16.09.2019
1814 Clouds 24 1012 78 10000 4 360 19:20 16.09.2019
1815 Clouds 24 1012 78 10000 4 360 18:57 16.09.2019
1816 Clouds 24 1013 73 10000 4 360 18:39 16.09.2019
1817 Clouds 24 1013 73 10000 5 360 18:20 16.09.2019
1818 Clear 24 1013 73 10000 4 360 17:43 16.09.2019
1819 Clear 24 1013 73 10000 4 360 17:24 16.09.2019
1820 Clear 24 1013 73 10000 5 360 16:58 16.09.2019
1821 Clear 25 1013 69 10000 5 360 16:39 16.09.2019
1822 Clear 25 1013 69 10000 5 360 16:20 16.09.2019
1823 Clouds 25 1013 69 10000 5 10 15:56 16.09.2019
1824 Clouds 25 1013 69 10000 5 10 15:56 16.09.2019
1825 Clouds 25 1013 69 10000 5 10 15:37 16.09.2019
1826 Clouds 25 1013 69 10000 5 10 15:19 16.09.2019
1827 Clouds 25 1012 65 10000 5 10 14:44 16.09.2019
1828 Clouds 25 1012 65 10000 5 10 14:23 16.09.2019
1829 Clouds 25 1012 57 10000 5 10 13:59 16.09.2019
1830 Clouds 25 1012 57 10000 6 10 13:39 16.09.2019
1831 Clouds 25 1012 57 10000 6 10 13:39 16.09.2019
1832 Clouds 25 1012 57 10000 6 10 13:39 16.09.2019
1833 Clouds 25 1012 57 10000 6 10 13:39 16.09.2019
1834 Clouds 26 1012 57 10000 6 10 13:21 16.09.2019
1835 Clouds 26 1011 51 10000 7 10 12:45 16.09.2019
1836 Clouds 26 1011 51 10000 7 10 12:27 16.09.2019
1837 Clouds 27 1011 54 10000 6 20 11:56 16.09.2019
1838 Clouds 27 1011 54 10000 6 20 11:56 16.09.2019
1839 Clouds 27 1011 54 10000 6 20 11:56 16.09.2019
1840 Clouds 28 1011 51 10000 6 30 11:37 16.09.2019
1841 Clouds 28 1011 48 10000 6 360 11:19 16.09.2019
1842 Clouds 28 1011 45 10000 6 40 10:39 16.09.2019
1843 Clouds 28 1011 45 10000 6 40 10:20 16.09.2019
1844 Clouds 28 1011 45 10000 6 30 09:58 16.09.2019
1845 Clouds 28 1011 45 10000 5 40 09:38 16.09.2019
1846 Clouds 28 1011 45 10000 5 40 09:19 16.09.2019
1847 Clouds 29 1011 40 10000 7 20 08:46 16.09.2019
1848 Clouds 30 1011 40 10000 7 20 08:25 16.09.2019
1849 Clouds 29 1011 45 10000 6 20 07:56 16.09.2019
1850 Clouds 29 1011 45 10000 6 20 07:56 16.09.2019
1851 Clouds 30 1011 45 10000 7 10 07:37 16.09.2019
1852 Clouds 30 1012 45 10000 5 60 07:18 16.09.2019
1853 Clouds 29 1012 45 10000 6 10 06:44 16.09.2019
1854 Clouds 28 1012 45 10000 6 10 06:26 16.09.2019
1855 Clouds 29 1012 51 10000 5 20 05:46 16.09.2019
1856 Clouds 29 1012 51 10000 5 20 05:26 16.09.2019
1857 Clouds 29 1013 51 10000 5 40 04:33 16.09.2019
1858 Clouds 25 1012 69 10000 5 360 01:57 16.09.2019
1859 Clear 25 1011 83 10000 3 360 00:44 16.09.2019
1860 Clear 23 1011 83 10000 3 360 00:25 16.09.2019
1861 Clouds 23 1011 83 10000 2 350 23:42 15.09.2019
1862 Clouds 23 1011 83 10000 2 350 23:21 15.09.2019
1863 Clouds 23 1011 78 10000 4 360 22:43 15.09.2019
1864 Clouds 23 1011 78 10000 4 360 22:23 15.09.2019
1865 Clouds 23 1010 83 10000 4 360 21:58 15.09.2019
1866 Clear 24 1010 78 10000 3 360 21:40 15.09.2019
1867 Clear 24 1010 78 10000 3 360 21:22 15.09.2019
1868 Clear 23 1010 83 10000 3 360 20:59 15.09.2019
1869 Clear 23 1011 83 10000 3 360 20:41 15.09.2019
1870 Clear 23 1011 83 10000 3 360 20:23 15.09.2019
1871 Clear 23 1011 83 10000 3 360 20:23 15.09.2019
1872 Clouds 24 1011 73 10000 3 10 19:45 15.09.2019
1873 Clouds 24 1011 73 10000 4 10 19:23 15.09.2019
1874 Clear 24 1011 73 10000 3 10 18:55 15.09.2019
1875 Clear 24 1011 73 10000 3 10 18:36 15.09.2019
1876 Clear 24 1011 73 10000 4 10 18:18 15.09.2019
1877 Clear 24 1012 73 10000 4 10 17:40 15.09.2019
1878 Clear 24 1012 73 10000 4 10 17:20 15.09.2019
1879 Clear 24 1012 69 10000 4 10 16:44 15.09.2019
1880 Clear 24 1012 69 10000 4 10 16:26 15.09.2019
1881 Clear 24 1012 69 10000 4 20 15:59 15.09.2019
1882 Clear 24 1012 69 10000 5 20 15:41 15.09.2019
1883 Clear 24 1012 69 10000 5 20 15:21 15.09.2019
1884 Clear 25 1012 65 10000 5 10 14:58 15.09.2019
1885 Clear 25 1012 65 10000 5 10 14:40 15.09.2019
1886 Clear 25 1012 65 10000 5 10 14:20 15.09.2019
1887 Clear 25 1011 61 10000 6 10 13:47 15.09.2019
1888 Clear 25 1011 61 10000 6 10 13:24 15.09.2019
1889 Clear 25 1011 61 10000 6 10 12:56 15.09.2019
1890 Clear 26 1010 61 10000 6 10 12:38 15.09.2019
1891 Clear 26 1010 61 10000 6 10 12:18 15.09.2019
1892 Clouds 28 1010 58 10000 7 360 11:42 15.09.2019
1893 Clouds 28 1010 58 10000 7 360 11:22 15.09.2019
1894 Clouds 28 1010 58 10000 6 40 10:56 15.09.2019
1895 Clouds 28 1010 54 10000 6 40 10:38 15.09.2019
1896 Clouds 28 1010 54 10000 6 40 10:20 15.09.2019
1897 Clouds 29 1010 55 10000 5 40 09:40 15.09.2019
1898 Clouds 30 1010 55 10000 5 40 09:20 15.09.2019
1899 Clouds 29 1010 58 10000 5 30 08:48 15.09.2019
1900 Clouds 29 1010 62 10000 6 40 08:29 15.09.2019
1901 Clouds 29 1010 66 10000 3 30 07:51 15.09.2019
1902 Clouds 29 1010 66 10000 3 30 07:33 15.09.2019
1903 Clouds 29 1010 62 10000 5 30 06:43 15.09.2019
1904 Clouds 28 1012 74 10000 5 30 03:54 15.09.2019
1905 Clouds 27 1012 83 10000 4 10 02:46 15.09.2019
1906 Clouds 26 1011 83 10000 4 360 01:49 15.09.2019
1907 Clouds 26 1011 83 10000 4 360 01:28 15.09.2019
1908 Clouds 26 1011 83 10000 3 360 00:50 15.09.2019
1909 Clouds 26 1011 83 10000 3 360 00:24 15.09.2019
1910 Clouds 26 1011 83 10000 3 20 23:59 14.09.2019
1911 Rain 26 1011 83 10000 4 10 23:41 14.09.2019
1912 Rain 26 1011 83 10000 4 10 23:22 14.09.2019
1913 Rain 25 1011 83 10000 4 10 22:59 14.09.2019
1914 Rain 25 1011 83 10000 4 10 22:59 14.09.2019
1915 Clouds 26 1011 83 10000 4 20 22:41 14.09.2019
1916 Clouds 26 1011 83 10000 4 20 22:41 14.09.2019
1917 Clouds 26 1011 83 10000 4 20 22:21 14.09.2019
1918 Clouds 26 1010 83 10000 4 30 21:57 14.09.2019
1919 Clouds 26 1011 83 10000 4 20 21:39 14.09.2019
1920 Clouds 26 1011 83 10000 4 20 21:19 14.09.2019
1921 Clouds 26 1011 88 10000 4 10 20:55 14.09.2019
1922 Clouds 26 1011 88 10000 4 10 20:55 14.09.2019
1923 Clouds 26 1011 88 10000 4 10 20:36 14.09.2019
1924 Clouds 26 1011 88 10000 4 10 20:36 14.09.2019
1925 Clouds 26 1011 88 10000 4 10 20:18 14.09.2019
1926 Clouds 26 1011 88 10000 3 10 19:44 14.09.2019
1927 Clouds 26 1011 94 10000 3 10 19:20 14.09.2019
1928 Rain 26 1012 94 10000 2 10 18:54 14.09.2019
1929 Clouds 26 1012 83 10000 4 360 18:36 14.09.2019
1930 Rain 26 1012 83 10000 4 20 18:18 14.09.2019
1931 Clouds 26 1012 78 10000 5 10 17:41 14.09.2019
1932 Clouds 26 1012 78 10000 5 10 17:22 14.09.2019
1933 Clear 27 1012 74 10000 4 20 16:46 14.09.2019
1934 Clear 27 1012 74 10000 4 20 16:26 14.09.2019
1935 Clear 26 1012 74 10000 4 40 15:56 14.09.2019
1936 Clear 26 1012 74 10000 4 40 15:56 14.09.2019
1937 Clear 26 1012 69 10000 3 60 15:38 14.09.2019
1938 Clear 27 1012 65 10000 3 70 15:18 14.09.2019
1939 Clear 27 1012 69 10000 3 40 14:43 14.09.2019
1940 Clear 27 1012 69 10000 3 40 14:19 14.09.2019
1941 Clear 28 1012 62 10000 4 80 13:48 14.09.2019
1942 Clear 27 1012 62 10000 4 80 13:22 14.09.2019
1943 Clear 28 1011 66 10000 3 80 12:48 14.09.2019
1944 Clear 28 1011 66 10000 3 80 12:27 14.09.2019
1945 Clouds 28 1011 58 10000 4 20 11:44 14.09.2019
1946 Clouds 29 1011 58 10000 4 20 11:22 14.09.2019
1947 Clouds 29 1011 62 10000 3 10 10:59 14.09.2019
1948 Clouds 29 1010 58 10000 4 20 10:37 14.09.2019
1949 Clouds 29 1010 58 10000 4 20 10:19 14.09.2019
1950 Clouds 29 1010 62 10000 5 10 09:56 14.09.2019
1951 Clouds 30 1010 55 10000 4 30 09:38 14.09.2019
1952 Clouds 30 1010 55 10000 4 30 09:18 14.09.2019
1953 Clouds 31 1010 55 10000 3 20 08:44 14.09.2019
1954 Clouds 31 1010 55 10000 3 20 08:23 14.09.2019
1955 Clouds 31 1010 55 10000 3 20 08:23 14.09.2019
1956 Clouds 30 1011 52 10000 3 30 07:45 14.09.2019
1957 Clouds 30 1011 52 10000 3 30 07:45 14.09.2019
1958 Clouds 30 1011 52 10000 3 30 07:45 14.09.2019
1959 Clouds 30 1011 52 10000 3 30 07:27 14.09.2019
1960 Clouds 30 1011 55 10000 3 40 06:40 14.09.2019
1961 Clouds 30 1011 55 10000 4 30 06:18 14.09.2019
1962 Clouds 29 1012 62 10000 3 360 04:55 14.09.2019
1963 Clouds 30 1012 66 10000 1 0 03:38 14.09.2019
1964 Clouds 28 1012 69 10000 1 0 02:51 14.09.2019
1965 Clouds 27 1012 83 10000 1 0 01:46 14.09.2019
1966 Clouds 27 1012 83 10000 1 0 01:21 14.09.2019
1967 Clouds 27 1011 83 10000 1 80 00:55 14.09.2019
1968 Clouds 27 1011 83 10000 1 80 00:36 14.09.2019
1969 Clouds 26 1011 83 10000 1 70 00:18 14.09.2019
1970 Clouds 26 1011 83 10000 1 70 00:18 14.09.2019
1971 Clouds 26 1011 78 10000 2 90 23:37 13.09.2019
1972 Clouds 26 1011 78 10000 2 90 23:18 13.09.2019
1973 Clouds 26 1011 78 10000 2 90 22:55 13.09.2019
1974 Clouds 26 1011 78 10000 2 90 22:55 13.09.2019
1975 Clouds 26 1010 83 10000 2 90 22:37 13.09.2019
1976 Clouds 26 1010 83 10000 2 90 22:37 13.09.2019
1977 Clear 26 1010 83 10000 3 110 22:19 13.09.2019
1978 Clear 26 1010 78 10000 3 100 21:40 13.09.2019
1979 Clear 26 1010 83 10000 2 110 21:19 13.09.2019
1980 Clear 26 1010 83 10000 2 110 21:19 13.09.2019
1981 Clear 26 1010 83 10000 2 110 20:58 13.09.2019
1982 Clear 26 1011 83 10000 2 100 20:38 13.09.2019
1983 Clear 26 1011 83 10000 2 100 20:20 13.09.2019
1984 Clear 26 1011 83 10000 3 100 19:54 13.09.2019
1985 Clouds 26 1011 83 10000 3 70 19:36 13.09.2019
1986 Clouds 26 1011 78 10000 3 70 19:18 13.09.2019
1987 Clouds 26 1011 78 10000 3 80 18:38 13.09.2019
1988 Clear 26 1011 78 10000 4 100 18:20 13.09.2019
1989 Clear 26 1011 78 10000 3 90 17:55 13.09.2019
1990 Clear 26 1011 78 10000 3 90 17:55 13.09.2019
1991 Clear 26 1011 78 10000 3 90 17:36 13.09.2019
1992 Clear 26 1011 78 10000 4 110 17:18 13.09.2019
1993 Clouds 27 1012 78 10000 3 110 16:40 13.09.2019
1994 Clear 27 1011 78 10000 3 100 16:20 13.09.2019
1995 Clear 27 1011 74 10000 3 90 15:43 13.09.2019
1996 Clear 27 1011 74 10000 3 90 15:25 13.09.2019
1997 Clear 27 1011 74 10000 4 80 14:56 13.09.2019
1998 Clear 27 1011 69 10000 4 100 14:37 13.09.2019
1999 Clear 27 1011 69 10000 4 100 14:37 13.09.2019
2000 Clear 27 1011 69 10000 4 100 14:19 13.09.2019
2001 Clear 27 1010 66 10000 3 90 13:44 13.09.2019
2002 Clear 28 1010 66 10000 3 80 13:22 13.09.2019
2003 Clear 28 1009 66 10000 5 100 12:46 13.09.2019
2004 Clouds 28 1009 62 10000 4 90 12:26 13.09.2019
2005 Clouds 29 1009 62 10000 4 90 11:57 13.09.2019
2006 Clouds 29 1009 58 10000 3 100 11:20 13.09.2019
2007 Clouds 30 1009 55 10000 3 90 10:59 13.09.2019
2008 Clouds 30 1009 55 10000 4 110 10:37 13.09.2019
2009 Clouds 30 1008 52 10000 4 110 10:18 13.09.2019
2010 Clouds 30 1009 55 10000 4 80 09:43 13.09.2019
2011 Clouds 31 1009 55 10000 4 80 09:21 13.09.2019
2012 Clouds 31 1009 55 10000 5 100 08:57 13.09.2019
2013 Clouds 31 1009 52 10000 4 110 08:39 13.09.2019
2014 Clouds 31 1009 52 10000 4 110 08:39 13.09.2019
2015 Clouds 31 1009 52 10000 4 110 08:20 13.09.2019
2016 Clouds 31 1009 52 10000 3 90 07:41 13.09.2019
2017 Clouds 31 1010 55 10000 2 0 07:22 13.09.2019
2018 Clouds 30 1010 55 10000 3 60 06:38 13.09.2019
2019 Clouds 29 1010 62 10000 3 0 05:36 13.09.2019
2020 Clouds 28 1011 69 10000 2 50 03:53 13.09.2019
2021 Clouds 28 1011 69 10000 3 30 03:26 13.09.2019
2022 Clouds 26 1011 78 10000 3 360 02:20 13.09.2019
2023 Clouds 26 1011 78 10000 2 360 01:37 13.09.2019
2024 Clouds 25 1011 88 10000 2 360 00:59 13.09.2019
2025 Clouds 25 1010 83 10000 2 360 00:35 13.09.2019
2026 Clouds 25 1010 83 10000 2 10 23:53 12.09.2019
2027 Clouds 24 1010 83 10000 2 20 23:25 12.09.2019
2028 Clouds 24 1010 83 10000 3 360 22:58 12.09.2019
2029 Clouds 24 1010 83 10000 2 360 22:39 12.09.2019
2030 Clouds 24 1010 83 10000 2 360 22:21 12.09.2019
2031 Clouds 24 1010 83 10000 1 0 21:55 12.09.2019
2032 Clouds 24 1010 83 10000 2 30 21:37 12.09.2019
2033 Clouds 24 1010 83 10000 2 30 21:18 12.09.2019
2034 Clouds 25 1011 78 10000 1 0 20:44 12.09.2019
2035 Clouds 25 1011 78 10000 1 0 20:22 12.09.2019
2036 Clouds 25 1011 78 10000 1 90 19:57 12.09.2019
2037 Clouds 25 1011 78 10000 2 90 19:39 12.09.2019
2038 Clear 25 1011 74 10000 3 120 19:19 12.09.2019
2039 Clear 25 1011 74 10000 3 120 18:56 12.09.2019
2040 Clear 25 1011 74 10000 2 90 18:36 12.09.2019
2041 Clear 25 1012 74 10000 2 90 18:18 12.09.2019
2042 Clear 25 1012 74 10000 3 110 17:40 12.09.2019
2043 Clear 26 1012 74 10000 3 100 17:20 12.09.2019
2044 Clear 26 1012 74 10000 3 100 16:55 12.09.2019
2045 Clear 25 1012 74 10000 2 80 16:36 12.09.2019
2046 Clear 25 1012 74 10000 2 80 16:18 12.09.2019
2047 Clouds 26 1012 74 10000 3 70 15:40 12.09.2019
2048 Clouds 26 1012 69 10000 4 90 15:21 12.09.2019
2049 Clouds 26 1012 69 10000 4 80 14:45 12.09.2019
2050 Clouds 26 1012 69 10000 4 80 14:45 12.09.2019
2051 Clouds 26 1012 69 10000 4 80 14:21 12.09.2019
2052 -273 0 0 0 0 0 13:55 12.09.2019
2053 Clouds 26 1012 74 10000 5 60 13:37 12.09.2019
2054 Clouds 27 1012 69 10000 4 60 13:18 12.09.2019
2055 Clouds 27 1011 69 10000 5 70 12:43 12.09.2019
2056 Clouds 28 1011 66 10000 5 80 12:19 12.09.2019
2057 Clouds 28 1011 66 10000 5 80 11:55 12.09.2019
2058 Clouds 28 1011 66 10000 5 70 11:36 12.09.2019
2059 Clouds 29 1011 66 10000 5 50 11:18 12.09.2019
2060 Clouds 30 1011 62 10000 5 70 10:43 12.09.2019
2061 Clouds 30 1011 62 10000 5 70 10:24 12.09.2019
2062 Clouds 30 1011 55 10000 3 360 09:44 12.09.2019
2063 Clouds 30 1011 55 10000 3 360 09:44 12.09.2019
2064 Clouds 31 1011 55 10000 3 360 09:21 12.09.2019
2065 Clouds 30 1011 55 10000 2 0 08:58 12.09.2019
2066 Clouds 30 1011 55 10000 3 0 08:39 12.09.2019
2067 Clouds 31 1012 55 10000 4 10 08:21 12.09.2019
2068 Clouds 31 1012 58 10000 4 10 07:39 12.09.2019
2069 Clouds 31 1013 62 10000 5 360 07:19 12.09.2019
2070 Clouds 31 1013 62 10000 4 10 06:50 12.09.2019
2071 Clouds 31 1013 62 10000 4 10 06:50 12.09.2019
2072 Clouds 30 1013 58 10000 4 10 06:19 12.09.2019
2073 Clouds 30 1014 66 10000 3 30 05:48 12.09.2019
2074 Clouds 30 1014 66 10000 3 30 05:27 12.09.2019
2075 Clouds 30 1014 66 10000 2 10 04:34 12.09.2019
2076 Clear 27 1014 83 10000 3 50 01:48 12.09.2019
2077 Clear 27 1014 83 10000 3 50 01:30 12.09.2019
2078 Clouds 26 1014 94 10000 3 10 00:51 12.09.2019
2079 Clouds 26 1014 88 10000 2 10 00:31 12.09.2019
2080 Clear 26 1013 83 10000 1 0 23:57 11.09.2019
2081 Clear 26 1013 83 10000 1 0 23:37 11.09.2019
2082 Clouds 26 1013 88 10000 1 20 23:19 11.09.2019
2083 Clouds 26 1013 88 10000 1 20 22:55 11.09.2019
2084 Clouds 26 1013 83 10000 2 10 22:37 11.09.2019
2085 Clouds 26 1013 83 10000 2 10 22:18 11.09.2019
2086 Clouds 26 1013 83 10000 2 10 22:18 11.09.2019
2087 Clouds 26 1013 83 10000 1 60 21:41 11.09.2019
2088 Clouds 26 1013 83 10000 1 60 21:23 11.09.2019
2089 Clear 26 1013 83 10000 2 90 20:56 11.09.2019
2090 Clear 26 1013 83 10000 2 90 20:38 11.09.2019
2091 Clear 26 1013 83 10000 2 90 20:19 11.09.2019
2092 Clear 26 1013 83 10000 2 90 20:19 11.09.2019
2093 Clear 26 1013 83 10000 2 90 20:19 11.09.2019
2094 Clear 26 1013 83 10000 2 80 19:57 11.09.2019
2095 Clear 26 1013 83 10000 2 80 19:57 11.09.2019
2096 Clear 26 1013 83 10000 2 100 19:39 11.09.2019
2097 Clear 26 1014 83 10000 2 100 19:19 11.09.2019
2098 Clear 26 1014 83 10000 3 100 18:55 11.09.2019
2099 Clear 26 1014 83 10000 3 100 18:37 11.09.2019
2100 Clear 26 1014 78 10000 3 100 18:18 11.09.2019
2101 Clouds 26 1014 78 10000 3 120 17:41 11.09.2019
2102 Clouds 26 1014 78 10000 3 120 17:41 11.09.2019
2103 Clouds 26 1014 78 10000 3 120 17:22 11.09.2019
2104 Clouds 26 1014 78 10000 2 80 16:57 11.09.2019
2105 Clear 27 1014 74 10000 2 80 16:38 11.09.2019
2106 Clear 27 1014 74 10000 2 80 16:19 11.09.2019
2107 Clouds 26 1015 74 10000 3 90 15:47 11.09.2019
2108 Clouds 27 1015 74 10000 3 90 15:24 11.09.2019
2109 Clouds 27 1015 74 10000 4 70 14:58 11.09.2019
2110 Clouds 27 1014 69 10000 4 60 14:39 11.09.2019
2111 Clouds 27 1014 74 10000 5 80 14:20 11.09.2019
2112 Clouds 28 1014 74 10000 5 80 13:57 11.09.2019
2113 Clouds 28 1014 74 10000 4 80 13:36 11.09.2019
2114 Clouds 28 1013 70 10000 4 70 13:18 11.09.2019
2115 Clouds 28 1013 74 10000 4 80 12:42 11.09.2019
2116 Clouds 28 1013 74 10000 4 80 12:21 11.09.2019
2117 Clouds 29 1013 74 10000 5 80 11:56 11.09.2019
2118 Clouds 29 1013 70 10000 4 70 11:37 11.09.2019
2119 Clouds 30 1013 70 10000 5 80 11:18 11.09.2019
2120 Clouds 30 1013 66 10000 6 80 10:40 11.09.2019
2121 Clouds 30 1013 66 10000 6 80 10:22 11.09.2019
2122 Clouds 31 1013 59 10000 4 40 09:56 11.09.2019
2123 Clouds 31 1013 55 10000 4 20 09:36 11.09.2019
2124 Clouds 31 1013 55 10000 4 20 09:18 11.09.2019
2125 Clouds 31 1013 55 10000 4 30 08:40 11.09.2019
2126 Clouds 31 1013 55 10000 4 30 08:21 11.09.2019
2127 Clouds 31 1013 59 10000 4 20 07:46 11.09.2019
2128 Clouds 31 1013 59 10000 3 40 07:23 11.09.2019
2129 Clouds 31 1013 59 10000 3 40 06:54 11.09.2019
2130 Clouds 31 1014 62 10000 4 20 06:35 11.09.2019
2131 Clouds 31 1014 59 10000 3 50 05:49 11.09.2019
2132 Clouds 31 1014 59 10000 3 50 05:29 11.09.2019
2133 Clouds 30 1014 62 10000 3 40 04:51 11.09.2019
2134 Clear 30 1015 66 10000 2 40 03:37 11.09.2019
2135 Clear 29 1015 74 10000 1 0 02:56 11.09.2019
2136 Clear 29 1015 74 10000 2 120 02:26 11.09.2019
2137 Mist 26 1014 88 5000 1 100 00:53 11.09.2019
2138 Mist 27 1014 88 5000 1 100 00:29 11.09.2019
2139 Mist 26 1014 88 5000 1 0 23:56 10.09.2019
2140 Mist 26 1014 88 7000 1 80 23:38 10.09.2019
2141 Mist 26 1014 88 7000 2 70 23:20 10.09.2019
2142 Mist 26 1013 88 7000 1 80 22:41 10.09.2019
2143 Mist 26 1013 88 7000 1 80 22:20 10.09.2019
2144 Mist 26 1013 88 7000 1 70 21:56 10.09.2019
2145 Mist 26 1013 88 7000 2 110 21:38 10.09.2019
2146 Mist 26 1013 88 7000 3 110 21:20 10.09.2019
2147 Mist 26 1013 88 7000 3 110 20:58 10.09.2019
2148 Mist 26 1013 94 8000 2 120 20:38 10.09.2019
2149 Mist 26 1013 94 8000 2 120 20:20 10.09.2019
2150 Mist 26 1013 88 8000 1 0 19:56 10.09.2019
2151 Mist 26 1013 83 10000 2 110 19:37 10.09.2019
2152 Mist 26 1013 83 10000 1 0 19:19 10.09.2019
2153 Mist 26 1013 83 10000 1 0 18:55 10.09.2019
2154 Mist 26 1013 88 10000 1 0 18:37 10.09.2019
2155 Mist 27 1013 88 10000 1 0 18:18 10.09.2019
2156 Mist 27 1013 83 10000 3 150 17:43 10.09.2019
2157 Mist 27 1013 83 10000 3 150 17:22 10.09.2019
2158 Clear 27 1013 78 10000 2 150 16:58 10.09.2019
2159 Clear 27 1013 83 10000 2 160 16:39 10.09.2019
2160 Clear 27 1013 83 10000 2 160 16:21 10.09.2019
2161 Clear 28 1013 74 10000 2 150 15:57 10.09.2019
2162 Clear 28 1012 74 10000 3 140 15:39 10.09.2019
2163 Clear 28 1012 74 10000 3 140 15:20 10.09.2019
2164 Clear 28 1012 74 10000 4 120 14:41 10.09.2019
2165 Clear 29 1012 74 10000 4 120 14:22 10.09.2019
2166 Clear 28 1011 78 10000 3 150 13:54 10.09.2019
2167 Clear 29 1011 74 10000 3 150 13:36 10.09.2019
2168 Clear 29 1011 74 10000 3 150 13:36 10.09.2019
2169 Clear 29 1011 74 10000 3 150 13:18 10.09.2019
2170 Clear 29 1010 74 10000 2 90 12:42 10.09.2019
2171 Clouds 29 1010 74 10000 3 70 12:24 10.09.2019
2172 Clouds 29 1010 70 8000 2 100 11:54 10.09.2019
2173 Clouds 30 1010 70 8000 2 100 11:36 10.09.2019
2174 Rain 30 1010 74 6000 3 140 11:18 10.09.2019
2175 Clouds 30 1009 74 6000 5 110 10:39 10.09.2019
2176 Clouds 31 1009 66 6000 4 110 10:19 10.09.2019
2177 Clouds 31 1009 62 8000 3 30 09:50 10.09.2019
2178 Clear 32 1009 59 10000 2 0 09:20 10.09.2019
2179 Clear 32 1009 59 10000 2 0 08:59 10.09.2019
2180 Clouds 32 1009 55 10000 1 0 08:41 10.09.2019
2181 Clouds 32 1009 55 10000 2 0 08:22 10.09.2019
2182 Clouds 33 1009 59 10000 2 0 07:44 10.09.2019
2183 Clouds 32 1009 59 10000 2 0 07:26 10.09.2019
2184 Clouds 33 1010 62 10000 1 0 06:51 10.09.2019
2185 Clouds 33 1010 62 10000 1 0 06:31 10.09.2019
2186 Clouds 31 1010 62 8000 1 0 04:57 10.09.2019
2187 Clear 32 1011 70 7000 2 170 03:48 10.09.2019
2188 Mist 28 1010 78 10000 2 140 02:23 10.09.2019
2189 Mist 27 1010 83 10000 1 0 01:54 10.09.2019
2190 Mist 27 1010 83 10000 1 0 01:28 10.09.2019
2191 Fog 27 1010 94 10000 1 360 00:44 10.09.2019
2192 Fog 25 1009 88 10000 1 0 00:24 10.09.2019
2193 Mist 25 1009 88 10000 2 360 23:46 09.09.2019
2194 Mist 25 1009 94 10000 1 360 23:20 09.09.2019
2195 Mist 25 1009 94 10000 1 360 22:56 09.09.2019
2196 Mist 25 1009 94 10000 1.05 290.002 22:37 09.09.2019
2197 Mist 25 1009 88 10000 1.05 290.002 22:19 09.09.2019
2198 Mist 25 1009 88 10000 1.05 290.002 21:56 09.09.2019
2199 Mist 25 1009 88 10000 1.05 290.002 21:37 09.09.2019
2200 Clear 25 1008 88 10000 0.88 247.591 21:19 09.09.2019
2201 Clear 25 1008 88 10000 0.88 247.591 20:55 09.09.2019
2202 Clouds 25 1008 88 10000 1 170 20:37 09.09.2019
2203 Clouds 26 1008 83 10000 2 190 20:18 09.09.2019
2204 Clouds 26 1008 83 10000 2 190 19:56 09.09.2019
2205 Clear 26 1008 83 10000 2 160 19:38 09.09.2019
2206 Clear 26 1008 83 10000 2 160 19:19 09.09.2019
2207 Clear 26 1008 83 10000 1 0 18:56 09.09.2019
2208 Clear 26 1008 83 10000 1 0 18:37 09.09.2019
2209 Clear 26 1009 83 10000 1 0 18:19 09.09.2019
2210 Clear 26 1009 83 10000 1 0 17:56 09.09.2019
2211 Clear 26 1008 83 10000 2 90 17:38 09.09.2019
2212 Clear 26 1008 83 10000 2 0 17:20 09.09.2019
2213 Clear 26 1008 83 10000 2 0 17:20 09.09.2019
2214 Clear 26 1008 83 10000 2 10 16:41 09.09.2019
2215 Clear 26 1008 83 10000 2 10 16:21 09.09.2019
2216 Clear 26 1008 83 10000 2 10 15:57 09.09.2019
2217 Clear 26 1008 83 10000 2 10 15:57 09.09.2019
2218 Clear 26 1008 83 10000 3 30 15:39 09.09.2019
2219 Clear 27 1008 83 10000 3 20 15:21 09.09.2019
2220 Clear 26 1008 83 10000 3 20 14:57 09.09.2019
2221 Clear 27 1007 74 10000 3 10 14:39 09.09.2019
2222 Clear 27 1007 78 10000 3 10 14:21 09.09.2019
2223 Clear 27 1007 78 10000 3 10 13:54 09.09.2019
2224 Clear 27 1006 78 10000 3 360 13:36 09.09.2019
2225 Clear 27 1006 78 10000 4 360 13:18 09.09.2019
2226 Clear 27 1006 74 10000 5 360 12:41 09.09.2019
2227 Clouds 28 1006 70 10000 5 10 12:22 09.09.2019
2228 Clouds 28 1006 70 10000 5 10 11:58 09.09.2019
2229 Clouds 28 1005 70 10000 4 10 11:40 09.09.2019
2230 Clouds 28 1005 70 10000 5 350 11:18 09.09.2019
2231 Clouds 29 1005 62 10000 5 330 10:42 09.09.2019
2232 Clouds 30 1005 58 10000 3 310 10:23 09.09.2019
2233 Clouds 29 1005 58 10000 3 310 09:58 09.09.2019
2234 Clouds 29 1004 62 10000 5 340 09:39 09.09.2019
2235 Clouds 30 1004 55 10000 5 310 09:21 09.09.2019
2236 Clouds 30 1005 58 10000 5 290 08:39 09.09.2019
2237 Clouds 30 1005 58 10000 5 290 08:39 09.09.2019
2238 Clouds 30 1005 58 10000 5 300 08:20 09.09.2019
2239 Clouds 30 1005 62 10000 5 290 07:48 09.09.2019
2240 Clouds 31 1005 62 10000 5 290 07:28 09.09.2019
2241 Clouds 29 1005 62 10000 5 310 06:59 09.09.2019
2242 Clouds 29 1006 62 10000 5 280 06:40 09.09.2019
2243 Clouds 29 1006 62 10000 4 300 05:34 09.09.2019
2244 Clouds 27 1007 74 8000 5 310 02:59 09.09.2019
2245 Clouds 26 1007 83 6000 4 310 02:39 09.09.2019
2246 Mist 25 1006 88 5000 4 300 00:50 09.09.2019
2247 Clouds 25 1006 88 7000 3 300 00:22 09.09.2019
2248 Clear 25 1006 88 10000 4 300 23:46 08.09.2019
2249 Clear 25 1006 88 10000 4 300 23:26 08.09.2019
2250 Rain 25 1005 88 10000 4 300 22:57 08.09.2019
2251 Clear 25 1005 88 10000 4 310 22:38 08.09.2019
2252 Clear 25 1005 88 10000 4 320 22:20 08.09.2019
2253 Clear 25 1005 88 10000 4 320 21:42 08.09.2019
2254 Clear 25 1005 88 10000 4 320 21:42 08.09.2019
2255 Clear 24 1005 88 10000 3 320 21:23 08.09.2019
2256 Clear 24 1005 88 10000 3 320 20:59 08.09.2019
2257 Clear 24 1005 88 10000 3 320 20:59 08.09.2019
2258 Clear 24 1005 88 10000 4 310 20:40 08.09.2019
2259 Clear 24 1005 88 10000 3 320 20:21 08.09.2019
2260 Clear 25 1005 88 10000 3 320 19:59 08.09.2019
2261 Clear 25 1005 88 10000 3 330 19:38 08.09.2019
2262 Clear 25 1006 83 10000 4 320 19:19 08.09.2019
2263 Clear 25 1006 83 10000 4 320 18:57 08.09.2019
2264 Clear 25 1006 83 10000 3 330 18:38 08.09.2019
2265 Clear 25 1006 88 10000 3 350 18:18 08.09.2019
2266 Clear 25 1006 88 10000 3 350 17:54 08.09.2019
2267 Clear 25 1006 83 10000 4 360 17:36 08.09.2019
2268 Clear 25 1007 83 10000 3 10 17:18 08.09.2019
2269 Clear 25 1007 83 10000 3 10 17:18 08.09.2019
2270 Clear 25 1007 83 10000 3 40 16:43 08.09.2019
2271 Clear 25 1007 83 10000 3 40 16:22 08.09.2019
2272 Clear 25 1007 83 10000 3 40 15:58 08.09.2019
2273 Clear 26 1007 78 10000 3 40 15:40 08.09.2019
2274 Clear 26 1007 78 10000 4 50 15:21 08.09.2019
2275 Clear 26 1007 78 10000 4 50 14:55 08.09.2019
2276 Clear 26 1006 74 10000 4 20 14:36 08.09.2019
2277 Clear 26 1006 69 10000 4 40 14:18 08.09.2019
2278 Clear 26 1006 69 10000 5 30 13:55 08.09.2019
2279 Clear 26 1006 69 10000 5 30 13:36 08.09.2019
2280 Clear 27 1005 65 10000 4 50 13:18 08.09.2019
2281 Clear 27 1005 61 10000 4 60 12:41 08.09.2019
2282 Clear 28 1005 62 10000 4 50 12:23 08.09.2019
2283 Clear 28 1005 62 10000 4 50 11:58 08.09.2019
2284 Clear 29 1005 58 10000 5 30 11:38 08.09.2019
2285 Clear 29 1005 58 10000 5 30 11:38 08.09.2019
2286 Clear 29 1005 58 10000 5 30 11:38 08.09.2019
2287 Clear 28 1005 55 10000 5 30 11:19 08.09.2019
2288 Clear 29 1005 51 10000 4 20 10:55 08.09.2019
2289 Clear 29 1005 51 10000 4 20 10:37 08.09.2019
2290 Clear 29 1005 48 10000 5 20 10:18 08.09.2019
2291 Clear 29 1005 52 10000 4 10 09:38 08.09.2019
2292 Clear 30 1005 43 10000 4 60 09:20 08.09.2019
2293 Clear 30 1005 43 10000 4 60 08:56 08.09.2019
2294 Clear 30 1005 45 10000 5 360 08:36 08.09.2019
2295 Clear 30 1005 48 10000 5 360 08:18 08.09.2019
2296 Clouds 30 1005 46 10000 3 360 07:38 08.09.2019
2297 Clouds 30 1006 48 10000 4 50 07:20 08.09.2019
2298 Clouds 30 1006 51 10000 5 360 06:45 08.09.2019
2299 Clouds 29 1006 55 10000 3 20 05:48 08.09.2019
2300 Clouds 30 1006 55 10000 3 20 05:29 08.09.2019
2301 Clouds 29 1007 58 10000 2 360 03:39 08.09.2019
2302 Clear 28 1007 69 8000 1 0 02:53 08.09.2019
2303 Mist 26 1006 83 4500 1 10 01:57 08.09.2019
2304 Mist 26 1006 83 4500 1 10 01:34 08.09.2019
2305 Mist 26 1006 94 4500 1 70 00:50 08.09.2019
2306 Mist 26 1006 94 4500 1 70 00:32 08.09.2019
2307 Mist 24 1006 88 5000 1.37 29.148 23:59 07.09.2019
2308 Clear 24 1006 88 7000 1 50 23:37 07.09.2019
2309 Clear 25 1006 88 7000 1 20 23:19 07.09.2019
2310 Clear 25 1006 88 8000 1.37 29.148 22:44 07.09.2019
2311 Clear 25 1006 88 8000 1 90 22:25 07.09.2019
2312 Clear 25 1006 88 8000 1 90 21:59 07.09.2019
2313 Clear 25 1006 83 10000 1.37 29.148 21:39 07.09.2019
2314 Clear 25 1006 78 10000 0.5 32.25 21:21 07.09.2019
2315 Clear 25 1006 78 10000 1 210 20:41 07.09.2019
2316 Clear 25 1006 73 10000 0.95 52.84 20:22 07.09.2019
2317 Clear 25 1006 73 10000 0.95 52.84 19:57 07.09.2019
2318 Clear 26 1006 73 10000 0.95 52.84 19:38 07.09.2019
2319 Clear 26 1006 73 10000 1 0 19:20 07.09.2019
2320 Clear 26 1006 73 10000 1 0 18:59 07.09.2019
2321 Clear 26 1006 69 10000 1 10 18:40 07.09.2019
2322 Clear 26 1006 65 10000 1 40 18:20 07.09.2019
2323 Clear 26 1007 65 10000 2 50 17:59 07.09.2019
2324 Clear 26 1007 65 10000 2 50 17:59 07.09.2019
2325 Clear 26 1007 65 10000 2 50 17:39 07.09.2019
2326 Clear 27 1007 69 10000 1 70 17:18 07.09.2019
2327 Clear 27 1007 69 10000 1 70 16:57 07.09.2019
2328 Clear 27 1007 69 10000 1 70 16:57 07.09.2019
2329 Clear 27 1007 65 10000 2 50 16:39 07.09.2019
2330 Clear 27 1007 65 10000 1 30 16:19 07.09.2019
2331 Clear 28 1006 61 10000 2 50 15:45 07.09.2019
2332 Clouds 28 1006 61 10000 2 30 15:26 07.09.2019
2333 Clouds 28 1006 61 10000 2 30 14:56 07.09.2019
2334 Clouds 28 1006 69 10000 2 10 14:36 07.09.2019
2335 Clear 28 1006 65 10000 1 0 14:18 07.09.2019
2336 Clear 28 1006 65 10000 1 0 13:56 07.09.2019
2337 Clear 28 1005 65 10000 2 260 13:37 07.09.2019
2338 Clouds 28 1005 65 10000 2 250 13:18 07.09.2019
2339 Clouds 28 1005 65 10000 2 250 13:18 07.09.2019
2340 Clouds 28 1005 62 10000 3 280 12:42 07.09.2019
2341 Clouds 29 1004 62 10000 3 270 12:23 07.09.2019
2342 Clouds 29 1004 62 10000 3 260 11:41 07.09.2019
2343 Clouds 29 1004 58 10000 4 270 11:22 07.09.2019
2344 Clouds 29 1004 58 10000 4 270 10:56 07.09.2019
2345 Clouds 30 1004 58 10000 3 280 10:37 07.09.2019
2346 Clouds 30 1003 58 10000 4 270 10:18 07.09.2019
2347 Clouds 31 1003 55 10000 4 240 09:42 07.09.2019
2348 Clouds 31 1003 52 10000 3 280 09:22 07.09.2019
2349 Clouds 30 1003 58 10000 4 290 08:49 07.09.2019
2350 Clouds 30 1003 58 10000 4 290 08:31 07.09.2019
2351 Clouds 30 1003 55 10000 5 280 07:57 07.09.2019
2352 Clouds 30 1004 58 10000 4 280 07:38 07.09.2019
2353 Clouds 30 1004 58 10000 5 290 07:20 07.09.2019
2354 Clouds 29 1004 62 10000 5 280 06:42 07.09.2019
2355 Clouds 29 1004 62 10000 5 300 05:40 07.09.2019
2356 Clouds 27 1004 69 10000 7 290 04:26 07.09.2019
2357 Clouds 29 1004 65 10000 6 290 03:41 07.09.2019
2358 Clouds 26 1003 78 10000 6 280 02:22 07.09.2019
2359 Clouds 26 1002 83 10000 4 270 01:27 07.09.2019
2360 Clouds 26 1002 83 10000 4 270 01:27 07.09.2019
2361 Clouds 25 1002 88 10000 3 270 00:52 07.09.2019
2362 Clouds 24 1001 88 10000 4 280 00:23 07.09.2019
2363 Clouds 24 1001 88 10000 4 280 23:57 06.09.2019
2364 Clouds 24 1001 88 10000 4 270 23:37 06.09.2019
2365 Clouds 24 1001 88 10000 4 270 23:18 06.09.2019
2366 Clouds 24 1001 88 10000 4 270 23:18 06.09.2019
2367 Clouds 24 1000 83 10000 5 270 22:55 06.09.2019
2368 Clouds 24 1000 83 10000 5 270 22:36 06.09.2019
2369 Clouds 24 1000 83 10000 5 280 22:18 06.09.2019
2370 Clouds 24 1000 83 10000 5 280 21:41 06.09.2019
2371 Clouds 24 1000 83 10000 5 280 21:41 06.09.2019
2372 Clouds 24 999 83 10000 6 270 21:23 06.09.2019
2373 Clouds 24 999 83 10000 6 270 20:59 06.09.2019
2374 Clouds 24 999 88 10000 6 280 20:40 06.09.2019
2375 Clouds 24 999 83 10000 6 280 20:21 06.09.2019
2376 Clouds 24 999 83 10000 6 280 19:58 06.09.2019
2377 Clouds 25 999 83 10000 5 280 19:40 06.09.2019
2378 Clouds 25 999 83 10000 5 290 19:20 06.09.2019
2379 Clouds 25 999 83 10000 6 310 18:47 06.09.2019
2380 Clouds 25 999 83 10000 6 310 18:29 06.09.2019
2381 Clouds 25 999 83 10000 6 310 17:59 06.09.2019
2382 Clouds 25 999 83 10000 6 310 17:38 06.09.2019
2383 Clouds 25 999 83 10000 6 320 17:19 06.09.2019
2384 Clouds 26 999 83 10000 7 320 16:42 06.09.2019
2385 Clouds 25 999 83 10000 7 320 16:19 06.09.2019
2386 Clouds 25 999 88 10000 7 320 15:56 06.09.2019
2387 Clouds 25 999 88 10000 7 320 15:38 06.09.2019
2388 Clouds 25 999 88 10000 6 320 15:20 06.09.2019
2389 Clouds 25 998 88 10000 6 330 14:39 06.09.2019
2390 Clear 25 998 83 10000 6 340 14:18 06.09.2019
2391 Clear 25 998 88 10000 7 340 13:43 06.09.2019
2392 Clear 25 998 88 10000 8 360 13:22 06.09.2019
2393 Clouds 25 998 88 10000 7 350 12:39 06.09.2019
2394 Clouds 26 999 88 10000 8 350 12:21 06.09.2019
2395 Clouds 26 999 88 10000 8 350 11:57 06.09.2019
2396 Rain 26 999 94 10000 11 360 11:39 06.09.2019
2397 Rain 26 999 94 10000 11 360 11:39 06.09.2019
2398 Rain 26 999 88 10000 10 20 11:20 06.09.2019
2399 Rain 26 999 83 10000 9 360 10:42 06.09.2019
2400 Clouds 27 999 83 10000 8 360 10:22 06.09.2019
2401 Clouds 27 999 83 10000 8 360 09:58 06.09.2019
2402 Clouds 27 999 88 10000 9 10 09:37 06.09.2019
2403 Clouds 28 999 78 10000 8 350 09:18 06.09.2019
2404 Clouds 28 1000 83 10000 7 10 08:44 06.09.2019
2405 Clouds 28 1000 83 10000 7 10 08:26 06.09.2019
2406 Rain 28 1000 83 10000 6 360 07:50 06.09.2019
2407 Rain 28 1000 83 10000 6 360 07:28 06.09.2019
2408 Rain 27 1002 94 10000 2 0 06:58 06.09.2019
2409 Rain 28 1002 94 10000 2 0 06:31 06.09.2019
2410 Rain 28 1003 94 10000 1 0 05:44 06.09.2019
2411 Rain 28 1003 94 10000 3 280 04:54 06.09.2019
2412 Rain 27 1004 100 8000 3 110 04:23 06.09.2019
2413 Rain 25 1004 100 10000 3 130 02:40 06.09.2019
2414 Rain 26 1003 100 10000 5 350 00:51 06.09.2019
2415 Rain 26 1004 100 10000 3 10 23:58 05.09.2019
2416 Clouds 26 1004 94 10000 4 350 23:40 05.09.2019
2417 Clouds 26 1004 94 10000 3 350 23:21 05.09.2019
2418 Clouds 26 1004 94 10000 2 330 22:45 05.09.2019
2419 Clouds 26 1004 94 10000 2 330 22:25 05.09.2019
2420 Clouds 26 1004 94 10000 2 30 21:57 05.09.2019
2421 Rain 26 1004 94 10000 2 320 21:38 05.09.2019
2422 Clouds 26 1004 100 10000 3 300 21:19 05.09.2019
2423 Clouds 26 1004 100 10000 3 300 20:57 05.09.2019
2424 Rain 26 1004 94 10000 1 0 20:38 05.09.2019
2425 Rain 26 1004 94 10000 1 0 20:38 05.09.2019
2426 Rain 26 1004 94 10000 3 10 20:19 05.09.2019
2427 Rain 26 1005 94 10000 3 350 19:56 05.09.2019
2428 Rain 26 1005 94 10000 3 350 19:37 05.09.2019
2429 Rain 26 1005 94 10000 3 350 19:18 05.09.2019
2430 Rain 26 1005 94 10000 3 20 18:41 05.09.2019
2431 Clear 26 1005 88 10000 2 20 18:21 05.09.2019
2432 Clear 26 1006 88 10000 2 60 17:57 05.09.2019
2433 Clear 26 1006 88 10000 2 60 17:57 05.09.2019
2434 Clear 26 1006 88 10000 2 60 17:38 05.09.2019
2435 Clouds 26 1006 83 10000 3 80 17:20 05.09.2019
2436 Clouds 26 1006 83 10000 3 90 16:42 05.09.2019
2437 Clear 26 1006 88 10000 3 80 16:21 05.09.2019
2438 Clear 26 1006 88 10000 3 80 16:21 05.09.2019
2439 Clear 27 1006 88 10000 3 80 15:58 05.09.2019
2440 Clouds 26 1006 94 10000 2 40 15:39 05.09.2019
2441 Clouds 26 1006 94 10000 3 10 15:19 05.09.2019
2442 Clear 26 1006 94 10000 3 50 14:55 05.09.2019
2443 Clear 26 1006 94 10000 3 50 14:55 05.09.2019
2444 Clear 26 1006 94 10000 3 50 14:37 05.09.2019
2445 Clear 26 1006 94 10000 3 50 14:37 05.09.2019
2446 Clear 27 1006 94 10000 3 20 14:18 05.09.2019
2447 Clear 27 1006 94 10000 4 10 13:41 05.09.2019
2448 Clouds 27 1006 88 10000 3 30 13:18 05.09.2019
2449 Rain 27 1007 94 10000 3 10 12:42 05.09.2019
2450 Rain 27 1006 78 10000 7 10 12:24 05.09.2019
2451 Thunderstorm 27 1006 78 10000 8 360 11:45 05.09.2019
2452 Rain 27 1006 78 10000 4 40 11:20 05.09.2019
2453 Thunderstorm 28 1006 78 10000 4 40 10:59 05.09.2019
2454 Thunderstorm 28 1006 58 10000 4 160 10:37 05.09.2019
2455 Clouds 28 1005 62 10000 4 140 10:19 05.09.2019
2456 Clouds 29 1005 62 10000 4 120 09:41 05.09.2019
2457 Clouds 30 1005 66 10000 4 130 09:22 05.09.2019
2458 Clouds 30 1005 66 10000 4 130 08:56 05.09.2019
2459 Clouds 31 1005 55 10000 2 180 08:38 05.09.2019
2460 Clouds 31 1006 59 10000 2 190 08:19 05.09.2019
2461 Clouds 29 1006 62 10000 3 150 07:44 05.09.2019
2462 Clouds 30 1007 66 10000 3 130 07:24 05.09.2019
2463 Clouds 30 1007 62 10000 3 140 06:46 05.09.2019
2464 Clouds 29 1008 66 10000 3 150 06:26 05.09.2019
2465 Clouds 30 1008 70 10000 2 70 05:46 05.09.2019
2466 Clouds 30 1008 70 10000 2 70 05:27 05.09.2019
2467 Clouds 30 1009 74 10000 3 90 04:30 05.09.2019
2468 Clouds 30 1009 83 10000 2 60 03:52 05.09.2019
2469 Clouds 28 1009 88 10000 3 10 02:58 05.09.2019
2470 Rain 27 1009 94 10000 3 360 02:29 05.09.2019
2471 Clouds 27 1009 94 10000 2 320 01:57 05.09.2019
2472 Clear 26 1009 94 10000 1 360 00:58 05.09.2019
2473 Clear 25 1008 94 10000 1 320 00:39 05.09.2019
2474 Clear 25 1008 100 10000 2 360 00:19 05.09.2019
2475 Rain 25 1008 100 8000 1 30 23:40 04.09.2019
2476 Mist 25 1008 94 5000 2 10 23:22 04.09.2019
2477 Mist 25 1008 94 5000 2 10 22:47 04.09.2019
2478 Mist 25 1008 94 5000 1 0 22:20 04.09.2019
2479 Mist 25 1008 94 5000 1 0 21:56 04.09.2019
2480 Mist 25 1008 94 5000 2 10 21:38 04.09.2019
2481 Mist 25 1008 94 5000 3 360 21:19 04.09.2019
2482 Mist 25 1008 94 5000 3 360 21:19 04.09.2019
2483 Mist 25 1008 94 5000 3 360 20:55 04.09.2019
2484 Rain 25 1008 100 6000 2 360 20:36 04.09.2019
2485 Rain 25 1008 100 6000 2 360 20:36 04.09.2019
2486 Clouds 25 1008 100 6000 3 360 20:18 04.09.2019
2487 Clouds 25 1009 100 7000 2 30 19:40 04.09.2019
2488 Clouds 25 1009 100 7000 2 30 19:21 04.09.2019
2489 Clouds 25 1009 94 8000 2 50 18:42 04.09.2019
2490 Clear 25 1009 94 10000 1 50 18:24 04.09.2019
2491 Clear 25 1010 88 10000 2 10 17:59 04.09.2019
2492 Clear 25 1010 88 10000 2 10 17:40 04.09.2019
2493 Clouds 25 1010 94 10000 2 30 17:21 04.09.2019
2494 Clouds 25 1010 94 10000 2 30 17:21 04.09.2019
2495 Clouds 25 1010 94 10000 2 30 16:54 04.09.2019
2496 Clear 26 1010 94 10000 2 60 16:36 04.09.2019
2497 Clear 26 1010 94 10000 2 60 16:18 04.09.2019
2498 Clear 26 1010 88 10000 2 60 15:39 04.09.2019
2499 Clouds 26 1010 83 10000 2 50 15:21 04.09.2019
2500 Clouds 26 1010 83 10000 2 50 14:58 04.09.2019
2501 Rain 26 1010 83 10000 3 80 14:38 04.09.2019
2502 Rain 26 1010 88 10000 2 80 14:20 04.09.2019
2503 Rain 26 1010 83 10000 3 70 13:57 04.09.2019
2504 Rain 26 1010 83 10000 3 70 13:37 04.09.2019
2505 Rain 26 1009 83 10000 3 60 13:19 04.09.2019
2506 Clouds 26 1009 83 10000 3 60 12:41 04.09.2019
2507 Clouds 26 1009 83 10000 3 60 12:23 04.09.2019
2508 -273 0 0 0 0 0 11:56 04.09.2019
2509 Clouds 26 1009 83 10000 3 70 11:37 04.09.2019
2510 Clouds 26 1009 83 10000 3 70 11:37 04.09.2019
2511 Rain 27 1009 83 10000 2 60 11:19 04.09.2019
2512 Clouds 27 1009 94 10000 2 50 10:44 04.09.2019
2513 Clouds 27 1009 94 10000 2 50 10:25 04.09.2019
2514 Clouds 27 1009 88 6000 2 70 09:57 04.09.2019
2515 Clouds 27 1009 88 6000 3 30 09:39 04.09.2019
2516 Rain 27 1009 94 4500 2 80 09:18 04.09.2019
2517 Rain 26 1010 88 4000 1 0 08:41 04.09.2019
2518 Rain 26 1010 88 4000 1 0 08:41 04.09.2019
2519 Rain 27 1010 94 3500 1 0 08:23 04.09.2019
2520 Rain 27 1010 94 3500 1 0 08:23 04.09.2019
2521 Rain 27 1010 94 2000 2 40 07:51 04.09.2019
2522 Rain 28 1010 94 2000 2 40 07:32 04.09.2019
2523 Rain 26 1011 83 4500 2 60 06:42 04.09.2019
2524 Rain 27 1011 83 6000 3 70 06:21 04.09.2019
2525 Mist 28 1011 88 4000 3 20 04:53 04.09.2019
2526 Rain 28 1011 94 3000 3 360 04:19 04.09.2019
2527 Mist 26 1011 94 5000 3 10 01:39 04.09.2019
2528 Clouds 25 1011 94 6000 2 330 00:55 04.09.2019
2529 Clouds 25 1011 94 6000 2 330 00:34 04.09.2019
2530 Clouds 24 1010 94 6000 3 10 23:56 03.09.2019
2531 Clouds 24 1010 94 6000 3 10 23:38 03.09.2019
2532 Clouds 25 1010 94 6000 2 20 23:19 03.09.2019
2533 Clouds 25 1010 94 6000 1 50 22:40 03.09.2019
2534 Clouds 24 1010 94 6000 2 20 22:22 03.09.2019
2535 Clouds 25 1010 94 6000 2 20 21:56 03.09.2019
2536 Clouds 25 1010 94 6000 2 20 21:56 03.09.2019
2537 Clouds 25 1010 94 6000 2 20 21:56 03.09.2019
2538 Clouds 25 1010 94 6000 2 20 21:56 03.09.2019
2539 Clouds 25 1010 94 6000 2 20 21:37 03.09.2019
2540 Rain 25 1010 94 6000 2 350 21:19 03.09.2019
2541 Rain 25 1010 94 6000 2 350 20:42 03.09.2019
2542 Clouds 24 1010 94 6000 2 360 20:24 03.09.2019
2543 Clouds 24 1010 94 8000 3 350 19:56 03.09.2019
2544 Clouds 25 1010 94 8000 3 350 19:38 03.09.2019
2545 Clouds 25 1010 94 8000 3 350 19:38 03.09.2019
2546 Clouds 25 1010 94 8000 3 350 19:19 03.09.2019
2547 Rain 24 1011 94 10000 2 350 18:47 03.09.2019
2548 Rain 24 1011 94 10000 2 360 18:27 03.09.2019
2549 Rain 25 1011 88 10000 1 0 17:59 03.09.2019
2550 Rain 25 1011 88 10000 1 0 17:41 03.09.2019
2551 Rain 25 1012 88 10000 1 0 17:20 03.09.2019
2552 Rain 25 1012 88 10000 1 0 16:58 03.09.2019
2553 Clouds 25 1012 88 10000 2 360 16:38 03.09.2019
2554 Clouds 25 1012 88 10000 2 290 16:20 03.09.2019
2555 Clouds 25 1012 88 10000 2 290 16:20 03.09.2019
2556 Clouds 25 1012 88 10000 2 360 15:41 03.09.2019
2557 Clouds 25 1011 94 10000 3 360 15:21 03.09.2019
2558 Clouds 25 1011 94 10000 3 360 14:58 03.09.2019
2559 Rain 25 1011 88 10000 3 350 14:40 03.09.2019
2560 Rain 25 1011 88 10000 3 340 14:20 03.09.2019
2561 Clouds 25 1011 88 10000 3 350 13:57 03.09.2019
2562 Rain 25 1011 88 10000 3 340 13:57 03.09.2019
2563 Clouds 25 1011 88 10000 3 350 13:37 03.09.2019
2564 Clouds 25 1011 88 10000 3 330 13:19 03.09.2019
2565 Clouds 25 1011 88 10000 3 330 13:19 03.09.2019
2566 Rain 25 1011 88 10000 3 330 12:50 03.09.2019
2567 Rain 26 1011 88 10000 3 330 12:31 03.09.2019
2568 Rain 26 1011 83 10000 3 310 11:59 03.09.2019
2569 Rain 26 1011 88 10000 1 0 11:39 03.09.2019
2570 Clouds 26 1011 83 10000 3 310 11:20 03.09.2019
2571 Clouds 26 1011 83 10000 3 320 10:55 03.09.2019
2572 Clouds 26 1011 83 10000 3 320 10:37 03.09.2019
2573 Clouds 26 1011 83 10000 3 320 10:18 03.09.2019
2574 Clouds 26 1011 83 10000 3 310 09:42 03.09.2019
2575 Clouds 26 1011 83 10000 3 310 09:24 03.09.2019
2576 Clouds 27 1011 88 10000 4 330 08:41 03.09.2019
2577 Clouds 26 1011 94 10000 3 330 08:23 03.09.2019
2578 Clouds 27 1011 94 10000 3 330 07:58 03.09.2019
2579 Clouds 26 1011 88 10000 3 360 07:37 03.09.2019
2580 Clouds 26 1011 88 10000 3 360 07:37 03.09.2019
2581 Rain 26 1012 83 10000 2 360 07:19 03.09.2019
2582 Rain 27 1012 83 10000 2 10 06:43 03.09.2019
2583 Rain 25 1013 88 10000 3 10 04:41 03.09.2019
2584 Rain 25 1013 94 10000 3 10 03:33 03.09.2019
2585 Clouds 24 1013 94 8000 4 10 02:40 03.09.2019
2586 Clouds 23 1013 94 8000 4 360 02:22 03.09.2019
2587 Clouds 23 1013 100 7000 4 350 01:46 03.09.2019
2588 Rain 23 1013 100 5000 3 340 01:25 03.09.2019
2589 Rain 23 1013 100 3200 3 320 00:33 03.09.2019
2590 Rain 22 1013 100 4500 2 350 23:58 02.09.2019
2591 Rain 22 1013 100 4500 2 350 23:37 02.09.2019
2592 Rain 22 1013 100 6000 2 330 23:19 02.09.2019
2593 Rain 22 1013 100 6000 2 330 22:55 02.09.2019
2594 Rain 22 1013 100 6000 2 330 22:36 02.09.2019
2595 Rain 22 1013 100 5000 2 330 22:18 02.09.2019
2596 Rain 22 1013 100 5000 2 330 21:55 02.09.2019
2597 Rain 23 1013 100 5000 2 330 21:37 02.09.2019
2598 Rain 23 1013 100 10000 3 350 21:18 02.09.2019
2599 Clouds 22 1012 100 10000 3 330 20:42 02.09.2019
2600 Clouds 22 1012 100 10000 3 330 20:42 02.09.2019
2601 Clouds 22 1013 100 10000 4 310 20:23 02.09.2019
2602 Clouds 22 1013 100 10000 4 310 19:59 02.09.2019
2603 Rain 22 1013 100 10000 4 310 19:40 02.09.2019
2604 Rain 23 1013 100 10000 3 310 19:22 02.09.2019
2605 Rain 23 1013 94 10000 4 310 18:56 02.09.2019
2606 Rain 23 1013 94 10000 4 310 18:36 02.09.2019
2607 Rain 23 1014 94 10000 1 0 18:18 02.09.2019
2608 Rain 23 1014 94 10000 1 0 17:40 02.09.2019
2609 Rain 23 1014 94 10000 1 0 17:21 02.09.2019
2610 Rain 23 1014 94 10000 1 0 16:59 02.09.2019
2611 Rain 23 1014 94 10000 1 0 16:39 02.09.2019
2612 Rain 23 1014 94 10000 1 0 16:20 02.09.2019
2613 Rain 23 1014 94 10000 1 0 16:20 02.09.2019
2614 Rain 23 1014 94 10000 2 90 15:46 02.09.2019
2615 Rain 23 1014 94 10000 2 90 15:27 02.09.2019
2616 Rain 24 1014 88 10000 2 50 14:58 02.09.2019
2617 Rain 24 1013 94 10000 3 90 14:39 02.09.2019
2618 Rain 23 1013 94 10000 3 100 14:21 02.09.2019
2619 Rain 22 1013 94 10000 3 100 13:56 02.09.2019
2620 Rain 23 1013 94 10000 4 90 13:37 02.09.2019
2621 Rain 23 1013 94 10000 2 80 13:18 02.09.2019
2622 Rain 23 1013 94 10000 3 60 12:45 02.09.2019
2623 Rain 23 1013 94 10000 3 50 12:25 02.09.2019
2624 Rain 23 1013 94 10000 3 50 11:58 02.09.2019
2625 Rain 23 1014 94 8000 4 40 11:38 02.09.2019
2626 Rain 23 1014 94 8000 4 40 11:20 02.09.2019
2627 Rain 23 1014 94 8000 4 40 10:56 02.09.2019
2628 Rain 23 1014 94 8000 3 40 10:37 02.09.2019
2629 Rain 23 1013 94 6000 4 20 10:19 02.09.2019
2630 Rain 23 1013 94 6000 4 80 09:43 02.09.2019
2631 Rain 23 1013 100 4600 5 10 09:22 02.09.2019
2632 Rain 24 1014 94 6000 4 30 08:45 02.09.2019
2633 Rain 24 1014 94 10000 5 20 08:23 02.09.2019
2634 Rain 24 1014 94 10000 5 20 07:58 02.09.2019
2635 Rain 24 1014 94 10000 5 30 07:39 02.09.2019
2636 Rain 24 1014 94 10000 5 50 07:21 02.09.2019
2637 Rain 24 1014 88 10000 4 50 06:43 02.09.2019
2638 Rain 24 1015 88 10000 7 40 05:54 02.09.2019
2639 Rain 25 1015 94 10000 6 30 05:27 02.09.2019
2640 Rain 25 1015 94 10000 6 30 04:53 02.09.2019
2641 Rain 24 1015 100 10000 3 10 02:42 02.09.2019
2642 Clouds 24 1014 94 10000 2 10 01:43 02.09.2019
2643 Rain 23 1014 94 10000 3 10 00:46 02.09.2019
2644 Rain 23 1014 94 10000 3 20 00:26 02.09.2019
2645 Rain 22 1014 94 10000 2 30 23:39 01.09.2019
2646 Rain 22 1014 100 10000 1 0 23:20 01.09.2019
2647 Rain 22 1014 100 10000 1 0 22:57 01.09.2019
2648 Rain 22 1014 100 10000 1 0 22:57 01.09.2019
2649 Rain 23 1014 94 10000 2 70 22:39 01.09.2019
2650 Rain 23 1014 94 10000 2 30 22:18 01.09.2019
2651 Rain 23 1014 94 10000 3 360 21:54 01.09.2019
2652 Rain 23 1014 94 10000 3 360 21:36 01.09.2019
2653 Rain 23 1014 100 10000 2 350 21:18 01.09.2019
2654 Rain 23 1014 100 10000 2 350 20:55 01.09.2019
2655 Clouds 23 1014 100 10000 2 340 20:36 01.09.2019
2656 Clouds 23 1014 100 10000 2 10 20:18 01.09.2019
2657 Clouds 23 1014 100 10000 2 10 19:41 01.09.2019
2658 Clouds 24 1015 100 10000 3 350 19:21 01.09.2019
2659 Rain 24 1014 94 10000 3 10 18:55 01.09.2019
2660 Rain 24 1014 94 10000 3 10 18:37 01.09.2019
2661 Rain 24 1015 100 10000 4 70 18:18 01.09.2019
2662 Rain 22 1015 94 10000 2 10 17:42 01.09.2019
2663 Rain 23 1015 94 10000 2 10 17:24 01.09.2019
2664 Rain 23 1015 94 10000 3 10 16:58 01.09.2019
2665 Rain 22 1015 94 10000 2 30 16:38 01.09.2019
2666 Rain 22 1016 94 10000 2 360 16:18 01.09.2019
2667 Rain 23 1016 94 10000 1 0 15:42 01.09.2019
2668 Rain 23 1016 94 10000 1 0 15:42 01.09.2019
2669 Rain 22 1016 94 10000 1 0 15:23 01.09.2019
2670 Rain 23 1015 94 10000 3 10 14:44 01.09.2019
2671 Rain 22 1015 94 10000 3 350 14:26 01.09.2019
2672 Rain 23 1015 94 10000 3 350 13:59 01.09.2019
2673 Rain 23 1015 94 10000 3 20 13:41 01.09.2019
2674 Rain 22 1015 94 10000 3 20 13:23 01.09.2019
2675 Clouds 22 1014 94 10000 4 10 12:45 01.09.2019
2676 Clouds 22 1014 94 10000 4 10 12:26 01.09.2019
2677 Clouds 22 1014 94 10000 3 40 11:58 01.09.2019
2678 Rain 22 1015 94 10000 4 10 11:38 01.09.2019
2679 Rain 22 1015 94 10000 3 20 11:19 01.09.2019
2680 Rain 22 1015 94 8000 3 20 10:45 01.09.2019
2681 Rain 22 1015 94 6000 4 360 10:23 01.09.2019
2682 Rain 22 1015 94 10000 4 20 09:48 01.09.2019
2683 Rain 22 1015 94 10000 4 20 09:26 01.09.2019
2684 Rain 22 1015 100 6000 3 10 08:56 01.09.2019
2685 Rain 22 1015 100 4000 3 340 08:38 01.09.2019
2686 Rain 22 1015 94 2500 3 10 08:20 01.09.2019
2687 Rain 22 1015 88 10000 5 30 07:41 01.09.2019
2688 Rain 21 1015 88 10000 6 50 07:20 01.09.2019
2689 Rain 22 1016 94 10000 3 40 06:38 01.09.2019
2690 Rain 20 1016 100 6000 4 60 05:59 01.09.2019
2691 Rain 20 1016 100 6000 4 60 05:59 01.09.2019
2692 Rain 21 1016 88 10000 3 50 04:41 01.09.2019
2693 Rain 21 1016 94 7000 5 50 03:48 01.09.2019
2694 Rain 21 1016 94 7000 5 50 03:29 01.09.2019
2695 Rain 21 1016 93 5000 4 40 02:37 01.09.2019
2696 Rain 21 1016 93 5000 4 40 02:37 01.09.2019
2697 Rain 22 1015 93 4500 6 50 02:18 01.09.2019
2698 Rain 21 1015 93 6000 6 20 01:27 01.09.2019
2699 Rain 21 1015 88 8000 5 30 00:48 01.09.2019
2700 Rain 21 1015 88 10000 7 20 00:25 01.09.2019
2701 Rain 22 1014 88 10000 6 10 23:59 31.08.2019
2702 Rain 22 1014 88 10000 6 10 23:39 31.08.2019
2703 Rain 22 1014 88 10000 7 10 23:19 31.08.2019
2704 Rain 22 1014 88 10000 7 10 22:54 31.08.2019
2705 Rain 21 1014 94 10000 5 10 22:36 31.08.2019
2706 Rain 21 1014 94 10000 5 10 22:36 31.08.2019
2707 Rain 23 1014 94 10000 5 360 22:18 31.08.2019
2708 Rain 23 1014 94 10000 4 10 21:41 31.08.2019
2709 Rain 23 1014 88 10000 4 330 21:21 31.08.2019
2710 Rain 24 1014 100 10000 3 300 20:50 31.08.2019
2711 Rain 24 1014 100 10000 3 300 20:31 31.08.2019
2712 Rain 24 1014 94 10000 3 300 19:59 31.08.2019
2713 Rain 24 1014 94 10000 3 270 19:41 31.08.2019
2714 Rain 24 1014 94 10000 3 270 19:22 31.08.2019
2715 Rain 24 1014 94 10000 2 180 18:41 31.08.2019
2716 Rain 25 1014 94 10000 3 180 18:21 31.08.2019
2717 Rain 24 1014 83 10000 2 210 17:58 31.08.2019
2718 Rain 24 1014 83 10000 2 210 17:37 31.08.2019
2719 Rain 24 1014 83 10000 2 210 17:37 31.08.2019
2720 Rain 24 1015 88 10000 3 190 17:19 31.08.2019
2721 Rain 25 1015 88 10000 3 190 16:59 31.08.2019
2722 Rain 25 1015 78 10000 4 160 16:41 31.08.2019
2723 Rain 26 1015 83 10000 4 160 16:21 31.08.2019
2724 Rain 25 1015 83 10000 4 160 15:59 31.08.2019
2725 Rain 26 1015 78 10000 3 170 15:38 31.08.2019
2726 Rain 26 1014 78 10000 4 200 15:18 31.08.2019
2727 Rain 26 1014 78 10000 4 190 14:41 31.08.2019
2728 Rain 27 1013 57 10000 5 130 14:22 31.08.2019
2729 Rain 27 1013 57 10000 5 120 13:42 31.08.2019
2730 Rain 27 1013 57 10000 4 110 13:23 31.08.2019
2731 Rain 27 1013 57 10000 4 110 12:59 31.08.2019
2732 Clear 27 1013 54 10000 4 100 12:40 31.08.2019
2733 Clear 27 1013 51 10000 5 110 12:20 31.08.2019
2734 Clear 27 1013 51 10000 5 110 11:56 31.08.2019
2735 Clear 27 1013 48 10000 5 80 11:38 31.08.2019
2736 Clear 28 1013 45 10000 5 100 11:20 31.08.2019
2737 Clear 28 1013 48 10000 4 110 10:43 31.08.2019
2738 Clear 28 1013 48 10000 5 70 10:19 31.08.2019
2739 Clear 28 1013 48 10000 5 70 10:19 31.08.2019
2740 Clear 28 1013 48 10000 5 70 09:59 31.08.2019
2741 Clear 29 1012 51 10000 5 80 09:38 31.08.2019
2742 Clouds 29 1012 51 10000 5 90 09:19 31.08.2019
2743 Clouds 29 1013 51 10000 5 120 08:43 31.08.2019
2744 Clouds 30 1013 51 10000 5 120 08:23 31.08.2019
2745 Clouds 29 1013 54 10000 5 110 07:41 31.08.2019
2746 Clouds 29 1013 54 10000 5 110 07:41 31.08.2019
2747 Clouds 30 1013 55 10000 5 80 07:22 31.08.2019
2748 Clouds 29 1013 58 10000 5 100 06:44 31.08.2019
2749 Clouds 29 1014 58 10000 5 100 06:20 31.08.2019
2750 Clouds 29 1014 55 10000 4 110 05:34 31.08.2019
2751 Clouds 29 1014 65 10000 5 110 04:36 31.08.2019
2752 Clear 29 1014 74 10000 4 90 03:45 31.08.2019
2753 Clouds 27 1013 78 7000 3 70 02:49 31.08.2019
2754 Mist 27 1013 78 3000 2 60 01:56 31.08.2019
2755 Mist 27 1013 83 2800 1 0 01:35 31.08.2019
2756 Mist 26 1013 94 2500 2 10 00:52 31.08.2019
2757 Mist 26 1013 94 2500 2 10 00:52 31.08.2019
2758 Mist 26 1012 88 3500 1 0 00:30 31.08.2019
2759 Mist 25 1012 94 4000 1 0 23:59 30.08.2019
2760 Mist 25 1012 94 4000 1 0 23:39 30.08.2019
2761 Mist 25 1012 88 4000 1 20 23:18 30.08.2019
2762 Mist 25 1012 88 4000 1.97 79.009 22:42 30.08.2019
2763 Mist 25 1012 88 4000 1.97 79.009 22:24 30.08.2019
2764 Mist 24 1012 94 4000 1 80 21:59 30.08.2019
2765 Mist 24 1012 88 5000 1 0 21:38 30.08.2019
2766 Mist 24 1012 88 5000 1 0 21:19 30.08.2019
2767 Mist 24 1012 88 5000 1 0 20:59 30.08.2019
2768 Clouds 25 1012 83 6000 2 100 20:40 30.08.2019
2769 Clouds 25 1012 88 6000 1 0 20:20 30.08.2019
2770 Clouds 25 1012 83 6000 1 0 19:57 30.08.2019
2771 Clouds 25 1012 83 6000 1 0 19:57 30.08.2019
2772 Clouds 25 1012 83 6000 1 0 19:57 30.08.2019
2773 Clouds 25 1012 83 6000 1 0 19:39 30.08.2019
2774 Clear 25 1013 83 10000 1 90 19:19 30.08.2019
2775 Clear 25 1013 83 10000 1 90 18:49 30.08.2019
2776 Clear 25 1013 83 10000 2 110 18:25 30.08.2019
2777 Clear 25 1013 83 10000 2 90 17:59 30.08.2019
2778 Clear 25 1013 83 10000 2 90 17:40 30.08.2019
2779 Clear 25 1013 83 10000 2 120 17:19 30.08.2019
2780 Clear 25 1013 83 10000 2 120 16:59 30.08.2019
2781 Clear 25 1013 83 10000 2 120 16:40 30.08.2019
2782 Clear 25 1013 83 10000 2 120 16:40 30.08.2019
2783 Clouds 25 1013 83 10000 3 100 16:21 30.08.2019
2784 Clouds 25 1013 83 10000 3 140 15:43 30.08.2019
2785 Clouds 25 1013 83 10000 3 100 15:23 30.08.2019
2786 Rain 25 1012 83 10000 5 110 14:46 30.08.2019
2787 Rain 25 1012 83 10000 5 110 14:28 30.08.2019
2788 Clouds 25 1012 83 10000 4 100 13:58 30.08.2019
2789 Clouds 25 1011 83 10000 4 80 13:40 30.08.2019
2790 Rain 26 1011 83 10000 3 80 13:21 30.08.2019
2791 Rain 27 1011 83 6000 4 20 12:45 30.08.2019
2792 Rain 28 1010 69 10000 5 50 12:26 30.08.2019
2793 Rain 28 1010 69 10000 5 50 11:58 30.08.2019
2794 Clouds 28 1010 62 10000 3 200 11:39 30.08.2019
2795 Clouds 28 1010 58 10000 3 200 11:21 30.08.2019
2796 Clouds 29 1010 58 10000 3 230 10:39 30.08.2019
2797 Clouds 29 1010 55 10000 3 180 10:20 30.08.2019
2798 Clouds 30 1010 55 10000 3 180 09:56 30.08.2019
2799 Clouds 30 1010 58 10000 3 200 09:36 30.08.2019
2800 Clouds 30 1010 55 10000 3 190 09:18 30.08.2019
2801 Clouds 30 1010 55 10000 3 220 08:43 30.08.2019
2802 Clouds 30 1010 55 10000 2 170 08:23 30.08.2019
2803 Clouds 30 1011 55 10000 2 0 07:46 30.08.2019
2804 Clouds 30 1011 55 10000 2 0 07:26 30.08.2019
2805 Clouds 29 1011 58 10000 2 190 06:58 30.08.2019
2806 Clouds 29 1011 58 10000 1 0 06:39 30.08.2019
2807 Clouds 29 1011 58 10000 1 0 06:20 30.08.2019
2808 Clouds 29 1012 61 10000 2 0 05:28 30.08.2019
2809 Clear 30 1012 78 8000 2 0 03:56 30.08.2019
2810 Clear 30 1012 78 8000 2 0 03:37 30.08.2019
2811 Mist 24 1012 83 8000 1 0 02:41 30.08.2019
2812 Mist 25 1011 88 7000 1 0 01:40 30.08.2019
2813 Mist 24 1011 94 5000 1 180 00:53 30.08.2019
2814 Mist 21 1011 94 5000 1 190 00:19 30.08.2019
2815 Mist 21 1011 94 6000 1 190 23:47 29.08.2019
2816 Mist 21 1010 94 6000 1 170 23:22 29.08.2019
2817 Mist 21 1010 94 6000 1 170 23:22 29.08.2019
2818 Mist 22 1011 100 6000 1 180 22:45 29.08.2019
2819 Mist 22 1011 100 6000 1 180 22:27 29.08.2019
2820 Mist 22 1011 94 6000 1 170 21:59 29.08.2019
2821 Mist 22 1010 94 6000 1 190 21:40 29.08.2019
2822 Mist 21 1010 94 6000 1 0 21:21 29.08.2019
2823 Mist 21 1010 94 6000 1 0 21:21 29.08.2019
2824 Mist 21 1010 94 6000 1 0 20:58 29.08.2019
2825 Mist 22 1010 94 6000 1 0 20:39 29.08.2019
2826 Mist 21 1010 94 6000 2 290 20:18 29.08.2019
2827 Mist 22 1010 94 7000 2 290 19:47 29.08.2019
2828 Mist 21 1010 94 7000 2 290 19:26 29.08.2019
2829 Clear 22 1011 94 7000 3 290 18:57 29.08.2019
2830 Clear 22 1011 88 10000 1 0 18:39 29.08.2019
2831 Clear 23 1011 94 10000 2 260 18:18 29.08.2019
2832 Clear 23 1011 94 10000 2 260 17:54 29.08.2019
2833 Clear 23 1011 88 10000 2 250 17:36 29.08.2019
2834 Clear 23 1011 94 10000 2 0 17:18 29.08.2019
2835 Clear 23 1011 94 10000 2 0 17:18 29.08.2019
2836 Clear 23 1011 94 10000 2 0 17:18 29.08.2019
2837 Clear 23 1011 94 10000 1 0 16:41 29.08.2019
2838 Clear 23 1011 94 10000 1 0 16:41 29.08.2019
2839 Clear 23 1011 94 10000 1 0 16:23 29.08.2019
2840 Clear 23 1011 94 10000 2 240 15:41 29.08.2019
2841 Clear 23 1011 94 10000 3 0 15:21 29.08.2019
2842 Clear 23 1011 94 10000 3 0 14:58 29.08.2019
2843 Clear 23 1010 94 10000 2 270 14:39 29.08.2019
2844 Clear 23 1010 94 10000 3 260 14:20 29.08.2019
2845 Clear 23 1010 94 10000 3 260 13:56 29.08.2019
2846 Clear 23 1010 94 10000 3 260 13:56 29.08.2019
2847 Clear 23 1010 94 10000 2 0 13:37 29.08.2019
2848 Clear 23 1010 88 10000 3 0 13:18 29.08.2019
2849 Clear 23 1010 88 10000 3 0 12:56 29.08.2019
2850 Clear 23 1010 88 10000 3 0 12:37 29.08.2019
2851 Clouds 24 1010 88 10000 3 210 12:19 29.08.2019
2852 Clouds 25 1010 94 10000 3 230 11:42 29.08.2019
2853 Rain 25 1010 94 10000 2 230 11:21 29.08.2019
2854 Rain 25 1010 94 10000 2 210 10:57 29.08.2019
2855 Rain 25 1010 94 10000 2 210 10:38 29.08.2019
2856 Rain 25 1010 88 10000 3 230 10:19 29.08.2019
2857 Rain 24 1010 94 10000 4 200 09:41 29.08.2019
2858 Rain 24 1010 94 10000 4 200 09:19 29.08.2019
2859 Rain 24 1010 88 10000 4 170 08:49 29.08.2019
2860 Rain 24 1010 88 10000 4 170 08:31 29.08.2019
2861 Rain 25 1010 88 10000 3 210 07:58 29.08.2019
2862 Rain 25 1010 94 10000 5 200 07:37 29.08.2019
2863 Rain 25 1010 88 10000 4 200 07:18 29.08.2019
2864 Rain 25 1010 88 10000 2 150 06:40 29.08.2019
2865 Rain 25 1010 94 10000 2 170 05:52 29.08.2019
2866 Rain 25 1010 94 10000 2 170 05:31 29.08.2019
2867 Rain 25 1010 94 10000 3 140 04:48 29.08.2019
2868 Rain 25 1010 94 10000 3 140 04:28 29.08.2019
2869 Rain 23 1009 88 10000 2 20 01:55 29.08.2019
2870 Rain 22 1009 88 10000 1 0 01:35 29.08.2019
2871 Rain 22 1009 88 10000 1 0 01:35 29.08.2019
2872 Rain 23 1008 94 10000 5 20 00:47 29.08.2019
2873 Rain 23 1008 94 10000 5 10 00:24 29.08.2019
2874 Rain 23 1008 94 10000 5 360 23:59 28.08.2019
2875 Rain 23 1008 94 10000 5 360 23:39 28.08.2019
2876 Rain 23 1008 94 10000 5 340 23:21 28.08.2019
2877 Rain 23 1008 94 10000 5 340 22:56 28.08.2019
2878 Rain 23 1008 100 10000 6 360 22:38 28.08.2019
2879 Rain 24 1008 94 10000 6 350 22:18 28.08.2019
2880 Rain 24 1007 94 10000 8 350 21:41 28.08.2019
2881 Rain 24 1007 88 10000 6 350 21:23 28.08.2019
2882 Rain 24 1008 88 10000 3 10 20:56 28.08.2019
2883 Rain 25 1008 88 10000 3 10 20:38 28.08.2019
2884 Rain 24 1008 88 10000 4 10 20:20 28.08.2019
2885 Rain 25 1008 88 10000 4 340 19:42 28.08.2019
2886 Rain 25 1008 88 10000 4 340 19:22 28.08.2019
2887 Rain 25 1008 94 10000 6 360 18:57 28.08.2019
2888 Rain 25 1008 94 10000 6 360 18:37 28.08.2019
2889 Rain 26 1008 94 10000 4 20 18:19 28.08.2019
2890 Thunderstorm 26 1008 94 10000 4 10 17:38 28.08.2019
2891 Thunderstorm 27 1009 83 10000 3 10 17:19 28.08.2019
2892 Rain 27 1009 88 10000 4 360 16:44 28.08.2019
2893 Rain 27 1009 83 10000 3 70 16:23 28.08.2019
2894 Rain 27 1009 83 10000 3 70 15:59 28.08.2019
2895 Rain 27 1009 83 10000 3 90 15:37 28.08.2019
2896 Rain 27 1008 88 10000 4 40 15:19 28.08.2019
2897 Clouds 28 1008 78 10000 3 30 14:57 28.08.2019
2898 Clouds 28 1008 78 10000 3 30 14:38 28.08.2019
2899 Clouds 28 1008 78 10000 3 40 14:20 28.08.2019
2900 Clouds 28 1008 78 10000 3 40 13:58 28.08.2019
2901 Clouds 27 1008 78 10000 3 30 13:37 28.08.2019
2902 Clouds 27 1007 78 10000 4 30 13:19 28.08.2019
2903 Clouds 27 1007 78 10000 5 30 12:42 28.08.2019
2904 Clouds 28 1007 74 10000 4 60 12:23 28.08.2019
2905 Clouds 28 1007 74 10000 4 60 11:55 28.08.2019
2906 Clouds 28 1007 74 10000 4 360 11:36 28.08.2019
2907 Clouds 29 1007 74 10000 5 30 11:18 28.08.2019
2908 Clouds 29 1006 70 10000 5 30 10:41 28.08.2019
2909 Clouds 29 1006 70 10000 5 30 10:41 28.08.2019
2910 Clouds 29 1006 70 10000 4 20 10:21 28.08.2019
2911 Clouds 29 1006 70 10000 4 20 09:59 28.08.2019
2912 Clouds 30 1006 74 10000 5 20 09:40 28.08.2019
2913 Clouds 29 1007 79 10000 6 10 09:19 28.08.2019
2914 Clouds 29 1007 74 10000 7 10 08:39 28.08.2019
2915 Clouds 29 1007 79 10000 8 20 08:20 28.08.2019
2916 Clouds 30 1007 74 10000 7 10 07:42 28.08.2019
2917 Clouds 30 1007 74 10000 7 10 07:24 28.08.2019
2918 Clouds 31 1008 75 10000 4 350 06:51 28.08.2019
2919 Clouds 31 1008 75 10000 4 350 06:32 28.08.2019
2920 Clouds 32 1008 75 10000 5 330 05:42 28.08.2019
2921 Clouds 29 1008 94 10000 3 360 02:48 28.08.2019
2922 Clouds 29 1008 94 7000 4 280 01:32 28.08.2019
2923 Clouds 28 1007 88 10000 2 150 00:55 28.08.2019
2924 Clouds 28 1007 88 10000 2 150 00:37 28.08.2019
2925 Clouds 28 1007 88 10000 1 150 23:58 27.08.2019
2926 Clouds 28 1006 94 10000 1 0 23:39 27.08.2019
2927 Clouds 28 1007 88 10000 2 70 23:20 27.08.2019
2928 Rain 28 1007 94 10000 2 20 22:42 27.08.2019
2929 Rain 28 1007 94 10000 3 30 22:23 27.08.2019
2930 Rain 28 1007 94 10000 3 10 21:57 27.08.2019
2931 Clouds 28 1006 94 10000 1 70 21:39 27.08.2019
2932 Rain 28 1007 94 10000 1 0 21:20 27.08.2019
2933 Rain 28 1007 94 10000 1 0 20:59 27.08.2019
2934 Clear 28 1007 88 10000 1 140 20:40 27.08.2019
2935 Clear 28 1007 83 10000 1 0 20:19 27.08.2019
2936 Clouds 28 1007 89 10000 1 90 19:46 27.08.2019
2937 Clouds 28 1007 89 10000 1 90 19:28 27.08.2019
2938 Thunderstorm 27 1008 94 10000 1 0 18:59 27.08.2019
2939 Thunderstorm 27 1008 94 10000 1 0 18:41 27.08.2019
2940 Thunderstorm 29 1008 94 10000 1 0 18:18 27.08.2019
2941 Thunderstorm 29 1008 94 10000 3 100 17:56 27.08.2019
2942 Thunderstorm 29 1008 94 10000 3 100 17:56 27.08.2019
2943 Thunderstorm 29 1008 94 10000 3 100 17:37 27.08.2019
2944 Thunderstorm 29 1008 94 10000 2 70 17:18 27.08.2019
2945 Thunderstorm 29 1009 94 4000 4 300 16:43 27.08.2019
2946 Thunderstorm 29 1009 94 4000 4 300 16:43 27.08.2019
2947 Thunderstorm 29 1008 79 10000 3 340 16:24 27.08.2019
2948 Thunderstorm 29 1008 79 10000 3 340 15:57 27.08.2019
2949 Clear 30 1008 79 10000 4 10 15:38 27.08.2019
2950 Clear 30 1008 79 10000 2 360 15:19 27.08.2019
2951 Clear 30 1007 74 10000 2 360 14:42 27.08.2019
2952 Clear 30 1007 74 10000 2 360 14:23 27.08.2019
2953 Rain 31 1007 70 10000 2 60 13:43 27.08.2019
2954 Rain 30 1007 70 10000 3 70 13:25 27.08.2019
2955 Clouds 31 1007 66 10000 4 360 12:58 27.08.2019
2956 Clouds 31 1007 66 10000 4 360 12:39 27.08.2019
2957 Clear 31 1006 62 10000 3 360 12:19 27.08.2019
2958 Clouds 31 1006 62 10000 5 30 11:46 27.08.2019
2959 Clouds 31 1006 62 10000 4 30 11:26 27.08.2019
2960 Clouds 32 1006 62 10000 6 20 10:55 27.08.2019
2961 Clouds 32 1006 62 10000 6 20 10:37 27.08.2019
2962 Clouds 33 1005 53 10000 4 280 10:18 27.08.2019
2963 Clouds 34 1005 53 10000 4 230 09:39 27.08.2019
2964 Clouds 34 1005 50 10000 5 230 09:21 27.08.2019
2965 Clouds 35 1005 50 10000 5 230 08:56 27.08.2019
2966 Clouds 36 1005 50 10000 4 0 08:38 27.08.2019
2967 Clear 36 1005 56 10000 4 230 08:18 27.08.2019
2968 Clear 36 1006 56 10000 4 220 07:41 27.08.2019
2969 Clear 36 1006 56 10000 4 220 07:41 27.08.2019
2970 Clear 36 1006 59 10000 4 210 07:20 27.08.2019
2971 Clear 36 1006 63 10000 5 230 06:54 27.08.2019
2972 Clear 35 1006 63 10000 5 230 06:26 27.08.2019
2973 Clear 34 1006 63 10000 5 230 05:47 27.08.2019
2974 Clear 36 1007 66 10000 5 230 04:44 27.08.2019
2975 Clear 35 1007 70 10000 4 230 03:39 27.08.2019
2976 Clear 32 1006 74 10000 4 210 02:23 27.08.2019
2977 Clear 32 1006 79 10000 3 190 01:40 27.08.2019
2978 Clear 32 1006 83 10000 3 190 01:21 27.08.2019
2979 Clear 32 1006 83 10000 3 190 00:43 27.08.2019
2980 Clear 29 1006 89 10000 3 190 00:23 27.08.2019
2981 Clear 29 1005 89 10000 3 180 23:39 26.08.2019
2982 Clear 29 1005 89 10000 3 180 23:20 26.08.2019
2983 Clear 30 1005 84 10000 4 180 22:40 26.08.2019
2984 Clear 30 1005 84 10000 4 180 22:20 26.08.2019
2985 Clear 30 1005 84 10000 3 170 21:59 26.08.2019
2986 Clear 30 1005 84 10000 3 180 21:38 26.08.2019
2987 Clear 30 1005 84 10000 3 180 21:20 26.08.2019
2988 Clear 30 1005 84 10000 3 170 20:56 26.08.2019
2989 Clear 30 1005 84 10000 4 170 20:38 26.08.2019
2990 Clear 30 1006 84 10000 4 160 20:18 26.08.2019
2991 Clear 30 1006 84 10000 4 170 19:43 26.08.2019
2992 Clear 30 1006 84 10000 3 170 19:19 26.08.2019
2993 Clear 30 1006 84 10000 3 170 18:58 26.08.2019
2994 Clear 30 1007 84 10000 4 160 18:38 26.08.2019
2995 Clear 30 1007 79 10000 4 160 18:19 26.08.2019
2996 Clear 31 1007 79 10000 5 160 17:44 26.08.2019
2997 Clear 30 1007 79 10000 5 170 17:20 26.08.2019
2998 Clear 31 1007 79 10000 5 170 16:57 26.08.2019
2999 Clear 31 1007 79 10000 5 150 16:39 26.08.2019
3000 Clear 31 1007 79 10000 5 150 16:18 26.08.2019
3001 Clear 31 1007 79 10000 5 150 15:54 26.08.2019
3002 Clear 31 1007 84 10000 5 150 15:36 26.08.2019
3003 Clear 31 1007 79 10000 5 150 15:18 26.08.2019
3004 Clear 32 1006 75 10000 5 150 14:42 26.08.2019
3005 Clear 32 1006 75 10000 5 150 14:22 26.08.2019
3006 Clear 32 1006 75 10000 5 150 13:54 26.08.2019
3007 Clear 32 1006 66 10000 5 150 13:36 26.08.2019
3008 Clear 33 1005 63 10000 4 190 13:18 26.08.2019
3009 Clear 33 1005 59 10000 4 180 12:42 26.08.2019
3010 Clear 35 1005 59 10000 4 180 12:21 26.08.2019
3011 Clouds 35 1005 56 10000 4 200 11:43 26.08.2019
3012 -273 0 0 0 0 0 11:25 26.08.2019
3013 Clouds 35 1005 56 10000 4 200 11:25 26.08.2019
3014 Clouds 35 1005 56 10000 5 200 10:58 26.08.2019
3015 Clouds 35 1005 59 10000 4 180 10:40 26.08.2019
3016 Clouds 36 1005 59 10000 4 190 10:19 26.08.2019
3017 Clouds 36 1005 56 10000 4 210 09:43 26.08.2019
3018 Clouds 36 1005 56 10000 4 210 09:24 26.08.2019
3019 Clouds 35 1005 56 10000 4 210 08:58 26.08.2019
3020 Clouds 36 1005 56 10000 4 180 08:39 26.08.2019
3021 Clouds 36 1005 56 10000 4 180 08:21 26.08.2019
3022 Clouds 37 1005 59 10000 4 220 07:45 26.08.2019
3023 Clouds 36 1005 59 10000 4 220 07:25 26.08.2019
3024 Clouds 34 1006 59 10000 4 190 06:58 26.08.2019
3025 Clouds 36 1006 63 10000 5 180 06:39 26.08.2019
3026 Clouds 34 1007 63 10000 4 190 06:18 26.08.2019
3027 Clouds 34 1007 63 10000 4 210 05:33 26.08.2019
3028 Clouds 36 1007 66 10000 3 180 04:22 26.08.2019
3029 Clear 32 1007 84 10000 3 170 02:39 26.08.2019
3030 Clear 31 1007 94 10000 2 180 01:23 26.08.2019
3031 Clouds 30 1007 83 10000 3 170 00:45 26.08.2019
3032 Clouds 29 1007 83 10000 3 170 00:26 26.08.2019
3033 Clear 29 1007 83 10000 3 170 23:45 25.08.2019
3034 Clear 29 1007 83 10000 3 170 23:20 25.08.2019
3035 Clear 29 1007 83 10000 3 170 22:59 25.08.2019
3036 Clear 29 1006 88 10000 3 180 22:40 25.08.2019
3037 Clear 29 1006 88 10000 3 180 22:20 25.08.2019
3038 Clear 29 1006 94 10000 3 170 21:58 25.08.2019
3039 Clear 29 1006 88 10000 5 180 21:39 25.08.2019
3040 Clear 29 1007 94 10000 4 170 21:19 25.08.2019
3041 Clouds 29 1006 83 10000 3 170 20:55 25.08.2019
3042 Clouds 29 1006 83 10000 3 170 20:55 25.08.2019
3043 Clouds 29 1006 83 10000 4 160 20:36 25.08.2019
3044 Clouds 29 1007 83 10000 4 140 20:18 25.08.2019
3045 Clouds 29 1007 83 10000 5 140 19:40 25.08.2019
3046 Clouds 29 1007 83 10000 5 140 19:21 25.08.2019
3047 Clouds 29 1007 83 10000 4 150 18:58 25.08.2019
3048 Clouds 29 1007 83 10000 4 150 18:40 25.08.2019
3049 Clear 29 1007 83 10000 5 150 18:21 25.08.2019
3050 Clear 29 1007 83 10000 5 150 17:55 25.08.2019
3051 Clouds 29 1008 83 10000 5 140 17:36 25.08.2019
3052 Clouds 29 1008 83 10000 4 140 17:18 25.08.2019
3053 Clouds 29 1008 83 10000 5 140 16:39 25.08.2019
3054 Clouds 29 1008 83 10000 5 140 16:21 25.08.2019
3055 Clouds 28 1009 83 10000 6 130 15:44 25.08.2019
3056 Clouds 29 1009 83 10000 6 130 15:26 25.08.2019
3057 Rain 29 1009 83 10000 4 130 14:54 25.08.2019
3058 Rain 28 1009 83 10000 5 120 14:36 25.08.2019
3059 Rain 29 1008 83 10000 5 140 14:18 25.08.2019
3060 Rain 29 1008 83 10000 5 140 13:42 25.08.2019
3061 Rain 29 1008 83 10000 5 140 13:20 25.08.2019
3062 Clouds 29 1008 83 10000 6 140 12:48 25.08.2019
3063 Clouds 29 1008 83 10000 6 140 12:26 25.08.2019
3064 Clear 29 1008 83 10000 6 130 11:59 25.08.2019
3065 Clear 29 1008 83 10000 5 120 11:41 25.08.2019
3066 Rain 30 1008 88 10000 5 150 11:22 25.08.2019
3067 Rain 30 1008 88 10000 5 150 10:58 25.08.2019
3068 Rain 31 1008 83 10000 8 140 10:39 25.08.2019
3069 Rain 32 1008 74 10000 7 140 10:20 25.08.2019
3070 Rain 31 1008 83 10000 8 140 10:20 25.08.2019
3071 Rain 32 1008 74 10000 7 140 10:20 25.08.2019
3072 Rain 31 1008 66 10000 8 130 09:44 25.08.2019
3073 Rain 31 1008 66 10000 8 130 09:25 25.08.2019
3074 Clouds 34 1008 63 10000 9 130 08:56 25.08.2019
3075 Clouds 34 1008 63 10000 7 110 08:38 25.08.2019
3076 Clouds 32 1008 63 10000 7 110 08:20 25.08.2019
3077 Clouds 33 1008 63 10000 7 140 07:34 25.08.2019
3078 Clouds 32 1009 56 10000 6 150 06:45 25.08.2019
3079 Clouds 34 1010 59 10000 5 130 05:42 25.08.2019
3080 Clouds 35 1010 66 10000 4 140 04:23 25.08.2019
3081 Clouds 31 1010 74 10000 4 130 02:58 25.08.2019
3082 Clouds 30 1010 79 10000 4 130 02:38 25.08.2019
3083 Clouds 29 1009 83 10000 3 90 01:18 25.08.2019
3084 Clouds 30 1009 88 10000 3 100 00:37 25.08.2019
3085 Clouds 28 1009 88 10000 3 80 00:18 25.08.2019
3086 Clouds 28 1009 88 10000 2 90 23:45 24.08.2019
3087 Clouds 28 1009 88 10000 2 90 23:22 24.08.2019
3088 Clouds 28 1008 88 10000 2 100 22:54 24.08.2019
3089 Clouds 28 1008 88 10000 2 100 22:54 24.08.2019
3090 Clear 28 1008 88 10000 2 100 22:36 24.08.2019
3091 Clear 28 1008 88 10000 2 100 22:18 24.08.2019
3092 Clear 28 1009 88 10000 3 130 21:42 24.08.2019
3093 Clear 28 1009 88 10000 3 130 21:24 24.08.2019
3094 Clear 28 1009 88 10000 3 130 21:24 24.08.2019
3095 Clouds 28 1009 83 10000 3 130 20:59 24.08.2019
3096 Clouds 28 1009 83 10000 3 110 20:40 24.08.2019
3097 Clouds 28 1009 83 10000 3 110 20:20 24.08.2019
3098 Clouds 28 1009 83 10000 4 120 19:59 24.08.2019
3099 Clouds 29 1009 83 10000 3 120 19:39 24.08.2019
3100 Clouds 28 1009 83 10000 3 120 19:21 24.08.2019
3101 Clouds 28 1009 83 10000 3 120 19:21 24.08.2019
3102 Rain 28 1009 83 10000 4 110 18:46 24.08.2019
3103 Rain 28 1009 83 10000 4 110 18:25 24.08.2019
3104 Clouds 28 1009 83 10000 5 110 17:57 24.08.2019
3105 Clouds 29 1009 83 10000 3 100 17:39 24.08.2019
3106 Clouds 28 1009 83 10000 3 100 17:21 24.08.2019
3107 Clouds 29 1009 83 10000 5 100 16:40 24.08.2019
3108 Clouds 28 1009 83 10000 5 100 16:19 24.08.2019
3109 Clouds 28 1010 89 10000 5 90 15:44 24.08.2019
3110 Clouds 29 1010 79 10000 4 90 15:26 24.08.2019
3111 Clouds 29 1010 79 10000 4 100 14:59 24.08.2019
3112 Clouds 29 1010 79 10000 4 100 14:40 24.08.2019
3113 Clouds 29 1009 79 10000 4 100 14:19 24.08.2019
3114 Clouds 29 1009 79 10000 4 100 13:54 24.08.2019
3115 Clouds 29 1009 74 10000 5 110 13:36 24.08.2019
3116 Clouds 29 1009 74 10000 4 80 13:18 24.08.2019
3117 Clouds 29 1009 74 10000 4 80 12:41 24.08.2019
3118 Clouds 29 1009 74 10000 4 50 12:22 24.08.2019
3119 Clouds 29 1009 74 10000 4 50 12:22 24.08.2019
3120 Clouds 30 1009 74 10000 5 60 11:49 24.08.2019
3121 Clouds 29 1009 74 10000 5 60 11:31 24.08.2019
3122 Clouds 30 1009 74 10000 4 60 10:59 24.08.2019
3123 Clouds 29 1009 74 10000 6 50 10:38 24.08.2019
3124 Clouds 29 1009 74 10000 6 50 10:20 24.08.2019
3125 Clouds 30 1009 74 10000 6 30 09:42 24.08.2019
3126 Clouds 30 1009 79 10000 7 30 09:19 24.08.2019
3127 Clouds 30 1009 79 10000 7 20 08:43 24.08.2019
3128 Clouds 29 1009 79 10000 7 20 08:24 24.08.2019
3129 Clouds 30 1009 84 10000 5 20 07:51 24.08.2019
3130 Clouds 31 1009 79 10000 5 360 07:29 24.08.2019
3131 Clouds 31 1010 70 10000 3 130 06:31 24.08.2019
3132 Clouds 31 1010 70 10000 3 130 05:59 24.08.2019
3133 Clouds 31 1010 74 10000 2 190 05:35 24.08.2019
3134 Rain 30 1010 79 10000 3 120 03:40 24.08.2019
3135 Rain 30 1010 79 10000 2 80 02:41 24.08.2019
3136 Rain 30 1010 83 10000 3 50 01:53 24.08.2019
3137 Rain 29 1010 83 10000 4 40 01:22 24.08.2019
3138 Clouds 29 1010 83 8000 2 60 00:45 24.08.2019
3139 Clouds 28 1010 83 8000 2 60 00:21 24.08.2019
3140 Clouds 27 1009 83 10000 2 30 23:44 23.08.2019
3141 Clouds 28 1009 83 10000 2 30 23:20 23.08.2019
3142 Clouds 28 1009 83 10000 2 90 22:44 23.08.2019
3143 Clouds 28 1009 83 10000 2 90 22:24 23.08.2019
3144 Clouds 27 1009 83 10000 2 60 21:55 23.08.2019
3145 Clouds 27 1009 83 10000 1 0 21:36 23.08.2019
3146 Clouds 27 1009 83 10000 1 0 21:36 23.08.2019
3147 Clouds 27 1009 83 10000 1 0 21:36 23.08.2019
3148 Clouds 28 1009 79 10000 2 60 21:18 23.08.2019
3149 Clouds 28 1009 74 10000 2 90 20:45 23.08.2019
3150 Clouds 28 1009 74 10000 2 90 20:27 23.08.2019
3151 Clear 28 1010 79 10000 2 50 19:45 23.08.2019
3152 Clouds 28 1010 83 10000 2 80 19:19 23.08.2019
3153 Clouds 28 1010 83 10000 2 80 19:19 23.08.2019
3154 Clouds 28 1010 83 10000 2 80 18:54 23.08.2019
3155 Clear 28 1010 83 10000 2 80 18:36 23.08.2019
3156 Clouds 28 1010 79 10000 3 80 18:18 23.08.2019
3157 Rain 28 1010 79 10000 2 90 17:41 23.08.2019
3158 Rain 28 1010 79 10000 2 90 17:22 23.08.2019
3159 Clouds 28 1010 79 10000 3 80 16:49 23.08.2019
3160 Clouds 28 1010 79 10000 3 80 16:30 23.08.2019
3161 Clouds 28 1010 79 10000 3 80 16:30 23.08.2019
3162 Clouds 28 1010 83 10000 3 70 15:59 23.08.2019
3163 Clouds 29 1010 79 10000 3 70 15:39 23.08.2019
3164 Clouds 29 1010 79 10000 3 70 15:21 23.08.2019
3165 Clouds 29 1010 79 10000 5 90 14:44 23.08.2019
3166 Clouds 29 1010 79 10000 5 90 14:21 23.08.2019
3167 Clouds 29 1010 79 10000 4 80 13:59 23.08.2019
3168 Clouds 29 1010 79 10000 3 90 13:41 23.08.2019
3169 Clouds 29 1009 74 10000 4 100 13:22 23.08.2019
3170 Clouds 29 1009 79 10000 4 90 12:58 23.08.2019
3171 Clouds 29 1009 79 10000 4 90 12:40 23.08.2019
3172 Clouds 29 1009 79 10000 4 90 12:21 23.08.2019
3173 Clouds 29 1009 79 10000 5 80 11:57 23.08.2019
3174 Rain 30 1009 74 10000 4 110 11:38 23.08.2019
3175 Rain 30 1009 74 10000 4 110 11:38 23.08.2019
3176 Clouds 30 1009 74 10000 4 110 11:18 23.08.2019
3177 Clouds 30 1009 79 10000 3 120 10:45 23.08.2019
3178 Clouds 30 1009 79 10000 3 120 10:23 23.08.2019
3179 Clouds 30 1009 83 10000 2 140 09:58 23.08.2019
3180 Clouds 31 1008 83 10000 3 130 09:40 23.08.2019
3181 Rain 32 1009 88 10000 4 130 09:20 23.08.2019
3182 Rain 32 1009 88 10000 5 220 08:44 23.08.2019
3183 Rain 31 1009 88 10000 5 220 08:20 23.08.2019
3184 Clouds 33 1009 62 10000 4 90 07:44 23.08.2019
3185 Clouds 33 1009 62 10000 4 90 07:24 23.08.2019
3186 Clouds 33 1009 66 10000 5 110 06:59 23.08.2019
3187 Clouds 33 1009 62 10000 3 70 06:40 23.08.2019
3188 Clouds 31 1009 62 10000 3 70 06:21 23.08.2019
3189 Clouds 31 1010 66 10000 2 30 05:43 23.08.2019
3190 Clouds 32 1010 66 10000 2 30 05:22 23.08.2019
3191 Clouds 30 1010 70 10000 3 70 03:23 23.08.2019
3192 Clouds 30 1010 74 8000 3 30 02:24 23.08.2019
3193 Clouds 31 1010 83 7000 2 50 01:47 23.08.2019
3194 Clouds 29 1010 83 8000 1 20 00:46 23.08.2019
3195 Clouds 29 1010 83 8000 1 20 00:21 23.08.2019
3196 Clouds 28 1009 83 8000 1 90 23:49 22.08.2019
3197 Clouds 28 1009 83 10000 2 80 23:31 22.08.2019
3198 Clouds 28 1009 83 10000 2 50 22:58 22.08.2019
3199 Clouds 28 1009 78 10000 1 70 22:40 22.08.2019
3200 Clouds 28 1009 78 10000 1 70 22:21 22.08.2019
3201 -273 0 0 0 0 0 21:55 22.08.2019
3202 Clear 28 1009 78 10000 1 90 21:55 22.08.2019
3203 Clear 29 1009 78 10000 2 50 21:37 22.08.2019
3204 Clear 28 1009 78 10000 2 80 21:19 22.08.2019
3205 Clear 28 1009 78 10000 2 80 20:56 22.08.2019
3206 Clear 28 1009 78 10000 2 90 20:38 22.08.2019
3207 Clear 28 1009 78 10000 1 0 20:18 22.08.2019
3208 Clear 28 1009 74 10000 2 100 19:40 22.08.2019
3209 Clear 28 1009 74 10000 2 130 19:22 22.08.2019
3210 Clear 28 1009 74 10000 2 130 18:59 22.08.2019
3211 Clear 29 1009 74 10000 2 90 18:41 22.08.2019
3212 Clear 29 1009 70 10000 2 80 18:20 22.08.2019
3213 Clear 29 1009 70 10000 2 80 17:58 22.08.2019
3214 Clear 29 1010 70 10000 2 90 17:39 22.08.2019
3215 Clear 29 1010 70 10000 2 90 17:20 22.08.2019
3216 Clear 29 1009 70 10000 4 140 16:57 22.08.2019
3217 Clear 29 1009 70 10000 4 140 16:38 22.08.2019
3218 Clear 29 1009 70 10000 4 140 16:20 22.08.2019
3219 Clear 29 1009 70 10000 4 140 16:19 22.08.2019
3220 Clear 29 1009 70 10000 4 140 16:19 22.08.2019
3221 Clear 29 1009 70 10000 4 130 16:19 22.08.2019
3222 Clear 29 1009 70 10000 4 130 15:55 22.08.2019
3223 Clouds 29 1009 66 10000 4 120 15:36 22.08.2019
3224 Clouds 29 1009 66 10000 4 120 15:18 22.08.2019
3225 Clouds 29 1009 66 10000 4 120 15:18 22.08.2019
3226 Clouds 29 1009 66 10000 4 120 15:18 22.08.2019
3227 Clouds 29 1009 66 10000 4 130 14:41 22.08.2019
3228 Clouds 29 1009 66 10000 4 130 14:22 22.08.2019
3229 Clouds 29 1008 66 10000 5 100 13:59 22.08.2019
3230 Clouds 29 1008 62 10000 4 110 13:40 22.08.2019
3231 Rain 30 1008 62 10000 5 100 13:20 22.08.2019
3232 Rain 30 1008 62 10000 5 100 12:56 22.08.2019
3233 Clouds 30 1007 62 10000 4 110 12:38 22.08.2019
3234 Clouds 31 1007 62 10000 4 100 12:19 22.08.2019
3235 Clouds 31 1007 62 10000 5 90 11:42 22.08.2019
3236 Clouds 31 1007 62 10000 4 110 11:21 22.08.2019
3237 Clouds 32 1007 62 10000 4 110 10:58 22.08.2019
3238 Clouds 32 1007 62 10000 4 100 10:40 22.08.2019
3239 Clouds 33 1007 62 10000 4 100 10:22 22.08.2019
3240 Clouds 33 1007 59 10000 3 80 09:57 22.08.2019
3241 Clouds 32 1007 55 10000 3 80 09:39 22.08.2019
3242 Clouds 32 1007 55 10000 3 80 09:39 22.08.2019
3243 Clouds 33 1007 55 10000 3 80 09:20 22.08.2019
3244 Clouds 34 1007 55 10000 2 100 08:54 22.08.2019
3245 Clouds 33 1007 55 10000 2 90 08:36 22.08.2019
3246 Clouds 32 1007 59 10000 4 40 08:18 22.08.2019
3247 Clouds 33 1007 59 10000 4 40 07:39 22.08.2019
3248 Clouds 33 1007 59 10000 3 50 07:19 22.08.2019
3249 Clouds 33 1008 49 10000 1 0 06:47 22.08.2019
3250 Clouds 33 1008 49 10000 3 260 06:22 22.08.2019
3251 Clouds 33 1008 49 10000 2 10 05:30 22.08.2019
3252 Clear 33 1009 52 10000 1 0 04:19 22.08.2019
3253 Clear 30 1009 62 10000 1 0 02:38 22.08.2019
3254 Clear 31 1008 69 10000 2 40 01:40 22.08.2019
3255 Clear 30 1008 74 10000 2 50 01:20 22.08.2019
3256 Clear 29 1008 78 10000 1 70 00:41 22.08.2019
3257 Clear 27 1008 78 10000 1 90 00:22 22.08.2019
3258 Clear 27 1007 78 10000 1 90 23:44 21.08.2019
3259 Clear 26 1007 78 10000 1 90 23:25 21.08.2019
3260 Clear 26 1007 88 10000 1 0 22:59 21.08.2019
3261 Clear 26 1007 88 10000 1 0 22:40 21.08.2019
3262 Clear 27 1007 88 10000 1 0 22:21 21.08.2019
3263 Clear 26 1007 83 10000 1 0 21:56 21.08.2019
3264 Clear 26 1007 78 10000 2 160 21:38 21.08.2019
3265 Clear 26 1007 78 10000 2 160 21:38 21.08.2019
3266 Clear 27 1007 83 10000 3 130 21:19 21.08.2019
3267 Clear 27 1007 83 10000 3 130 20:56 21.08.2019
3268 Clear 27 1007 78 10000 2 140 20:38 21.08.2019
3269 Clear 27 1007 78 10000 3 130 20:20 21.08.2019
3270 Clear 27 1007 74 10000 2 140 19:43 21.08.2019
3271 Clear 27 1008 78 10000 3 140 19:24 21.08.2019
3272 Clear 27 1008 78 10000 3 140 18:58 21.08.2019
3273 Clear 27 1008 78 10000 2 150 18:39 21.08.2019
3274 Clear 27 1008 74 10000 2 120 18:20 21.08.2019
3275 Clouds 27 1008 74 10000 3 110 17:45 21.08.2019
3276 Clouds 27 1008 74 10000 3 110 17:23 21.08.2019
3277 Clear 28 1008 74 10000 3 130 16:58 21.08.2019
3278 Clear 28 1008 74 10000 4 130 16:39 21.08.2019
3279 Clear 28 1008 74 10000 4 130 16:20 21.08.2019
3280 Clear 28 1008 66 10000 3 80 15:58 21.08.2019
3281 Clear 28 1008 66 10000 3 80 15:58 21.08.2019
3282 Clouds 28 1007 66 10000 3 60 15:38 21.08.2019
3283 Clouds 28 1007 66 10000 5 50 15:19 21.08.2019
3284 Clouds 29 1007 66 10000 5 50 14:56 21.08.2019
3285 Clouds 28 1007 66 10000 5 40 14:37 21.08.2019
3286 Clouds 28 1007 62 10000 4 60 14:18 21.08.2019
3287 Clouds 29 1006 62 10000 2 110 13:43 21.08.2019
3288 Clear 29 1006 58 10000 3 50 13:20 21.08.2019
3289 Clear 29 1006 58 10000 3 50 12:58 21.08.2019
3290 Clouds 30 1006 52 10000 3 20 12:40 21.08.2019
3291 Clouds 31 1005 52 10000 3 20 12:20 21.08.2019
3292 Clouds 32 1005 52 10000 3 20 11:54 21.08.2019
3293 Clouds 32 1005 52 10000 2 50 11:36 21.08.2019
3294 Clouds 32 1005 49 10000 4 10 11:18 21.08.2019
3295 Clouds 32 1005 49 10000 4 10 10:55 21.08.2019
3296 Clouds 32 1005 52 10000 4 10 10:37 21.08.2019
3297 Clouds 33 1005 52 10000 4 40 10:18 21.08.2019
3298 Clouds 33 1005 52 10000 4 40 10:18 21.08.2019
3299 Clouds 32 1005 52 10000 5 360 09:41 21.08.2019
3300 Clouds 32 1005 52 10000 5 360 09:22 21.08.2019
3301 Clouds 33 1005 46 10000 4 350 08:55 21.08.2019
3302 Clouds 33 1005 46 10000 2 0 08:37 21.08.2019
3303 Clouds 33 1005 46 10000 3 350 08:18 21.08.2019
3304 Clouds 33 1006 49 10000 4 10 07:38 21.08.2019
3305 Clouds 33 1006 46 10000 4 20 07:19 21.08.2019
3306 Clouds 33 1006 46 10000 3 20 06:46 21.08.2019
3307 Clouds 32 1006 52 10000 3 10 06:20 21.08.2019
3308 Clouds 32 1006 52 10000 3 40 05:30 21.08.2019
3309 Clouds 34 1007 52 10000 3 360 04:58 21.08.2019
3310 Clear 29 1007 70 10000 2 40 02:45 21.08.2019
3311 Clear 30 1006 78 10000 2 70 01:38 21.08.2019
3312 Clear 29 1006 88 10000 2 20 00:43 21.08.2019
3313 Clear 29 1006 88 10000 2 20 00:43 21.08.2019
3314 Clear 27 1006 83 10000 3 10 00:22 21.08.2019
3315 Clear 26 1006 83 10000 2 10 23:46 20.08.2019
3316 Clear 26 1006 83 10000 2 10 23:21 20.08.2019
3317 Clear 26 1006 83 10000 2 10 22:59 20.08.2019
3318 Clear 26 1006 78 10000 1 20 22:41 20.08.2019
3319 Clear 26 1006 78 10000 1 20 22:22 20.08.2019
3320 Clear 26 1006 74 10000 1 20 21:58 20.08.2019
3321 Clear 26 1006 74 10000 2 60 21:39 20.08.2019
3322 Clear 26 1006 74 10000 2 60 21:20 20.08.2019
3323 Clear 26 1006 74 10000 2 60 20:59 20.08.2019
3324 Clear 26 1006 74 10000 2 60 20:59 20.08.2019
3325 Clear 27 1006 74 10000 1 0 20:41 20.08.2019
3326 Clear 27 1006 74 10000 1 0 20:23 20.08.2019
3327 Clear 27 1006 74 10000 1.06 107.354 19:40 20.08.2019
3328 Clear 27 1006 74 10000 1.06 107.354 19:22 20.08.2019
3329 Clear 27 1006 69 10000 2 80 18:58 20.08.2019
3330 Clear 27 1007 69 10000 2 100 18:40 20.08.2019
3331 Clear 27 1007 69 10000 2 100 18:19 20.08.2019
3332 Clear 27 1007 69 10000 2 100 18:19 20.08.2019
3333 Clear 27 1007 69 10000 2 100 17:57 20.08.2019
3334 Clear 27 1007 69 10000 2 100 17:57 20.08.2019
3335 Clear 27 1007 69 10000 3 120 17:38 20.08.2019
3336 Clear 27 1007 69 10000 4 120 17:19 20.08.2019
3337 Clear 27 1007 69 10000 4 120 16:45 20.08.2019
3338 Clear 27 1007 69 10000 4 120 16:26 20.08.2019
3339 Clear 27 1007 65 10000 4 90 15:56 20.08.2019
3340 -273 0 0 0 0 0 15:38 20.08.2019
3341 Clear 27 1007 61 10000 4 110 15:18 20.08.2019
3342 Clear 28 1007 65 10000 5 110 14:43 20.08.2019
3343 Clear 28 1007 69 10000 5 80 14:22 20.08.2019
3344 Clear 28 1007 62 10000 4 100 13:57 20.08.2019
3345 Clouds 28 1006 66 10000 3 90 13:38 20.08.2019
3346 Clouds 28 1006 66 10000 3 100 13:20 20.08.2019
3347 Clouds 28 1006 66 10000 4 120 12:51 20.08.2019
3348 Clouds 29 1006 66 10000 4 120 12:30 20.08.2019
3349 Clouds 30 1006 62 10000 4 80 11:59 20.08.2019
3350 Clouds 30 1006 62 10000 4 90 11:38 20.08.2019
3351 Clouds 30 1006 62 10000 4 80 11:19 20.08.2019
3352 Clouds 30 1006 62 10000 4 80 11:19 20.08.2019
3353 Clouds 30 1006 62 10000 4 80 11:19 20.08.2019
3354 Clouds 30 1006 62 10000 4 80 10:57 20.08.2019
3355 Clouds 30 1006 62 10000 4 80 10:57 20.08.2019
3356 Clouds 30 1006 62 10000 4 80 10:57 20.08.2019
3357 Clouds 30 1006 58 10000 3 80 10:38 20.08.2019
3358 Clouds 31 1006 55 10000 4 80 10:19 20.08.2019
3359 Clouds 31 1006 55 10000 3 80 09:43 20.08.2019
3360 Clouds 32 1006 55 10000 4 80 09:25 20.08.2019
3361 Clouds 31 1007 55 10000 3 70 08:57 20.08.2019
3362 Clouds 32 1007 55 10000 3 70 08:39 20.08.2019
3363 Clouds 31 1007 55 10000 3 70 08:20 20.08.2019
3364 Clouds 32 1007 55 10000 3 70 07:55 20.08.2019
3365 Clouds 32 1007 55 10000 2 0 07:37 20.08.2019
3366 Clouds 32 1007 55 10000 3 70 07:18 20.08.2019
3367 Clouds 32 1007 55 10000 3 70 07:18 20.08.2019
3368 Clouds 32 1008 55 10000 3 70 06:28 20.08.2019
3369 Clouds 30 1008 55 10000 2 70 05:49 20.08.2019
3370 Clouds 30 1008 58 10000 2 0 05:18 20.08.2019
3371 Clouds 32 1008 66 10000 2 0 03:52 20.08.2019
3372 Clouds 29 1008 69 10000 2 60 02:44 20.08.2019
3373 Clear 29 1008 74 10000 3 60 01:39 20.08.2019
3374 Clear 29 1008 74 10000 3 80 00:57 20.08.2019
3375 Clear 28 1008 78 10000 2 80 00:39 20.08.2019
3376 Clear 28 1008 78 10000 2 80 00:39 20.08.2019
3377 Clear 27 1008 78 10000 2 80 00:19 20.08.2019
3378 Clear 26 1008 83 10000 2 20 23:39 19.08.2019
3379 Clear 26 1008 78 10000 3 50 23:18 19.08.2019
3380 Clear 26 1008 78 10000 3 50 23:18 19.08.2019
3381 Clear 26 1008 78 10000 3 50 22:54 19.08.2019
3382 Clear 26 1008 78 10000 2 70 22:36 19.08.2019
3383 Clear 26 1008 78 10000 2 70 22:36 19.08.2019
3384 Clear 26 1008 78 10000 3 80 22:18 19.08.2019
3385 Clear 26 1008 78 10000 3 80 21:55 19.08.2019
3386 Clear 26 1008 78 10000 3 60 21:36 19.08.2019
3387 Clear 26 1008 78 10000 2 70 21:18 19.08.2019
3388 Clear 26 1008 78 10000 3 70 20:39 19.08.2019
3389 Clear 26 1008 78 10000 3 70 20:39 19.08.2019
3390 Clouds 26 1008 74 10000 3 80 20:20 19.08.2019
3391 Clouds 26 1008 74 10000 3 80 19:58 19.08.2019
3392 Clouds 26 1008 74 10000 3 80 19:39 19.08.2019
3393 Clouds 26 1009 74 10000 3 70 19:19 19.08.2019
3394 Clouds 26 1009 74 10000 4 70 18:45 19.08.2019
3395 Clouds 27 1009 74 10000 4 60 18:27 19.08.2019
3396 Clouds 27 1009 74 10000 4 60 17:59 19.08.2019
3397 Clouds 27 1009 74 10000 3 70 17:41 19.08.2019
3398 Clouds 27 1009 69 10000 5 80 17:20 19.08.2019
3399 Clouds 27 1009 69 10000 5 80 16:58 19.08.2019
3400 Clouds 27 1009 69 10000 4 60 16:37 19.08.2019
3401 Clouds 27 1009 69 10000 4 70 16:19 19.08.2019
3402 Clouds 27 1009 69 10000 4 70 15:55 19.08.2019
3403 Clouds 27 1009 69 10000 5 70 15:36 19.08.2019
3404 Clouds 28 1008 69 10000 4 60 15:18 19.08.2019
3405 Clouds 28 1008 69 10000 4 60 14:40 19.08.2019
3406 Clouds 28 1008 69 10000 4 60 14:21 19.08.2019
3407 Clouds 28 1008 69 10000 4 70 13:57 19.08.2019
3408 Clouds 28 1007 69 10000 5 60 13:37 19.08.2019
3409 Clouds 28 1007 66 10000 4 60 13:19 19.08.2019
3410 Clouds 28 1007 66 10000 4 80 12:44 19.08.2019
3411 Clouds 29 1007 66 10000 4 80 12:24 19.08.2019
3412 Clouds 30 1007 62 10000 5 80 11:57 19.08.2019
3413 Clouds 30 1007 66 10000 5 70 11:37 19.08.2019
3414 Clouds 31 1007 66 10000 6 80 11:18 19.08.2019
3415 Clouds 30 1007 62 10000 6 70 10:40 19.08.2019
3416 Clouds 31 1007 62 10000 6 70 10:19 19.08.2019
3417 Clouds 30 1007 62 10000 5 80 09:57 19.08.2019
3418 Clouds 31 1007 59 10000 5 70 09:39 19.08.2019
3419 Clouds 31 1007 59 10000 5 70 09:39 19.08.2019
3420 Clouds 32 1007 62 10000 5 80 09:21 19.08.2019
3421 Clouds 31 1007 62 10000 4 80 08:46 19.08.2019
3422 Clouds 32 1007 62 10000 4 80 08:25 19.08.2019
3423 Clouds 31 1007 62 10000 5 70 07:59 19.08.2019
3424 Clouds 31 1007 62 10000 6 30 07:40 19.08.2019
3425 Clouds 32 1007 62 10000 6 30 07:21 19.08.2019
3426 Clouds 33 1008 62 10000 4 50 06:40 19.08.2019
3427 Clouds 32 1008 66 10000 5 60 05:28 19.08.2019
3428 Clouds 31 1008 66 10000 3 50 04:34 19.08.2019
3429 Clouds 31 1008 70 10000 3 80 03:28 19.08.2019
3430 Clouds 30 1008 74 10000 4 90 02:53 19.08.2019
3431 Clear 30 1008 83 10000 3 70 01:37 19.08.2019
3432 Clear 29 1008 88 10000 3 50 00:49 19.08.2019
3433 Clear 27 1008 88 10000 3 50 00:25 19.08.2019
3434 Clear 26 1007 83 10000 2 40 23:57 18.08.2019
3435 Clear 26 1007 88 10000 3 40 23:37 18.08.2019
3436 Clear 26 1007 83 10000 3 40 23:19 18.08.2019
3437 Clear 27 1007 83 10000 3 50 22:40 18.08.2019
3438 Clear 27 1007 83 10000 3 50 22:21 18.08.2019
3439 Clear 26 1007 88 10000 2 60 21:57 18.08.2019
3440 Clear 26 1007 88 10000 2 70 21:39 18.08.2019
3441 Clear 26 1007 88 10000 2 70 21:20 18.08.2019
3442 Clear 26 1007 83 10000 3 30 20:46 18.08.2019
3443 Clear 26 1007 83 10000 3 30 20:27 18.08.2019
3444 Clear 27 1007 78 10000 3 60 19:59 18.08.2019
3445 Clear 26 1007 83 10000 3 10 19:41 18.08.2019
3446 Clear 26 1007 83 10000 3 10 19:23 18.08.2019
3447 Clear 26 1007 83 10000 2 30 18:56 18.08.2019
3448 Clear 26 1007 83 10000 2 30 18:56 18.08.2019
3449 Clouds 26 1007 83 10000 3 20 18:38 18.08.2019
3450 Clouds 26 1007 83 10000 3 20 18:38 18.08.2019
3451 Clouds 28 1007 78 10000 3 10 18:20 18.08.2019
3452 Clouds 27 1008 78 10000 3 10 17:44 18.08.2019
3453 Clouds 27 1008 78 10000 3 10 17:20 18.08.2019
3454 Clouds 27 1008 78 10000 3 10 16:59 18.08.2019
3455 Clear 27 1007 78 10000 2 350 16:41 18.08.2019
3456 Clear 27 1007 78 10000 2 350 16:23 18.08.2019
3457 Clouds 27 1007 83 10000 3 10 15:59 18.08.2019
3458 Clear 26 1007 83 10000 3 360 15:39 18.08.2019
3459 Clear 27 1007 83 10000 3 360 15:20 18.08.2019
3460 Clear 27 1007 83 10000 3 360 15:20 18.08.2019
3461 Clear 27 1007 78 10000 3 10 14:56 18.08.2019
3462 Rain 27 1006 78 10000 4 350 14:38 18.08.2019
3463 Thunderstorm 27 1006 78 10000 2 10 14:19 18.08.2019
3464 Thunderstorm 26 1006 78 10000 2 10 13:55 18.08.2019
3465 Rain 27 1006 78 10000 2 100 13:36 18.08.2019
3466 Thunderstorm 28 1006 69 10000 2 50 13:18 18.08.2019
3467 Thunderstorm 27 1005 78 10000 4 70 12:40 18.08.2019
3468 Thunderstorm 27 1005 78 10000 4 70 12:22 18.08.2019
3469 Thunderstorm 27 1005 73 10000 9 80 11:54 18.08.2019
3470 Thunderstorm 26 1005 78 4000 10 80 11:36 18.08.2019
3471 Thunderstorm 25 1005 88 2500 14 260 11:18 18.08.2019
3472 Thunderstorm 25 1005 88 2500 14 260 10:41 18.08.2019
3473 Thunderstorm 27 1005 73 10000 10 220 10:19 18.08.2019
3474 Thunderstorm 31 1004 66 10000 7 80 09:48 18.08.2019
3475 Thunderstorm 31 1005 66 10000 5 80 09:21 18.08.2019
3476 Thunderstorm 31 1005 66 10000 5 80 08:54 18.08.2019
3477 Thunderstorm 32 1004 63 10000 5 60 08:36 18.08.2019
3478 Clouds 32 1005 63 10000 5 20 08:18 18.08.2019
3479 Clouds 32 1005 63 10000 4 30 07:41 18.08.2019
3480 Clouds 32 1005 63 10000 4 20 07:23 18.08.2019
3481 Clouds 33 1006 59 10000 2 330 05:46 18.08.2019
3482 Clouds 32 1006 63 10000 3 60 04:51 18.08.2019
3483 Clouds 31 1006 74 10000 1 0 03:22 18.08.2019
3484 Mist 30 1006 79 10000 3 50 02:45 18.08.2019
3485 Mist 29 1006 83 10000 4 30 02:18 18.08.2019
3486 Mist 29 1006 83 10000 4 10 01:29 18.08.2019
3487 Mist 28 1005 83 7000 4 50 00:43 18.08.2019
3488 Mist 28 1005 83 7000 4 50 00:24 18.08.2019
3489 Mist 27 1004 88 7000 3 30 23:58 17.08.2019
3490 Mist 28 1004 88 7000 4 20 23:38 17.08.2019
3491 Mist 28 1004 88 7000 4 10 23:20 17.08.2019
3492 Mist 28 1004 88 7000 4 10 22:58 17.08.2019
3493 Mist 27 1004 88 7000 5 10 22:40 17.08.2019
3494 Clouds 28 1004 88 6000 5 360 22:21 17.08.2019
3495 Clouds 28 1004 88 6000 5 360 21:55 17.08.2019
3496 Clouds 28 1004 88 6000 5 360 21:55 17.08.2019
3497 Clouds 28 1004 88 6000 5 360 21:37 17.08.2019
3498 Clouds 28 1004 88 6000 5 360 21:19 17.08.2019
3499 Clouds 28 1004 88 6000 3 10 20:39 17.08.2019
3500 Clouds 28 1004 88 7000 4 360 20:20 17.08.2019
3501 Clouds 28 1004 88 7000 4 360 19:56 17.08.2019
3502 Clouds 28 1004 88 7000 4 350 19:37 17.08.2019
3503 Clouds 28 1004 88 7000 4 360 19:19 17.08.2019
3504 Clear 28 1004 88 10000 4 360 18:39 17.08.2019
3505 Clear 29 1004 83 10000 5 10 18:19 17.08.2019
3506 Clear 29 1004 83 10000 5 10 17:56 17.08.2019
3507 Clear 29 1005 83 10000 3 360 17:37 17.08.2019
3508 Clear 29 1004 79 10000 3 10 17:19 17.08.2019
3509 Clear 29 1004 74 10000 3 10 16:43 17.08.2019
3510 Clear 29 1004 74 10000 3 10 16:25 17.08.2019
3511 Clear 29 1004 52 10000 1 0 15:57 17.08.2019
3512 Clear 30 1004 52 10000 1 0 15:38 17.08.2019
3513 Clear 30 1004 52 10000 1 0 15:20 17.08.2019
3514 Clouds 31 1003 52 10000 3 150 14:41 17.08.2019
3515 Clouds 30 1003 52 10000 3 150 14:22 17.08.2019
3516 Clear 29 1002 55 10000 5 150 13:47 17.08.2019
3517 Clear 29 1002 55 10000 5 150 13:22 17.08.2019
3518 Clear 32 1002 55 10000 5 150 12:57 17.08.2019
3519 Clear 32 1002 55 10000 5 150 12:39 17.08.2019
3520 Clouds 33 1001 55 10000 5 150 12:18 17.08.2019
3521 Clouds 34 1001 56 10000 6 150 11:43 17.08.2019
3522 Clouds 35 1001 56 10000 6 150 11:21 17.08.2019
3523 Clouds 35 1001 53 10000 5 140 10:55 17.08.2019
3524 Clouds 35 1001 56 10000 6 130 10:37 17.08.2019
3525 Clouds 36 1001 37 10000 4 100 10:18 17.08.2019
3526 Clouds 37 1001 35 10000 1 0 09:43 17.08.2019
3527 Clouds 37 1001 35 10000 1 0 09:25 17.08.2019
3528 Clouds 36 1001 35 10000 2 0 08:53 17.08.2019
3529 Clouds 36 1002 37 10000 2 340 08:25 17.08.2019
3530 Clouds 37 1002 37 10000 3 0 07:46 17.08.2019
3531 Clouds 38 1002 37 10000 3 0 07:21 17.08.2019
3532 Clear 36 1003 37 10000 2 100 06:42 17.08.2019
3533 Clear 35 1003 44 10000 2 0 05:31 17.08.2019
3534 Clear 34 1003 55 10000 2 0 04:29 17.08.2019
3535 Clear 32 1003 70 7000 2 0 03:19 17.08.2019
3536 Mist 30 1003 79 7000 1 0 01:42 17.08.2019
3537 Mist 30 1003 79 7000 1 0 01:24 17.08.2019
3538 Mist 31 1002 83 7000 1 180 00:54 17.08.2019
3539 Mist 27 1002 83 7000 1 180 00:27 17.08.2019
3540 Mist 27 1001 88 8000 1 190 23:48 16.08.2019
3541 Mist 27 1001 88 8000 1 190 23:26 16.08.2019
3542 Mist 27 1001 83 10000 1 210 22:55 16.08.2019
3543 Mist 27 1001 78 10000 1 190 22:36 16.08.2019
3544 Mist 27 1001 83 10000 1 210 22:18 16.08.2019
3545 Mist 27 1001 83 10000 1 210 22:18 16.08.2019
3546 Mist 28 1001 78 10000 1 190 21:39 16.08.2019
3547 Mist 28 1001 88 10000 3 180 21:19 16.08.2019
3548 Mist 28 1001 88 10000 3 180 20:55 16.08.2019
3549 Mist 28 1001 83 10000 3 190 20:37 16.08.2019
3550 Clear 28 1001 83 10000 3 190 20:18 16.08.2019
3551 Clear 28 1002 83 10000 2 170 19:40 16.08.2019
3552 Clear 28 1002 83 10000 2 170 19:22 16.08.2019
3553 Clear 29 1002 83 10000 3 150 18:42 16.08.2019
3554 Clear 29 1002 83 10000 3 150 18:23 16.08.2019
3555 Clear 29 1002 83 10000 3 150 17:51 16.08.2019
3556 Clear 29 1002 79 10000 4 150 17:33 16.08.2019
3557 Clear 29 1002 79 10000 4 150 17:33 16.08.2019
3558 Mist 29 1002 79 10000 5 150 16:59 16.08.2019
3559 Mist 29 1002 83 10000 5 150 16:41 16.08.2019
3560 Mist 29 1002 74 10000 4 150 16:21 16.08.2019
3561 Mist 29 1002 74 10000 4 150 15:57 16.08.2019
3562 Mist 29 1002 74 10000 3 150 15:38 16.08.2019
3563 Clear 29 1002 74 10000 4 140 15:20 16.08.2019
3564 Clear 30 1002 74 10000 4 140 14:57 16.08.2019
3565 Clear 30 1001 70 10000 5 130 14:38 16.08.2019
3566 Clear 30 1001 70 10000 4 130 14:18 16.08.2019
3567 Clear 30 1000 58 10000 2 210 13:41 16.08.2019
3568 Clear 30 1000 58 10000 2 210 13:22 16.08.2019
3569 Clear 30 1000 58 10000 2 210 13:22 16.08.2019
3570 Clouds 30 1000 55 10000 3 230 12:55 16.08.2019
3571 Clouds 30 1001 70 10000 5 120 12:37 16.08.2019
3572 Clouds 32 999 55 10000 3 150 12:18 16.08.2019
3573 Clouds 32 999 59 10000 4 130 11:41 16.08.2019
3574 Clouds 33 999 59 10000 4 130 11:23 16.08.2019
3575 Clouds 33 999 47 10000 1 0 10:43 16.08.2019
3576 Clouds 34 999 47 10000 1 0 10:22 16.08.2019
3577 Clouds 34 999 41 10000 2 310 09:55 16.08.2019
3578 Clouds 34 999 44 10000 1 0 09:36 16.08.2019
3579 Clouds 35 999 47 10000 2 50 09:18 16.08.2019
3580 Clouds 34 999 44 10000 2 0 08:39 16.08.2019
3581 Clouds 34 999 44 10000 2 0 08:20 16.08.2019
3582 Clouds 35 1000 44 10000 2 0 07:52 16.08.2019
3583 Clouds 35 1000 46 10000 3 310 07:29 16.08.2019
3584 Clouds 34 1000 49 10000 3 340 06:55 16.08.2019
3585 Clouds 33 1000 49 10000 3 330 06:19 16.08.2019
3586 Clouds 33 1000 49 10000 3 310 05:34 16.08.2019
3587 Clouds 30 1000 66 8000 3 340 03:21 16.08.2019
3588 Clouds 30 1000 79 7000 1 0 01:54 16.08.2019
3589 Clear 31 1000 78 8000 1 0 01:28 16.08.2019
3590 Clear 31 1000 78 10000 1 180 00:55 16.08.2019
3591 Clear 31 1000 78 10000 1 180 00:55 16.08.2019
3592 Mist 29 999 83 10000 1.86 281.425 00:36 16.08.2019
3593 Mist 27 999 83 10000 0.87 305.752 00:18 16.08.2019
3594 Clear 26 999 83 10000 0.87 305.752 23:42 15.08.2019
3595 Clear 25 998 83 10000 2 160 23:19 15.08.2019
3596 Clear 26 998 83 10000 2 160 22:55 15.08.2019
3597 Clear 26 998 83 10000 2 150 22:36 15.08.2019
3598 Clear 26 999 83 10000 2 160 22:18 15.08.2019
3599 Clear 26 999 83 10000 1 0 21:40 15.08.2019
3600 Rain 26 999 83 10000 1 110 21:20 15.08.2019
3601 Rain 26 999 83 10000 1 110 20:59 15.08.2019
3602 Rain 26 999 83 10000 1 0 20:40 15.08.2019
3603 Rain 27 998 88 10000 4 60 20:21 15.08.2019
3604 Rain 27 998 88 10000 4 60 19:54 15.08.2019
3605 Rain 27 998 94 10000 5 30 19:36 15.08.2019
3606 Rain 27 998 94 10000 5 30 19:36 15.08.2019
3607 Rain 28 998 74 10000 5 160 19:18 15.08.2019
3608 Clear 28 998 70 10000 5 130 18:41 15.08.2019
3609 Clear 28 998 70 10000 5 130 18:21 15.08.2019
3610 Clear 28 999 66 10000 2 90 17:55 15.08.2019
3611 Rain 28 999 70 10000 2 20 17:37 15.08.2019
3612 Clear 29 999 70 10000 3 360 17:19 15.08.2019
3613 Clear 29 999 70 10000 2 360 16:47 15.08.2019
3614 Clear 29 999 70 10000 2 360 16:25 15.08.2019
3615 Clear 29 999 62 10000 2 360 15:56 15.08.2019
3616 Clear 29 998 62 10000 2 10 15:38 15.08.2019
3617 Clear 30 998 62 10000 3 20 15:18 15.08.2019
3618 Clear 30 998 58 10000 2 300 14:42 15.08.2019
3619 Clear 30 998 58 10000 2 300 14:42 15.08.2019
3620 Clear 30 998 58 10000 2 300 14:23 15.08.2019
3621 Clear 30 997 55 10000 2 300 13:57 15.08.2019
3622 Clear 30 997 55 10000 3 310 13:39 15.08.2019
3623 Clear 30 997 55 10000 3 320 13:20 15.08.2019
3624 Clear 30 997 55 10000 3 320 13:20 15.08.2019
3625 Clear 31 997 55 10000 3 320 12:56 15.08.2019
3626 Clear 32 997 52 10000 4 320 12:37 15.08.2019
3627 Clear 32 996 52 10000 4 310 12:18 15.08.2019
3628 Clear 33 996 52 10000 5 320 11:40 15.08.2019
3629 Clear 33 996 52 10000 5 320 11:21 15.08.2019
3630 Clear 33 996 52 10000 5 330 10:59 15.08.2019
3631 Clear 33 996 52 10000 5 330 10:38 15.08.2019
3632 Clear 33 996 52 10000 5 330 10:38 15.08.2019
3633 Clouds 33 997 49 10000 6 330 10:20 15.08.2019
3634 Clouds 33 997 49 10000 6 320 09:45 15.08.2019
3635 Clouds 33 997 49 10000 6 320 09:24 15.08.2019
3636 Clouds 33 997 49 10000 7 330 08:56 15.08.2019
3637 Clouds 33 997 52 10000 6 320 08:37 15.08.2019
3638 Clouds 33 998 55 10000 6 340 08:18 15.08.2019
3639 Clouds 33 998 55 10000 6 340 07:42 15.08.2019
3640 Clouds 33 998 55 10000 6 340 07:23 15.08.2019
3641 Clouds 33 998 55 10000 6 340 07:23 15.08.2019
3642 Clouds 33 998 55 10000 6 330 06:53 15.08.2019
3643 Clouds 31 999 58 10000 5 340 06:32 15.08.2019
3644 Clouds 31 999 62 10000 5 320 05:44 15.08.2019
3645 Clouds 30 999 62 10000 5 320 05:25 15.08.2019
3646 Clear 32 999 66 10000 6 320 04:32 15.08.2019
3647 Clouds 31 999 70 8000 5 320 03:37 15.08.2019
3648 Mist 29 999 78 5000 4 340 02:37 15.08.2019
3649 Mist 28 999 78 5000 3 320 01:50 15.08.2019
3650 Mist 29 999 78 5000 3 320 01:27 15.08.2019
3651 Clear 28 999 88 6000 4 330 00:39 15.08.2019
3652 Clear 27 999 83 10000 3 320 00:20 15.08.2019
3653 Clear 27 999 83 10000 3 320 23:57 14.08.2019
3654 Clear 27 998 83 10000 2 320 23:37 14.08.2019
3655 Clear 27 998 83 10000 2 340 23:19 14.08.2019
3656 Clear 27 998 83 10000 2 340 22:55 14.08.2019
3657 Clear 27 999 83 10000 3 340 22:37 14.08.2019
3658 Clear 27 998 88 10000 2 350 22:19 14.08.2019
3659 Clear 28 998 88 10000 2 350 21:55 14.08.2019
3660 Mist 28 998 78 10000 4 360 21:36 14.08.2019
3661 Mist 28 998 83 10000 3 360 21:18 14.08.2019
3662 Mist 28 999 78 10000 2 340 20:41 14.08.2019
3663 Mist 28 999 83 10000 3 360 20:20 14.08.2019
3664 Mist 28 999 78 10000 3 360 19:56 14.08.2019
3665 Mist 27 999 78 10000 3 360 19:37 14.08.2019
3666 Mist 27 999 78 10000 2 350 19:18 14.08.2019
3667 Mist 27 999 78 10000 2 350 18:56 14.08.2019
3668 Mist 28 999 78 10000 2 340 18:37 14.08.2019
3669 Mist 27 999 83 10000 1 350 18:18 14.08.2019
3670 Mist 27 999 83 10000 1 350 17:54 14.08.2019
3671 Mist 28 999 79 7000 1 0 17:36 14.08.2019
3672 Mist 28 999 79 7000 1 0 17:18 14.08.2019
3673 Mist 28 999 79 7000 2 130 16:39 14.08.2019
3674 Mist 28 999 79 7000 2 130 16:20 14.08.2019
3675 Clear 28 999 79 7000 2 110 16:20 14.08.2019
3676 Clear 28 999 79 7000 2 120 15:44 14.08.2019
3677 Clouds 28 999 79 7000 1 0 15:20 14.08.2019
3678 Clouds 28 999 79 7000 1 0 14:58 14.08.2019
3679 Clear 28 999 79 10000 1 0 14:39 14.08.2019
3680 Rain 28 999 74 7000 1 0 14:19 14.08.2019
3681 Clear 29 998 66 10000 2 60 13:44 14.08.2019
3682 Clear 29 998 66 10000 2 60 13:44 14.08.2019
3683 Clear 29 998 66 10000 2 60 13:25 14.08.2019
3684 Clear 29 998 66 10000 2 320 12:59 14.08.2019
3685 Clear 29 998 66 10000 1 0 12:40 14.08.2019
3686 Clear 28 998 74 10000 2 360 12:22 14.08.2019
3687 Clear 28 998 74 10000 2 360 11:57 14.08.2019
3688 Clear 28 998 74 10000 2 360 11:57 14.08.2019
3689 Rain 28 998 74 10000 3 350 11:39 14.08.2019
3690 Rain 28 998 74 10000 3 350 11:21 14.08.2019
3691 Rain 31 999 74 10000 9 300 10:45 14.08.2019
3692 Rain 31 999 74 10000 9 300 10:25 14.08.2019
3693 Clouds 32 998 59 10000 8 330 09:58 14.08.2019
3694 Clouds 33 998 52 10000 5 320 09:39 14.08.2019
3695 -273 0 0 0 0 0 09:19 14.08.2019
3696 Clear 33 999 52 10000 5 310 08:40 14.08.2019
3697 Clear 33 999 52 10000 5 310 08:21 14.08.2019
3698 Rain 34 999 52 10000 4 330 07:53 14.08.2019
3699 Clear 34 999 49 10000 4 300 07:33 14.08.2019
3700 Clear 34 1000 47 10000 3 0 06:47 14.08.2019
3701 Clouds 33 1000 56 10000 3 340 05:54 14.08.2019
3702 Clouds 33 1000 52 10000 3 0 05:28 14.08.2019
3703 Clear 32 1001 62 10000 1 0 03:38 14.08.2019
3704 Clear 31 1001 66 10000 1 0 02:34 14.08.2019
3705 Clear 29 1001 70 10000 1 0 01:49 14.08.2019
3706 Clear 28 1001 83 10000 1 180 01:18 14.08.2019
3707 Clear 28 1001 83 10000 1 130 23:51 13.08.2019
3708 Clear 28 1001 83 10000 1 0 23:27 13.08.2019
3709 Clear 28 1001 83 10000 1 200 23:00 13.08.2019
3710 Clear 28 1001 83 10000 1 0 22:40 13.08.2019
3711 Clear 28 1001 83 10000 1 0 22:40 13.08.2019
3712 Clear 28 1001 83 10000 1 0 22:21 13.08.2019
3713 Clear 28 1001 83 10000 1 0 21:58 13.08.2019
3714 Clear 28 1001 78 10000 1 100 21:38 13.08.2019
3715 Clear 28 1001 78 10000 1 0 21:19 13.08.2019
3716 Clear 28 1001 78 10000 1 0 20:56 13.08.2019
3717 Clear 28 1001 83 10000 1.3 191.241 20:37 13.08.2019
3718 Clear 28 1001 74 10000 1 160 20:18 13.08.2019
3719 Clear 28 1001 74 10000 1 170 19:43 13.08.2019
3720 Clear 28 1001 74 10000 1 170 19:22 13.08.2019
3721 Clear 28 1001 78 10000 2 140 18:57 13.08.2019
3722 Clear 29 1002 78 10000 2 160 18:38 13.08.2019
3723 Clear 28 1002 78 10000 2 160 18:19 13.08.2019
3724 Clear 28 1002 79 10000 3 160 17:42 13.08.2019
3725 Clear 29 1002 79 10000 3 160 17:22 13.08.2019
3726 Clear 29 1002 79 10000 2 150 16:57 13.08.2019
3727 Clear 29 1002 79 10000 2 150 16:57 13.08.2019
3728 Clear 29 1002 79 10000 3 140 16:38 13.08.2019
3729 Clear 29 1002 79 10000 3 130 16:20 13.08.2019
3730 Clear 29 1002 79 10000 2 120 15:40 13.08.2019
3731 Clear 29 1002 79 10000 2 120 15:21 13.08.2019
3732 Clear 29 1002 74 10000 2 100 14:59 13.08.2019
3733 Clear 29 1001 74 10000 2 120 14:40 13.08.2019
3734 Clear 29 1001 74 10000 2 120 14:19 13.08.2019
3735 Clear 29 1001 70 10000 1 0 13:42 13.08.2019
3736 Clear 29 1001 70 10000 1 0 13:23 13.08.2019
3737 Clear 30 1000 70 10000 2 100 12:59 13.08.2019
3738 Clear 30 1000 70 10000 2 100 12:41 13.08.2019
3739 Clear 30 1000 70 10000 2 100 12:22 13.08.2019
3740 Clear 30 1000 70 10000 2 100 12:22 13.08.2019
3741 Clouds 30 1000 70 10000 2 90 11:59 13.08.2019
3742 Clouds 31 1000 74 10000 3 70 11:38 13.08.2019
3743 Clouds 31 1000 74 10000 3 70 11:20 13.08.2019
3744 Clouds 30 1000 79 10000 4 100 10:56 13.08.2019
3745 Clouds 30 1000 79 10000 3 110 10:37 13.08.2019
3746 Clouds 30 1000 83 10000 4 130 10:19 13.08.2019
3747 Clouds 30 1000 79 10000 5 140 09:43 13.08.2019
3748 Rain 32 1000 83 8000 6 90 09:23 13.08.2019
3749 Rain 32 1000 83 8000 6 90 09:23 13.08.2019
3750 Rain 30 1000 89 8000 5 80 08:44 13.08.2019
3751 Rain 30 1000 89 8000 5 80 08:44 13.08.2019
3752 Rain 30 1000 89 8000 5 80 08:23 13.08.2019
3753 Rain 31 1000 88 8000 4 90 07:58 13.08.2019
3754 Rain 30 1000 88 6000 8 120 07:34 13.08.2019
3755 Rain 32 1000 83 7000 8 140 06:56 13.08.2019
3756 Clouds 32 1000 66 10000 5 20 06:36 13.08.2019
3757 Clouds 34 1000 59 10000 2 0 05:35 13.08.2019
3758 Clear 31 1000 70 10000 1 0 02:52 13.08.2019
3759 Clear 30 1000 74 10000 1 0 02:19 13.08.2019
3760 Clear 31 1000 79 10000 1 150 00:59 13.08.2019
3761 Clear 30 1000 79 10000 1 180 00:40 13.08.2019
3762 Clear 29 1000 79 10000 1 190 23:57 12.08.2019
3763 Clear 29 1000 79 10000 1 220 23:36 12.08.2019
3764 Clear 29 1000 79 10000 1 200 23:18 12.08.2019
3765 Clear 29 1000 79 10000 1 170 22:40 12.08.2019
3766 Clear 29 1000 79 10000 1 170 22:19 12.08.2019
3767 Clear 29 1000 79 10000 2 170 21:55 12.08.2019
3768 Clear 29 999 79 10000 2 160 21:37 12.08.2019
3769 Clear 29 1000 79 10000 2 180 21:18 12.08.2019
3770 Clear 29 1000 79 10000 2 180 20:56 12.08.2019
3771 Clear 29 1000 79 10000 2 180 20:56 12.08.2019
3772 Clear 29 1000 79 10000 2 180 20:56 12.08.2019
3773 Clear 29 1000 83 10000 2 180 20:36 12.08.2019
3774 Clear 29 1000 88 10000 3 180 20:18 12.08.2019
3775 Clear 29 1000 88 10000 3 180 19:55 12.08.2019
3776 Clear 29 1000 83 10000 2 180 19:36 12.08.2019
3777 Clear 29 1000 83 10000 4 190 19:18 12.08.2019
3778 Clear 29 1000 83 10000 4 190 18:54 12.08.2019
3779 Clear 29 1000 83 10000 3 190 18:36 12.08.2019
3780 Clear 29 1000 83 10000 3 180 18:18 12.08.2019
3781 Clear 29 1000 83 10000 4 180 17:40 12.08.2019
3782 Clear 30 1000 83 10000 4 180 17:21 12.08.2019
3783 Clear 30 1000 79 10000 3 190 16:56 12.08.2019
3784 Clear 30 1000 70 10000 3 190 16:37 12.08.2019
3785 Clear 30 1000 70 10000 3 190 16:19 12.08.2019
3786 Clear 31 1000 55 10000 1 0 15:54 12.08.2019
3787 Clear 30 1000 62 10000 2 180 15:36 12.08.2019
3788 Clear 30 999 62 10000 1 200 15:18 12.08.2019
3789 Clear 31 999 58 10000 2 220 14:42 12.08.2019
3790 Clear 31 999 58 10000 2 220 14:23 12.08.2019
3791 Clear 31 999 55 10000 2 0 13:57 12.08.2019
3792 Clear 31 999 55 10000 3 0 13:39 12.08.2019
3793 Clear 32 998 55 10000 4 300 13:20 12.08.2019
3794 Clear 33 998 52 10000 3 0 12:43 12.08.2019
3795 Clear 33 998 52 10000 4 0 12:21 12.08.2019
3796 Clear 33 998 49 10000 4 280 11:45 12.08.2019
3797 Clear 33 998 49 10000 4 280 11:44 12.08.2019
3798 -273 0 0 0 0 0 11:44 12.08.2019
3799 Clear 34 998 49 10000 4 280 11:26 12.08.2019
3800 Clear 34 998 49 10000 5 270 10:56 12.08.2019
3801 Clear 34 998 49 10000 5 270 10:56 12.08.2019
3802 Clear 34 998 46 10000 6 280 10:37 12.08.2019
3803 Clear 34 998 46 10000 6 280 10:19 12.08.2019
3804 Clear 34 998 46 10000 6 250 09:42 12.08.2019
3805 Clear 34 998 49 10000 5 240 09:21 12.08.2019
3806 Clear 35 998 49 10000 5 240 08:59 12.08.2019
3807 Clear 34 998 49 10000 5 280 08:39 12.08.2019
3808 Clear 34 998 49 10000 5 280 08:21 12.08.2019
3809 Clear 34 998 52 10000 5 250 08:21 12.08.2019
3810 Clear 34 998 52 10000 5 250 07:56 12.08.2019
3811 Clear 34 998 52 10000 5 260 07:33 12.08.2019
3812 Clear 34 998 52 10000 6 260 06:53 12.08.2019
3813 Clear 33 999 55 10000 6 250 05:41 12.08.2019
3814 Clear 31 999 58 10000 5 260 03:25 12.08.2019
3815 Clear 30 999 70 10000 4 0 02:41 12.08.2019
3816 Clear 31 998 74 10000 3 250 01:22 12.08.2019
3817 Clear 30 998 74 10000 3 260 00:58 12.08.2019
3818 Clear 30 998 74 10000 3 260 00:58 12.08.2019
3819 Clear 30 998 74 10000 3 260 00:58 12.08.2019
3820 Clear 29 998 74 10000 3 270 00:40 12.08.2019
3821 Clear 29 998 74 10000 3 270 00:40 12.08.2019
3822 Clear 27 998 74 10000 4 260 00:20 12.08.2019
3823 Clear 27 998 74 10000 4 260 23:56 11.08.2019
3824 Clear 27 997 78 10000 2 240 23:38 11.08.2019
3825 Clear 26 997 83 10000 3 220 23:19 11.08.2019
3826 Clear 26 997 83 10000 3 210 22:40 11.08.2019
3827 Clear 26 997 83 10000 3 210 22:20 11.08.2019
3828 Clear 27 997 83 10000 2 200 21:59 11.08.2019
3829 Clear 27 997 83 10000 2 200 21:41 11.08.2019
3830 Clear 27 997 83 10000 2 200 21:22 11.08.2019
3831 Clear 28 997 83 10000 2 210 20:58 11.08.2019
3832 Clear 27 997 83 10000 2 200 20:40 11.08.2019
3833 Clear 28 997 83 10000 2 200 20:22 11.08.2019
3834 Clear 28 997 78 10000 3 230 19:45 11.08.2019
3835 Clear 28 997 78 10000 3 230 19:22 11.08.2019
3836 Clear 28 997 78 10000 3 220 18:56 11.08.2019
3837 Clear 28 997 69 10000 3 260 18:36 11.08.2019
3838 Clear 28 997 69 10000 3 260 18:18 11.08.2019
3839 Clear 29 997 66 10000 4 270 17:41 11.08.2019
3840 Clear 29 997 66 10000 4 270 17:20 11.08.2019
3841 Clear 29 997 66 10000 5 0 16:57 11.08.2019
3842 Clear 29 997 66 10000 3 260 16:38 11.08.2019
3843 Clear 29 997 66 10000 3 260 16:38 11.08.2019
3844 Clear 29 997 70 10000 3 240 16:20 11.08.2019
3845 Clear 29 997 70 10000 3 240 16:20 11.08.2019
3846 Clear 29 997 70 10000 3 250 15:44 11.08.2019
3847 Clear 29 997 70 10000 3 250 15:44 11.08.2019
3848 Clear 29 997 70 10000 3 250 15:25 11.08.2019
3849 Clear 29 996 70 10000 3 240 14:59 11.08.2019
3850 Clear 30 996 66 10000 3 240 14:40 11.08.2019
3851 Clear 30 996 66 10000 3 240 14:21 11.08.2019
3852 Clear 30 995 66 10000 4 260 13:46 11.08.2019
3853 Clear 30 995 66 10000 4 260 13:26 11.08.2019
3854 Clear 31 995 62 10000 5 270 12:57 11.08.2019
3855 Clouds 31 994 59 10000 6 270 12:37 11.08.2019
3856 Clouds 31 994 55 10000 7 270 12:19 11.08.2019
3857 Clouds 32 993 55 10000 6 270 11:40 11.08.2019
3858 Clouds 32 993 55 10000 6 270 11:22 11.08.2019
3859 Clouds 32 993 59 10000 9 270 10:56 11.08.2019
3860 Clouds 32 993 59 10000 9 270 10:56 11.08.2019
3861 Clouds 33 993 55 10000 7 260 10:37 11.08.2019
3862 Clouds 32 993 59 10000 9 270 10:19 11.08.2019
3863 Clouds 32 993 62 10000 8 260 09:43 11.08.2019
3864 Clouds 32 993 62 10000 8 260 09:24 11.08.2019
3865 Clouds 32 992 62 10000 8 250 08:49 11.08.2019
3866 Clouds 32 992 62 10000 8 250 08:30 11.08.2019
3867 Clouds 32 992 59 10000 10 260 07:59 11.08.2019
3868 Clouds 33 992 62 10000 8 260 07:31 11.08.2019
3869 Clouds 32 992 66 10000 9 250 06:46 11.08.2019
3870 Clouds 31 992 66 10000 9 250 06:28 11.08.2019
3871 Clouds 29 991 79 10000 8 250 04:40 11.08.2019
3872 Clouds 28 990 94 10000 7 220 02:50 11.08.2019
3873 Clouds 28 990 88 10000 8 220 01:56 11.08.2019
3874 Rain 27 989 88 10000 7 230 01:30 11.08.2019
3875 Rain 27 989 88 10000 7 220 00:55 11.08.2019
3876 Rain 27 988 94 6000 7 220 00:34 11.08.2019
3877 Rain 26 987 94 6000 8 210 23:49 10.08.2019
3878 Rain 26 987 94 6000 8 210 23:29 10.08.2019
3879 Rain 26 985 94 7000 8 210 22:48 10.08.2019
3880 Rain 26 985 94 7000 8 210 22:27 10.08.2019
3881 Rain 26 985 94 10000 9 200 21:59 10.08.2019
3882 Rain 26 985 94 10000 8 200 21:39 10.08.2019
3883 Rain 26 985 94 10000 8 200 21:21 10.08.2019
3884 Rain 26 985 94 10000 8 200 21:21 10.08.2019
3885 Rain 26 984 94 10000 9 190 20:57 10.08.2019
3886 Rain 26 984 94 8000 9 180 20:39 10.08.2019
3887 Rain 26 984 100 6000 8 170 20:18 10.08.2019
3888 Rain 26 984 94 6000 9 170 19:41 10.08.2019
3889 Rain 26 984 94 6000 9 170 19:22 10.08.2019
3890 Rain 26 984 94 10000 9 160 18:42 10.08.2019
3891 Rain 27 984 94 10000 9 160 18:23 10.08.2019
3892 Rain 27 984 94 10000 9 150 17:56 10.08.2019
3893 Rain 27 984 94 10000 9 150 17:56 10.08.2019
3894 Rain 27 984 100 8000 9 140 17:37 10.08.2019
3895 Rain 27 984 94 10000 10 140 17:18 10.08.2019
3896 Rain 27 984 94 6000 8 140 16:42 10.08.2019
3897 Rain 27 984 94 10000 9 130 16:20 10.08.2019
3898 Rain 27 984 94 6000 9 140 15:44 10.08.2019
3899 Rain 28 984 94 6000 9 140 15:21 10.08.2019
3900 Rain 28 984 94 5000 9 130 14:44 10.08.2019
3901 Rain 28 984 94 10000 10 130 14:19 10.08.2019
3902 Rain 27 983 94 10000 10 120 13:41 10.08.2019
3903 Rain 28 983 94 10000 9 120 13:19 10.08.2019
3904 Rain 28 983 88 10000 10 120 12:44 10.08.2019
3905 Rain 28 983 88 10000 10 120 12:23 10.08.2019
3906 Rain 28 983 88 10000 9 120 11:59 10.08.2019
3907 Rain 28 983 88 10000 11 120 11:40 10.08.2019
3908 Rain 28 983 88 10000 10 120 11:21 10.08.2019
3909 Rain 28 983 88 10000 10 120 10:55 10.08.2019
3910 Rain 28 984 94 10000 9 120 10:36 10.08.2019
3911 Rain 28 984 100 2000 10 130 10:18 10.08.2019
3912 Rain 28 984 100 2000 10 130 10:18 10.08.2019
3913 Rain 28 984 100 2000 9 90 09:40 10.08.2019
3914 Rain 27 984 100 2000 9 90 09:21 10.08.2019
3915 Rain 28 985 94 4000 11 100 08:39 10.08.2019
3916 Rain 28 985 94 4000 11 100 08:20 10.08.2019
3917 Rain 28 985 94 10000 12 100 07:54 10.08.2019
3918 Rain 28 986 94 4000 12 110 07:28 10.08.2019
3919 Rain 28 987 83 10000 11 100 06:49 10.08.2019
3920 Rain 29 987 83 10000 11 100 06:25 10.08.2019
3921 Clouds 29 988 83 10000 13 90 05:25 10.08.2019
3922 Rain 28 989 88 10000 11 100 04:31 10.08.2019
3923 Rain 28 990 88 10000 11 90 02:54 10.08.2019
3924 Rain 28 990 88 7000 12 90 02:24 10.08.2019
3925 Rain 28 990 88 6000 11 100 01:41 10.08.2019
3926 Rain 28 990 88 6000 11 100 01:21 10.08.2019
3927 Rain 28 990 88 10000 9 90 00:46 10.08.2019
3928 Rain 27 990 88 10000 9 90 00:22 10.08.2019
3929 Rain 27 990 94 5000 11 80 23:44 09.08.2019
3930 Rain 27 990 94 5000 11 80 23:24 09.08.2019
3931 Rain 27 990 88 10000 10 80 22:58 09.08.2019
3932 Rain 28 991 88 10000 11 80 22:38 09.08.2019
3933 Rain 28 991 88 10000 11 80 22:20 09.08.2019
3934 Rain 28 992 88 10000 11 80 21:43 09.08.2019
3935 Rain 28 992 88 10000 11 80 21:24 09.08.2019
3936 Rain 28 992 88 10000 11 80 21:24 09.08.2019
3937 Rain 28 992 88 10000 11 80 21:24 09.08.2019
3938 Rain 28 992 88 10000 11 80 20:59 09.08.2019
3939 Rain 27 993 94 10000 11 80 20:41 09.08.2019
3940 Rain 27 993 94 10000 11 80 20:22 09.08.2019
3941 Rain 27 993 88 10000 10 80 19:59 09.08.2019
3942 Rain 28 993 88 10000 11 90 19:41 09.08.2019
3943 Rain 27 994 88 10000 10 90 19:19 09.08.2019
3944 Rain 27 994 88 10000 10 90 19:19 09.08.2019
3945 Rain 28 994 88 10000 10 80 18:41 09.08.2019
3946 Rain 27 995 94 10000 8 70 18:22 09.08.2019
3947 Rain 27 995 94 10000 8 70 17:58 09.08.2019
3948 Rain 27 995 88 10000 10 70 17:39 09.08.2019
3949 Rain 27 995 88 10000 10 70 17:21 09.08.2019
3950 -273 0 0 0 0 0 16:41 09.08.2019
3951 Rain 27 996 88 10000 11 60 16:41 09.08.2019
3952 Rain 27 996 88 10000 11 60 16:41 09.08.2019
3953 Rain 27 996 88 10000 11 60 16:22 09.08.2019
3954 Rain 26 997 94 10000 10 60 15:56 09.08.2019
3955 Rain 26 997 94 10000 10 60 15:56 09.08.2019
3956 Rain 26 997 94 10000 10 60 15:56 09.08.2019
3957 Rain 26 997 94 10000 10 80 15:37 09.08.2019
3958 Rain 26 997 88 10000 9 70 15:18 09.08.2019
3959 Rain 26 997 88 10000 10 70 14:44 09.08.2019
3960 Rain 27 997 88 10000 10 70 14:22 09.08.2019
3961 Rain 26 997 94 10000 9 80 13:56 09.08.2019
3962 Rain 26 997 88 10000 10 80 13:38 09.08.2019
3963 Rain 26 998 83 10000 12 90 13:19 09.08.2019
3964 Rain 27 997 88 10000 8 60 12:44 09.08.2019
3965 Rain 27 997 88 10000 8 60 12:23 09.08.2019
3966 Rain 28 997 83 10000 7 70 11:42 09.08.2019
3967 Rain 28 997 83 10000 7 70 11:22 09.08.2019
3968 Rain 28 998 94 4000 8 100 10:59 09.08.2019
3969 Rain 28 998 79 10000 10 60 10:39 09.08.2019
3970 Rain 29 998 74 10000 10 70 10:21 09.08.2019
3971 Rain 30 998 70 10000 9 70 09:43 09.08.2019
3972 Rain 30 998 70 10000 9 70 09:20 09.08.2019
3973 Rain 30 998 70 10000 9 70 08:55 09.08.2019
3974 Rain 30 998 74 10000 8 60 08:37 09.08.2019
3975 Clouds 31 999 70 10000 9 60 08:18 09.08.2019
3976 Clouds 32 999 66 10000 8 70 07:43 09.08.2019
3977 Clouds 32 999 66 10000 8 70 07:21 09.08.2019
3978 Clouds 32 1000 66 10000 8 70 06:52 09.08.2019
3979 Clouds 31 1000 66 10000 8 70 06:26 09.08.2019
3980 Clouds 31 1000 66 10000 7 70 05:46 09.08.2019
3981 Clouds 30 1001 70 10000 7 80 02:33 09.08.2019
3982 Clouds 30 1001 74 10000 6 80 01:41 09.08.2019
3983 Clouds 30 1001 79 10000 6 70 00:43 09.08.2019
3984 Clouds 29 1001 79 10000 6 70 00:24 09.08.2019
3985 Clouds 29 1001 79 10000 6 70 23:59 08.08.2019
3986 Clouds 29 1001 83 10000 6 70 23:38 08.08.2019
3987 Clouds 29 1001 79 10000 6 80 23:19 08.08.2019
3988 Clouds 29 1001 79 10000 6 80 22:56 08.08.2019
3989 Clouds 29 1001 79 10000 5 90 22:36 08.08.2019
3990 Rain 29 1001 83 10000 5 80 22:18 08.08.2019
3991 Clouds 29 1001 79 10000 5 90 21:43 08.08.2019
3992 Clouds 30 1001 79 10000 5 90 21:24 08.08.2019
3993 Clouds 29 1001 83 10000 6 90 20:58 08.08.2019
3994 Clouds 29 1002 79 10000 5 90 20:40 08.08.2019
3995 Clouds 29 1002 79 10000 5 90 20:19 08.08.2019
3996 Clouds 29 1002 79 10000 5 90 19:49 08.08.2019
3997 Clouds 30 1002 79 10000 5 90 19:29 08.08.2019
3998 Clouds 29 1003 79 10000 5 90 18:59 08.08.2019
3999 Clouds 29 1003 83 10000 5 80 18:40 08.08.2019
4000 Rain 29 1003 83 10000 6 100 18:19 08.08.2019
4001 Rain 30 1003 79 10000 4 90 17:42 08.08.2019
4002 Rain 30 1003 79 10000 4 90 17:24 08.08.2019
4003 Rain 29 1003 79 10000 5 90 16:57 08.08.2019
4004 Clouds 30 1003 79 10000 6 90 16:39 08.08.2019
4005 Clouds 30 1003 79 10000 6 90 16:39 08.08.2019
4006 Clouds 30 1003 79 10000 6 90 16:20 08.08.2019
4007 Clouds 30 1003 79 10000 6 90 15:57 08.08.2019
4008 Clouds 30 1004 79 10000 6 90 15:37 08.08.2019
4009 Rain 30 1004 89 10000 8 80 15:19 08.08.2019
4010 Rain 30 1003 84 10000 5 100 14:38 08.08.2019
4011 Clouds 30 1003 74 10000 5 100 14:18 08.08.2019
4012 Clouds 30 1003 74 10000 7 100 13:42 08.08.2019
4013 Clouds 30 1003 74 10000 7 100 13:23 08.08.2019
4014 Clouds 31 1003 70 10000 6 90 12:57 08.08.2019
4015 Clouds 31 1002 70 10000 6 80 12:37 08.08.2019
4016 Clouds 32 1002 66 10000 7 90 12:18 08.08.2019
4017 Clouds 33 1002 63 10000 7 100 11:42 08.08.2019
4018 Clouds 33 1002 63 10000 7 100 11:23 08.08.2019
4019 Clouds 33 1002 63 10000 7 110 10:41 08.08.2019
4020 Clouds 33 1002 63 10000 7 110 10:41 08.08.2019
4021 Clouds 33 1002 59 10000 6 100 10:22 08.08.2019
4022 Clouds 33 1002 59 10000 6 100 09:57 08.08.2019
4023 Clouds 33 1003 63 10000 7 110 09:39 08.08.2019
4024 Clouds 33 1003 59 10000 7 100 09:19 08.08.2019
4025 Clouds 34 1003 56 10000 6 100 08:40 08.08.2019
4026 Clouds 34 1003 56 10000 6 100 08:20 08.08.2019
4027 Clouds 34 1003 59 10000 7 110 07:42 08.08.2019
4028 Clouds 34 1003 63 10000 7 90 07:21 08.08.2019
4029 Clouds 35 1003 63 10000 7 90 06:56 08.08.2019
4030 Clouds 34 1003 66 10000 6 70 06:38 08.08.2019
4031 Clouds 32 1004 56 10000 6 110 05:54 08.08.2019
4032 Clouds 33 1004 59 10000 6 100 05:20 08.08.2019
4033 Clouds 34 1004 70 10000 5 100 03:54 08.08.2019
4034 Rain 32 1004 84 10000 5 90 02:58 08.08.2019
4035 Clouds 32 1003 79 10000 4 110 01:39 08.08.2019
4036 Clouds 31 1003 83 10000 3 100 00:45 08.08.2019
4037 Clouds 29 1003 83 10000 3 100 00:18 08.08.2019
4038 Clouds 29 1003 83 10000 3 110 23:22 07.08.2019
4039 Clouds 29 1003 83 10000 3 110 22:59 07.08.2019
4040 Clouds 29 1003 83 10000 3 110 22:59 07.08.2019
4041 Clouds 29 1003 83 10000 4 110 22:40 07.08.2019
4042 Clouds 29 1003 83 10000 4 120 22:20 07.08.2019
4043 Clouds 29 1003 83 10000 4 120 22:20 07.08.2019
4044 Clouds 29 1003 83 10000 4 120 21:56 07.08.2019
4045 Clouds 29 1003 83 10000 4 130 21:38 07.08.2019
4046 Clouds 29 1003 83 10000 4 130 21:19 07.08.2019
4047 Clouds 29 1003 83 10000 4 110 20:55 07.08.2019
4048 Clouds 29 1003 83 10000 4 120 20:36 07.08.2019
4049 Clouds 29 1003 83 10000 5 120 20:18 07.08.2019
4050 Clouds 29 1003 83 10000 4 130 19:40 07.08.2019
4051 Clouds 29 1003 83 10000 4 130 19:22 07.08.2019
4052 Clear 29 1003 83 10000 5 130 18:55 07.08.2019
4053 Clear 29 1003 83 10000 5 130 18:37 07.08.2019
4054 Clouds 29 1004 79 10000 3 130 18:19 07.08.2019
4055 Clouds 29 1004 79 10000 5 130 17:41 07.08.2019
4056 Clouds 29 1004 79 10000 5 130 17:22 07.08.2019
4057 Clouds 29 1004 79 10000 4 120 16:58 07.08.2019
4058 Clouds 29 1004 79 10000 4 120 16:58 07.08.2019
4059 Clouds 30 1004 79 10000 4 130 16:39 07.08.2019
4060 Clouds 29 1004 79 10000 4 130 16:21 07.08.2019
4061 Clouds 30 1004 74 10000 6 130 15:58 07.08.2019
4062 Clouds 30 1004 74 10000 6 120 15:40 07.08.2019
4063 Clouds 30 1004 74 10000 7 130 15:19 07.08.2019
4064 Clear 30 1004 74 10000 6 90 14:49 07.08.2019
4065 Clear 30 1004 74 10000 6 90 14:29 07.08.2019
4066 Clear 30 1003 66 10000 6 120 13:56 07.08.2019
4067 Clear 30 1003 66 10000 4 120 13:38 07.08.2019
4068 Clear 31 1002 59 10000 4 140 13:18 07.08.2019
4069 Clear 31 1002 59 10000 4 140 12:55 07.08.2019
4070 Clear 31 1002 55 10000 4 140 12:36 07.08.2019
4071 Clear 32 1002 55 10000 5 140 12:18 07.08.2019
4072 Clear 32 1002 52 10000 5 110 11:43 07.08.2019
4073 Clear 33 1002 49 10000 6 140 11:21 07.08.2019
4074 Clear 33 1002 49 10000 6 140 10:57 07.08.2019
4075 Clouds 33 1002 55 10000 6 130 10:39 07.08.2019
4076 Clouds 33 1002 52 10000 7 130 10:18 07.08.2019
4077 Clouds 33 1002 52 10000 7 130 10:18 07.08.2019
4078 Clouds 33 1002 50 10000 6 140 09:44 07.08.2019
4079 Clouds 34 1002 50 10000 6 140 09:22 07.08.2019
4080 Clouds 34 1003 56 10000 6 150 08:56 07.08.2019
4081 Clouds 33 1003 52 10000 6 150 08:38 07.08.2019
4082 Clouds 34 1003 52 10000 6 150 08:20 07.08.2019
4083 Clouds 34 1003 52 10000 5 160 07:39 07.08.2019
4084 Clouds 34 1003 55 10000 5 170 07:20 07.08.2019
4085 Clouds 34 1004 53 10000 4 140 06:29 07.08.2019
4086 Clouds 34 1004 59 10000 4 150 05:50 07.08.2019
4087 Clouds 36 1004 59 10000 5 130 04:53 07.08.2019
4088 Clouds 31 1004 66 10000 4 150 03:21 07.08.2019
4089 Clouds 31 1004 74 10000 5 150 02:47 07.08.2019
4090 Clouds 33 1004 74 10000 3 150 01:58 07.08.2019
4091 Clouds 32 1004 83 10000 4 140 01:38 07.08.2019
4092 Mist 30 1004 88 10000 3 120 00:39 07.08.2019
4093 Mist 28 1004 88 10000 2 130 00:20 07.08.2019
4094 Clouds 27 1004 88 10000 2 130 23:41 06.08.2019
4095 Clouds 27 1004 88 10000 2 130 23:21 06.08.2019
4096 Clouds 27 1004 88 10000 3 130 22:56 06.08.2019
4097 Clouds 27 1004 88 10000 3 130 22:37 06.08.2019
4098 Clouds 27 1004 88 10000 3 110 22:18 06.08.2019
4099 Clouds 27 1004 83 10000 3 120 21:41 06.08.2019
4100 Clouds 28 1004 83 10000 3 120 21:21 06.08.2019
4101 Clouds 28 1004 78 10000 4 120 20:54 06.08.2019
4102 Clouds 28 1004 83 10000 3 140 20:36 06.08.2019
4103 Clear 28 1004 78 10000 3 120 20:18 06.08.2019
4104 Clouds 28 1004 83 10000 3 100 19:42 06.08.2019
4105 Clouds 28 1004 83 10000 3 100 19:23 06.08.2019
4106 Clear 28 1005 83 10000 4 100 18:45 06.08.2019
4107 Clear 29 1005 83 10000 4 100 18:26 06.08.2019
4108 Clear 29 1005 83 10000 4 110 17:58 06.08.2019
4109 Clear 29 1005 78 10000 5 120 17:39 06.08.2019
4110 Clouds 29 1005 79 10000 6 120 17:20 06.08.2019
4111 Clouds 29 1005 79 10000 6 120 16:55 06.08.2019
4112 Clear 29 1005 74 10000 5 110 16:37 06.08.2019
4113 Clear 29 1005 70 10000 5 100 16:19 06.08.2019
4114 Clear 29 1005 70 10000 5 100 15:56 06.08.2019
4115 Clear 29 1005 70 10000 4 100 15:38 06.08.2019
4116 Clear 29 1005 70 10000 4 110 15:18 06.08.2019
4117 Clouds 29 1005 66 10000 3 110 14:41 06.08.2019
4118 Clouds 29 1005 66 10000 3 110 14:22 06.08.2019
4119 Clouds 29 1005 66 10000 6 120 13:57 06.08.2019
4120 Clouds 30 1004 70 10000 5 110 13:38 06.08.2019
4121 Clouds 30 1004 66 10000 6 110 13:19 06.08.2019
4122 Clouds 30 1004 66 10000 5 110 12:42 06.08.2019
4123 Clouds 31 1003 62 10000 6 100 12:24 06.08.2019
4124 Clouds 32 1003 62 10000 6 100 11:59 06.08.2019
4125 Clouds 32 1003 62 10000 6 100 11:59 06.08.2019
4126 Clouds 31 1003 62 10000 5 120 11:40 06.08.2019
4127 Clouds 33 1003 59 10000 6 110 11:18 06.08.2019
4128 Clouds 33 1003 52 10000 5 140 10:41 06.08.2019
4129 Clouds 33 1003 52 10000 5 140 10:22 06.08.2019
4130 Clouds 33 1003 52 10000 4 130 09:47 06.08.2019
4131 Clouds 33 1003 52 10000 4 130 09:24 06.08.2019
4132 Clouds 34 1003 53 10000 4 0 08:56 06.08.2019
4133 Clouds 34 1004 52 10000 4 160 08:37 06.08.2019
4134 Clouds 34 1004 52 10000 3 140 08:19 06.08.2019
4135 Clouds 35 1004 52 10000 3 0 07:32 06.08.2019
4136 Clouds 34 1005 52 10000 3 0 06:45 06.08.2019
4137 Clouds 34 1005 52 10000 3 0 06:26 06.08.2019
4138 Clouds 34 1006 52 10000 3 130 05:46 06.08.2019
4139 Clouds 31 1006 66 10000 5 120 02:59 06.08.2019
4140 Clouds 30 1006 79 10000 4 130 01:36 06.08.2019
4141 Clouds 31 1006 83 10000 3 130 00:59 06.08.2019
4142 Clouds 29 1006 83 10000 3 120 00:23 06.08.2019
4143 Clouds 27 1006 88 10000 3 120 23:21 05.08.2019
4144 Clouds 27 1006 88 10000 4 130 22:59 05.08.2019
4145 Clouds 27 1006 88 10000 3 120 22:39 05.08.2019
4146 Clouds 27 1006 88 10000 3 120 22:21 05.08.2019
4147 Clouds 27 1006 83 10000 4 130 21:42 05.08.2019
4148 Clouds 28 1006 83 10000 4 130 21:21 05.08.2019
4149 Clouds 28 1006 83 10000 4 130 20:58 05.08.2019
4150 Clouds 28 1006 83 10000 3 130 20:39 05.08.2019
4151 Clouds 28 1006 83 10000 4 140 20:21 05.08.2019
4152 Clouds 28 1006 83 10000 4 140 19:57 05.08.2019
4153 Clouds 28 1006 83 10000 5 130 19:38 05.08.2019
4154 Clouds 28 1006 83 10000 5 120 19:19 05.08.2019
4155 Clouds 28 1006 83 10000 6 130 18:42 05.08.2019
4156 Clouds 28 1007 83 10000 6 140 18:20 05.08.2019
4157 Clouds 28 1007 83 10000 6 140 18:20 05.08.2019
4158 Clouds 28 1007 83 10000 6 140 17:50 05.08.2019
4159 Clouds 29 1007 79 10000 4 130 17:30 05.08.2019
4160 Clouds 29 1007 79 10000 5 140 16:59 05.08.2019
4161 Clouds 29 1007 79 10000 5 140 16:59 05.08.2019
4162 Clouds 29 1007 79 10000 5 130 16:41 05.08.2019
4163 Clouds 29 1007 79 10000 5 130 16:22 05.08.2019
4164 Clouds 29 1007 79 10000 5 120 15:41 05.08.2019
4165 Clouds 29 1006 74 10000 6 120 15:20 05.08.2019
4166 Clouds 29 1006 74 10000 6 130 14:42 05.08.2019
4167 Clouds 29 1006 74 10000 6 130 14:22 05.08.2019
4168 Clouds 29 1006 70 10000 6 140 13:48 05.08.2019
4169 Clouds 30 1006 70 10000 6 140 13:24 05.08.2019
4170 Clouds 31 1005 66 10000 6 130 12:51 05.08.2019
4171 Clouds 32 1005 62 10000 7 130 12:22 05.08.2019
4172 Clouds 31 1005 62 10000 7 140 11:58 05.08.2019
4173 Clouds 32 1005 62 10000 7 120 11:40 05.08.2019
4174 Clouds 32 1005 62 10000 7 120 11:22 05.08.2019
4175 Clouds 32 1005 62 10000 7 120 10:44 05.08.2019
4176 Clouds 33 1005 62 10000 7 120 10:26 05.08.2019
4177 Clouds 32 1005 63 10000 6 130 09:54 05.08.2019
4178 Clouds 33 1005 59 10000 6 150 09:36 05.08.2019
4179 Clouds 33 1005 63 10000 6 130 09:18 05.08.2019
4180 Clouds 33 1006 66 10000 5 140 08:41 05.08.2019
4181 Clouds 34 1006 66 10000 5 130 08:20 05.08.2019
4182 Clouds 34 1006 66 10000 6 140 07:45 05.08.2019
4183 Clouds 34 1006 66 10000 6 140 07:27 05.08.2019
4184 Clouds 34 1007 63 10000 6 130 06:39 05.08.2019
4185 Clouds 35 1007 66 10000 6 140 05:52 05.08.2019
4186 Clouds 33 1007 66 10000 6 110 05:20 05.08.2019
4187 Clouds 34 1007 66 10000 6 110 04:27 05.08.2019
4188 Clouds 33 1007 74 10000 6 120 03:38 05.08.2019
4189 Clouds 30 1007 83 10000 5 120 02:37 05.08.2019
4190 Clouds 30 1007 83 10000 4 110 01:35 05.08.2019
4191 Clouds 30 1007 83 10000 4 110 01:35 05.08.2019
4192 Clear 30 1007 88 10000 4 110 00:43 05.08.2019
4193 Clear 28 1007 88 10000 4 110 00:23 05.08.2019
4194 Clear 27 1007 88 10000 3 110 23:58 04.08.2019
4195 Clear 28 1006 88 10000 4 110 23:40 04.08.2019
4196 Clear 27 1006 88 10000 4 110 23:19 04.08.2019
4197 Clear 27 1006 88 10000 4 110 22:55 04.08.2019
4198 Clear 27 1006 88 10000 4 110 22:37 04.08.2019
4199 Clear 27 1006 88 10000 3 110 22:18 04.08.2019
4200 Clouds 27 1006 88 10000 3 130 21:43 04.08.2019
4201 Clouds 27 1006 88 10000 3 130 21:20 04.08.2019
4202 Clouds 28 1006 88 10000 4 120 20:46 04.08.2019
4203 Clouds 27 1006 88 10000 4 120 20:21 04.08.2019
4204 Clouds 28 1006 88 10000 2 100 19:58 04.08.2019
4205 Clouds 27 1006 88 10000 3 110 19:38 04.08.2019
4206 Clouds 27 1006 88 10000 4 120 19:20 04.08.2019
4207 Clouds 27 1007 88 10000 3 140 18:42 04.08.2019
4208 Clouds 27 1007 88 10000 2 110 18:21 04.08.2019
4209 Clouds 27 1006 88 10000 2 100 17:45 04.08.2019
4210 Clouds 27 1006 88 10000 2 100 17:26 04.08.2019
4211 Clouds 27 1007 83 10000 3 110 16:59 04.08.2019
4212 Clouds 27 1007 83 10000 2 90 16:39 04.08.2019
4213 Clouds 27 1007 83 10000 2 90 16:20 04.08.2019
4214 Clear 27 1007 83 10000 2 110 15:43 04.08.2019
4215 Clear 27 1007 83 10000 2 110 15:22 04.08.2019
4216 Clear 28 1006 88 10000 2 100 14:45 04.08.2019
4217 Clear 28 1006 88 10000 2 100 14:26 04.08.2019
4218 Clear 27 1005 88 10000 2 160 13:47 04.08.2019
4219 Clear 27 1005 88 10000 2 160 13:47 04.08.2019
4220 Clear 27 1005 88 10000 2 160 13:28 04.08.2019
4221 Clear 27 1005 88 10000 5 140 12:59 04.08.2019
4222 Clear 27 1005 88 10000 5 140 12:40 04.08.2019
4223 Clear 28 1005 88 10000 4 140 12:22 04.08.2019
4224 Rain 28 1006 88 10000 3 120 11:50 04.08.2019
4225 Rain 28 1006 88 10000 3 120 11:23 04.08.2019
4226 Rain 27 1006 88 10000 6 120 10:54 04.08.2019
4227 Rain 28 1006 88 10000 4 100 10:36 04.08.2019
4228 Rain 28 1006 83 10000 3 110 10:18 04.08.2019
4229 Rain 28 1006 88 10000 4 120 09:41 04.08.2019
4230 Rain 29 1006 88 10000 4 120 09:20 04.08.2019
4231 Thunderstorm 29 1006 83 10000 3 110 08:41 04.08.2019
4232 Rain 30 1006 79 10000 3 90 08:20 04.08.2019
4233 Rain 30 1006 83 10000 3 10 07:45 04.08.2019
4234 Clouds 29 1006 83 10000 1 0 06:47 04.08.2019
4235 Clouds 30 1006 83 10000 1 0 06:24 04.08.2019
4236 Clouds 30 1006 83 10000 1 0 06:24 04.08.2019
4237 Clouds 31 1006 83 10000 3 90 03:44 04.08.2019
4238 Rain 29 1006 88 10000 2 100 02:22 04.08.2019
4239 Clouds 28 1006 88 10000 4 40 01:33 04.08.2019
4240 Clouds 28 1006 88 10000 3 70 00:44 04.08.2019
4241 Clouds 27 1006 88 10000 3 70 00:26 04.08.2019
4242 Clouds 26 1006 94 10000 3 60 23:56 03.08.2019
4243 Clouds 27 1006 94 10000 4 30 23:38 03.08.2019
4244 Clouds 26 1006 94 10000 3 30 23:18 03.08.2019
4245 Rain 27 1005 94 10000 3 10 22:42 03.08.2019
4246 Rain 27 1005 94 10000 3 10 22:20 03.08.2019
4247 Rain 26 1005 94 10000 3 20 21:40 03.08.2019
4248 Rain 26 1005 94 10000 3 20 21:22 03.08.2019
4249 Rain 26 1006 100 6000 1 170 20:46 03.08.2019
4250 Rain 26 1006 100 6000 1 170 20:26 03.08.2019
4251 Rain 27 1006 94 4000 3 100 19:57 03.08.2019
4252 Rain 27 1005 88 7000 3 80 19:39 03.08.2019
4253 Rain 28 1005 88 7000 3 80 19:21 03.08.2019
4254 Clouds 29 1006 79 10000 4 80 18:46 03.08.2019
4255 -273 0 0 0 0 0 18:26 03.08.2019
4256 Rain 28 1006 74 10000 5 80 17:46 03.08.2019
4257 Clouds 29 1007 74 10000 5 90 17:20 03.08.2019
4258 Clouds 29 1007 74 10000 5 100 16:39 03.08.2019
4259 Clouds 29 1007 74 10000 5 100 16:21 03.08.2019
4260 Clouds 29 1007 74 10000 5 90 15:55 03.08.2019
4261 Clouds 29 1007 79 10000 5 90 15:37 03.08.2019
4262 Clouds 29 1007 79 10000 6 100 15:18 03.08.2019
4263 Clouds 29 1007 79 10000 5 90 14:36 03.08.2019
4264 Rain 29 1006 83 10000 4 80 14:18 03.08.2019
4265 Rain 29 1006 83 10000 7 80 13:41 03.08.2019
4266 Clouds 29 1006 70 10000 7 90 13:23 03.08.2019
4267 Clouds 30 1006 70 10000 7 90 12:55 03.08.2019
4268 Clouds 30 1006 74 10000 7 90 12:36 03.08.2019
4269 Rain 30 1006 74 10000 7 90 12:18 03.08.2019
4270 Rain 31 1006 74 10000 5 90 11:38 03.08.2019
4271 Clouds 31 1006 70 10000 6 90 11:19 03.08.2019
4272 Rain 31 1006 66 10000 4 70 10:38 03.08.2019
4273 Clouds 33 1006 70 10000 8 80 10:19 03.08.2019
4274 Clouds 32 1006 79 10000 4 70 09:37 03.08.2019
4275 Clouds 33 1007 74 10000 8 90 09:18 03.08.2019
4276 Clouds 32 1006 59 10000 6 60 08:43 03.08.2019
4277 Clouds 32 1007 66 10000 4 60 07:38 03.08.2019
4278 Clouds 33 1007 55 10000 6 110 06:48 03.08.2019
4279 Clouds 32 1007 55 10000 4 120 06:18 03.08.2019
4280 Clouds 31 1007 66 10000 6 110 02:59 03.08.2019
4281 Clouds 30 1007 62 10000 6 110 02:23 03.08.2019
4282 Clouds 31 1006 79 10000 3 110 00:58 03.08.2019
4283 Clouds 29 1007 78 10000 4 110 00:31 03.08.2019
4284 Clouds 28 1007 83 10000 5 120 23:42 02.08.2019
4285 Clouds 27 1007 83 10000 5 120 23:20 02.08.2019
4286 Clouds 27 1007 83 10000 6 110 22:57 02.08.2019
4287 Clouds 27 1007 83 10000 4 110 22:39 02.08.2019
4288 Clouds 28 1007 83 10000 4 110 22:20 02.08.2019
4289 Clear 28 1007 83 10000 4 110 21:55 02.08.2019
4290 Clouds 28 1007 83 10000 4 110 21:36 02.08.2019
4291 Clear 28 1007 78 10000 4 120 21:18 02.08.2019
4292 Clear 28 1007 78 10000 4 130 20:41 02.08.2019
4293 Clear 28 1007 78 10000 4 130 20:21 02.08.2019
4294 Clear 28 1007 78 10000 6 120 19:49 02.08.2019
4295 Clear 28 1007 78 10000 6 120 19:29 02.08.2019
4296 Clear 28 1008 78 10000 6 130 18:45 02.08.2019
4297 Clear 28 1008 78 10000 6 130 18:27 02.08.2019
4298 Clear 28 1008 74 10000 5 120 17:48 02.08.2019
4299 Clear 28 1008 74 10000 5 120 17:26 02.08.2019
4300 Clear 28 1008 70 10000 6 130 16:59 02.08.2019
4301 Clouds 29 1008 74 10000 5 120 16:39 02.08.2019
4302 -273 0 0 0 0 0 16:20 02.08.2019
4303 Clouds 29 1009 74 10000 5 120 15:45 02.08.2019
4304 Clouds 30 1008 70 10000 5 120 15:20 02.08.2019
4305 Clouds 29 1008 70 10000 5 110 14:47 02.08.2019
4306 Clouds 30 1008 66 10000 7 140 14:19 02.08.2019
4307 Clouds 30 1008 66 10000 7 140 13:50 02.08.2019
4308 Clouds 30 1008 58 10000 7 120 13:29 02.08.2019
4309 Clouds 31 1007 59 10000 7 140 12:47 02.08.2019
4310 Clouds 33 1007 59 10000 7 140 12:24 02.08.2019
4311 Clouds 33 1006 55 10000 7 120 11:58 02.08.2019
4312 Clouds 33 1006 55 10000 7 120 11:39 02.08.2019
4313 Clouds 33 1006 55 10000 7 120 11:21 02.08.2019
4314 Clouds 33 1006 49 10000 8 130 10:43 02.08.2019
4315 Clouds 34 1006 55 10000 7 130 10:23 02.08.2019
4316 Clouds 34 1006 50 10000 8 120 09:52 02.08.2019
4317 Clouds 34 1006 50 10000 8 120 09:28 02.08.2019
4318 Clouds 34 1007 47 10000 8 160 08:52 02.08.2019
4319 Clouds 34 1007 50 10000 7 150 08:23 02.08.2019
4320 Clouds 35 1007 53 10000 7 150 07:52 02.08.2019
4321 Clouds 35 1007 50 10000 7 150 07:32 02.08.2019
4322 Clouds 34 1008 49 10000 6 130 06:54 02.08.2019
4323 Clouds 34 1008 49 10000 6 130 06:24 02.08.2019
4324 Clouds 34 1008 52 10000 6 150 05:26 02.08.2019
4325 Clouds 32 1008 59 10000 6 140 03:29 02.08.2019
4326 Clouds 31 1008 66 10000 6 150 02:33 02.08.2019
4327 Clouds 31 1008 79 10000 5 150 00:41 02.08.2019
4328 Clear 28 1008 88 10000 4 150 23:56 01.08.2019
4329 Clear 29 1008 83 10000 5 150 23:38 01.08.2019
4330 Clear 28 1008 83 10000 6 150 23:18 01.08.2019
4331 Clear 28 1008 83 10000 5 150 22:40 01.08.2019
4332 Clear 28 1008 83 10000 5 150 22:21 01.08.2019
4333 Clear 28 1008 83 10000 5 150 21:44 01.08.2019
4334 Clear 28 1008 83 10000 5 150 21:24 01.08.2019
4335 Clear 28 1008 83 10000 5 150 20:59 01.08.2019
4336 Clear 29 1008 79 10000 5 150 20:40 01.08.2019
4337 Clear 29 1008 79 10000 5 150 20:21 01.08.2019
4338 Clouds 28 1009 79 10000 5 150 19:42 01.08.2019
4339 Clouds 29 1009 79 10000 6 150 19:20 01.08.2019
4340 Clouds 29 1009 79 10000 5 150 18:44 01.08.2019
4341 Clouds 29 1009 79 10000 5 150 18:25 01.08.2019
4342 Clouds 29 1009 79 10000 7 160 17:56 01.08.2019
4343 Clouds 30 1009 74 10000 6 150 17:37 01.08.2019
4344 Clouds 30 1009 79 10000 7 150 17:18 01.08.2019
4345 Clouds 29 1008 74 10000 9 150 16:44 01.08.2019
4346 Clouds 30 1008 74 10000 7 140 16:21 01.08.2019
4347 Clouds 30 1008 74 10000 9 140 15:41 01.08.2019
4348 Clouds 30 1008 74 10000 9 140 15:20 01.08.2019
4349 Clear 30 1007 66 10000 8 140 14:44 01.08.2019
4350 Clear 30 1007 66 10000 8 140 14:20 01.08.2019
4351 Clear 31 1007 66 10000 8 140 13:58 01.08.2019
4352 Clear 31 1007 62 10000 9 140 13:40 01.08.2019
4353 Clear 31 1007 62 10000 9 140 13:21 01.08.2019
4354 Clouds 32 1006 59 10000 8 130 12:49 01.08.2019
4355 Clouds 33 1006 59 10000 6 140 12:28 01.08.2019
4356 Clouds 33 1006 56 10000 8 120 11:44 01.08.2019
4357 Clouds 34 1006 56 10000 8 120 11:25 01.08.2019
4358 Clouds 35 1006 53 10000 8 150 10:57 01.08.2019
4359 Clouds 34 1006 53 10000 7 170 10:39 01.08.2019
4360 Clouds 35 1006 50 10000 8 140 10:21 01.08.2019
4361 Clouds 35 1006 53 10000 8 140 09:45 01.08.2019
4362 Clouds 36 1007 53 10000 7 150 09:23 01.08.2019
4363 Clouds 36 1007 53 10000 7 160 08:48 01.08.2019
4364 Clouds 36 1007 53 10000 7 140 08:21 01.08.2019
4365 Clouds 36 1008 53 10000 7 160 07:52 01.08.2019
4366 Clouds 36 1008 53 10000 7 160 07:52 01.08.2019
4367 Clouds 36 1008 53 10000 7 160 07:28 01.08.2019
4368 Clouds 36 1008 50 10000 6 180 06:49 01.08.2019
4369 Clouds 35 1008 50 10000 6 180 06:29 01.08.2019
4370 Clouds 35 1008 53 10000 6 190 05:30 01.08.2019
4371 Clouds 32 1009 70 10000 6 180 02:35 01.08.2019
4372 Clear 33 1008 79 10000 5 160 00:51 01.08.2019
4373 Clear 29 1008 83 10000 4 160 00:26 01.08.2019
4374 Clear 29 1008 83 10000 5 150 23:44 31.07.2019
4375 Clear 29 1008 83 10000 5 150 23:21 31.07.2019
4376 Clear 29 1008 78 10000 4 160 22:59 31.07.2019
4377 Clear 29 1007 78 10000 5 150 22:41 31.07.2019
4378 Clear 29 1007 78 10000 5 150 22:23 31.07.2019
4379 Clear 28 1007 74 10000 5 140 21:39 31.07.2019
4380 Clear 29 1007 74 10000 5 140 21:21 31.07.2019
4381 Clear 28 1007 74 10000 4 160 20:48 31.07.2019
4382 Clear 28 1007 74 10000 4 160 20:22 31.07.2019
4383 Clear 29 1007 74 10000 6 150 19:48 31.07.2019
4384 Clear 29 1007 74 10000 6 150 19:28 31.07.2019
4385 Clear 29 1007 74 10000 6 150 18:55 31.07.2019
4386 Clear 29 1007 74 10000 6 150 18:55 31.07.2019
4387 Clear 29 1008 74 10000 6 150 18:37 31.07.2019
4388 Clear 29 1008 66 10000 7 150 18:18 31.07.2019
4389 Clear 29 1008 66 10000 7 150 17:42 31.07.2019
4390 Clear 30 1008 66 10000 7 150 17:20 31.07.2019
4391 Clear 29 1008 70 10000 7 160 16:46 31.07.2019
4392 Clear 30 1008 70 10000 7 160 16:20 31.07.2019
4393 Clear 30 1008 74 10000 7 150 15:45 31.07.2019
4394 Clear 30 1008 74 10000 7 150 15:26 31.07.2019
4395 Clear 31 1007 74 10000 8 150 14:55 31.07.2019
4396 Clear 31 1007 74 10000 7 150 14:36 31.07.2019
4397 Clear 31 1007 70 10000 7 150 14:18 31.07.2019
4398 Clear 31 1007 62 10000 7 150 13:44 31.07.2019
4399 Clear 32 1007 62 10000 7 150 13:25 31.07.2019
4400 Clear 32 1006 62 10000 5 150 12:56 31.07.2019
4401 Clear 32 1006 63 10000 6 150 12:37 31.07.2019
4402 Clear 34 1006 59 10000 6 160 12:18 31.07.2019
4403 Clear 34 1006 56 10000 6 150 11:38 31.07.2019
4404 Clear 35 1006 56 10000 6 150 11:19 31.07.2019
4405 Clear 35 1006 53 10000 5 140 10:42 31.07.2019
4406 Clear 35 1006 53 10000 5 140 10:20 31.07.2019
4407 Clear 35 1006 53 10000 6 150 09:44 31.07.2019
4408 Clear 36 1006 53 10000 6 150 09:24 31.07.2019
4409 Clear 36 1006 53 10000 5 140 08:57 31.07.2019
4410 Clear 36 1006 53 10000 6 160 08:39 31.07.2019
4411 Clear 36 1006 53 10000 6 160 08:20 31.07.2019
4412 Clear 36 1006 50 10000 4 160 07:34 31.07.2019
4413 Clear 38 1007 50 10000 4 190 06:31 31.07.2019
4414 Clear 36 1007 56 10000 4 170 04:50 31.07.2019
4415 Clear 33 1007 66 10000 5 170 01:32 31.07.2019
4416 Clear 29 1006 66 10000 5 160 23:58 30.07.2019
4417 Clear 30 1006 70 10000 4 160 23:39 30.07.2019
4418 Clear 30 1006 70 10000 4 160 23:18 30.07.2019
4419 Clear 29 1006 74 10000 3 160 22:45 30.07.2019
4420 Clear 29 1006 74 10000 3 160 22:25 30.07.2019
4421 Clear 29 1006 74 10000 5 150 21:39 30.07.2019
4422 Clear 29 1007 70 10000 5 160 21:20 30.07.2019
4423 Clear 29 1007 70 10000 5 160 20:59 30.07.2019
4424 Clear 29 1006 70 10000 5 160 20:41 30.07.2019
4425 Clear 30 1006 70 10000 5 160 20:23 30.07.2019
4426 Clear 30 1006 74 10000 6 170 19:49 30.07.2019
4427 Clear 30 1006 74 10000 6 170 19:30 30.07.2019
4428 Clear 31 1006 70 10000 5 160 18:48 30.07.2019
4429 Clear 31 1006 70 10000 5 160 18:27 30.07.2019
4430 Clear 31 1007 70 10000 5 160 17:59 30.07.2019
4431 Clear 30 1007 74 10000 5 150 17:41 30.07.2019
4432 Clear 31 1007 74 10000 5 150 17:19 30.07.2019
4433 Clear 31 1006 74 10000 5 150 16:46 30.07.2019
4434 Clear 31 1006 74 10000 5 150 16:20 30.07.2019
4435 Clear 31 1006 74 10000 6 150 15:44 30.07.2019
4436 Clear 32 1005 74 10000 5 150 15:23 30.07.2019
4437 Clear 32 1005 70 10000 6 150 14:46 30.07.2019
4438 Clear 32 1005 70 10000 6 150 14:27 30.07.2019
4439 Clear 33 1005 70 10000 8 150 13:59 30.07.2019
4440 Clear 33 1004 63 10000 7 150 13:40 30.07.2019
4441 Clear 33 1004 63 10000 7 150 13:22 30.07.2019
4442 Clear 34 1004 56 10000 7 140 12:46 30.07.2019
4443 Clear 35 1004 56 10000 7 140 12:28 30.07.2019
4444 Clear 36 1004 53 10000 7 150 11:58 30.07.2019
4445 Clear 36 1004 50 10000 8 140 11:38 30.07.2019
4446 Clear 36 1004 47 10000 4 180 11:18 30.07.2019
4447 Clear 37 1004 47 10000 4 200 10:39 30.07.2019
4448 Clear 38 1004 47 10000 3 210 10:20 30.07.2019
4449 Clear 38 1004 47 10000 4 180 09:48 30.07.2019
4450 Clear 39 1004 47 10000 4 180 09:28 30.07.2019
4451 Clear 39 1005 50 10000 3 190 08:43 30.07.2019
4452 Clear 39 1005 50 10000 4 190 08:20 30.07.2019
4453 Clear 38 1006 50 10000 4 200 07:44 30.07.2019
4454 Clear 38 1006 50 10000 4 190 07:23 30.07.2019
4455 Clear 38 1006 50 10000 4 200 06:45 30.07.2019
4456 Clear 36 1006 53 10000 5 180 05:36 30.07.2019
4457 Clear 35 1006 56 10000 5 180 04:59 30.07.2019
4458 Clear 33 1007 66 10000 6 180 01:30 30.07.2019
4459 Clear 30 1006 70 10000 4 170 00:28 30.07.2019
4460 Clear 30 1006 74 10000 4 170 23:59 29.07.2019
4461 Clear 30 1006 74 10000 4 170 23:41 29.07.2019
4462 Clear 30 1006 74 10000 4 170 23:22 29.07.2019
4463 Clear 30 1006 74 10000 4 160 22:56 29.07.2019
4464 Clear 30 1006 74 10000 5 170 22:38 29.07.2019
4465 Clear 30 1006 74 10000 5 170 22:18 29.07.2019
4466 Clear 30 1006 74 10000 4 170 21:42 29.07.2019
4467 Clear 31 1006 74 10000 4 170 21:23 29.07.2019
4468 Clear 31 1006 74 10000 5 170 20:58 29.07.2019
4469 Clear 31 1005 74 10000 6 170 20:39 29.07.2019
4470 Clear 31 1006 74 10000 5 170 20:19 29.07.2019
4471 Clear 31 1006 74 10000 5 170 19:47 29.07.2019
4472 Clear 31 1006 74 10000 5 170 19:23 29.07.2019
4473 Clear 31 1006 70 10000 6 160 18:58 29.07.2019
4474 Clear 31 1006 70 10000 5 170 18:38 29.07.2019
4475 Clear 31 1006 70 10000 6 170 18:19 29.07.2019
4476 Clear 31 1006 70 10000 7 170 17:47 29.07.2019
4477 Clear 31 1006 70 10000 7 170 17:28 29.07.2019
4478 Clear 31 1006 70 10000 6 160 16:55 29.07.2019
4479 Clear 31 1006 70 10000 6 160 16:55 29.07.2019
4480 Clear 31 1006 70 10000 6 160 16:36 29.07.2019
4481 Clear 31 1006 70 10000 6 160 16:36 29.07.2019
4482 Clear 31 1006 74 10000 6 160 16:18 29.07.2019
4483 Clear 31 1006 74 10000 6 150 15:43 29.07.2019
4484 Clear 32 1006 74 10000 6 150 15:24 29.07.2019
4485 Clear 32 1006 70 10000 6 150 14:42 29.07.2019
4486 Clear 32 1006 70 10000 6 150 14:21 29.07.2019
4487 Clear 33 1005 66 10000 6 150 13:46 29.07.2019
4488 Clear 33 1005 66 10000 6 150 13:24 29.07.2019
4489 Clear 33 1005 63 10000 6 150 12:57 29.07.2019
4490 Clear 34 1005 59 10000 6 140 12:38 29.07.2019
4491 Clear 34 1004 56 10000 6 160 12:19 29.07.2019
4492 Clouds 36 1004 53 10000 5 160 11:40 29.07.2019
4493 Clouds 36 1004 53 10000 6 190 11:19 29.07.2019
4494 Clouds 36 1004 53 10000 5 190 10:42 29.07.2019
4495 Clouds 36 1004 53 10000 5 190 10:21 29.07.2019
4496 Clouds 36 1004 53 10000 5 190 10:21 29.07.2019
4497 Clouds 36 1004 53 10000 5 190 10:21 29.07.2019
4498 Clouds 37 1005 53 10000 5 180 09:44 29.07.2019
4499 Clouds 38 1005 53 10000 5 180 09:21 29.07.2019
4500 Clouds 38 1005 50 10000 5 200 08:43 29.07.2019
4501 Clouds 37 1005 50 10000 5 200 08:24 29.07.2019
4502 Clouds 37 1006 53 10000 5 210 07:46 29.07.2019
4503 Clouds 37 1006 53 10000 5 210 07:27 29.07.2019
4504 Clear 38 1006 53 10000 4 180 06:37 29.07.2019
4505 Clear 35 1007 53 10000 5 170 05:32 29.07.2019
4506 Clear 31 1007 62 10000 6 170 02:49 29.07.2019
4507 Clear 32 1007 74 10000 6 180 01:48 29.07.2019
4508 Clear 33 1007 74 10000 6 180 01:27 29.07.2019
4509 Clear 32 1006 74 10000 6 160 00:56 29.07.2019
4510 Clear 29 1006 79 10000 5 160 00:23 29.07.2019
4511 Clear 30 1006 79 10000 4 150 23:41 28.07.2019
4512 Clear 29 1006 79 10000 4 150 23:22 28.07.2019
4513 Clear 29 1006 79 10000 4 150 23:22 28.07.2019
4514 Clear 29 1005 74 10000 6 170 22:43 28.07.2019
4515 Clear 29 1005 74 10000 6 170 22:24 28.07.2019
4516 Clear 30 1005 70 10000 5 160 21:50 28.07.2019
4517 Clear 29 1005 70 10000 6 170 21:20 28.07.2019
4518 Clear 29 1005 70 10000 7 170 20:49 28.07.2019
4519 Clear 29 1005 70 10000 7 170 20:30 28.07.2019
4520 Clear 29 1005 74 10000 8 160 19:57 28.07.2019
4521 Clear 30 1006 74 10000 6 160 19:38 28.07.2019
4522 Clear 30 1006 74 10000 7 160 19:20 28.07.2019
4523 Clear 30 1006 74 10000 6 150 18:44 28.07.2019
4524 Clear 30 1006 74 10000 6 150 18:25 28.07.2019
4525 Clear 30 1006 74 10000 7 150 17:43 28.07.2019
4526 Clear 30 1006 74 10000 7 150 17:22 28.07.2019
4527 Clear 30 1006 79 10000 6 150 16:59 28.07.2019
4528 Clear 31 1006 74 10000 7 150 16:40 28.07.2019
4529 Clear 31 1006 74 10000 7 150 16:22 28.07.2019
4530 Clear 31 1006 74 10000 6 150 15:43 28.07.2019
4531 Clear 31 1006 74 10000 6 150 15:22 28.07.2019
4532 Clear 32 1005 70 10000 6 160 14:38 28.07.2019
4533 Clear 32 1005 70 10000 5 150 14:19 28.07.2019
4534 Clear 32 1004 70 10000 6 150 13:45 28.07.2019
4535 Clear 33 1004 70 10000 6 150 13:25 28.07.2019
4536 Clear 33 1004 66 10000 5 140 12:59 28.07.2019
4537 Clear 33 1004 63 10000 6 150 12:40 28.07.2019
4538 Clear 34 1004 63 10000 6 150 12:22 28.07.2019
4539 Clear 34 1003 59 10000 5 150 11:47 28.07.2019
4540 Clear 35 1003 59 10000 5 150 11:27 28.07.2019
4541 Clear 35 1004 56 10000 6 160 10:41 28.07.2019
4542 Clear 36 1004 56 10000 6 160 10:22 28.07.2019
4543 Clear 37 1004 50 10000 5 170 09:47 28.07.2019
4544 Clear 36 1004 50 10000 5 170 09:29 28.07.2019
4545 Clear 37 1005 53 10000 5 180 08:52 28.07.2019
4546 Clear 36 1005 53 10000 5 180 08:30 28.07.2019
4547 Clear 36 1005 56 10000 5 160 07:59 28.07.2019
4548 Clear 37 1006 59 10000 5 170 07:37 28.07.2019
4549 Clear 37 1006 63 10000 5 190 06:45 28.07.2019
4550 Clear 35 1006 63 10000 7 180 05:44 28.07.2019
4551 Clear 34 1006 63 10000 7 180 03:31 28.07.2019
4552 Clear 30 1006 79 10000 6 170 02:24 28.07.2019
4553 Clear 32 1006 89 10000 6 170 01:19 28.07.2019
4554 Rain 31 1005 79 10000 5 170 00:45 28.07.2019
4555 Rain 30 1005 79 10000 4 170 00:18 28.07.2019
4556 Clear 30 1004 74 10000 4 170 23:46 27.07.2019
4557 Clear 30 1004 79 10000 5 160 23:20 27.07.2019
4558 Clear 29 1004 79 10000 4 170 22:41 27.07.2019
4559 Clear 29 1004 79 10000 4 170 22:20 27.07.2019
4560 Clear 30 1003 79 10000 5 170 21:41 27.07.2019
4561 Clear 30 1003 79 10000 5 170 21:20 27.07.2019
4562 Clear 30 1003 74 10000 5 160 20:51 27.07.2019
4563 Clear 30 1003 74 10000 6 160 20:25 27.07.2019
4564 Clear 30 1003 70 10000 5 170 19:48 27.07.2019
4565 Clear 30 1003 70 10000 5 170 19:27 27.07.2019
4566 Clear 30 1004 70 10000 4 180 18:55 27.07.2019
4567 Clear 30 1004 70 10000 4 180 18:36 27.07.2019
4568 Clear 31 1004 70 10000 6 180 17:57 27.07.2019
4569 Clear 31 1004 70 10000 6 180 17:57 27.07.2019
4570 Clear 30 1004 66 10000 5 170 17:36 27.07.2019
4571 Clear 31 1004 70 10000 5 180 17:18 27.07.2019
4572 Clear 30 1004 74 10000 4 180 16:46 27.07.2019
4573 Clear 30 1004 74 10000 4 180 16:28 27.07.2019
4574 Clear 31 1004 74 10000 3 170 15:53 27.07.2019
4575 Clear 31 1004 74 10000 5 170 15:21 27.07.2019
4576 Clear 31 1004 74 10000 5 170 15:21 27.07.2019
4577 Clear 30 1004 79 10000 5 150 14:51 27.07.2019
4578 Clear 31 1004 74 10000 3 140 14:31 27.07.2019
4579 Clear 31 1004 66 10000 4 130 13:56 27.07.2019
4580 Clear 31 1003 66 10000 5 130 13:37 27.07.2019
4581 Clear 31 1003 66 10000 4 140 13:18 27.07.2019
4582 Clear 30 1003 70 10000 2 100 12:41 27.07.2019
4583 Clear 32 1003 66 10000 2 70 12:21 27.07.2019
4584 Clear 32 1003 66 10000 3 20 11:42 27.07.2019
4585 Clear 32 1003 66 10000 3 20 11:24 27.07.2019
4586 Clouds 31 1002 74 10000 2 40 10:42 27.07.2019
4587 Clouds 32 1002 74 10000 2 40 10:23 27.07.2019
4588 Thunderstorm 32 1002 66 10000 4 30 09:45 27.07.2019
4589 Thunderstorm 34 1002 66 10000 4 30 09:24 27.07.2019
4590 Thunderstorm 35 1003 70 10000 7 10 08:53 27.07.2019
4591 Thunderstorm 35 1003 70 10000 7 10 08:53 27.07.2019
4592 Rain 33 1002 70 10000 3 0 08:34 27.07.2019
4593 Thunderstorm 35 1002 67 10000 3 220 07:58 27.07.2019
4594 Clouds 36 1003 63 10000 4 190 07:40 27.07.2019
4595 Clear 37 1003 60 10000 3 200 07:20 27.07.2019
4596 Clear 36 1003 60 10000 4 170 06:49 27.07.2019
4597 Clear 37 1003 67 10000 3 180 06:21 27.07.2019
4598 Clear 37 1003 71 10000 3 190 05:35 27.07.2019
4599 Clear 37 1003 67 10000 4 190 04:41 27.07.2019
4600 Clear 36 1003 70 10000 3 200 03:40 27.07.2019
4601 Clear 33 1003 75 10000 3 190 02:43 27.07.2019
4602 Clear 33 1003 75 10000 4 180 01:57 27.07.2019
4603 Clear 33 1002 75 10000 3 150 01:32 27.07.2019
4604 Clear 31 1002 79 10000 3 150 00:38 27.07.2019
4605 Clear 30 1002 74 10000 3 150 00:18 27.07.2019
4606 Clear 30 1002 74 10000 3 150 23:41 26.07.2019
4607 Clear 30 1002 74 10000 2 150 23:23 26.07.2019
4608 Clear 31 1002 74 10000 3 150 22:42 26.07.2019
4609 Clear 31 1002 74 10000 3 150 22:24 26.07.2019
4610 Clear 31 1002 74 10000 2 150 21:51 26.07.2019
4611 Clear 31 1001 74 10000 3 150 21:20 26.07.2019
4612 Clear 31 1001 74 10000 3 150 20:51 26.07.2019
4613 Clear 31 1001 70 10000 4 150 20:32 26.07.2019
4614 Clear 31 1001 70 10000 3 150 19:45 26.07.2019
4615 Clear 31 1001 70 10000 3 150 19:26 26.07.2019
4616 Clear 31 1002 70 10000 3 150 18:59 26.07.2019
4617 Clear 32 1002 70 10000 3 150 18:41 26.07.2019
4618 Clear 31 1002 75 10000 4 150 18:20 26.07.2019
4619 Clear 31 1002 75 10000 4 150 17:48 26.07.2019
4620 Clear 32 1002 75 10000 4 150 17:20 26.07.2019
4621 Clear 31 1002 75 10000 4 150 16:59 26.07.2019
4622 Clear 31 1002 70 10000 4 150 16:41 26.07.2019
4623 Clear 32 1002 70 10000 4 150 16:21 26.07.2019
4624 Clear 32 1003 66 10000 5 150 15:59 26.07.2019
4625 Clear 32 1003 66 10000 4 150 15:40 26.07.2019
4626 Clear 33 1003 67 10000 4 160 15:20 26.07.2019
4627 Clear 33 1002 63 10000 4 130 14:44 26.07.2019
4628 Clear 33 1002 63 10000 4 130 14:23 26.07.2019
4629 Clear 33 1002 63 10000 4 120 13:47 26.07.2019
4630 Clear 33 1002 63 10000 4 120 13:27 26.07.2019
4631 Clear 34 1001 59 10000 4 130 12:49 26.07.2019
4632 Clear 34 1001 59 10000 4 120 12:23 26.07.2019
4633 Clear 34 1001 59 10000 4 120 11:56 26.07.2019
4634 Clear 35 1001 59 10000 4 120 11:36 26.07.2019
4635 Clear 34 1001 59 10000 4 110 11:18 26.07.2019
4636 Clouds 36 1001 56 10000 5 120 10:39 26.07.2019
4637 Clouds 35 1001 53 10000 4 110 10:19 26.07.2019
4638 Rain 36 1001 42 10000 3 240 09:47 26.07.2019
4639 Rain 36 1001 42 10000 3 240 09:26 26.07.2019
4640 Clouds 36 1001 47 10000 3 0 08:41 26.07.2019
4641 Clouds 36 1001 50 10000 4 280 08:21 26.07.2019
4642 Clouds 35 1002 47 10000 4 270 07:39 26.07.2019
4643 Thunderstorm 35 1002 47 10000 3 0 07:21 26.07.2019
4644 Thunderstorm 37 1002 53 10000 4 300 06:21 26.07.2019
4645 Clouds 38 1003 63 10000 4 0 04:30 26.07.2019
4646 Clouds 37 1003 56 10000 4 270 03:50 26.07.2019
4647 Clear 32 1003 79 10000 2 220 01:45 26.07.2019
4648 Clear 32 1003 84 10000 2 180 01:18 26.07.2019
4649 Clear 33 1003 84 10000 1 190 00:28 26.07.2019
4650 Clear 30 1002 84 10000 2 190 23:40 25.07.2019
4651 Clear 30 1002 89 10000 2 150 23:19 25.07.2019
4652 Clear 30 1002 89 10000 2 150 22:41 25.07.2019
4653 Clear 30 1002 89 10000 2 150 22:21 25.07.2019
4654 Clear 30 1002 84 10000 3 150 21:47 25.07.2019
4655 Clear 30 1002 84 10000 3 150 21:23 25.07.2019
4656 Clear 30 1002 79 10000 3 150 20:49 25.07.2019
4657 Clear 30 1003 79 10000 2 150 20:31 25.07.2019
4658 Clear 31 1003 79 10000 2 160 19:55 25.07.2019
4659 Clear 31 1003 74 10000 1 0 19:37 25.07.2019
4660 Clear 31 1003 74 10000 3 180 19:19 25.07.2019
4661 Clear 31 1003 74 10000 3 190 18:40 25.07.2019
4662 Clear 31 1003 74 10000 3 190 18:22 25.07.2019
4663 Clear 31 1003 70 10000 3 170 17:48 25.07.2019
4664 Clear 31 1003 70 10000 3 170 17:30 25.07.2019
4665 Clear 31 1003 70 10000 3 160 16:47 25.07.2019
4666 Clear 31 1003 70 10000 3 160 16:29 25.07.2019
4667 Clear 31 1003 70 10000 5 180 15:58 25.07.2019
4668 Clear 32 1003 70 10000 5 170 15:38 25.07.2019
4669 Clear 32 1003 75 10000 5 180 15:19 25.07.2019
4670 Clear 32 1003 63 10000 6 190 14:41 25.07.2019
4671 Clear 33 1003 63 10000 6 190 14:22 25.07.2019
4672 Clear 33 1003 66 10000 4 160 13:44 25.07.2019
4673 Clear 33 1003 66 10000 4 160 13:25 25.07.2019
4674 Clear 33 1003 66 10000 4 160 12:55 25.07.2019
4675 Clear 33 1002 63 10000 5 150 12:28 25.07.2019
4676 Clear 35 1002 59 10000 3 150 11:43 25.07.2019
4677 Clear 35 1002 59 10000 3 150 11:24 25.07.2019
4678 Clear 35 1002 63 10000 4 130 10:46 25.07.2019
4679 Clear 35 1002 63 10000 4 130 10:46 25.07.2019
4680 Clear 35 1002 63 10000 4 130 10:26 25.07.2019
4681 Clouds 35 1002 63 10000 6 130 09:59 25.07.2019
4682 Clouds 35 1002 56 10000 2 130 09:40 25.07.2019
4683 Clouds 34 1003 59 10000 3 90 08:55 25.07.2019
4684 Clouds 34 1003 59 10000 3 90 08:55 25.07.2019
4685 Clouds 35 1003 63 10000 4 80 08:37 25.07.2019
4686 Thunderstorm 34 1003 63 10000 3 0 07:51 25.07.2019
4687 Thunderstorm 35 1003 63 10000 3 0 07:27 25.07.2019
4688 Clouds 35 1004 59 10000 4 260 06:41 25.07.2019
4689 Clouds 35 1004 56 10000 3 280 05:37 25.07.2019
4690 Clouds 36 1004 60 10000 3 0 04:56 25.07.2019
4691 Clouds 35 1004 59 10000 3 0 04:19 25.07.2019
4692 Clear 33 1005 75 10000 1 0 01:31 25.07.2019
4693 Clear 33 1004 84 10000 2 190 00:42 25.07.2019
4694 Mist 29 1004 89 10000 2 190 00:19 25.07.2019
4695 Clear 30 1004 89 10000 2 200 23:44 24.07.2019
4696 Clear 30 1004 89 10000 2 200 23:25 24.07.2019
4697 Clear 29 1003 83 10000 2 190 22:47 24.07.2019
4698 Clear 29 1003 83 10000 2 190 22:23 24.07.2019
4699 Clear 30 1003 79 10000 2 180 21:56 24.07.2019
4700 Clear 30 1003 79 10000 2 190 21:38 24.07.2019
4701 Clear 30 1003 79 10000 1 0 21:19 24.07.2019
4702 Clear 30 1003 79 10000 2 170 20:47 24.07.2019
4703 Clear 30 1003 79 10000 2 170 20:29 24.07.2019
4704 Clear 30 1003 74 10000 3 170 19:59 24.07.2019
4705 Clear 30 1003 74 10000 3 170 19:59 24.07.2019
4706 Clear 30 1003 74 10000 3 170 19:59 24.07.2019
4707 Clear 30 1003 74 10000 2 170 19:40 24.07.2019
4708 Clear 30 1004 74 10000 3 180 19:20 24.07.2019
4709 Clear 31 1004 74 10000 2 160 18:43 24.07.2019
4710 Clear 30 1004 74 10000 2 160 18:24 24.07.2019
4711 Clear 30 1004 74 10000 2 160 18:24 24.07.2019
4712 Clear 30 1004 74 10000 4 170 17:48 24.07.2019
4713 Clear 31 1004 74 10000 4 170 17:23 24.07.2019
4714 Clear 31 1004 74 10000 4 180 16:57 24.07.2019
4715 Clear 31 1004 70 10000 3 160 16:39 24.07.2019
4716 Clear 31 1004 70 10000 3 160 16:20 24.07.2019
4717 Clear 31 1004 70 10000 3 150 15:37 24.07.2019
4718 Clear 32 1003 75 10000 4 150 15:19 24.07.2019
4719 Clear 32 1003 75 10000 4 150 14:45 24.07.2019
4720 Clear 32 1003 66 10000 5 160 14:21 24.07.2019
4721 Clear 32 1002 66 10000 5 160 13:40 24.07.2019
4722 Clear 33 1002 63 10000 4 150 13:19 24.07.2019
4723 Clear 33 1002 63 10000 4 150 12:53 24.07.2019
4724 Clear 33 1002 63 10000 4 150 12:34 24.07.2019
4725 Clear 35 1002 59 10000 4 150 11:55 24.07.2019
4726 Clear 34 1002 59 10000 3 140 11:36 24.07.2019
4727 Clear 35 1002 59 10000 3 150 11:18 24.07.2019
4728 Clear 35 1002 56 10000 3 160 10:39 24.07.2019
4729 Clear 34 1003 59 10000 3 130 10:18 24.07.2019
4730 Clear 34 1003 63 10000 3 140 09:43 24.07.2019
4731 Clear 34 1003 63 10000 3 110 09:22 24.07.2019
4732 Rain 33 1003 63 10000 3 110 08:43 24.07.2019
4733 Thunderstorm 34 1003 63 10000 1 0 07:52 24.07.2019
4734 Thunderstorm 33 1003 66 10000 3 80 07:31 24.07.2019
4735 Rain 33 1004 66 10000 5 70 06:56 24.07.2019
4736 Rain 33 1003 66 10000 6 50 06:28 24.07.2019
4737 Clouds 35 1003 56 10000 5 280 04:56 24.07.2019
4738 Clouds 33 1003 79 10000 2 170 01:48 24.07.2019
4739 Clouds 33 1003 84 10000 1 180 00:57 24.07.2019
4740 Clear 32 1003 84 10000 2 160 00:30 24.07.2019
4741 Clear 30 1002 89 10000 2 180 23:52 23.07.2019
4742 Clear 30 1002 89 10000 2 180 23:26 23.07.2019
4743 Clear 30 1002 84 10000 2 180 22:58 23.07.2019
4744 Clear 30 1001 84 10000 2 180 22:36 23.07.2019
4745 Clear 30 1001 84 10000 3 190 22:18 23.07.2019
4746 Clear 30 1001 84 10000 3 190 21:44 23.07.2019
4747 Clear 30 1001 84 10000 3 190 21:25 23.07.2019
4748 Clear 30 1001 84 10000 2 170 20:49 23.07.2019
4749 Clear 30 1001 84 10000 2 170 20:29 23.07.2019
4750 Clear 30 1002 84 10000 2 180 19:43 23.07.2019
4751 Clear 30 1002 84 10000 2 180 19:24 23.07.2019
4752 Clear 31 1001 84 10000 3 180 18:56 23.07.2019
4753 Clear 31 1002 79 10000 4 190 18:38 23.07.2019
4754 Clear 31 1001 74 10000 4 180 18:19 23.07.2019
4755 Clear 31 1002 74 10000 3 170 17:42 23.07.2019
4756 Clear 31 1002 74 10000 4 160 17:20 23.07.2019
4757 Clear 31 1002 74 10000 4 150 16:42 23.07.2019
4758 Clear 32 1002 74 10000 4 150 16:24 23.07.2019
4759 Clear 32 1002 66 10000 4 150 15:48 23.07.2019
4760 Clear 32 1002 66 10000 4 150 15:48 23.07.2019
4761 Clear 32 1002 66 10000 4 150 15:29 23.07.2019
4762 Clear 32 1002 70 10000 4 150 14:54 23.07.2019
4763 Clear 32 1001 70 10000 4 150 14:36 23.07.2019
4764 Clear 33 1001 66 10000 6 170 14:18 23.07.2019
4765 Clear 33 1000 63 10000 5 160 13:42 23.07.2019
4766 Clear 33 1000 63 10000 5 160 13:23 23.07.2019
4767 Clear 34 999 59 10000 6 180 12:49 23.07.2019
4768 Clouds 35 999 59 10000 6 190 12:28 23.07.2019
4769 Clouds 35 999 59 10000 6 190 11:59 23.07.2019
4770 Clouds 36 999 56 10000 6 170 11:40 23.07.2019
4771 Clouds 36 999 56 10000 6 180 11:20 23.07.2019
4772 Clouds 37 999 60 10000 5 190 10:42 23.07.2019
4773 Clouds 37 999 60 10000 5 190 10:22 23.07.2019
4774 Clouds 37 1000 53 10000 4 180 09:42 23.07.2019
4775 Clouds 38 1000 56 10000 5 190 09:20 23.07.2019
4776 Clouds 38 1001 53 10000 3 0 08:44 23.07.2019
4777 Clouds 37 1001 56 10000 4 190 08:20 23.07.2019
4778 Clouds 37 1001 56 10000 4 190 07:56 23.07.2019
4779 Clouds 38 1001 56 10000 4 200 07:36 23.07.2019
4780 Clouds 34 1001 53 10000 4 190 06:50 23.07.2019
4781 Clouds 34 1001 53 10000 4 190 06:50 23.07.2019
4782 Clouds 34 1001 53 10000 4 190 06:30 23.07.2019
4783 Clear 36 1003 63 10000 5 200 03:39 23.07.2019
4784 Clear 31 1003 70 10000 4 190 01:35 23.07.2019
4785 Clear 32 1002 74 10000 4 160 00:31 23.07.2019
4786 Clear 29 1002 74 10000 4 170 23:56 22.07.2019
4787 Clear 29 1002 78 10000 3 160 23:36 22.07.2019
4788 Clear 29 1002 78 10000 5 180 23:18 22.07.2019
4789 Clear 29 1002 79 10000 4 170 22:42 22.07.2019
4790 Clear 29 1002 79 10000 4 170 22:21 22.07.2019
4791 Clear 29 1002 79 10000 5 170 21:43 22.07.2019
4792 Clear 30 1002 79 10000 5 170 21:23 22.07.2019
4793 Clear 29 1002 79 10000 6 160 20:50 22.07.2019
4794 Clear 29 1002 79 10000 6 160 20:32 22.07.2019
4795 Clear 29 1002 83 10000 4 160 19:57 22.07.2019
4796 Clear 30 1002 83 10000 5 160 19:37 22.07.2019
4797 Clear 30 1002 79 10000 5 160 19:19 22.07.2019
4798 Clear 30 1003 79 10000 5 150 18:46 22.07.2019
4799 Clear 30 1003 79 10000 5 150 18:27 22.07.2019
4800 Clear 30 1003 79 10000 5 150 17:44 22.07.2019
4801 -273 0 0 0 0 0 17:26 22.07.2019
4802 Clear 30 1003 79 10000 5 150 16:59 22.07.2019
4803 Clear 30 1003 79 10000 4 150 16:38 22.07.2019
4804 Clear 30 1003 79 10000 4 150 16:38 22.07.2019
4805 Clear 30 1003 79 10000 4 150 16:20 22.07.2019
4806 Clear 31 1003 79 10000 5 150 15:44 22.07.2019
4807 Clear 31 1002 74 10000 5 150 15:19 22.07.2019
4808 Clear 31 1002 74 10000 5 150 14:44 22.07.2019
4809 Clear 31 1002 74 10000 5 150 14:22 22.07.2019
4810 Clear 31 1002 74 10000 5 160 13:50 22.07.2019
4811 Clear 31 1001 70 10000 5 150 13:30 22.07.2019
4812 Clear 32 1001 66 10000 6 140 12:50 22.07.2019
4813 Clouds 33 1001 66 10000 6 140 12:31 22.07.2019
4814 Clouds 34 1000 63 10000 5 140 11:46 22.07.2019
4815 Clouds 35 1000 56 10000 5 170 11:27 22.07.2019
4816 Clouds 35 1000 56 10000 5 170 10:59 22.07.2019
4817 Clouds 35 1001 56 10000 5 190 10:34 22.07.2019
4818 Clouds 35 1001 59 10000 5 160 09:46 22.07.2019
4819 Clouds 36 1001 59 10000 5 160 09:26 22.07.2019
4820 Clouds 35 1001 59 10000 6 140 08:59 22.07.2019
4821 Clouds 36 1001 63 10000 5 160 08:37 22.07.2019
4822 Clouds 36 1002 59 10000 5 180 08:18 22.07.2019
4823 Clouds 36 1002 59 10000 5 180 08:18 22.07.2019
4824 Clouds 35 1002 59 10000 4 160 07:43 22.07.2019
4825 Clouds 36 1002 59 10000 4 160 07:24 22.07.2019
4826 Clouds 32 1004 66 10000 2 0 04:53 22.07.2019
4827 Clouds 32 1004 74 10000 3 140 02:57 22.07.2019
4828 Clouds 31 1004 83 7000 3 150 00:58 22.07.2019
4829 Clouds 30 1004 88 8000 3 150 00:38 22.07.2019
4830 Clouds 30 1004 88 8000 3 150 00:38 22.07.2019
4831 Clouds 30 1004 88 8000 3 150 00:38 22.07.2019
4832 Clouds 28 1003 88 8000 3 150 00:18 22.07.2019
4833 Clouds 28 1003 88 8000 3 140 23:42 21.07.2019
4834 Clouds 29 1003 88 7000 2 140 22:56 21.07.2019
4835 Clouds 28 1003 88 7000 3 140 22:37 21.07.2019
4836 Clouds 28 1003 88 10000 3 150 22:19 21.07.2019
4837 Clouds 28 1003 88 10000 2 160 21:47 21.07.2019
4838 Clouds 28 1003 88 10000 2 160 21:25 21.07.2019
4839 Clouds 28 1003 88 10000 3 150 20:56 21.07.2019
4840 Clouds 28 1003 88 10000 2 160 20:38 21.07.2019
4841 Clouds 28 1003 88 10000 2 160 20:19 21.07.2019
4842 Clouds 28 1004 83 10000 3 150 19:47 21.07.2019
4843 Clouds 28 1004 83 10000 3 150 19:26 21.07.2019
4844 Clouds 28 1004 88 10000 2 160 18:48 21.07.2019
4845 Clouds 28 1004 88 10000 2 160 18:26 21.07.2019
4846 Clear 29 1005 83 10000 3 140 17:44 21.07.2019
4847 Clear 29 1005 83 10000 3 140 17:20 21.07.2019
4848 Clear 29 1005 83 10000 2 120 16:58 21.07.2019
4849 Clear 29 1005 79 10000 2 130 16:39 21.07.2019
4850 Clear 29 1005 79 10000 2 130 16:20 21.07.2019
4851 Clear 29 1004 74 10000 3 100 15:37 21.07.2019
4852 Clear 30 1004 74 10000 4 120 15:19 21.07.2019
4853 Clear 30 1004 79 10000 5 120 14:42 21.07.2019
4854 Clear 30 1004 79 10000 5 120 14:23 21.07.2019
4855 Clear 30 1003 66 10000 4 110 13:52 21.07.2019
4856 Clear 30 1003 66 10000 4 110 13:32 21.07.2019
4857 Clouds 31 1003 70 10000 4 100 12:45 21.07.2019
4858 Clouds 31 1003 70 10000 4 100 12:26 21.07.2019
4859 Clouds 32 1003 66 10000 5 110 11:52 21.07.2019
4860 Clouds 32 1002 59 10000 6 110 11:31 21.07.2019
4861 Clouds 33 1003 56 10000 3 80 10:59 21.07.2019
4862 Clouds 33 1003 53 10000 3 70 10:40 21.07.2019
4863 Clouds 34 1003 53 10000 3 70 10:22 21.07.2019
4864 Clouds 33 1003 53 10000 3 90 09:38 21.07.2019
4865 Clouds 34 1003 53 10000 3 90 09:20 21.07.2019
4866 Clouds 36 1003 50 10000 1 0 08:45 21.07.2019
4867 Clouds 35 1003 50 10000 1 0 08:26 21.07.2019
4868 Clouds 35 1003 47 10000 2 0 07:38 21.07.2019
4869 Clouds 35 1004 50 10000 3 70 06:50 21.07.2019
4870 Clouds 34 1005 53 10000 3 140 05:41 21.07.2019
4871 Clear 30 1005 74 8000 2 120 02:43 21.07.2019
4872 Mist 31 1004 88 6000 2 120 00:58 21.07.2019
4873 Mist 27 1004 94 5000 3 140 00:24 21.07.2019
4874 Mist 27 1004 88 7000 2 130 23:59 20.07.2019
4875 Mist 27 1004 88 7000 1 0 23:37 20.07.2019
4876 Mist 27 1004 88 10000 1 0 23:18 20.07.2019
4877 Mist 28 1004 83 10000 2 100 22:42 20.07.2019
4878 Mist 27 1004 83 10000 2 120 22:21 20.07.2019
4879 Mist 28 1003 83 10000 1 0 21:45 20.07.2019
4880 Mist 28 1003 83 10000 1 0 21:25 20.07.2019
4881 Mist 27 1003 88 10000 1 0 20:45 20.07.2019
4882 Mist 27 1003 88 10000 1 0 20:23 20.07.2019
4883 Mist 28 1003 78 10000 1 150 19:59 20.07.2019
4884 Mist 28 1003 78 10000 1 150 19:38 20.07.2019
4885 Mist 28 1003 78 10000 1 140 19:19 20.07.2019
4886 Mist 28 1004 83 10000 2 140 18:40 20.07.2019
4887 Mist 28 1004 83 10000 1 150 18:19 20.07.2019
4888 Mist 28 1004 83 10000 2 170 17:48 20.07.2019
4889 Mist 28 1004 83 10000 2 170 17:20 20.07.2019
4890 Mist 28 1004 83 10000 2 170 17:20 20.07.2019
4891 Mist 29 1004 74 10000 3 140 16:43 20.07.2019
4892 Mist 28 1004 74 10000 3 140 16:24 20.07.2019
4893 Mist 29 1004 70 10000 3 120 15:56 20.07.2019
4894 Mist 29 1004 70 10000 3 100 15:37 20.07.2019
4895 Clouds 29 1004 70 10000 4 120 15:18 20.07.2019
4896 Clouds 29 1003 66 10000 3 110 14:43 20.07.2019
4897 Clouds 30 1003 66 10000 3 110 14:20 20.07.2019
4898 Clear 29 1003 70 10000 2 350 13:38 20.07.2019
4899 Clear 30 1002 66 10000 1 0 13:19 20.07.2019
4900 Clear 30 1002 66 10000 1 0 12:52 20.07.2019
4901 Clear 32 1002 62 10000 3 330 12:20 20.07.2019
4902 Clear 32 1002 62 10000 3 330 11:52 20.07.2019
4903 Clouds 32 1002 59 10000 2 350 11:23 20.07.2019
4904 Clouds 32 1002 62 10000 2 270 10:55 20.07.2019
4905 Clouds 33 1002 62 10000 2 340 10:26 20.07.2019
4906 Clouds 32 1002 62 10000 3 290 09:55 20.07.2019
4907 Clouds 31 1002 62 10000 2 290 09:37 20.07.2019
4908 Clouds 31 1002 62 10000 4 300 09:18 20.07.2019
4909 Clouds 32 1002 62 10000 5 290 08:38 20.07.2019
4910 Clouds 31 1002 59 10000 4 300 08:19 20.07.2019
4911 Clouds 33 1002 62 10000 4 290 07:18 20.07.2019
4912 Clouds 31 1003 62 10000 5 300 06:31 20.07.2019
4913 Clouds 32 1003 70 10000 4 330 04:31 20.07.2019
4914 Clouds 29 1002 83 10000 4 340 02:36 20.07.2019
4915 Clouds 28 1002 88 10000 3 280 01:21 20.07.2019
4916 Clouds 27 1002 88 10000 3 280 00:45 20.07.2019
4917 Clouds 26 1001 88 10000 2 290 00:18 20.07.2019
4918 Clouds 26 1001 88 10000 3 300 23:43 19.07.2019
4919 Clouds 26 1001 88 10000 3 300 23:22 19.07.2019
4920 Clouds 26 1000 88 10000 5 300 22:44 19.07.2019
4921 Clouds 26 1000 88 10000 5 300 22:25 19.07.2019
4922 Clouds 26 1000 88 10000 4 300 21:47 19.07.2019
4923 Clouds 26 1000 88 10000 4 300 21:29 19.07.2019
4924 Clouds 26 1000 88 10000 4 300 20:50 19.07.2019
4925 Clouds 26 1000 94 10000 4 310 20:31 19.07.2019
4926 Rain 26 1000 88 8000 4 320 19:55 19.07.2019
4927 Rain 26 1000 88 6000 5 320 19:34 19.07.2019
4928 Clouds 26 1000 83 10000 5 330 18:42 19.07.2019
4929 Clouds 26 1000 83 10000 4 330 18:22 19.07.2019
4930 Clouds 26 1000 83 10000 4 330 17:55 19.07.2019
4931 Clouds 26 1000 83 10000 5 330 17:29 19.07.2019
4932 Clouds 26 999 83 10000 6 340 16:49 19.07.2019
4933 Clouds 26 999 83 10000 6 340 16:29 19.07.2019
4934 Clouds 26 999 83 10000 6 330 15:55 19.07.2019
4935 Clouds 26 999 83 10000 6 340 15:36 19.07.2019
4936 Clouds 26 998 83 10000 6 340 15:18 19.07.2019
4937 Rain 27 998 83 10000 8 350 14:43 19.07.2019
4938 Rain 27 998 83 10000 8 350 14:23 19.07.2019
4939 Clouds 27 998 83 10000 7 360 13:46 19.07.2019
4940 Clouds 27 998 83 10000 7 360 13:26 19.07.2019
4941 Clouds 27 997 88 10000 7 360 12:56 19.07.2019
4942 Clouds 28 997 78 10000 9 360 12:36 19.07.2019
4943 Clouds 29 997 78 10000 9 350 12:18 19.07.2019
4944 Clouds 29 996 70 10000 9 350 11:43 19.07.2019
4945 Clouds 30 996 70 10000 7 360 11:18 19.07.2019
4946 Clouds 30 996 74 10000 9 350 10:47 19.07.2019
4947 Clouds 30 996 74 10000 9 350 10:22 19.07.2019
4948 Clouds 30 996 74 10000 9 350 09:58 19.07.2019
4949 Clouds 30 996 70 10000 8 10 09:40 19.07.2019
4950 Clouds 30 996 70 10000 8 10 09:21 19.07.2019
4951 Rain 31 996 70 10000 8 30 08:48 19.07.2019
4952 Rain 31 997 94 10000 6 20 07:55 19.07.2019
4953 Rain 30 997 94 10000 6 20 07:29 19.07.2019
4954 Clouds 30 997 74 10000 8 30 05:56 19.07.2019
4955 Clouds 29 997 83 10000 7 20 02:23 19.07.2019
4956 Clouds 29 997 83 10000 7 20 02:23 19.07.2019
4957 Clouds 28 998 88 10000 6 20 01:18 19.07.2019
4958 Clouds 28 998 88 10000 6 10 00:42 19.07.2019
4959 Rain 26 998 94 10000 6 30 23:57 18.07.2019
4960 Rain 26 998 94 10000 7 20 23:39 18.07.2019
4961 Rain 26 998 94 10000 5 30 23:19 18.07.2019
4962 Rain 26 998 94 10000 5 30 23:19 18.07.2019
4963 Clouds 26 998 88 10000 6 30 22:40 18.07.2019
4964 Clouds 26 998 88 10000 6 10 22:19 18.07.2019
4965 Clouds 27 998 88 10000 6 10 21:44 18.07.2019
4966 Clouds 27 998 88 10000 5 10 21:26 18.07.2019
4967 Clouds 27 998 88 10000 5 20 20:51 18.07.2019
4968 Clouds 27 998 88 10000 5 20 20:29 18.07.2019
4969 Clouds 27 999 83 10000 4 50 19:57 18.07.2019
4970 Clouds 27 999 83 10000 4 50 19:38 18.07.2019
4971 Clouds 27 1000 83 10000 4 70 19:18 18.07.2019
4972 Clouds 27 1000 83 10000 3 90 18:41 18.07.2019
4973 Rain 27 1000 83 10000 4 80 18:20 18.07.2019
4974 Rain 27 1001 83 10000 4 60 17:43 18.07.2019
4975 Rain 27 1001 83 10000 4 60 17:24 18.07.2019
4976 Clouds 28 1001 83 10000 3 70 16:57 18.07.2019
4977 Clouds 28 1001 79 10000 4 90 16:31 18.07.2019
4978 Clouds 28 1001 79 10000 4 90 15:59 18.07.2019
4979 Clouds 28 1001 79 10000 5 80 15:39 18.07.2019
4980 Clouds 29 1001 79 10000 5 80 15:21 18.07.2019
4981 Clouds 28 1001 74 10000 5 70 14:45 18.07.2019
4982 Clouds 28 1001 74 10000 5 70 14:45 18.07.2019
4983 Clouds 29 1001 79 10000 4 90 14:26 18.07.2019
4984 Clouds 29 1001 79 10000 4 90 13:48 18.07.2019
4985 Clouds 29 1001 74 10000 5 100 13:23 18.07.2019
4986 Clouds 29 1001 74 10000 5 90 12:50 18.07.2019
4987 Clouds 30 1000 70 10000 6 110 12:22 18.07.2019
4988 Clouds 30 1000 70 10000 6 110 12:22 18.07.2019
4989 Clouds 30 1000 70 10000 6 100 11:58 18.07.2019
4990 Clouds 31 1000 70 10000 6 100 11:39 18.07.2019
4991 Clouds 31 1000 62 10000 7 100 11:20 18.07.2019
4992 Clouds 31 1000 63 10000 6 90 10:41 18.07.2019
4993 Clouds 32 1000 63 10000 5 90 09:50 18.07.2019
4994 Clouds 32 1001 63 10000 5 80 09:26 18.07.2019
4995 Clouds 33 1001 63 10000 5 60 08:52 18.07.2019
4996 Clouds 33 1001 59 10000 4 90 08:25 18.07.2019
4997 Clouds 33 1001 59 10000 4 90 07:56 18.07.2019
4998 Clouds 32 1002 66 10000 4 70 07:35 18.07.2019
4999 Clouds 32 1002 66 10000 4 100 06:46 18.07.2019
5000 Clouds 31 1002 66 10000 4 90 06:19 18.07.2019
5001 Clouds 30 1003 79 10000 4 130 03:29 18.07.2019
5002 Clouds 30 1003 88 10000 4 120 01:52 18.07.2019
5003 Clouds 29 1003 88 10000 4 130 01:33 18.07.2019
5004 Clouds 28 1003 88 10000 4 120 23:57 17.07.2019
5005 Clouds 27 1003 94 10000 5 130 23:21 17.07.2019
5006 Clouds 27 1003 94 10000 5 130 22:58 17.07.2019
5007 Clouds 27 1003 94 10000 4 130 22:40 17.07.2019
5008 Clouds 27 1003 94 10000 5 130 22:21 17.07.2019
5009 Clouds 27 1003 88 10000 5 130 21:46 17.07.2019
5010 Clouds 27 1003 88 10000 5 130 21:28 17.07.2019
5011 Clouds 27 1004 88 10000 6 130 20:59 17.07.2019
5012 Clouds 27 1004 88 10000 6 130 20:40 17.07.2019
5013 Clouds 27 1004 83 10000 5 130 20:21 17.07.2019
5014 Clouds 28 1004 83 10000 5 130 19:57 17.07.2019
5015 Clouds 28 1004 88 10000 6 130 19:39 17.07.2019
5016 Clouds 28 1004 88 10000 6 130 19:18 17.07.2019
5017 Clouds 28 1005 83 10000 5 130 18:41 17.07.2019
5018 Clouds 28 1005 83 10000 6 140 18:20 17.07.2019
5019 Clouds 28 1005 83 10000 6 140 18:20 17.07.2019
5020 Clouds 28 1005 83 10000 6 140 17:50 17.07.2019
5021 Clouds 28 1005 83 10000 6 140 17:27 17.07.2019
5022 Clouds 28 1005 83 10000 6 140 17:27 17.07.2019
5023 Clouds 28 1005 83 10000 6 140 16:55 17.07.2019
5024 Clouds 28 1005 83 10000 6 150 16:37 17.07.2019
5025 Clouds 28 1005 83 10000 5 150 16:18 17.07.2019
5026 Clouds 28 1005 83 10000 6 140 15:47 17.07.2019
5027 Clouds 28 1005 83 10000 6 140 15:25 17.07.2019
5028 Clouds 28 1005 79 10000 7 140 14:54 17.07.2019
5029 Clouds 28 1004 79 10000 7 130 14:36 17.07.2019
5030 Clouds 28 1004 79 10000 7 140 14:18 17.07.2019
5031 Clouds 29 1004 74 10000 6 140 13:41 17.07.2019
5032 Clouds 29 1004 74 10000 6 140 13:20 17.07.2019
5033 Clear 30 1004 70 10000 7 150 12:40 17.07.2019
5034 Clear 30 1004 70 10000 8 140 12:21 17.07.2019
5035 Clear 30 1003 66 10000 7 150 11:45 17.07.2019
5036 Clear 31 1003 62 10000 6 120 11:21 17.07.2019
5037 Clouds 31 1003 63 10000 7 140 10:51 17.07.2019
5038 Clouds 32 1003 63 10000 7 140 10:30 17.07.2019
5039 Clouds 32 1004 63 10000 6 150 09:58 17.07.2019
5040 Clouds 32 1004 59 10000 7 140 09:40 17.07.2019
5041 Clouds 32 1004 63 10000 6 150 09:20 17.07.2019
5042 Clouds 32 1004 62 10000 5 150 08:42 17.07.2019
5043 Clouds 32 1004 66 10000 5 150 08:22 17.07.2019
5044 Clouds 33 1005 59 10000 6 160 07:50 17.07.2019
5045 Clouds 33 1005 59 10000 6 160 07:24 17.07.2019
5046 Clouds 32 1005 66 10000 6 150 06:55 17.07.2019
5047 Clouds 31 1005 70 10000 6 150 06:29 17.07.2019
5048 Clouds 31 1006 66 10000 6 150 05:48 17.07.2019
5049 Clouds 31 1006 66 10000 6 150 05:28 17.07.2019
5050 Clouds 32 1006 70 10000 6 160 04:37 17.07.2019
5051 Clouds 29 1006 83 10000 6 150 02:56 17.07.2019
5052 Clouds 28 1006 83 10000 5 150 01:59 17.07.2019
5053 Clouds 28 1006 94 10000 5 140 01:26 17.07.2019
5054 Mist 27 1006 94 10000 5 140 00:48 17.07.2019
5055 Mist 27 1006 94 10000 5 140 00:24 17.07.2019
5056 Mist 26 1006 94 10000 5 130 23:57 16.07.2019
5057 Mist 27 1006 94 10000 4 130 23:30 16.07.2019
5058 Mist 27 1005 94 10000 4 130 22:58 16.07.2019
5059 Mist 27 1005 94 10000 4 130 22:40 16.07.2019
5060 Mist 27 1005 94 10000 5 130 22:20 16.07.2019
5061 Mist 27 1006 94 10000 4 130 21:45 16.07.2019
5062 Clouds 27 1006 94 10000 3 140 21:21 16.07.2019
5063 Clouds 27 1006 94 10000 3 140 20:58 16.07.2019
5064 Clouds 27 1006 94 10000 5 130 20:38 16.07.2019
5065 Clouds 27 1006 94 10000 4 110 20:20 16.07.2019
5066 Clouds 27 1006 94 10000 4 110 19:47 16.07.2019
5067 Clouds 27 1006 94 10000 4 110 19:27 16.07.2019
5068 Clouds 26 1007 94 10000 4 120 18:47 16.07.2019
5069 Clouds 27 1007 94 10000 4 120 18:21 16.07.2019
5070 Clouds 27 1007 94 10000 4 120 17:58 16.07.2019
5071 Clouds 27 1007 94 10000 4 120 17:58 16.07.2019
5072 Clouds 27 1007 94 10000 4 120 17:39 16.07.2019
5073 Clouds 27 1007 94 10000 4 120 17:20 16.07.2019
5074 Clouds 27 1008 94 10000 4 120 16:42 16.07.2019
5075 Clouds 27 1008 88 10000 4 110 16:20 16.07.2019
5076 Rain 27 1007 94 7000 4 100 15:41 16.07.2019
5077 Rain 27 1007 94 10000 4 110 15:21 16.07.2019
5078 Rain 27 1007 94 10000 4 110 14:58 16.07.2019
5079 Rain 27 1007 94 10000 4 120 14:39 16.07.2019
5080 Clouds 27 1007 94 10000 4 110 14:20 16.07.2019
5081 Clouds 27 1007 83 10000 5 110 13:45 16.07.2019
5082 Clouds 27 1007 83 10000 5 110 13:24 16.07.2019
5083 Clouds 27 1007 88 10000 4 110 12:45 16.07.2019
5084 Clouds 27 1007 88 10000 4 100 12:21 16.07.2019
5085 Clouds 27 1007 88 10000 4 100 11:58 16.07.2019
5086 Clouds 27 1006 94 10000 4 100 11:40 16.07.2019
5087 Clouds 27 1006 94 10000 4 100 11:40 16.07.2019
5088 Clouds 27 1006 88 10000 5 100 11:22 16.07.2019
5089 Clouds 27 1006 88 10000 4 100 10:45 16.07.2019
5090 Clouds 27 1006 88 10000 4 100 10:45 16.07.2019
5091 Rain 28 1006 94 10000 4 100 10:22 16.07.2019
5092 Rain 28 1006 94 10000 4 100 09:56 16.07.2019
5093 Rain 28 1006 94 10000 4 100 09:56 16.07.2019
5094 Rain 28 1007 83 10000 4 110 09:36 16.07.2019
5095 Clouds 27 1007 88 10000 4 110 09:18 16.07.2019
5096 Rain 27 1007 83 10000 5 110 08:41 16.07.2019
5097 Clouds 28 1007 83 10000 5 110 08:19 16.07.2019
5098 Clouds 28 1007 83 10000 4 110 07:41 16.07.2019
5099 Clouds 28 1007 83 10000 4 130 07:23 16.07.2019
5100 Clouds 28 1007 83 10000 5 120 06:47 16.07.2019
5101 Clouds 28 1007 74 10000 5 120 06:22 16.07.2019
5102 Clouds 29 1007 74 10000 5 120 05:32 16.07.2019
5103 Clouds 29 1007 78 10000 4 110 04:57 16.07.2019
5104 Clouds 30 1007 74 10000 4 110 03:52 16.07.2019
5105 Clouds 28 1007 78 10000 5 130 02:55 16.07.2019
5106 Clouds 27 1008 78 10000 4 120 02:30 16.07.2019
5107 Clouds 27 1007 78 10000 4 110 01:41 16.07.2019
5108 Clouds 27 1007 83 10000 3 110 00:41 16.07.2019
5109 Clouds 25 1007 83 10000 3 100 00:19 16.07.2019
5110 Clouds 26 1007 83 10000 3 110 23:44 15.07.2019
5111 Clouds 26 1007 83 10000 3 110 23:25 15.07.2019
5112 Clouds 25 1007 88 10000 4 110 22:47 15.07.2019
5113 Clouds 25 1007 88 10000 4 110 22:22 15.07.2019
5114 Clouds 25 1006 88 10000 4 110 21:58 15.07.2019
5115 Clouds 25 1006 88 10000 4 110 21:39 15.07.2019
5116 Clouds 25 1006 88 10000 3 100 21:19 15.07.2019
5117 Clouds 25 1006 88 10000 3 100 20:54 15.07.2019
5118 Clouds 25 1006 88 10000 4 130 20:36 15.07.2019
5119 Clouds 25 1006 88 10000 4 120 20:18 15.07.2019
5120 Clouds 25 1007 88 10000 3 120 19:39 15.07.2019
5121 Clouds 25 1007 88 10000 4 110 19:19 15.07.2019
5122 Clouds 25 1007 88 10000 4 120 18:49 15.07.2019
5123 Clear 25 1007 88 10000 4 120 18:23 15.07.2019
5124 Clear 25 1007 88 10000 4 120 17:58 15.07.2019
5125 Clear 25 1007 88 10000 4 120 17:40 15.07.2019
5126 Clouds 26 1007 83 10000 4 130 17:22 15.07.2019
5127 Clouds 26 1007 83 10000 4 130 16:58 15.07.2019
5128 Clouds 26 1007 78 10000 4 130 16:37 15.07.2019
5129 Clouds 26 1007 78 10000 4 130 16:18 15.07.2019
5130 Clouds 26 1007 83 10000 4 140 15:40 15.07.2019
5131 Clouds 27 1007 83 10000 4 140 15:22 15.07.2019
5132 Clouds 27 1006 78 10000 5 140 14:58 15.07.2019
5133 Clouds 27 1006 74 10000 4 110 14:38 15.07.2019
5134 Clouds 27 1006 74 10000 4 120 14:19 15.07.2019
5135 Clouds 28 1005 69 10000 5 110 13:46 15.07.2019
5136 Clouds 28 1005 69 10000 4 140 13:18 15.07.2019
5137 Clouds 28 1005 62 10000 5 130 12:44 15.07.2019
5138 Clouds 29 1005 62 10000 4 130 12:25 15.07.2019
5139 Clouds 29 1005 62 10000 4 130 11:45 15.07.2019
5140 Clouds 30 1005 62 10000 4 130 11:26 15.07.2019
5141 Clouds 30 1005 58 10000 5 160 10:59 15.07.2019
5142 Clouds 30 1005 55 10000 4 140 10:40 15.07.2019
5143 Clouds 30 1005 55 10000 4 140 10:22 15.07.2019
5144 Clouds 31 1005 52 10000 5 130 09:42 15.07.2019
5145 Clouds 31 1005 55 10000 4 120 09:19 15.07.2019
5146 Clouds 31 1005 58 10000 4 100 08:43 15.07.2019
5147 Clouds 32 1005 55 10000 5 140 08:24 15.07.2019
5148 Clouds 31 1006 52 10000 7 130 07:43 15.07.2019
5149 Clouds 31 1006 58 10000 5 120 07:21 15.07.2019
5150 Clouds 31 1006 52 10000 4 0 06:39 15.07.2019
5151 Clear 30 1006 48 10000 4 110 05:51 15.07.2019
5152 Clear 30 1006 48 10000 4 110 05:51 15.07.2019
5153 Clear 30 1006 48 10000 4 110 05:32 15.07.2019
5154 Clear 31 1006 54 10000 3 90 04:43 15.07.2019
5155 Clear 32 1006 58 10000 3 70 03:58 15.07.2019
5156 Clear 32 1006 58 10000 3 70 03:58 15.07.2019
5157 Clear 27 1005 74 10000 2 130 02:47 15.07.2019
5158 Clear 27 1005 83 10000 3 20 01:53 15.07.2019
5159 Clear 27 1005 83 10000 3 20 01:28 15.07.2019
5160 Mist 27 1005 94 10000 1 0 00:53 15.07.2019
5161 Mist 23 1004 94 10000 1 170 00:23 15.07.2019
5162 Mist 24 1004 94 10000 1 170 23:57 14.07.2019
5163 Mist 24 1004 94 10000 1 200 23:37 14.07.2019
5164 Clear 23 1004 94 10000 1 0 23:18 14.07.2019
5165 Clear 23 1005 88 10000 1 100 22:55 14.07.2019
5166 Clear 23 1005 88 10000 1 100 22:36 14.07.2019
5167 Clear 23 1005 94 10000 1 140 22:18 14.07.2019
5168 Clear 24 1005 88 10000 2 160 21:42 14.07.2019
5169 Clear 24 1005 88 10000 2 150 21:18 14.07.2019
5170 Clear 24 1005 88 10000 2 150 20:57 14.07.2019
5171 Clear 24 1005 94 10000 2 140 20:37 14.07.2019
5172 Clear 23 1005 94 10000 2 150 20:18 14.07.2019
5173 Clouds 23 1005 88 10000 3 140 19:43 14.07.2019
5174 Clouds 24 1005 88 10000 3 140 19:24 14.07.2019
5175 Clear 25 1005 88 10000 3 150 18:57 14.07.2019
5176 Clear 25 1005 88 10000 3 150 18:38 14.07.2019
5177 Clear 25 1005 88 10000 3 140 18:19 14.07.2019
5178 Clear 25 1005 88 10000 3 160 17:47 14.07.2019
5179 Clear 24 1005 88 10000 4 150 17:20 14.07.2019
5180 Clear 24 1005 83 10000 3 140 16:46 14.07.2019
5181 Clear 25 1005 83 10000 3 140 16:24 14.07.2019
5182 Clear 25 1005 78 10000 4 140 15:54 14.07.2019
5183 Clear 26 1005 78 10000 4 140 15:29 14.07.2019
5184 Clear 26 1004 78 10000 3 150 14:49 14.07.2019
5185 Clear 26 1004 78 10000 4 170 14:21 14.07.2019
5186 Clear 27 1004 74 10000 3 180 13:49 14.07.2019
5187 Clear 26 1004 74 10000 3 180 13:25 14.07.2019
5188 Clear 28 1003 69 10000 4 150 12:58 14.07.2019
5189 Clear 28 1003 74 10000 6 160 12:40 14.07.2019
5190 Clouds 28 1003 69 10000 5 160 12:19 14.07.2019
5191 Clouds 29 1002 66 10000 5 150 11:51 14.07.2019
5192 Clouds 29 1002 66 10000 5 150 11:22 14.07.2019
5193 Clouds 30 1002 55 10000 5 140 10:49 14.07.2019
5194 Clouds 30 1002 55 10000 5 140 10:22 14.07.2019
5195 Clouds 30 1003 55 10000 4 100 09:50 14.07.2019
5196 Clouds 31 1003 55 10000 4 100 09:30 14.07.2019
5197 Clouds 31 1003 58 10000 3 50 08:57 14.07.2019
5198 Clouds 31 1003 55 10000 2 80 08:39 14.07.2019
5199 Clouds 31 1003 58 10000 1 0 07:46 14.07.2019
5200 Clouds 31 1004 58 10000 2 0 07:21 14.07.2019
5201 Clouds 30 1004 62 10000 1 0 05:47 14.07.2019
5202 Clear 31 1004 69 10000 2 30 03:59 14.07.2019
5203 Clouds 30 1004 74 10000 2 350 03:41 14.07.2019
5204 Clouds 26 1004 78 10000 2 10 03:23 14.07.2019
5205 Clear 25 1004 78 10000 2 10 02:24 14.07.2019
5206 Clear 25 1004 78 10000 2 10 02:24 14.07.2019
5207 Clouds 26 1004 94 6000 1 0 01:54 14.07.2019
5208 Clouds 26 1004 94 6000 1 0 01:30 14.07.2019
5209 Mist 25 1003 100 4000 1 290 00:41 14.07.2019
5210 Mist 22 1003 100 4000 1 220 00:20 14.07.2019
5211 Mist 22 1003 100 4000 1 220 23:58 13.07.2019
5212 Mist 22 1003 94 4000 1 200 23:40 13.07.2019
5213 Clouds 22 1003 94 7000 1 0 23:20 13.07.2019
5214 Clouds 22 1002 94 8000 2 300 22:42 13.07.2019
5215 Clouds 22 1002 94 8000 2 300 22:22 13.07.2019
5216 Clear 22 1002 94 10000 1 0 21:48 13.07.2019
5217 Clear 22 1002 94 10000 2 310 21:21 13.07.2019
5218 Clear 22 1002 94 10000 2 310 20:52 13.07.2019
5219 Clear 22 1002 94 10000 2 350 20:33 13.07.2019
5220 Clear 22 1002 94 10000 3 320 19:51 13.07.2019
5221 Clear 22 1002 94 10000 3 320 19:30 13.07.2019
5222 Clouds 22 1002 94 10000 2 10 18:48 13.07.2019
5223 Clouds 22 1002 94 10000 2 10 18:28 13.07.2019
5224 Rain 23 1003 94 10000 3 350 17:58 13.07.2019
5225 Rain 22 1003 88 10000 3 10 17:37 13.07.2019
5226 Rain 22 1003 88 10000 2 30 17:19 13.07.2019
5227 Rain 22 1003 94 10000 3 360 16:43 13.07.2019
5228 Clouds 22 1003 88 10000 1 0 16:24 13.07.2019
5229 Clouds 22 1003 88 10000 1 0 15:46 13.07.2019
5230 Clouds 23 1002 88 10000 1 0 15:24 13.07.2019
5231 Clouds 22 1002 88 10000 2 40 14:47 13.07.2019
5232 Clouds 23 1002 88 10000 2 40 14:27 13.07.2019
5233 Clouds 22 1001 88 10000 2 60 13:58 13.07.2019
5234 Clouds 22 1001 88 10000 3 20 13:39 13.07.2019
5235 Clouds 22 1001 88 10000 4 10 13:18 13.07.2019
5236 Clouds 22 1001 94 10000 3 10 12:40 13.07.2019
5237 Rain 23 1000 94 10000 3 10 12:22 13.07.2019
5238 Rain 23 1000 94 10000 3 20 11:52 13.07.2019
5239 Rain 23 1000 94 10000 3 30 11:20 13.07.2019
5240 Rain 24 1001 94 6000 3 20 10:46 13.07.2019
5241 Rain 24 1001 88 10000 4 20 10:25 13.07.2019
5242 Rain 24 1001 88 10000 4 20 09:59 13.07.2019
5243 Rain 23 1000 94 10000 4 20 09:41 13.07.2019
5244 Rain 23 1000 94 8000 4 30 09:18 13.07.2019
5245 Rain 23 1001 94 7000 4 20 08:41 13.07.2019
5246 Rain 23 1001 94 7000 4 20 08:22 13.07.2019
5247 Rain 24 1001 94 5000 4 360 07:30 13.07.2019
5248 Rain 24 1001 94 10000 3 30 06:49 13.07.2019
5249 Rain 23 1001 94 10000 3 50 05:59 13.07.2019
5250 Rain 23 1001 94 10000 4 50 05:29 13.07.2019
5251 Rain 23 1001 94 10000 3 60 04:24 13.07.2019
5252 Rain 23 1001 94 10000 3 60 03:57 13.07.2019
5253 Rain 23 1001 100 10000 3 40 03:38 13.07.2019
5254 Rain 23 1001 94 10000 3 40 01:57 13.07.2019
5255 Rain 23 1001 94 8000 3 60 01:39 13.07.2019
5256 Rain 23 1001 94 7000 2 60 01:18 13.07.2019
5257 Rain 23 1001 94 10000 3 40 00:51 13.07.2019
5258 Rain 23 1001 94 10000 4 50 00:19 13.07.2019
5259 Rain 23 1000 94 10000 5 50 23:44 12.07.2019
5260 Rain 23 1000 94 10000 5 50 23:25 12.07.2019
5261 Rain 22 1000 94 10000 5 40 22:46 12.07.2019
5262 Rain 22 1000 94 10000 5 40 22:24 12.07.2019
5263 Rain 23 1000 94 7000 5 20 21:43 12.07.2019
5264 Rain 23 1000 94 7000 5 20 21:22 12.07.2019
5265 Rain 23 1000 94 10000 5 50 20:54 12.07.2019
5266 Rain 23 1000 100 10000 4 30 20:24 12.07.2019
5267 Rain 23 1000 100 10000 5 20 19:59 12.07.2019
5268 Rain 23 1000 94 10000 6 10 19:41 12.07.2019
5269 Rain 23 1000 94 10000 6 10 19:23 12.07.2019
5270 Rain 24 1001 100 6000 4 30 18:41 12.07.2019
5271 Rain 23 1001 100 4000 4 350 18:21 12.07.2019
5272 Rain 24 1002 94 8000 6 330 17:49 12.07.2019
5273 Rain 24 1002 94 8000 6 330 17:28 12.07.2019
5274 Rain 23 1002 94 10000 4 130 16:45 12.07.2019
5275 Rain 23 1002 94 8000 5 90 16:21 12.07.2019
5276 Rain 24 1002 94 8000 4 70 15:41 12.07.2019
5277 Rain 24 1003 100 4000 3 40 15:21 12.07.2019
5278 Rain 24 1003 100 4000 3 40 14:56 12.07.2019
5279 Rain 24 1003 100 6000 4 360 14:38 12.07.2019
5280 Rain 23 1003 94 6000 4 20 14:20 12.07.2019
5281 Rain 24 1003 94 6000 4 40 13:39 12.07.2019
5282 Rain 25 1003 94 7000 3 40 12:59 12.07.2019
5283 Rain 24 1003 94 7000 3 60 12:40 12.07.2019
5284 Rain 26 1003 88 7000 5 30 12:20 12.07.2019
5285 Rain 26 1003 94 7000 3 30 11:44 12.07.2019
5286 Rain 26 1003 94 6000 4 30 11:22 12.07.2019
5287 Rain 26 1004 88 7000 4 40 10:44 12.07.2019
5288 Rain 26 1004 88 7000 4 40 10:24 12.07.2019
5289 Rain 26 1004 88 7000 3 60 09:54 12.07.2019
5290 Rain 27 1004 88 7000 3 90 09:31 12.07.2019
5291 Rain 27 1005 88 7000 2 60 08:59 12.07.2019
5292 Rain 27 1005 88 10000 2 70 08:41 12.07.2019
5293 Rain 28 1005 83 10000 3 80 08:19 12.07.2019
5294 Rain 27 1005 83 10000 3 90 07:46 12.07.2019
5295 Rain 27 1005 83 10000 3 90 07:26 12.07.2019
5296 Rain 27 1006 83 10000 3 120 06:29 12.07.2019
5297 Rain 27 1006 83 8000 3 120 05:48 12.07.2019
5298 Clear 27 1007 78 10000 3 130 03:23 12.07.2019
5299 Clouds 27 1007 88 7000 4 120 01:43 12.07.2019
5300 Clouds 25 1007 88 7000 3 130 00:58 12.07.2019
5301 Mist 25 1007 88 7000 3 100 00:27 12.07.2019
5302 Mist 24 1007 94 7000 2 130 23:49 11.07.2019
5303 Mist 24 1007 94 7000 2 130 23:26 11.07.2019
5304 Clouds 24 1007 94 8000 2 90 22:58 11.07.2019
5305 Mist 24 1007 94 8000 2 100 22:39 11.07.2019
5306 Mist 24 1007 94 10000 2 140 22:20 11.07.2019
5307 Mist 24 1007 88 10000 2 120 21:41 11.07.2019
5308 Mist 24 1007 94 10000 3 150 21:19 11.07.2019
5309 Mist 24 1007 94 10000 3 150 20:54 11.07.2019
5310 Clear 24 1008 88 10000 3 130 20:36 11.07.2019
5311 Clear 24 1008 88 10000 3 160 20:18 11.07.2019
5312 Clear 24 1008 88 10000 3 150 19:43 11.07.2019
5313 Clear 25 1008 83 10000 3 150 19:22 11.07.2019
5314 Clear 25 1008 83 10000 4 140 18:43 11.07.2019
5315 Clear 25 1008 83 10000 4 150 18:25 11.07.2019
5316 Clear 25 1009 83 10000 3 150 17:53 11.07.2019
5317 Clear 25 1009 83 10000 3 150 17:31 11.07.2019
5318 Clear 25 1009 83 10000 3 140 16:58 11.07.2019
5319 Clear 25 1009 78 10000 4 110 16:40 11.07.2019
5320 Clear 25 1008 78 10000 4 130 16:19 11.07.2019
5321 Clear 25 1009 78 10000 4 140 15:43 11.07.2019
5322 Clear 26 1009 78 10000 4 140 15:24 11.07.2019
5323 Clouds 26 1008 78 10000 5 150 14:46 11.07.2019
5324 Clouds 26 1008 78 10000 5 150 14:25 11.07.2019
5325 Clouds 27 1008 74 10000 4 150 13:59 11.07.2019
5326 Clouds 26 1007 74 10000 4 160 13:41 11.07.2019
5327 Clouds 26 1007 69 10000 4 110 13:23 11.07.2019
5328 Clouds 27 1007 69 10000 3 110 12:38 11.07.2019
5329 Clouds 28 1007 69 10000 3 150 12:19 11.07.2019
5330 Clouds 28 1007 69 10000 4 150 11:45 11.07.2019
5331 Clouds 28 1007 69 10000 4 150 11:27 11.07.2019
5332 Clouds 28 1007 66 10000 3 150 10:52 11.07.2019
5333 Clouds 29 1007 66 10000 2 200 10:20 11.07.2019
5334 Clouds 29 1007 70 10000 3 190 09:53 11.07.2019
5335 Clouds 30 1007 70 10000 3 190 09:32 11.07.2019
5336 Clouds 28 1008 66 10000 3 0 08:59 11.07.2019
5337 Rain 29 1008 66 10000 2 0 08:39 11.07.2019
5338 Clouds 28 1008 69 10000 3 220 08:19 11.07.2019
5339 Clouds 28 1008 66 10000 3 190 07:43 11.07.2019
5340 Clouds 29 1008 66 10000 2 220 06:55 11.07.2019
5341 Clouds 29 1009 69 10000 2 220 06:18 11.07.2019
5342 Clouds 27 1009 65 10000 2 0 05:32 11.07.2019
5343 Clouds 29 1009 69 10000 2 220 04:56 11.07.2019
5344 Clouds 29 1009 74 10000 2 0 03:43 11.07.2019
5345 Clouds 26 1008 83 8000 1 0 02:20 11.07.2019
5346 Mist 25 1008 100 5000 1 140 00:33 11.07.2019
5347 Mist 23 1007 94 4000 2 20 23:50 10.07.2019
5348 Clear 22 1007 94 8000 1 10 23:24 10.07.2019
5349 Clear 22 1007 94 8000 1 10 22:57 10.07.2019
5350 Clear 22 1007 94 10000 2 20 22:25 10.07.2019
5351 Clouds 22 1007 94 10000 1 0 21:56 10.07.2019
5352 Clouds 23 1007 94 10000 1 270 21:38 10.07.2019
5353 Clouds 23 1007 94 10000 2 270 21:19 10.07.2019
5354 Clouds 23 1007 94 10000 2 250 20:44 10.07.2019
5355 Clouds 23 1007 94 10000 2 250 20:26 10.07.2019
5356 Clouds 23 1006 94 10000 2 230 19:56 10.07.2019
5357 Clouds 23 1007 94 10000 2 230 19:37 10.07.2019
5358 Clear 23 1007 94 10000 1 220 19:19 10.07.2019
5359 Clouds 23 1007 94 10000 1 0 18:44 10.07.2019
5360 Clouds 23 1007 94 10000 1.38 75.208 18:23 10.07.2019
5361 Clouds 23 1007 94 10000 1.38 75.208 18:23 10.07.2019
5362 Clouds 23 1007 94 10000 1 0 17:46 10.07.2019
5363 Clouds 23 1007 94 10000 1 0 17:27 10.07.2019
5364 Clouds 23 1006 94 10000 1 0 16:46 10.07.2019
5365 Clouds 23 1006 94 10000 2 10 16:21 10.07.2019
5366 Clouds 23 1006 94 10000 2 360 15:47 10.07.2019
5367 Clouds 24 1006 94 10000 2 360 15:25 10.07.2019
5368 Clouds 24 1006 94 10000 1 0 14:48 10.07.2019
5369 Clouds 24 1006 94 10000 1 0 14:28 10.07.2019
5370 Rain 23 1005 100 6000 2 60 13:54 10.07.2019
5371 Rain 24 1005 94 4000 1 70 13:23 10.07.2019
5372 Rain 24 1005 94 4000 1 70 12:59 10.07.2019
5373 Rain 24 1004 94 10000 1 0 12:39 10.07.2019
5374 Rain 24 1004 88 10000 1 0 12:20 10.07.2019
5375 Rain 24 1004 94 8000 2 50 11:47 10.07.2019
5376 Rain 24 1004 94 5000 4 10 11:21 10.07.2019
5377 Rain 25 1004 94 5000 4 10 10:56 10.07.2019
5378 Rain 24 1003 94 8000 4 360 10:23 10.07.2019
5379 Rain 25 1003 94 8000 5 360 09:45 10.07.2019
5380 Clouds 25 1003 78 10000 4 10 09:21 10.07.2019
5381 Clouds 25 1003 78 10000 4 10 08:55 10.07.2019
5382 Clouds 25 1003 83 10000 3 330 08:37 10.07.2019
5383 Clouds 25 1003 88 10000 3 360 08:18 10.07.2019
5384 Clouds 25 1003 88 10000 3 350 07:42 10.07.2019
5385 Rain 25 1003 94 10000 4 10 07:21 10.07.2019
5386 Rain 25 1003 83 10000 5 360 06:21 10.07.2019
5387 Rain 25 1003 88 10000 6 360 05:39 10.07.2019
5388 Clouds 24 1003 88 8000 5 360 04:29 10.07.2019
5389 Rain 23 1002 94 7000 4 10 01:25 10.07.2019
5390 Rain 23 1002 94 7000 4 360 00:42 10.07.2019
5391 Rain 21 1001 100 10000 5 360 23:42 09.07.2019
5392 Rain 21 1001 100 10000 5 360 23:22 09.07.2019
5393 Rain 22 1001 94 10000 4 10 22:43 09.07.2019
5394 Rain 21 1001 100 10000 4 360 22:24 09.07.2019
5395 Rain 21 1001 100 10000 4 360 21:59 09.07.2019
5396 Rain 21 1001 100 10000 3 10 21:40 09.07.2019
5397 Rain 21 1001 100 10000 3 10 21:22 09.07.2019
5398 Rain 21 1001 100 10000 4 10 20:43 09.07.2019
5399 Rain 21 1001 100 10000 4 10 20:24 09.07.2019
5400 Rain 21 1001 94 10000 5 40 19:42 09.07.2019
5401 Rain 22 1001 94 10000 5 20 19:24 09.07.2019
5402 Rain 22 1001 94 10000 4 40 18:47 09.07.2019
5403 Rain 22 1001 94 10000 4 40 18:25 09.07.2019
5404 Rain 22 1002 94 10000 4 40 17:57 09.07.2019
5405 Rain 22 1002 94 10000 4 40 17:37 09.07.2019
5406 Rain 22 1002 94 7000 4 30 17:19 09.07.2019
5407 Rain 22 1002 94 7000 3 50 16:47 09.07.2019
5408 Rain 22 1002 94 10000 4 30 16:24 09.07.2019
5409 Rain 22 1002 94 10000 5 50 15:50 09.07.2019
5410 Rain 23 1002 94 10000 5 50 15:31 09.07.2019
5411 Rain 23 1002 94 10000 5 40 14:57 09.07.2019
5412 Rain 22 1002 88 10000 5 50 14:39 09.07.2019
5413 Rain 22 1001 88 8000 6 50 14:18 09.07.2019
5414 Rain 22 1001 88 10000 4 50 13:43 09.07.2019
5415 Rain 22 1001 88 10000 5 70 13:22 09.07.2019
5416 Rain 22 1001 94 7000 4 60 12:40 09.07.2019
5417 Rain 22 1001 94 7000 4 60 12:40 09.07.2019
5418 Rain 22 1001 94 7000 4 60 12:22 09.07.2019
5419 Rain 22 1001 88 7000 5 60 11:58 09.07.2019
5420 Rain 22 1001 88 7000 5 60 11:38 09.07.2019
5421 Rain 22 1001 94 7000 4 40 11:20 09.07.2019
5422 Rain 23 1001 78 10000 4 60 10:49 09.07.2019
5423 Rain 23 1001 78 10000 4 60 10:30 09.07.2019
5424 Rain 23 1001 88 10000 4 70 09:41 09.07.2019
5425 Clouds 23 1001 83 10000 5 70 09:22 09.07.2019
5426 Rain 24 1002 83 10000 4 70 08:45 09.07.2019
5427 Rain 23 1002 88 8000 5 70 08:23 09.07.2019
5428 Rain 26 1003 78 10000 2 140 03:57 05.07.2019
5429 Rain 26 1003 83 10000 2 140 03:37 05.07.2019
5430 Rain 25 1003 78 10000 1 0 03:18 05.07.2019
5431 Clouds 25 1003 83 10000 3 160 02:37 05.07.2019
5432 Clouds 24 1002 83 8000 3 130 01:38 05.07.2019
5433 Rain 25 1002 83 7000 2 120 01:18 05.07.2019
5434 Clouds 25 1002 83 7000 3 110 00:40 05.07.2019
5435 Clouds 25 1002 83 7000 4 110 23:51 04.07.2019
5436 Clouds 25 1002 83 7000 3 90 23:21 04.07.2019
5437 Rain 25 1002 88 7000 2 90 22:44 04.07.2019
5438 Rain 24 1002 88 7000 2 90 22:24 04.07.2019
5439 Clouds 24 1003 83 8000 2 80 21:57 04.07.2019
5440 Clouds 24 1003 83 8000 2 90 21:39 04.07.2019
5441 Clouds 24 1003 83 10000 3 120 21:20 04.07.2019
5442 Clouds 24 1003 83 10000 3 140 20:40 04.07.2019
5443 Clouds 24 1003 83 10000 3 120 20:22 04.07.2019
5444 Clouds 24 1003 83 10000 3 120 19:56 04.07.2019
5445 Clouds 24 1003 83 10000 3 120 19:38 04.07.2019
5446 Clouds 24 1003 83 10000 3 130 19:20 04.07.2019
5447 Clouds 25 1004 83 10000 3 120 18:42 04.07.2019
5448 Clouds 25 1004 83 10000 4 130 18:24 04.07.2019
5449 Clouds 25 1004 83 10000 4 140 17:46 04.07.2019
5450 Clouds 25 1004 83 10000 4 140 17:19 04.07.2019
5451 Clouds 25 1005 83 10000 4 170 15:58 04.07.2019
5452 Clear 25 1005 83 10000 4 150 15:40 04.07.2019
5453 Clear 25 1005 83 10000 4 150 15:22 04.07.2019
5454 Clear 25 1005 73 10000 4 130 14:55 04.07.2019
5455 Clear 25 1005 73 10000 4 140 14:37 04.07.2019
5456 Clear 25 1005 73 10000 4 130 14:18 04.07.2019
5457 Clear 25 1005 73 10000 4 130 14:18 04.07.2019
5458 Clear 25 1005 73 10000 4 150 13:42 04.07.2019
5459 Clear 25 1005 69 10000 3 120 13:23 04.07.2019
5460 Clear 25 1005 69 10000 3 120 12:55 04.07.2019
5461 Clear 26 1005 69 10000 3 130 12:36 04.07.2019
5462 Clear 27 1005 69 10000 3 150 12:18 04.07.2019
5463 Clear 26 1005 65 10000 3 130 11:39 04.07.2019
5464 Clear 28 1005 65 10000 4 140 11:19 04.07.2019
5465 Clear 28 1005 65 10000 4 140 11:19 04.07.2019
5466 Clear 28 1005 65 10000 4 130 10:40 04.07.2019
5467 Clear 29 1005 61 10000 4 150 10:20 04.07.2019
5468 Clear 28 1005 61 10000 4 150 09:41 04.07.2019
5469 Clear 28 1005 61 10000 4 150 09:41 04.07.2019
5470 Clear 28 1005 61 10000 4 150 09:23 04.07.2019
5471 Clear 28 1006 61 10000 3 110 08:56 04.07.2019
5472 Clear 30 1006 51 10000 4 120 08:23 04.07.2019
5473 Clear 29 1006 61 10000 4 140 07:44 04.07.2019
5474 Clear 30 1006 62 10000 4 140 07:22 04.07.2019
5475 Clear 29 1006 58 10000 4 110 06:45 04.07.2019
5476 Clear 29 1007 61 10000 4 120 05:51 04.07.2019
5477 Clear 29 1007 61 10000 4 120 05:32 04.07.2019
5478 Clear 26 1007 73 10000 4 120 02:42 04.07.2019
5479 Clear 27 1008 78 10000 4 110 01:41 04.07.2019
5480 Clear 26 1007 78 10000 4 100 01:19 04.07.2019
5481 -273 0 0 0 0 0 23:56 03.07.2019
5482 Clear 23 1007 88 10000 2 110 23:36 03.07.2019
5483 Clear 23 1007 83 10000 3 110 23:18 03.07.2019
5484 Clear 23 1007 88 10000 2 100 22:39 03.07.2019
5485 Clear 23 1007 88 10000 2 100 22:21 03.07.2019
5486 Clear 23 1007 88 10000 2 100 21:56 03.07.2019
5487 Clouds 23 1007 88 10000 2 80 21:37 03.07.2019
5488 Clouds 23 1007 88 10000 2 80 21:37 03.07.2019
5489 Clouds 23 1007 83 10000 2 90 21:19 03.07.2019
5490 Clear 23 1007 83 10000 2 100 20:41 03.07.2019
5491 Clear 23 1007 83 10000 2 100 20:23 03.07.2019
5492 Clear 23 1007 83 10000 2 100 19:50 03.07.2019
5493 Clear 24 1007 83 10000 2 100 19:31 03.07.2019
5494 Clear 23 1007 83 10000 2 100 18:47 03.07.2019
5495 Clear 23 1007 83 10000 2 100 18:25 03.07.2019
5496 Clear 24 1007 83 10000 2 150 17:55 03.07.2019
5497 Clear 23 1007 83 10000 2 160 17:36 03.07.2019
5498 Clear 24 1008 83 10000 2 150 17:18 03.07.2019
5499 Clear 24 1008 83 10000 3 160 16:43 03.07.2019
5500 Clear 24 1008 78 10000 3 140 16:20 03.07.2019
5501 Clear 24 1008 78 10000 3 150 15:47 03.07.2019
5502 Clear 25 1008 78 10000 3 150 15:29 03.07.2019
5503 Clear 25 1007 69 10000 3 120 14:52 03.07.2019
5504 Clear 25 1007 69 10000 3 120 14:24 03.07.2019
5505 Clear 25 1007 65 10000 2 100 13:57 03.07.2019
5506 Clear 26 1007 65 10000 2 100 13:32 03.07.2019
5507 Clear 26 1006 69 10000 3 70 12:54 03.07.2019
5508 Clear 27 1006 65 10000 3 80 12:21 03.07.2019
5509 Clear 28 1006 65 10000 3 80 11:58 03.07.2019
5510 Clear 28 1006 65 10000 2 80 11:39 03.07.2019
5511 Clear 28 1006 62 10000 2 90 11:20 03.07.2019
5512 Clear 28 1006 61 10000 4 110 10:41 03.07.2019
5513 Clouds 29 1006 61 10000 4 70 10:22 03.07.2019
5514 Clouds 28 1006 62 10000 4 70 09:42 03.07.2019
5515 Clouds 28 1006 62 10000 5 60 09:21 03.07.2019
5516 Clouds 28 1007 62 10000 4 50 08:53 03.07.2019
5517 Clouds 28 1007 62 10000 4 50 08:32 03.07.2019
5518 Clouds 29 1006 62 10000 4 70 07:51 03.07.2019
5519 Clouds 29 1006 62 10000 4 70 07:33 03.07.2019
5520 Clouds 29 1007 65 10000 4 60 06:42 03.07.2019
5521 Clouds 26 1007 74 10000 4 40 05:44 03.07.2019
5522 Clouds 26 1007 78 10000 5 40 05:19 03.07.2019
5523 Clouds 26 1006 88 8000 5 40 03:30 03.07.2019
5524 Clouds 25 1006 94 8000 5 30 02:37 03.07.2019
5525 Clouds 24 1006 94 6000 5 40 01:22 03.07.2019
5526 Clouds 24 1006 94 6000 4 40 00:55 03.07.2019
5527 Clouds 24 1005 94 8000 5 20 00:36 03.07.2019
5528 Rain 24 1005 88 10000 4 40 23:46 02.07.2019
5529 Rain 24 1006 88 10000 2 70 23:20 02.07.2019
5530 Rain 24 1006 88 10000 2 70 22:59 02.07.2019
5531 Rain 24 1006 88 10000 2 70 22:40 02.07.2019
5532 Clouds 24 1006 88 10000 2 60 22:22 02.07.2019
5533 Clouds 24 1006 88 10000 3 70 21:47 02.07.2019
5534 Clouds 24 1006 88 10000 3 50 21:25 02.07.2019
5535 Clouds 25 1006 88 10000 3 50 20:59 02.07.2019
5536 Clouds 25 1006 88 10000 3 50 20:40 02.07.2019
5537 Clouds 24 1006 88 10000 3 70 20:22 02.07.2019
5538 Clouds 24 1007 88 10000 3 100 19:44 02.07.2019
5539 Clouds 24 1007 88 10000 3 100 19:24 02.07.2019
5540 Clouds 24 1007 88 10000 3 100 19:24 02.07.2019
5541 Clouds 24 1007 88 10000 3 100 18:58 02.07.2019
5542 Clouds 24 1007 88 10000 3 80 18:19 02.07.2019
5543 Clouds 25 1008 83 10000 3 90 17:58 02.07.2019
5544 Clouds 24 1008 83 10000 3 90 17:37 02.07.2019
5545 Clouds 24 1008 88 10000 4 110 17:19 02.07.2019
5546 Clear 24 1008 83 10000 4 100 16:43 02.07.2019
5547 Clear 24 1008 78 10000 5 110 16:25 02.07.2019
5548 Clear 24 1008 78 10000 4 90 15:40 02.07.2019
5549 Clear 24 1008 78 10000 4 100 15:21 02.07.2019
5550 Clouds 25 1008 78 10000 5 100 14:45 02.07.2019
5551 Clouds 25 1008 78 10000 3 110 14:25 02.07.2019
5552 Clouds 25 1008 78 10000 3 110 13:43 02.07.2019
5553 Clouds 25 1008 73 10000 5 110 13:19 02.07.2019
5554 Clouds 25 1008 73 10000 5 110 12:45 02.07.2019
5555 Clear 25 1007 69 10000 5 110 12:23 02.07.2019
5556 Clouds 26 1007 69 10000 4 100 11:45 02.07.2019
5557 Clouds 27 1007 69 10000 4 100 11:25 02.07.2019
5558 Clear 27 1007 69 10000 6 100 10:59 02.07.2019
5559 Clear 26 1008 69 10000 6 110 10:37 02.07.2019
5560 Clear 26 1008 61 10000 6 90 10:19 02.07.2019
5561 Clouds 28 1008 65 10000 5 80 09:37 02.07.2019
5562 Clouds 28 1008 65 10000 5 80 09:19 02.07.2019
5563 Clear 28 1008 65 10000 6 110 08:40 02.07.2019
5564 Rain 27 1008 65 10000 5 80 08:20 02.07.2019
5565 Rain 26 1008 65 10000 5 80 07:47 02.07.2019
5566 Rain 27 1009 74 10000 4 80 07:20 02.07.2019
5567 Clear 27 1009 69 10000 4 80 06:40 02.07.2019
5568 Clear 27 1009 78 10000 3 100 05:55 02.07.2019
5569 Clear 25 1009 88 10000 2 80 02:43 02.07.2019
5570 Clear 25 1008 88 10000 2 100 00:41 02.07.2019
5571 Clear 25 1007 83 10000 2 50 23:40 01.07.2019
5572 Clear 24 1007 88 10000 2 50 23:19 01.07.2019
5573 Clear 24 1007 83 10000 2 90 22:44 01.07.2019
5574 Clear 24 1007 88 10000 2 90 22:26 01.07.2019
5575 Clear 24 1007 88 10000 2 100 21:45 01.07.2019
5576 Clear 24 1007 88 10000 2 100 21:25 01.07.2019
5577 Clear 24 1007 78 10000 2 90 20:51 01.07.2019
5578 Clear 24 1007 83 10000 2 80 20:21 01.07.2019
5579 Clear 24 1007 83 10000 1 0 19:56 01.07.2019
5580 Clear 24 1007 83 10000 1 0 19:37 01.07.2019
5581 Clear 24 1007 83 10000 2 130 19:18 01.07.2019
5582 Clouds 24 1007 88 10000 2 100 18:44 01.07.2019
5583 Clouds 24 1008 88 10000 2 120 18:26 01.07.2019
5584 Rain 24 1008 88 10000 2 140 17:47 01.07.2019
5585 Rain 25 1008 88 10000 2 140 17:27 01.07.2019
5586 Rain 25 1008 88 10000 3 160 16:57 01.07.2019
5587 Rain 25 1008 88 10000 3 120 16:39 01.07.2019
5588 Clouds 25 1008 88 10000 3 130 16:21 01.07.2019
5589 Rain 25 1008 88 10000 2 120 15:44 01.07.2019
5590 Rain 25 1007 88 10000 2 100 15:23 01.07.2019
5591 Clouds 25 1007 88 10000 2 130 14:44 01.07.2019
5592 Rain 26 1007 73 10000 3 120 14:20 01.07.2019
5593 Clear 25 1007 73 10000 3 100 13:48 01.07.2019
5594 Rain 25 1007 73 10000 3 90 13:24 01.07.2019
5595 Rain 26 1007 73 10000 3 90 12:57 01.07.2019
5596 Rain 26 1006 73 10000 3 120 12:38 01.07.2019
5597 Clear 26 1006 69 10000 3 110 12:19 01.07.2019
5598 Clear 26 1006 74 10000 2 100 11:43 01.07.2019
5599 Clear 26 1006 74 10000 3 100 11:22 01.07.2019
5600 Clear 27 1006 74 10000 3 120 10:48 01.07.2019
5601 Clear 27 1006 74 10000 3 120 10:24 01.07.2019
5602 Clear 27 1006 69 10000 4 150 09:58 01.07.2019
5603 Clear 27 1006 69 10000 5 150 09:40 01.07.2019
5604 Clear 27 1006 69 10000 3 100 09:21 01.07.2019
5605 Clear 27 1006 69 10000 2 0 08:37 01.07.2019
5606 Rain 28 1006 74 10000 2 120 07:48 01.07.2019
5607 Rain 28 1006 74 10000 2 120 07:27 01.07.2019
5608 Rain 27 1006 83 10000 4 130 06:20 01.07.2019
5609 Rain 25 1005 94 7000 3 20 01:42 01.07.2019
5610 Rain 26 1004 94 10000 1 0 00:47 01.07.2019
5611 Rain 25 1004 94 10000 1 0 00:28 01.07.2019
5612 Rain 24 1004 94 10000 2 60 23:52 30.06.2019
5613 Rain 25 1003 94 10000 1 0 23:21 30.06.2019
5614 Rain 25 1003 94 10000 3 130 22:44 30.06.2019
5615 Rain 25 1003 94 10000 2 30 22:20 30.06.2019
5616 Rain 25 1003 94 10000 2 30 22:20 30.06.2019
5617 Rain 25 1003 94 10000 2 30 22:20 30.06.2019
5618 Rain 25 1003 88 10000 1 70 21:42 30.06.2019
5619 Rain 24 1003 94 10000 1 0 21:20 30.06.2019
5620 Rain 24 1003 94 10000 1 0 20:55 30.06.2019
5621 Rain 24 1003 88 10000 3 100 20:37 30.06.2019
5622 Clouds 24 1003 94 10000 4 140 20:18 30.06.2019
5623 Clouds 24 1003 88 10000 3 130 19:43 30.06.2019
5624 Clear 24 1003 88 10000 3 110 19:24 30.06.2019
5625 Clear 25 1003 88 10000 4 140 18:26 30.06.2019
5626 Clear 25 1004 88 10000 3 130 17:59 30.06.2019
5627 Clear 25 1004 88 10000 2 150 17:38 30.06.2019
5628 Clear 25 1004 88 10000 2 150 17:18 30.06.2019
5629 Clear 25 1004 88 10000 2 90 16:46 30.06.2019
5630 Clear 25 1003 88 10000 1 0 16:26 30.06.2019
5631 Clear 25 1003 88 10000 1 0 15:38 30.06.2019
5632 Clear 25 1004 88 10000 1 0 15:19 30.06.2019
5633 Clouds 25 1003 88 10000 2 200 14:50 30.06.2019
5634 Clouds 25 1003 88 10000 2 200 14:50 30.06.2019
5635 Clouds 25 1003 88 10000 2 200 14:30 30.06.2019
5636 Clear 25 1003 88 10000 3 140 13:48 30.06.2019
5637 Clear 25 1003 88 10000 3 140 13:29 30.06.2019
5638 Clouds 25 1002 83 10000 3 160 12:53 30.06.2019
5639 Clouds 26 1002 83 10000 3 160 12:28 30.06.2019
5640 Clouds 26 1003 83 10000 3 160 11:58 30.06.2019
5641 Clouds 27 1002 83 10000 3 140 11:38 30.06.2019
5642 Clouds 27 1002 83 10000 3 140 11:38 30.06.2019
5643 Clouds 27 1002 83 10000 3 140 11:19 30.06.2019
5644 Clouds 26 1002 83 10000 3 160 10:44 30.06.2019
5645 Clouds 26 1002 83 10000 4 150 10:20 30.06.2019
5646 Clouds 26 1002 83 10000 4 150 09:57 30.06.2019
5647 Clouds 26 1002 88 10000 4 150 09:37 30.06.2019
5648 Clouds 26 1002 88 10000 5 150 09:19 30.06.2019
5649 Clouds 27 1002 83 10000 3 140 08:40 30.06.2019
5650 Clouds 27 1002 88 10000 3 130 08:20 30.06.2019
5651 Rain 28 1002 88 10000 3 150 07:41 30.06.2019
5652 Rain 27 1002 94 10000 3 150 07:21 30.06.2019
5653 Rain 25 1003 94 10000 1 0 06:31 30.06.2019
5654 Rain 25 1002 88 10000 2 360 03:27 30.06.2019
5655 Rain 24 1001 100 4000 3 100 01:50 30.06.2019
5656 Rain 24 1001 100 4000 1 0 00:39 30.06.2019
5657 Rain 24 1000 100 2500 3 10 00:19 30.06.2019
5658 Rain 24 1000 100 5000 1 0 23:39 29.06.2019
5659 Rain 25 1000 100 3000 2 100 23:20 29.06.2019
5660 Rain 25 999 100 3000 2 130 22:42 29.06.2019
5661 Rain 25 999 94 3000 2 110 22:22 29.06.2019
5662 Rain 25 999 94 3000 2 110 21:54 29.06.2019
5663 Rain 25 999 94 4000 3 130 21:24 29.06.2019
5664 Rain 26 1000 94 6000 1 0 20:46 29.06.2019
5665 Rain 26 1000 94 6000 1 0 20:28 29.06.2019
5666 Rain 26 1000 94 8000 1 0 19:55 29.06.2019
5667 Rain 26 1000 94 8000 1 0 19:36 29.06.2019
5668 Rain 27 1000 94 8000 3 130 19:18 29.06.2019
5669 Rain 27 1000 88 10000 2 130 18:44 29.06.2019
5670 Rain 27 1001 88 10000 1 0 18:22 29.06.2019
5671 Rain 26 1001 88 10000 1 90 17:37 29.06.2019
5672 Rain 26 1001 88 10000 2 100 17:19 29.06.2019
5673 Rain 27 1001 88 10000 1 0 16:42 29.06.2019
5674 Clouds 27 1001 88 10000 3 10 15:59 29.06.2019
5675 Clear 27 1001 88 10000 3 350 15:31 29.06.2019
5676 Mist 27 1000 88 10000 2 300 14:46 29.06.2019
5677 Mist 27 1000 88 10000 2 300 14:27 29.06.2019
5678 Mist 27 1000 88 10000 2 300 14:27 29.06.2019
5679 Mist 27 1000 88 10000 2 300 14:27 29.06.2019
5680 Rain 27 1000 88 10000 3 290 13:54 29.06.2019
5681 Rain 27 999 88 10000 3 270 13:27 29.06.2019
5682 Rain 27 999 88 10000 3 320 12:59 29.06.2019
5683 Rain 27 999 94 8000 3 310 12:38 29.06.2019
5684 Rain 27 998 88 8000 3 300 12:20 29.06.2019
5685 Rain 27 998 88 8000 4 330 11:42 29.06.2019
5686 Rain 27 998 94 8000 3 320 11:23 29.06.2019
5687 Rain 28 998 88 8000 4 280 10:49 29.06.2019
5688 Rain 28 998 88 8000 5 300 10:21 29.06.2019
5689 Rain 28 998 88 8000 5 300 09:55 29.06.2019
5690 Rain 28 997 94 8000 3 0 08:55 29.06.2019
5691 Rain 28 997 94 8000 3 0 08:30 29.06.2019
5692 Thunderstorm 30 997 94 6000 4 260 07:45 29.06.2019
5693 Rain 31 997 79 8000 5 290 06:49 29.06.2019
5694 Rain 31 997 70 10000 4 0 06:25 29.06.2019
5695 Clear 33 996 66 10000 5 220 03:55 29.06.2019
5696 Clouds 30 996 88 7000 3 190 01:42 29.06.2019
5697 Clouds 30 996 88 7000 3 190 01:42 29.06.2019
5698 Rain 28 996 88 7000 3 180 00:32 29.06.2019
5699 Rain 28 995 88 7000 3 170 23:38 28.06.2019
5700 Rain 28 996 88 7000 2 170 23:20 28.06.2019
5701 Rain 28 995 88 7000 2 180 22:46 28.06.2019
5702 Clear 28 995 88 10000 3 190 21:58 28.06.2019
5703 Clear 28 995 88 10000 4 190 21:27 28.06.2019
5704 Clear 28 996 88 10000 3 170 20:55 28.06.2019
5705 Clear 28 996 88 10000 3 170 20:37 28.06.2019
5706 Clear 28 996 83 10000 3 170 20:18 28.06.2019
5707 Clear 29 996 83 10000 4 160 19:37 28.06.2019
5708 Clear 28 996 83 10000 5 150 19:19 28.06.2019
5709 Clear 28 996 79 10000 5 150 18:41 28.06.2019
5710 Clear 28 997 79 10000 4 150 18:21 28.06.2019
5711 Clear 29 997 79 10000 4 140 17:38 28.06.2019
5712 Clear 29 998 79 10000 3 160 17:18 28.06.2019
5713 Clear 29 998 74 10000 4 150 16:41 28.06.2019
5714 Clear 28 999 70 10000 4 150 16:18 28.06.2019
5715 Clear 29 999 66 10000 4 150 15:39 28.06.2019
5716 Clear 29 999 66 10000 4 150 15:18 28.06.2019
5717 Clear 29 999 66 10000 3 160 14:39 28.06.2019
5718 Clear 30 998 62 10000 5 160 14:21 28.06.2019
5719 Clear 30 998 59 10000 5 150 13:45 28.06.2019
5720 Clear 30 998 59 10000 5 150 13:25 28.06.2019
5721 Clear 31 998 55 10000 4 150 12:50 28.06.2019
5722 Clear 31 998 55 10000 4 150 12:31 28.06.2019
5723 Clear 33 998 56 10000 4 190 11:29 28.06.2019
5724 Clear 33 997 52 10000 4 200 10:47 28.06.2019
5725 Clear 33 998 52 10000 4 220 10:23 28.06.2019
5726 Clear 34 998 52 10000 4 220 10:00 28.06.2019
5727 Clear 34 998 52 10000 4 210 09:41 28.06.2019
5728 Clouds 35 998 56 10000 4 210 09:22 28.06.2019
5729 Clouds 35 998 59 10000 3 180 08:42 28.06.2019
5730 Clouds 34 999 59 10000 4 190 08:23 28.06.2019
5731 Clouds 34 999 59 10000 5 150 07:42 28.06.2019
5732 Clear 34 999 59 10000 4 130 06:49 28.06.2019
5733 Clear 33 1000 66 10000 3 160 03:35 28.06.2019
5734 Mist 28 1001 83 7000 3 150 00:46 28.06.2019
5735 Mist 25 1000 88 7000 3 130 23:59 27.06.2019
5736 Mist 24 1000 88 7000 2 140 23:41 27.06.2019
5737 Clouds 24 1001 88 6000 2 100 23:22 27.06.2019
5738 Clouds 24 1001 94 6000 3 140 22:43 27.06.2019
5739 Clouds 24 1001 94 6000 3 140 22:24 27.06.2019
5740 Clouds 24 1001 88 6000 2 120 21:57 27.06.2019
5741 Clouds 24 1001 94 6000 2 120 21:38 27.06.2019
5742 Mist 24 1001 94 6000 3 140 21:19 27.06.2019
5743 Mist 24 1001 94 7000 4 130 20:45 27.06.2019
5744 Mist 24 1001 94 7000 4 130 20:26 27.06.2019
5745 Mist 24 1001 94 8000 3 130 19:46 27.06.2019
5746 Mist 24 1001 88 10000 4 130 19:27 27.06.2019
5747 Mist 24 1002 88 10000 3 120 18:44 27.06.2019
5748 Mist 25 1002 88 10000 3 120 18:26 27.06.2019
5749 Clear 25 1002 83 10000 4 130 17:47 27.06.2019
5750 Clear 25 1002 83 10000 3 120 17:23 27.06.2019
5751 Clear 25 1002 83 10000 3 120 16:55 27.06.2019
5752 Clouds 25 1002 83 10000 5 130 16:36 27.06.2019
5753 Clouds 25 1002 83 10000 4 120 16:18 27.06.2019
5754 Clouds 26 1002 78 10000 4 120 15:44 27.06.2019
5755 Clouds 26 1002 78 10000 5 130 15:18 27.06.2019
5756 Clouds 26 1001 78 10000 4 130 14:42 27.06.2019
5757 Clouds 26 1001 78 10000 5 130 14:24 27.06.2019
5758 Clouds 26 1001 74 10000 5 120 13:46 27.06.2019
5759 Clouds 26 1001 74 10000 5 120 13:27 27.06.2019
5760 Clouds 27 1000 74 10000 4 110 12:51 27.06.2019
5761 Clouds 27 1000 74 10000 4 110 12:33 27.06.2019
5762 Clouds 28 1000 70 10000 4 110 11:55 27.06.2019
5763 Clouds 28 1000 70 10000 4 110 11:36 27.06.2019
5764 Clouds 28 1000 70 10000 5 90 11:18 27.06.2019
5765 Clouds 28 1000 66 10000 5 70 10:42 27.06.2019
5766 Clouds 28 1000 70 10000 4 50 10:20 27.06.2019
5767 Clouds 28 1000 52 10000 3 210 09:49 27.06.2019
5768 Clouds 29 1000 52 10000 1 0 09:21 27.06.2019
5769 Clouds 29 1000 51 10000 2 240 08:50 27.06.2019
5770 Clouds 29 1000 51 10000 2 240 08:29 27.06.2019
5771 Clouds 30 1001 55 10000 3 0 07:48 27.06.2019
5772 Clouds 30 1001 55 10000 2 0 06:59 27.06.2019
5773 Clouds 31 1001 58 10000 1 0 06:37 27.06.2019
5774 Clouds 27 1002 83 7000 2 0 03:52 27.06.2019
5775 Mist 25 1002 88 6000 2 0 02:43 27.06.2019
5776 Mist 25 1002 94 6000 1 0 01:39 27.06.2019
5777 Mist 25 1002 94 6000 1 0 00:52 27.06.2019
5778 Mist 23 1002 94 6000 1 0 00:26 27.06.2019
5779 Mist 23 1002 100 4000 1 240 23:51 26.06.2019
5780 Rain 23 1002 100 4000 2 230 23:23 26.06.2019
5781 Rain 23 1002 100 4000 2 230 23:23 26.06.2019
5782 Rain 23 1002 100 4000 2 230 22:58 26.06.2019
5783 Rain 23 1002 100 4000 2 230 22:40 26.06.2019
5784 Rain 23 1001 100 4000 2 220 22:19 26.06.2019
5785 Rain 23 1001 100 4000 2 220 22:19 26.06.2019
5786 Rain 23 1001 100 4000 2 210 21:42 26.06.2019
5787 Rain 23 1001 100 4000 1 0 21:21 26.06.2019
5788 Rain 23 1001 100 4000 1 0 20:57 26.06.2019
5789 Rain 23 1001 100 3000 2 170 20:37 26.06.2019
5790 Rain 23 1002 100 4000 2 180 20:18 26.06.2019
5791 Rain 23 1002 100 5000 2 160 19:41 26.06.2019
5792 Rain 23 1002 100 5000 2 160 19:23 26.06.2019
5793 Rain 23 1002 100 6000 2 120 18:45 26.06.2019
5794 Clouds 24 1003 94 10000 2 120 18:22 26.06.2019
5795 Clouds 24 1003 94 10000 2 120 17:57 26.06.2019
5796 Clouds 23 1003 94 10000 2 100 17:28 26.06.2019
5797 Rain 23 1003 94 10000 2 100 16:57 26.06.2019
5798 Rain 23 1004 94 10000 1 100 16:39 26.06.2019
5799 Rain 24 1003 94 10000 2 100 16:19 26.06.2019
5800 Rain 24 1004 94 10000 2 100 15:30 26.06.2019
5801 Rain 23 1003 94 10000 2 100 14:58 26.06.2019
5802 Rain 23 1003 94 10000 2 90 14:38 26.06.2019
5803 Rain 23 1003 94 10000 2 90 14:37 26.06.2019
5804 Rain 24 1003 94 10000 2 120 14:19 26.06.2019
5805 Rain 24 1003 94 10000 2 130 13:41 26.06.2019
5806 Clouds 24 1003 94 10000 2 160 13:19 26.06.2019
5807 Rain 24 1003 94 8000 2 150 12:41 26.06.2019
5808 Rain 24 1003 94 8000 2 150 12:41 26.06.2019
5809 Rain 25 1003 94 6000 2 110 12:21 26.06.2019
5810 Rain 24 1003 94 6000 2 110 11:42 26.06.2019
5811 Rain 25 1003 94 6000 2 90 11:19 26.06.2019
5812 Rain 25 1003 94 7000 2 150 10:41 26.06.2019
5813 Rain 26 1003 94 8000 3 110 10:21 26.06.2019
5814 Rain 26 1003 94 7000 3 110 09:37 26.06.2019
5815 Rain 26 1003 94 5000 2 130 09:18 26.06.2019
5816 Rain 25 1004 94 5000 2 130 08:39 26.06.2019
5817 Rain 25 1004 94 5000 4 140 08:19 26.06.2019
5818 Rain 26 1004 94 5000 3 130 07:43 26.06.2019
5819 Rain 26 1005 78 10000 5 150 06:34 26.06.2019
5820 Clouds 24 1006 88 10000 3 130 03:52 26.06.2019
5821 Rain 22 1006 100 1500 4 110 00:45 26.06.2019
5822 Rain 21 1006 100 1500 3 140 00:19 26.06.2019
5823 Rain 21 1006 94 4000 2 160 23:39 25.06.2019
5824 Rain 21 1006 88 10000 4 100 23:20 25.06.2019
5825 Rain 22 1006 94 10000 3 90 22:43 25.06.2019
5826 Rain 22 1006 88 10000 3 100 22:24 25.06.2019
5827 Rain 22 1006 88 10000 4 140 21:51 25.06.2019
5828 Rain 23 1006 88 10000 4 140 21:28 25.06.2019
5829 Clouds 23 1006 83 10000 3 130 20:59 25.06.2019
5830 Clouds 22 1006 83 10000 4 130 20:38 25.06.2019
5831 Clear 22 1007 83 10000 3 130 20:19 25.06.2019
5832 Clear 22 1007 83 10000 3 110 19:45 25.06.2019
5833 Clear 23 1008 83 10000 2 140 19:22 25.06.2019
5834 Clear 22 1008 83 10000 3 130 18:43 25.06.2019
5835 Clear 22 1008 78 10000 4 130 18:25 25.06.2019
5836 Clear 22 1008 78 10000 4 130 18:25 25.06.2019
5837 -273 0 0 0 0 0 17:49 25.06.2019
5838 -273 0 0 0 0 0 17:49 25.06.2019
5839 -273 0 0 0 0 0 17:28 25.06.2019
5840 -273 0 0 0 0 0 17:28 25.06.2019
5841 Clear 22 1009 78 10000 3 130 16:55 25.06.2019
5842 Clear 22 1009 78 10000 3 130 16:55 25.06.2019
5843 Clear 23 1010 73 10000 3 160 16:37 25.06.2019
5844 Clear 24 1009 73 10000 3 130 16:18 25.06.2019
5845 Clouds 23 1009 78 10000 4 120 15:39 25.06.2019
5846 Clouds 24 1009 78 10000 6 120 15:20 25.06.2019
5847 Clouds 24 1009 78 10000 6 120 15:20 25.06.2019
5848 Clouds 23 1009 78 10000 5 130 14:50 25.06.2019
5849 Clouds 24 1009 78 10000 5 130 14:31 25.06.2019
5850 Clouds 24 1009 83 10000 5 130 13:43 25.06.2019
5851 Clouds 23 1009 78 10000 4 120 13:24 25.06.2019
5852 Clouds 24 1009 83 10000 5 130 12:43 25.06.2019
5853 Clouds 25 1009 83 10000 5 120 12:24 25.06.2019
5854 Clouds 25 1009 83 10000 5 120 12:24 25.06.2019
5855 Clouds 25 1009 88 10000 5 130 11:46 25.06.2019
5856 Rain 25 1009 88 8000 6 130 11:25 25.06.2019
5857 Rain 25 1009 88 8000 6 130 10:58 25.06.2019
5858 -273 0 0 0 0 0 10:57 25.06.2019
5859 Clouds 25 1009 88 8000 4 130 10:37 25.06.2019
5860 Rain 25 1009 88 6000 4 110 10:18 25.06.2019
5861 Rain 25 1009 88 4000 2 80 09:39 25.06.2019
5862 Rain 25 1009 83 4000 4 110 09:21 25.06.2019
5863 Clouds 26 1009 69 10000 4 110 08:52 25.06.2019
5864 Clouds 26 1009 69 10000 4 110 08:31 25.06.2019
5865 Clouds 26 1009 69 10000 6 130 07:44 25.06.2019
5866 Clouds 26 1009 69 10000 7 120 07:24 25.06.2019
5867 Clouds 26 1009 65 10000 7 140 06:44 25.06.2019
5868 Clouds 27 1010 65 10000 6 140 05:48 25.06.2019
5869 Clouds 25 1011 73 10000 5 110 02:37 25.06.2019
5870 Clouds 25 1011 78 10000 5 120 00:38 25.06.2019
5871 Clouds 22 1010 83 10000 5 120 00:19 25.06.2019
5872 Clouds 22 1011 83 10000 4 110 23:51 24.06.2019
5873 Clouds 22 1011 83 10000 4 110 23:32 24.06.2019
5874 Clouds 22 1011 83 10000 4 110 22:46 24.06.2019
5875 Clouds 22 1011 83 10000 4 110 22:19 24.06.2019
5876 Clouds 21 1011 83 10000 4 130 21:43 24.06.2019
5877 Clouds 21 1011 83 10000 4 130 21:20 24.06.2019
5878 Clouds 21 1011 83 10000 4 130 21:20 24.06.2019
5879 Clouds 21 1011 83 10000 4 130 20:59 24.06.2019
5880 Clouds 21 1011 83 10000 4 120 20:40 24.06.2019
5881 Clouds 22 1011 83 10000 4 130 20:22 24.06.2019
5882 Clouds 22 1011 83 10000 5 130 19:47 24.06.2019
5883 Clouds 22 1011 83 10000 5 130 19:25 24.06.2019
5884 Clouds 22 1012 73 10000 6 130 18:54 24.06.2019
5885 Clouds 22 1012 73 10000 6 130 18:30 24.06.2019
5886 Clouds 23 1012 73 10000 5 140 17:58 24.06.2019
5887 Clouds 23 1012 73 10000 6 130 17:36 24.06.2019
5888 Clear 23 1012 73 10000 7 130 16:56 24.06.2019
5889 Clear 23 1012 73 10000 7 130 16:37 24.06.2019
5890 Clear 23 1012 73 10000 8 130 16:18 24.06.2019
5891 Clear 23 1012 69 10000 7 130 15:39 24.06.2019
5892 Clear 23 1011 69 10000 9 130 15:20 24.06.2019
5893 Clear 24 1011 60 10000 8 140 14:34 24.06.2019
5894 Clear 24 1011 64 10000 6 130 13:54 24.06.2019
5895 Clear 24 1011 64 10000 6 130 13:31 24.06.2019
5896 Clouds 26 1011 54 10000 7 120 12:45 24.06.2019
5897 Clouds 27 1011 54 10000 7 120 12:26 24.06.2019
5898 Clouds 27 1011 57 10000 7 120 11:58 24.06.2019
5899 Clouds 27 1011 57 10000 7 120 11:58 24.06.2019
5900 Clouds 28 1011 54 10000 8 130 11:40 24.06.2019
5901 Clouds 28 1010 48 10000 7 130 11:20 24.06.2019
5902 Clouds 27 1010 48 10000 7 140 10:46 24.06.2019
5903 Clouds 28 1010 48 10000 7 140 10:25 24.06.2019
5904 Clouds 28 1010 45 10000 7 130 09:49 24.06.2019
5905 Clouds 29 1010 45 10000 7 130 09:22 24.06.2019
5906 Clouds 28 1011 48 10000 7 120 08:51 24.06.2019
5907 Clouds 28 1011 48 10000 6 140 08:25 24.06.2019
5908 Clouds 28 1011 48 10000 6 140 08:25 24.06.2019
5909 Clouds 29 1011 51 10000 6 120 07:44 24.06.2019
5910 Clouds 28 1011 48 10000 6 130 07:25 24.06.2019
5911 Clouds 29 1011 48 10000 6 140 06:31 24.06.2019
5912 Clouds 27 1011 57 10000 5 160 05:57 24.06.2019
5913 Clouds 29 1012 57 10000 5 150 04:59 24.06.2019
5914 Clouds 29 1012 57 10000 6 140 04:21 24.06.2019
5915 Clouds 24 1011 69 10000 5 140 02:53 24.06.2019
5916 Clouds 24 1011 73 10000 4 120 01:58 24.06.2019
5917 Clear 26 1011 78 10000 5 130 01:40 24.06.2019
5918 Clear 25 1011 83 10000 5 120 01:21 24.06.2019
5919 Clear 25 1011 83 10000 4 130 00:38 24.06.2019
5920 Clear 21 1011 83 10000 3 130 00:18 24.06.2019
5921 Clear 21 1011 83 10000 3 130 23:42 23.06.2019
5922 Clear 21 1010 88 10000 3 140 23:21 23.06.2019
5923 Clear 21 1010 83 10000 4 130 22:42 23.06.2019
5924 Clear 21 1010 83 10000 3 130 22:20 23.06.2019
5925 Clear 21 1010 83 10000 4 130 21:43 23.06.2019
5926 Clear 22 1010 83 10000 4 130 21:25 23.06.2019
5927 Clear 21 1010 83 10000 3 130 20:52 23.06.2019
5928 Clear 21 1010 83 10000 3 130 20:32 23.06.2019
5929 Clear 21 1010 83 10000 3 120 19:58 23.06.2019
5930 Clear 21 1010 83 10000 3 120 19:57 23.06.2019
5931 Clear 21 1010 83 10000 4 120 19:39 23.06.2019
5932 Clear 22 1010 83 10000 4 120 19:19 23.06.2019
5933 Clear 23 1010 78 10000 3 130 18:44 23.06.2019
5934 Clear 23 1010 78 10000 4 120 18:20 23.06.2019
5935 Clear 22 1010 78 10000 4 120 17:44 23.06.2019
5936 Clear 22 1010 78 10000 5 110 17:24 23.06.2019
5937 Clear 23 1010 78 10000 4 110 16:45 23.06.2019
5938 Clear 23 1010 78 10000 4 110 16:25 23.06.2019
5939 Clear 23 1010 78 10000 3 100 15:54 23.06.2019
5940 Clear 23 1010 73 10000 3 90 15:36 23.06.2019
5941 Clear 24 1010 69 10000 4 110 15:18 23.06.2019
5942 Clear 24 1009 69 10000 4 100 14:38 23.06.2019
5943 Clear 24 1009 65 10000 4 110 14:20 23.06.2019
5944 Clouds 24 1009 65 10000 4 100 13:43 23.06.2019
5945 Clouds 25 1009 61 10000 3 90 13:21 23.06.2019
5946 Clouds 25 1009 61 10000 3 90 12:58 23.06.2019
5947 Clouds 26 1008 57 10000 4 80 12:39 23.06.2019
5948 Clouds 26 1008 54 10000 4 70 12:19 23.06.2019
5949 Clouds 26 1008 54 10000 4 50 11:45 23.06.2019
5950 Clouds 27 1008 54 10000 4 50 11:25 23.06.2019
5951 Clouds 27 1008 51 10000 4 50 10:48 23.06.2019
5952 Clouds 28 1007 48 10000 5 80 10:21 23.06.2019
5953 Clouds 28 1007 48 10000 5 80 09:57 23.06.2019
5954 Clouds 28 1007 51 10000 5 50 09:22 23.06.2019
5955 Clouds 27 1008 48 10000 5 50 08:46 23.06.2019
5956 Clouds 28 1008 48 10000 5 70 08:27 23.06.2019
5957 Clouds 29 1008 54 10000 5 30 07:55 23.06.2019
5958 Clouds 29 1008 51 10000 5 20 07:25 23.06.2019
5959 Clouds 29 1008 54 10000 5 40 06:59 23.06.2019
5960 Clouds 29 1008 54 10000 5 40 06:40 23.06.2019
5961 Clouds 28 1008 57 10000 4 60 04:53 23.06.2019
5962 Clouds 24 1008 64 10000 3 50 02:32 23.06.2019
5963 Clouds 25 1008 73 10000 4 10 01:39 23.06.2019
5964 Clouds 24 1007 88 10000 3 350 00:47 23.06.2019
5965 Clouds 21 1007 88 10000 3 360 00:26 23.06.2019
5966 Clouds 21 1007 93 10000 2 360 23:42 22.06.2019
5967 Clouds 20 1007 93 10000 2 360 23:24 22.06.2019
5968 Clouds 20 1006 88 10000 2 360 22:46 22.06.2019
5969 Clouds 20 1006 88 10000 2 10 22:24 22.06.2019
5970 Clouds 20 1006 88 10000 2 10 21:42 22.06.2019
5971 Clouds 21 1006 88 10000 3 360 21:20 22.06.2019
5972 Clouds 21 1006 83 10000 3 40 20:53 22.06.2019
5973 Clouds 21 1006 83 10000 3 40 20:27 22.06.2019
5974 Clear 21 1006 77 10000 2 50 19:58 22.06.2019
5975 Clear 21 1006 77 10000 4 30 19:39 22.06.2019
5976 Clouds 21 1006 77 10000 3 40 19:19 22.06.2019
5977 Clouds 21 1006 83 10000 3 40 18:41 22.06.2019
5978 Clouds 21 1007 83 10000 4 30 18:19 22.06.2019
5979 Clear 21 1007 78 10000 4 30 17:40 22.06.2019
5980 Clear 21 1007 78 10000 4 20 17:22 22.06.2019
5981 Clouds 22 1007 73 10000 4 20 16:39 22.06.2019
5982 Clouds 22 1007 73 10000 4 30 16:21 22.06.2019
5983 Clouds 22 1007 73 10000 3 50 15:41 22.06.2019
5984 Clouds 22 1007 73 10000 3 50 15:41 22.06.2019
5985 Clouds 23 1007 69 10000 4 60 15:23 22.06.2019
5986 Clouds 23 1006 69 10000 4 70 14:46 22.06.2019
5987 Clouds 24 1006 69 10000 4 70 14:28 22.06.2019
5988 Clouds 23 1006 69 10000 3 40 13:44 22.06.2019
5989 Clouds 25 1006 65 10000 3 60 13:25 22.06.2019
5990 Clouds 25 1006 65 10000 3 60 13:25 22.06.2019
5991 Clouds 25 1006 65 10000 3 70 12:54 22.06.2019
5992 Clouds 25 1006 65 10000 3 70 12:35 22.06.2019
5993 Clouds 26 1006 65 10000 3 50 11:59 22.06.2019
5994 Clouds 26 1006 69 10000 3 80 11:34 22.06.2019
5995 Clouds 26 1006 73 10000 4 50 10:54 22.06.2019
5996 Rain 26 1006 69 10000 4 50 10:21 22.06.2019
5997 Rain 26 1006 69 10000 4 50 10:21 22.06.2019
5998 Rain 26 1006 69 10000 4 50 09:55 22.06.2019
5999 Clouds 26 1005 65 10000 5 50 09:23 22.06.2019
6000 Clouds 26 1005 65 10000 5 60 08:43 22.06.2019
6001 Clouds 27 1005 61 10000 5 40 08:23 22.06.2019
6002 Clouds 27 1005 61 10000 4 50 07:33 22.06.2019
6003 Clouds 28 1006 58 10000 4 50 06:55 22.06.2019
6004 Clouds 27 1006 61 10000 3 50 05:22 22.06.2019
6005 Clouds 25 1006 73 10000 3 50 02:33 22.06.2019
6006 Clouds 25 1006 83 10000 2 60 01:19 22.06.2019
6007 Clouds 24 1006 83 10000 2 60 00:39 22.06.2019
6008 Clouds 22 1006 83 10000 2 60 00:19 22.06.2019
6009 Clouds 22 1006 83 10000 1 60 23:42 21.06.2019
6010 Clouds 22 1006 83 10000 1 80 23:21 21.06.2019
6011 Clouds 21 1006 88 10000 2 60 22:47 21.06.2019
6012 Clouds 21 1006 88 10000 2 60 22:47 21.06.2019
6013 Clouds 21 1006 83 10000 2 70 22:23 21.06.2019
6014 Clouds 21 1006 83 10000 2 80 21:40 21.06.2019
6015 Clouds 22 1006 83 10000 2 70 21:22 21.06.2019
6016 Clouds 22 1006 83 10000 3 70 20:53 21.06.2019
6017 Clouds 22 1006 83 10000 3 70 20:27 21.06.2019
6018 Clouds 22 1006 88 10000 4 50 19:58 21.06.2019
6019 Clear 22 1006 83 10000 1 0 19:30 21.06.2019
6020 Clear 22 1006 83 10000 3 40 18:46 21.06.2019
6021 Clear 22 1006 83 10000 3 40 18:28 21.06.2019
6022 Clear 22 1006 78 10000 3 50 17:45 21.06.2019
6023 Clear 22 1006 78 10000 3 50 17:27 21.06.2019
6024 Clouds 23 1006 78 10000 3 60 16:38 21.06.2019
6025 Clouds 23 1007 83 10000 3 40 16:19 21.06.2019
6026 Clouds 23 1006 78 10000 3 50 15:39 21.06.2019
6027 Clouds 23 1006 78 10000 3 50 15:19 21.06.2019
6028 Clouds 24 1006 73 10000 3 60 14:45 21.06.2019
6029 Clouds 24 1005 73 10000 3 80 14:25 21.06.2019
6030 Clouds 24 1005 73 10000 4 60 13:44 21.06.2019
6031 Clouds 25 1005 73 10000 4 80 13:25 21.06.2019
6032 Clouds 24 1005 73 10000 4 80 12:54 21.06.2019
6033 Clouds 26 1004 69 10000 5 70 12:23 21.06.2019
6034 Clouds 26 1004 69 10000 5 70 11:59 21.06.2019
6035 Clouds 26 1004 69 10000 5 60 11:40 21.06.2019
6036 Clouds 26 1004 65 10000 5 60 11:22 21.06.2019
6037 Clouds 27 1004 65 10000 5 70 10:47 21.06.2019
6038 Clouds 28 1004 65 10000 4 70 10:21 21.06.2019
6039 Clouds 28 1004 65 10000 4 70 10:21 21.06.2019
6040 Clouds 27 1004 65 10000 4 70 09:55 21.06.2019
6041 Clouds 27 1004 69 10000 4 80 09:36 21.06.2019
6042 Clouds 26 1004 74 10000 4 60 09:18 21.06.2019
6043 Clouds 26 1004 74 10000 4 90 08:41 21.06.2019
6044 Clouds 26 1004 74 10000 4 110 08:20 21.06.2019
6045 Clouds 27 1004 78 10000 3 120 07:46 21.06.2019
6046 Clouds 27 1004 83 10000 3 90 07:22 21.06.2019
6047 Clouds 27 1004 83 10000 4 90 06:38 21.06.2019
6048 Clouds 24 1004 88 10000 4 100 06:18 21.06.2019
6049 Rain 23 1004 94 10000 4 80 04:53 21.06.2019
6050 Rain 24 1004 88 10000 5 100 03:49 21.06.2019
6051 Rain 24 1004 88 10000 5 100 03:30 21.06.2019
6052 Mist 22 1004 88 10000 5 100 02:42 21.06.2019
6053 Clouds 22 1004 88 10000 4 90 01:32 21.06.2019
6054 Clouds 22 1003 94 10000 4 90 00:48 21.06.2019
6055 Clouds 22 1004 94 10000 3 80 23:59 20.06.2019
6056 Clouds 21 1003 94 10000 4 90 23:40 20.06.2019
6057 Rain 21 1003 94 10000 4 80 23:20 20.06.2019
6058 Rain 22 1004 94 10000 4 80 22:44 20.06.2019
6059 Rain 22 1003 100 8000 4 90 22:23 20.06.2019
6060 Rain 21 1003 100 8000 4 90 21:56 20.06.2019
6061 Rain 21 1003 94 3500 4 70 21:38 20.06.2019
6062 Rain 21 1003 94 3800 3 40 21:19 20.06.2019
6063 Rain 22 1003 94 4500 4 70 20:41 20.06.2019
6064 Rain 22 1003 94 5000 4 80 20:23 20.06.2019
6065 Rain 22 1003 94 6000 4 90 19:45 20.06.2019
6066 Mist 23 1004 88 6000 4 100 19:19 20.06.2019
6067 Mist 23 1004 88 6000 4 100 18:58 20.06.2019
6068 Rain 23 1004 88 6000 3 100 18:40 20.06.2019
6069 Rain 23 1004 94 6000 4 100 18:21 20.06.2019
6070 Rain 23 1004 94 6000 4 110 17:46 20.06.2019
6071 Rain 23 1005 94 6000 3 120 17:27 20.06.2019
6072 Rain 23 1005 94 7000 3 120 16:44 20.06.2019
6073 Rain 23 1005 94 7000 4 120 16:19 20.06.2019
6074 Rain 23 1005 94 7000 4 120 15:56 20.06.2019
6075 Rain 23 1005 94 7000 4 120 15:37 20.06.2019
6076 -273 0 0 0 0 0 15:18 20.06.2019
6077 Rain 23 1005 94 8000 3 140 14:42 20.06.2019
6078 Rain 23 1005 94 8000 4 130 14:21 20.06.2019
6079 Rain 23 1005 94 7000 3 120 13:40 20.06.2019
6080 Rain 23 1005 94 7000 5 130 13:19 20.06.2019
6081 Rain 23 1005 94 6000 4 120 12:44 20.06.2019
6082 Rain 24 1005 94 6000 3 90 12:22 20.06.2019
6083 Rain 24 1005 94 6000 3 100 11:44 20.06.2019
6084 Rain 24 1006 94 7000 3 100 11:23 20.06.2019
6085 Rain 24 1005 94 7000 4 110 10:47 20.06.2019
6086 Rain 24 1005 94 7000 4 110 10:47 20.06.2019
6087 Rain 24 1005 94 7000 4 110 10:25 20.06.2019
6088 Rain 24 1006 88 10000 3 130 09:58 20.06.2019
6089 Rain 25 1006 88 10000 3 130 09:38 20.06.2019
6090 Rain 25 1006 83 10000 2 130 09:20 20.06.2019
6091 Clouds 26 1006 83 10000 3 110 08:45 20.06.2019
6092 Clouds 25 1006 83 10000 3 110 08:26 20.06.2019
6093 Rain 26 1005 88 10000 4 150 07:51 20.06.2019
6094 Rain 26 1005 88 10000 4 160 07:27 20.06.2019
6095 Rain 25 1005 88 10000 6 140 06:25 20.06.2019
6096 Clouds 26 1007 78 10000 4 130 03:55 20.06.2019
6097 Clouds 24 1007 83 10000 4 140 02:29 20.06.2019
6098 Clouds 25 1006 88 10000 4 120 00:33 20.06.2019
6099 Clouds 23 1006 88 7000 2 160 23:49 19.06.2019
6100 Clouds 22 1006 88 7000 2 160 23:30 19.06.2019
6101 Clouds 22 1006 88 10000 3 130 22:49 19.06.2019
6102 Clouds 22 1006 88 10000 3 130 22:25 19.06.2019
6103 Clouds 22 1006 88 10000 3 160 21:58 19.06.2019
6104 Clouds 22 1006 88 10000 3 160 21:40 19.06.2019
6105 Clouds 22 1006 88 10000 3 160 21:21 19.06.2019
6106 Clouds 22 1006 88 10000 4 130 20:42 19.06.2019
6107 Clouds 22 1006 94 10000 2 140 20:21 19.06.2019
6108 Clear 23 1006 88 10000 2 120 19:46 19.06.2019
6109 Clear 23 1006 88 10000 2 120 19:28 19.06.2019
6110 Clouds 23 1007 88 10000 3 130 18:57 19.06.2019
6111 Rain 23 1007 88 10000 4 120 18:26 19.06.2019
6112 Clouds 23 1007 88 10000 4 130 17:53 19.06.2019
6113 Clouds 23 1007 88 10000 4 130 17:27 19.06.2019
6114 Clouds 23 1008 83 10000 4 150 16:56 19.06.2019
6115 Rain 23 1008 83 10000 4 140 16:37 19.06.2019
6116 Clouds 23 1007 78 10000 4 130 16:19 19.06.2019
6117 Rain 24 1007 78 10000 5 120 15:45 19.06.2019
6118 Clouds 24 1007 78 10000 3 100 15:24 19.06.2019
6119 Rain 24 1007 78 10000 5 120 15:24 19.06.2019
6120 Clouds 24 1007 78 10000 4 120 14:44 19.06.2019
6121 Clouds 24 1007 78 10000 4 130 14:26 19.06.2019
6122 Clouds 24 1006 73 10000 4 120 13:48 19.06.2019
6123 Clouds 24 1006 73 10000 4 120 13:29 19.06.2019
6124 Clouds 24 1006 73 10000 3 80 12:59 19.06.2019
6125 Clouds 25 1006 73 10000 3 60 12:40 19.06.2019
6126 Clouds 25 1005 69 10000 3 90 12:18 19.06.2019
6127 Clouds 26 1005 69 10000 3 80 11:42 19.06.2019
6128 Clouds 26 1005 69 10000 3 30 11:21 19.06.2019
6129 Clouds 26 1005 69 10000 2 360 10:49 19.06.2019
6130 Clouds 26 1005 69 10000 2 80 10:28 19.06.2019
6131 Clouds 26 1005 69 10000 2 80 09:56 19.06.2019
6132 Clouds 27 1005 69 10000 2 70 09:37 19.06.2019
6133 Clouds 27 1006 69 10000 2 90 09:18 19.06.2019
6134 Clouds 26 1006 69 10000 2 0 08:43 19.06.2019
6135 Clouds 27 1006 78 10000 3 60 08:25 19.06.2019
6136 Clouds 25 1006 78 10000 3 30 07:43 19.06.2019
6137 Clouds 25 1006 74 10000 3 60 07:23 19.06.2019
6138 Clouds 26 1007 74 10000 3 50 06:37 19.06.2019
6139 Clouds 26 1007 78 10000 3 10 06:19 19.06.2019
6140 Clouds 26 1007 78 10000 3 20 05:27 19.06.2019
6141 Clouds 26 1006 88 10000 3 40 03:53 19.06.2019
6142 Clouds 24 1006 83 10000 4 30 02:40 19.06.2019
6143 Mist 24 1006 88 5000 3 20 01:39 19.06.2019
6144 Mist 24 1005 94 3000 4 10 00:54 19.06.2019
6145 Mist 24 1005 94 3000 4 10 00:36 19.06.2019
6146 Mist 23 1005 94 3000 3 10 23:59 18.06.2019
6147 Mist 23 1005 94 3000 3 10 23:37 18.06.2019
6148 Mist 23 1005 100 3500 2 340 23:19 18.06.2019
6149 Mist 23 1005 100 3500 4 290 22:41 18.06.2019
6150 Mist 23 1005 100 3500 3 300 22:21 18.06.2019
6151 Mist 23 1005 100 3500 3 290 21:44 18.06.2019
6152 Mist 23 1005 100 4000 2 300 21:22 18.06.2019
6153 Mist 23 1005 100 4000 2 300 20:58 18.06.2019
6154 Mist 23 1005 100 4000 4 290 20:38 18.06.2019
6155 Mist 23 1005 100 5000 3 280 20:19 18.06.2019
6156 Mist 23 1005 100 5000 4 280 19:39 18.06.2019
6157 Mist 23 1005 100 5000 3 270 19:21 18.06.2019
6158 Mist 23 1005 100 5000 3 280 18:49 18.06.2019
6159 Mist 23 1005 100 5000 3 280 18:25 18.06.2019
6160 Rain 23 1005 100 7000 3 280 17:46 18.06.2019
6161 Mist 23 1005 100 7000 3 0 17:22 18.06.2019
6162 Mist 23 1005 100 7000 3 0 16:57 18.06.2019
6163 Mist 23 1005 100 10000 2 0 16:39 18.06.2019
6164 Mist 23 1005 100 10000 2 0 16:20 18.06.2019
6165 Rain 23 1005 100 10000 2 0 15:38 18.06.2019
6166 Rain 23 1005 100 10000 2 0 15:20 18.06.2019
6167 Rain 23 1005 94 10000 2 240 14:55 18.06.2019
6168 Rain 23 1005 94 10000 2 240 14:36 18.06.2019
6169 Rain 23 1005 94 10000 2 250 14:18 18.06.2019
6170 Rain 23 1005 100 7000 2 250 13:41 18.06.2019
6171 Rain 23 1005 100 7000 3 0 13:22 18.06.2019
6172 Rain 23 1005 100 7000 2 260 12:44 18.06.2019
6173 Rain 24 1004 94 5000 3 250 12:25 18.06.2019
6174 Rain 24 1005 100 5000 4 260 11:47 18.06.2019
6175 Rain 24 1004 94 5000 3 0 11:23 18.06.2019
6176 Rain 24 1004 94 5000 3 0 11:23 18.06.2019
6177 Rain 24 1004 94 5000 3 250 10:58 18.06.2019
6178 Rain 24 1004 94 5000 3 250 10:38 18.06.2019
6179 Rain 24 1004 94 6000 4 240 10:19 18.06.2019
6180 Rain 24 1004 94 6000 5 230 09:49 18.06.2019
6181 Rain 24 1004 94 6000 4 220 09:24 18.06.2019
6182 Rain 24 1005 94 8000 3 210 08:46 18.06.2019
6183 Rain 24 1005 94 8000 3 200 08:21 18.06.2019
6184 Rain 24 1005 94 8000 3 200 08:21 18.06.2019
6185 Rain 24 1005 100 7000 4 170 07:41 18.06.2019
6186 Rain 24 1005 94 6000 4 160 07:23 18.06.2019
6187 Rain 23 1006 94 4500 5 150 06:44 18.06.2019
6188 Rain 22 1007 94 7000 6 150 05:21 18.06.2019
6189 Rain 21 1007 94 5000 5 150 02:53 18.06.2019
6190 Rain 22 1007 100 8000 5 140 01:55 18.06.2019
6191 Rain 22 1008 100 4000 6 140 01:25 18.06.2019
6192 Rain 22 1007 94 6000 5 150 00:55 18.06.2019
6193 Rain 22 1007 94 3500 5 150 00:27 18.06.2019
6194 Rain 21 1007 100 5000 5 170 23:41 17.06.2019
6195 Rain 22 1007 100 5000 6 150 23:20 17.06.2019
6196 Rain 22 1007 100 5000 6 150 22:56 17.06.2019
6197 Rain 22 1008 100 5000 4 150 22:37 17.06.2019
6198 Rain 23 1008 94 6000 4 160 22:19 17.06.2019
6199 Rain 23 1008 94 10000 5 140 21:42 17.06.2019
6200 Rain 23 1008 88 10000 5 130 21:21 17.06.2019
6201 Rain 23 1008 88 10000 5 130 20:37 17.06.2019
6202 Rain 22 1009 88 10000 5 130 20:19 17.06.2019
6203 Rain 23 1009 94 10000 5 130 19:42 17.06.2019
6204 Rain 23 1010 88 10000 4 140 19:23 17.06.2019
6205 Rain 22 1010 83 10000 7 150 18:58 17.06.2019
6206 Rain 22 1010 83 10000 7 150 18:38 17.06.2019
6207 Rain 24 1011 65 10000 9 170 18:18 17.06.2019
6208 Rain 25 1011 65 10000 9 170 17:46 17.06.2019
6209 Clear 26 1011 61 10000 7 180 17:28 17.06.2019
6210 Clear 26 1011 54 10000 6 160 16:48 17.06.2019
6211 Clear 26 1011 54 10000 6 160 16:29 17.06.2019
6212 Clear 26 1011 61 10000 6 170 15:58 17.06.2019
6213 Clear 26 1011 65 10000 8 160 15:39 17.06.2019
6214 Clear 26 1011 61 10000 8 170 15:19 17.06.2019
6215 Clear 27 1010 57 10000 6 180 14:51 17.06.2019
6216 Clear 27 1010 57 10000 6 180 14:32 17.06.2019
6217 Clear 27 1010 61 10000 7 170 13:54 17.06.2019
6218 Clear 27 1010 61 10000 7 170 13:36 17.06.2019
6219 Clear 28 1010 61 10000 7 180 13:18 17.06.2019
6220 Clear 28 1010 61 10000 7 180 12:32 17.06.2019
6221 Clear 29 1009 58 10000 6 180 11:51 17.06.2019
6222 Clear 29 1009 54 10000 9 180 11:27 17.06.2019
6223 Clear 29 1009 54 10000 9 180 11:27 17.06.2019
6224 Clear 29 1009 54 10000 9 180 11:27 17.06.2019
6225 Clear 29 1009 54 10000 9 180 10:59 17.06.2019
6226 Clear 30 1009 48 10000 9 180 10:41 17.06.2019
6227 Clear 30 1009 42 10000 7 180 10:22 17.06.2019
6228 Clear 30 1009 42 10000 7 180 09:55 17.06.2019
6229 Clear 31 1009 37 10000 8 180 09:30 17.06.2019
6230 Clear 33 1010 31 10000 7 180 08:43 17.06.2019
6231 Clear 33 1009 27 10000 7 170 08:23 17.06.2019
6232 Clear 34 1010 27 10000 8 190 07:46 17.06.2019
6233 Clear 34 1010 27 10000 8 190 07:28 17.06.2019
6234 Clear 34 1010 26 10000 8 190 06:46 17.06.2019
6235 Clear 32 1010 29 10000 8 160 05:50 17.06.2019
6236 Clear 33 1010 30 10000 8 170 04:52 17.06.2019
6237 Clear 31 1011 42 10000 6 160 03:50 17.06.2019
6238 Clear 28 1011 42 10000 5 160 03:20 17.06.2019
6239 Clear 28 1011 47 10000 4 160 02:41 17.06.2019
6240 Clear 27 1011 54 10000 4 180 01:56 17.06.2019
6241 Clear 27 1010 54 10000 5 180 01:34 17.06.2019
6242 Clear 27 1010 50 10000 4 180 00:45 17.06.2019
6243 Clear 27 1010 54 10000 3 150 00:23 17.06.2019
6244 Clear 26 1010 54 10000 3 140 23:43 16.06.2019
6245 Clear 27 1009 54 10000 4 140 23:23 16.06.2019
6246 Clear 26 1009 54 10000 4 140 22:57 16.06.2019
6247 Clear 26 1009 54 10000 4 140 22:39 16.06.2019
6248 Clear 27 1009 57 10000 5 150 22:19 16.06.2019
6249 Clear 27 1009 57 10000 5 150 22:19 16.06.2019
6250 Clear 27 1009 57 10000 5 150 21:55 16.06.2019
6251 Clear 27 1009 57 10000 5 150 21:37 16.06.2019
6252 Clear 27 1009 61 10000 5 150 21:19 16.06.2019
6253 Clear 27 1009 61 10000 4 150 20:37 16.06.2019
6254 Clear 27 1009 61 10000 4 150 20:18 16.06.2019
6255 Clear 27 1009 61 10000 4 150 19:43 16.06.2019
6256 Clear 27 1009 61 10000 4 150 19:22 16.06.2019
6257 Clear 27 1009 61 10000 4 150 18:59 16.06.2019
6258 Clear 27 1009 61 10000 4 150 18:41 16.06.2019
6259 Mist 27 1010 61 10000 3 140 18:20 16.06.2019
6260 Mist 27 1010 61 10000 3 140 17:48 16.06.2019
6261 Mist 27 1010 61 10000 4 160 17:24 16.06.2019
6262 Mist 27 1010 61 10000 4 160 16:57 16.06.2019
6263 Clear 28 1010 58 10000 4 140 16:39 16.06.2019
6264 Clear 28 1010 58 10000 3 150 16:21 16.06.2019
6265 Clear 28 1009 58 10000 4 150 15:44 16.06.2019
6266 Clear 28 1009 54 10000 4 150 15:24 16.06.2019
6267 Clear 29 1009 51 10000 3 150 14:45 16.06.2019
6268 Clear 29 1009 51 10000 3 140 14:24 16.06.2019
6269 Clear 29 1009 51 10000 3 140 13:56 16.06.2019
6270 Clear 29 1008 48 10000 4 150 13:38 16.06.2019
6271 Clear 29 1008 45 10000 3 190 13:20 16.06.2019
6272 Clear 30 1008 43 10000 4 210 12:41 16.06.2019
6273 Clear 31 1008 40 10000 3 200 12:20 16.06.2019
6274 Clear 31 1007 40 10000 4 180 11:46 16.06.2019
6275 Clear 31 1007 40 10000 4 180 11:46 16.06.2019
6276 Clear 32 1007 40 10000 4 170 11:20 16.06.2019
6277 Clear 32 1008 43 10000 4 200 10:54 16.06.2019
6278 Clear 32 1008 43 10000 4 200 10:36 16.06.2019
6279 Clear 32 1008 40 10000 5 200 10:18 16.06.2019
6280 Clear 33 1008 46 10000 3 180 09:37 16.06.2019
6281 Clear 33 1008 41 10000 3 150 09:19 16.06.2019
6282 Clear 32 1008 41 10000 3 140 08:40 16.06.2019
6283 Clear 34 1008 43 10000 2 130 08:19 16.06.2019
6284 Clear 34 1008 43 10000 3 120 07:44 16.06.2019
6285 Clear 34 1008 45 10000 2 0 06:59 16.06.2019
6286 Clear 33 1008 48 10000 3 170 06:39 16.06.2019
6287 Clouds 32 1009 55 8000 4 160 05:50 16.06.2019
6288 Haze 32 1009 58 8000 4 130 04:54 16.06.2019
6289 Haze 29 1008 61 8000 5 130 03:57 16.06.2019
6290 Mist 28 1008 61 8000 4 140 03:32 16.06.2019
6291 Mist 28 1008 65 8000 4 140 02:31 16.06.2019
6292 Mist 27 1008 69 7000 3 140 01:44 16.06.2019
6293 Mist 27 1008 69 7000 4 140 01:26 16.06.2019
6294 Mist 26 1007 69 7000 4 130 00:40 16.06.2019
6295 Mist 25 1007 73 7000 3 140 00:21 16.06.2019
6296 Mist 24 1007 73 7000 3 140 23:44 15.06.2019
6297 Mist 25 1007 73 7000 3 140 23:25 15.06.2019
6298 Mist 25 1007 65 10000 3 110 22:50 15.06.2019
6299 Mist 25 1006 65 10000 4 130 22:27 15.06.2019
6300 Mist 25 1006 65 10000 3 110 21:50 15.06.2019
6301 Mist 25 1006 65 10000 3 110 21:29 15.06.2019
6302 Mist 25 1006 65 10000 3 140 20:59 15.06.2019
6303 Mist 25 1006 69 10000 3 120 20:40 15.06.2019
6304 Clear 25 1007 73 10000 3 110 20:19 15.06.2019
6305 Clear 25 1007 73 10000 4 110 19:42 15.06.2019
6306 Clear 26 1007 69 10000 4 110 19:23 15.06.2019
6307 Mist 26 1007 69 10000 4 110 18:39 15.06.2019
6308 Mist 26 1007 57 10000 4 110 18:20 15.06.2019
6309 Mist 26 1007 61 10000 3 110 17:43 15.06.2019
6310 Mist 26 1007 57 10000 4 110 17:22 15.06.2019
6311 Mist 26 1007 57 10000 3 110 16:48 15.06.2019
6312 Mist 27 1007 57 10000 2 90 16:20 15.06.2019
6313 Clear 27 1007 54 10000 2 80 15:44 15.06.2019
6314 Clear 27 1006 61 10000 3 160 15:23 15.06.2019
6315 Clear 27 1006 61 10000 3 150 14:43 15.06.2019
6316 Clear 28 1005 58 10000 3 150 14:19 15.06.2019
6317 Clear 28 1005 58 10000 3 150 13:57 15.06.2019
6318 Clear 28 1005 58 10000 4 150 13:39 15.06.2019
6319 Clear 28 1005 58 10000 4 150 13:38 15.06.2019
6320 Clear 28 1005 58 10000 4 150 13:38 15.06.2019
6321 Clear 29 1005 42 10000 3 20 13:18 15.06.2019
6322 Clear 29 1004 40 10000 3 40 12:44 15.06.2019
6323 Clear 31 1004 40 10000 3 290 12:23 15.06.2019
6324 Clear 31 1004 40 10000 3 290 12:23 15.06.2019
6325 Clear 32 1004 38 10000 4 330 11:49 15.06.2019
6326 Clear 32 1004 38 10000 4 330 11:31 15.06.2019
6327 Clear 33 1004 38 10000 3 320 10:46 15.06.2019
6328 Clear 33 1004 38 10000 3 320 10:25 15.06.2019
6329 Clear 33 1004 38 10000 4 340 09:49 15.06.2019
6330 Clear 33 1004 38 10000 4 340 09:28 15.06.2019
6331 Clear 33 1005 40 10000 3 300 08:56 15.06.2019
6332 Clear 33 1005 43 10000 4 350 08:38 15.06.2019
6333 Clear 33 1005 40 10000 5 340 08:18 15.06.2019
6334 Clear 33 1005 40 10000 3 0 07:26 15.06.2019
6335 Clear 34 1006 45 10000 3 340 06:49 15.06.2019
6336 Clear 32 1006 45 10000 3 340 06:29 15.06.2019
6337 Clear 32 1006 45 10000 5 10 05:40 15.06.2019
6338 Clear 32 1006 51 10000 4 330 04:59 15.06.2019
6339 Clear 33 1006 51 10000 4 340 04:26 15.06.2019
6340 Clear 31 1007 61 10000 3 280 03:33 15.06.2019
6341 Clear 31 1007 61 10000 3 280 03:33 15.06.2019
6342 Clear 24 1007 69 10000 2 260 02:36 15.06.2019
6343 Mist 27 1007 69 10000 3 230 01:57 15.06.2019
6344 Mist 27 1007 69 10000 3 230 01:57 15.06.2019
6345 Mist 27 1007 83 7000 1 0 01:24 15.06.2019
6346 Mist 26 1006 88 7000 1 0 00:42 15.06.2019
6347 Mist 19 1006 88 7000 2 230 00:23 15.06.2019
6348 Mist 20 1006 88 10000 1 250 23:49 14.06.2019
6349 Clear 20 1006 88 10000 1 250 23:20 14.06.2019
6350 Clear 20 1006 88 10000 1 250 23:20 14.06.2019
6351 Clear 20 1006 88 10000 1 280 22:41 14.06.2019
6352 Clear 20 1006 88 10000 1 280 22:41 14.06.2019
6353 Clear 20 1006 88 10000 1 240 22:21 14.06.2019
6354 Clear 20 1006 82 10000 1 0 21:48 14.06.2019
6355 Clear 20 1006 82 10000 1 0 21:28 14.06.2019
6356 Clear 20 1006 82 10000 1 0 20:55 14.06.2019
6357 Clear 20 1005 77 10000 1 340 20:36 14.06.2019
6358 Clear 20 1005 77 10000 0.57 113.251 20:18 14.06.2019
6359 Clear 21 1006 77 10000 1 160 19:39 14.06.2019
6360 Clear 21 1006 73 10000 1 70 19:21 14.06.2019
6361 Clear 21 1006 73 10000 1 0 18:54 14.06.2019
6362 Clear 21 1006 73 10000 1 0 18:36 14.06.2019
6363 Clear 21 1006 73 10000 2 90 18:18 14.06.2019
6364 Clear 21 1006 77 10000 2 50 17:44 14.06.2019
6365 Clear 22 1006 77 10000 2 60 17:23 14.06.2019
6366 Clear 22 1006 73 10000 3 50 16:48 14.06.2019
6367 Clear 22 1006 68 10000 4 30 16:23 14.06.2019
6368 Clear 22 1006 68 10000 4 30 15:59 14.06.2019
6369 Clear 22 1005 68 10000 4 50 15:39 14.06.2019
6370 Clear 23 1005 64 10000 4 50 15:19 14.06.2019
6371 Clear 23 1004 64 10000 4 60 14:43 14.06.2019
6372 Clear 23 1004 64 10000 4 60 14:25 14.06.2019
6373 Clear 24 1004 44 10000 4 50 13:46 14.06.2019
6374 Clear 24 1003 41 10000 5 30 13:27 14.06.2019
6375 Clear 25 1003 41 10000 5 20 12:55 14.06.2019
6376 Clear 25 1003 41 10000 5 20 12:36 14.06.2019
6377 Clear 25 1003 41 10000 5 20 12:36 14.06.2019
6378 Clear 26 1003 42 10000 5 30 12:18 14.06.2019
6379 Clear 27 1003 39 10000 6 20 11:42 14.06.2019
6380 Clear 28 1003 37 10000 6 20 11:23 14.06.2019
6381 Clear 28 1003 37 10000 6 30 10:47 14.06.2019
6382 Clear 28 1003 37 10000 8 20 10:21 14.06.2019
6383 Clear 28 1003 37 10000 8 20 09:55 14.06.2019
6384 Clear 29 1003 37 10000 8 20 09:33 14.06.2019
6385 Clear 29 1003 39 10000 6 20 08:48 14.06.2019
6386 Clear 29 1004 39 10000 7 360 08:21 14.06.2019
6387 Clear 29 1004 39 10000 7 360 07:55 14.06.2019
6388 Clouds 29 1004 44 10000 6 10 07:23 14.06.2019
6389 Clouds 29 1004 47 10000 6 20 06:53 14.06.2019
6390 Clouds 27 1005 50 10000 6 360 06:18 14.06.2019
6391 Clouds 27 1005 53 10000 6 360 05:35 14.06.2019
6392 Clouds 27 1006 60 10000 6 10 04:51 14.06.2019
6393 Clouds 28 1006 57 10000 6 40 04:23 14.06.2019
6394 Clouds 26 1006 64 10000 6 30 03:38 14.06.2019
6395 Clouds 23 1006 64 10000 5 40 03:19 14.06.2019
6396 Clouds 24 1006 68 10000 4 40 02:35 14.06.2019
6397 Clear 23 1005 77 10000 4 360 01:39 14.06.2019
6398 Clear 23 1005 77 10000 4 360 01:39 14.06.2019
6399 Clear 23 1005 88 10000 1 0 00:37 14.06.2019
6400 Clear 19 1005 93 10000 2 360 00:18 14.06.2019
6401 Clouds 19 1005 88 10000 2 360 23:48 13.06.2019
6402 Clouds 19 1005 88 10000 4 360 23:24 13.06.2019
6403 Clouds 19 1005 88 10000 4 350 22:40 13.06.2019
6404 Clear 19 1004 88 10000 3 130 22:22 13.06.2019
6405 Clear 19 1004 88 10000 3 130 21:56 13.06.2019
6406 Rain 19 1004 88 10000 3 140 21:36 13.06.2019
6407 Rain 19 1004 88 10000 3 140 21:36 13.06.2019
6408 Rain 18 1005 93 10000 3 160 21:18 13.06.2019
6409 Rain 19 1005 88 10000 2 120 20:42 13.06.2019
6410 Rain 18 1006 93 10000 1 0 20:19 13.06.2019
6411 Rain 19 1006 93 10000 1 50 19:43 13.06.2019
6412 Rain 19 1006 88 10000 2 80 19:23 13.06.2019
6413 Rain 20 1006 88 10000 2 80 18:58 13.06.2019
6414 Rain 20 1007 88 10000 2 70 18:40 13.06.2019
6415 Rain 19 1007 82 10000 3 110 18:21 13.06.2019
6416 Rain 19 1007 88 10000 3 140 17:44 13.06.2019
6417 Rain 19 1007 88 10000 3 130 17:21 13.06.2019
6418 Rain 20 1007 88 10000 3 130 16:55 13.06.2019
6419 Clouds 21 1007 82 10000 3 100 16:23 13.06.2019
6420 Clouds 21 1007 82 10000 3 100 15:59 13.06.2019
6421 Rain 21 1007 88 10000 1 0 15:40 13.06.2019
6422 Rain 21 1007 93 10000 3 80 15:19 13.06.2019
6423 Clear 22 1006 83 10000 3 80 14:48 13.06.2019
6424 Clear 22 1006 83 10000 3 80 14:29 13.06.2019
6425 Clear 22 1006 83 10000 3 100 13:47 13.06.2019
6426 Rain 22 1006 83 10000 3 100 13:22 13.06.2019
6427 Rain 22 1006 83 10000 3 100 12:58 13.06.2019
6428 Rain 22 1006 83 10000 1 0 12:38 13.06.2019
6429 Clouds 22 1006 83 10000 3 80 12:20 13.06.2019
6430 Rain 22 1005 88 10000 4 150 11:43 13.06.2019
6431 Rain 22 1006 83 10000 3 120 11:25 13.06.2019
6432 Rain 22 1006 83 10000 3 120 11:25 13.06.2019
6433 Rain 23 1005 83 10000 5 120 10:47 13.06.2019
6434 Rain 23 1005 83 10000 5 120 10:28 13.06.2019
6435 Rain 23 1006 83 10000 5 130 09:52 13.06.2019
6436 Rain 23 1006 83 10000 5 130 09:29 13.06.2019
6437 Rain 24 1006 83 10000 4 130 08:55 13.06.2019
6438 Rain 24 1006 78 10000 5 150 08:55 13.06.2019
6439 Rain 24 1006 78 10000 5 150 08:55 13.06.2019
6440 Rain 24 1006 78 10000 5 150 08:37 13.06.2019
6441 Rain 25 1006 73 10000 6 130 08:19 13.06.2019
6442 Rain 26 1006 64 10000 6 130 07:37 13.06.2019
6443 Clouds 26 1007 61 10000 5 110 07:18 13.06.2019
6444 Clouds 26 1007 57 10000 5 130 06:38 13.06.2019
6445 Clouds 25 1008 61 10000 4 130 06:20 13.06.2019
6446 Clouds 24 1008 60 10000 5 110 05:39 13.06.2019
6447 Clouds 25 1008 61 10000 6 100 05:18 13.06.2019
6448 Clouds 24 1008 64 10000 6 130 03:45 13.06.2019
6449 Clouds 24 1008 64 10000 6 130 03:45 13.06.2019
6450 Clouds 24 1008 73 10000 5 120 01:55 13.06.2019
6451 Clear 22 1007 77 10000 5 130 00:31 13.06.2019
6452 Clear 21 1007 77 10000 5 110 23:26 12.06.2019
6453 Clear 21 1007 77 10000 5 110 22:59 12.06.2019
6454 Clear 21 1007 77 10000 5 130 22:40 12.06.2019
6455 Clear 21 1007 77 10000 4 120 22:21 12.06.2019
6456 Clear 22 1007 83 10000 4 130 21:43 12.06.2019
6457 Clear 22 1007 83 10000 5 120 21:25 12.06.2019
6458 Clear 22 1008 77 10000 4 130 20:48 12.06.2019
6459 Clear 22 1008 77 10000 4 130 20:29 12.06.2019
6460 Clear 21 1008 77 10000 4 120 19:57 12.06.2019
6461 Clear 21 1008 83 10000 4 130 19:38 12.06.2019
6462 Clouds 21 1009 83 10000 4 130 19:20 12.06.2019
6463 Clouds 21 1009 83 10000 5 130 18:44 12.06.2019
6464 Clouds 22 1009 83 10000 5 130 18:26 12.06.2019
6465 Clear 22 1009 73 10000 4 120 17:47 12.06.2019
6466 Clear 22 1009 73 10000 4 130 17:23 12.06.2019
6467 Clear 22 1009 73 10000 5 120 16:43 12.06.2019
6468 Clear 22 1009 73 10000 5 120 16:25 12.06.2019
6469 Clear 22 1009 73 10000 5 130 15:58 12.06.2019
6470 Clear 22 1009 73 10000 5 130 15:33 12.06.2019
6471 Clear 23 1009 73 10000 5 130 14:58 12.06.2019
6472 Clouds 23 1009 69 10000 5 150 14:33 12.06.2019
6473 Clouds 23 1009 64 10000 5 150 13:58 12.06.2019
6474 Clouds 23 1009 64 10000 5 150 13:58 12.06.2019
6475 -273 0 0 0 0 0 13:39 12.06.2019
6476 Clouds 24 1008 60 10000 7 150 13:19 12.06.2019
6477 Clouds 24 1009 57 10000 5 120 12:40 12.06.2019
6478 Clouds 25 1009 53 10000 5 110 12:21 12.06.2019
6479 Clear 26 1008 54 10000 4 140 11:48 12.06.2019
6480 Clear 26 1008 54 10000 4 140 11:30 12.06.2019
6481 Clear 26 1008 57 10000 6 160 10:58 12.06.2019
6482 Clear 26 1008 57 10000 6 150 10:39 12.06.2019
6483 Clouds 26 1009 57 10000 6 150 10:18 12.06.2019
6484 Clouds 26 1009 54 10000 5 150 09:41 12.06.2019
6485 Clouds 27 1009 51 10000 6 150 09:21 12.06.2019
6486 Clouds 27 1009 51 10000 5 140 08:29 12.06.2019
6487 Clouds 27 1009 54 10000 4 150 07:57 12.06.2019
6488 Clouds 27 1010 50 10000 3 110 07:18 12.06.2019
6489 Clouds 28 1010 51 10000 4 90 06:39 12.06.2019
6490 Clouds 26 1010 53 10000 3 130 05:25 12.06.2019
6491 Clear 23 1010 68 10000 3 130 02:22 12.06.2019
6492 Clear 24 1010 77 10000 3 130 00:46 12.06.2019
6493 Clear 21 1009 77 10000 3 120 23:57 11.06.2019
6494 Clear 21 1009 77 10000 2 130 23:39 11.06.2019
6495 Clear 21 1009 77 10000 3 150 23:20 11.06.2019
6496 Clear 21 1009 77 10000 3 150 22:41 11.06.2019
6497 Clear 21 1009 77 10000 3 150 22:18 11.06.2019
6498 Clouds 22 1009 77 10000 3 160 21:41 11.06.2019
6499 Clouds 22 1009 77 10000 3 150 21:23 11.06.2019
6500 Clouds 21 1009 77 10000 3 140 20:58 11.06.2019
6501 Clouds 21 1009 77 10000 3 150 20:58 11.06.2019
6502 Clouds 21 1009 77 10000 3 140 20:39 11.06.2019
6503 Clouds 21 1009 77 10000 3 150 20:21 11.06.2019
6504 Clouds 21 1010 77 10000 4 150 19:50 11.06.2019
6505 Clouds 22 1010 77 10000 3 150 19:28 11.06.2019
6506 Clouds 22 1009 78 10000 3 150 18:49 11.06.2019
6507 Clouds 22 1010 78 10000 4 130 18:20 11.06.2019
6508 Clouds 23 1010 73 10000 4 130 17:42 11.06.2019
6509 Clouds 23 1010 73 10000 4 110 17:21 11.06.2019
6510 Clouds 23 1009 73 10000 3 110 16:46 11.06.2019
6511 Clouds 23 1009 73 10000 4 110 16:24 11.06.2019
6512 Clouds 23 1009 73 10000 4 110 15:59 11.06.2019
6513 Clouds 23 1009 73 10000 4 100 15:41 11.06.2019
6514 Clouds 23 1009 73 10000 4 80 15:18 11.06.2019
6515 Clouds 24 1008 69 10000 3 90 14:40 11.06.2019
6516 Clear 24 1008 69 10000 4 80 14:20 11.06.2019
6517 Clear 24 1008 69 10000 4 80 14:20 11.06.2019
6518 Clear 24 1008 61 10000 4 70 13:43 11.06.2019
6519 Clear 24 1008 61 10000 4 40 13:22 11.06.2019
6520 Clear 25 1007 57 10000 4 30 12:43 11.06.2019
6521 Clouds 26 1007 54 10000 3 50 12:22 11.06.2019
6522 Clear 26 1007 54 10000 5 30 11:57 11.06.2019
6523 Clear 27 1007 54 10000 5 30 11:33 11.06.2019
6524 Clear 27 1007 47 10000 5 10 10:57 11.06.2019
6525 Clear 27 1007 47 10000 5 40 10:39 11.06.2019
6526 Clouds 28 1007 45 10000 5 10 10:19 11.06.2019
6527 Clouds 28 1007 48 10000 5 20 09:43 11.06.2019
6528 Clouds 28 1007 48 10000 6 20 09:23 11.06.2019
6529 Clouds 28 1007 45 10000 5 30 08:41 11.06.2019
6530 Clouds 28 1008 48 10000 5 10 08:22 11.06.2019
6531 Clouds 29 1008 48 10000 3 0 07:34 11.06.2019
6532 Clouds 28 1008 51 10000 4 60 06:54 11.06.2019
6533 Clouds 28 1008 51 10000 5 40 05:56 11.06.2019
6534 Clouds 27 1008 57 10000 4 50 04:40 11.06.2019
6535 -273 0 0 0 0 0 02:27 11.06.2019
6536 Clouds 23 1008 78 10000 4 360 02:27 11.06.2019
6537 Clouds 23 1007 83 10000 4 10 00:54 11.06.2019
6538 Clouds 23 1007 83 10000 4 10 00:31 11.06.2019
6539 Mist 21 1007 88 10000 3 360 23:46 10.06.2019
6540 Clouds 20 1007 88 10000 3 360 23:21 10.06.2019
6541 Clouds 21 1006 88 10000 3 360 22:46 10.06.2019
6542 Clouds 21 1006 88 10000 3 360 22:27 10.06.2019
6543 Clouds 20 1006 88 10000 4 360 21:58 10.06.2019
6544 Clouds 20 1006 82 10000 3 10 21:38 10.06.2019
6545 Clouds 21 1006 88 10000 4 10 21:20 10.06.2019
6546 Clear 22 1006 83 10000 4 10 20:42 10.06.2019
6547 Clear 22 1006 77 10000 5 360 20:21 10.06.2019
6548 Clouds 22 1006 83 10000 4 360 19:46 10.06.2019
6549 Clouds 22 1006 83 10000 4 360 19:23 10.06.2019
6550 Clouds 22 1006 83 10000 4 360 19:23 10.06.2019
6551 Clouds 21 1006 83 10000 4 360 18:58 10.06.2019
6552 Clouds 22 1006 78 10000 3 10 18:39 10.06.2019
6553 Clouds 22 1007 78 10000 5 10 18:20 10.06.2019
6554 Clouds 22 1007 73 10000 4 20 17:44 10.06.2019
6555 Clouds 22 1006 73 10000 5 20 17:24 10.06.2019
6556 Clouds 22 1006 73 10000 5 20 16:49 10.06.2019
6557 Clouds 23 1006 73 10000 5 20 16:30 10.06.2019
6558 Clouds 23 1006 78 10000 5 360 15:58 10.06.2019
6559 Clouds 22 1006 78 10000 5 360 15:39 10.06.2019
6560 Clouds 23 1006 73 10000 6 360 15:21 10.06.2019
6561 Rain 23 1005 73 10000 6 20 14:42 10.06.2019
6562 Rain 23 1005 69 10000 6 50 14:24 10.06.2019
6563 Clouds 23 1005 69 10000 5 50 13:46 10.06.2019
6564 Clouds 23 1005 69 10000 5 50 13:46 10.06.2019
6565 Clouds 24 1005 69 10000 5 50 13:28 10.06.2019
6566 Clouds 24 1004 78 8000 5 60 12:54 10.06.2019
6567 Clouds 25 1004 78 8000 5 60 12:31 10.06.2019
6568 Clouds 26 1004 78 8000 7 30 11:54 10.06.2019
6569 Clouds 26 1004 78 8000 7 30 11:30 10.06.2019
6570 Clouds 26 1003 78 7000 5 40 10:59 10.06.2019
6571 Clouds 26 1003 78 6000 7 30 10:41 10.06.2019
6572 Clouds 26 1003 74 6000 7 20 10:19 10.06.2019
6573 Clouds 27 1003 69 7000 8 20 09:51 10.06.2019
6574 Clouds 27 1003 69 7000 8 20 09:29 10.06.2019
6575 Clouds 28 1003 66 10000 6 20 08:49 10.06.2019
6576 Clouds 29 1003 66 10000 6 20 08:26 10.06.2019
6577 Clouds 29 1003 65 10000 7 10 07:41 10.06.2019
6578 Clouds 33 1003 69 7000 1 0 04:43 10.06.2019
6579 Mist 27 1004 78 7000 1 0 02:35 10.06.2019
6580 Mist 27 1003 88 7000 1 0 01:50 10.06.2019
6581 Mist 26 1003 83 6000 2 160 01:19 10.06.2019
6582 Mist 25 1003 88 6000 2 160 00:37 10.06.2019
6583 Mist 24 1003 88 6000 4 180 23:46 09.06.2019
6584 Clouds 23 1003 94 10000 3 180 23:21 09.06.2019
6585 Clouds 23 1002 88 10000 3 150 22:46 09.06.2019
6586 Clouds 23 1003 88 10000 3 150 22:26 09.06.2019
6587 Clouds 23 1003 94 10000 3 150 21:47 09.06.2019
6588 Clouds 23 1003 94 10000 3 150 21:28 09.06.2019
6589 Clouds 23 1003 88 10000 3 120 20:58 09.06.2019
6590 Clear 23 1002 88 10000 4 180 20:40 09.06.2019
6591 Clear 23 1002 88 10000 3 190 20:21 09.06.2019
6592 Clear 23 1002 88 10000 3 180 19:42 09.06.2019
6593 Clear 23 1002 88 10000 4 200 19:18 09.06.2019
6594 Clear 23 1002 88 10000 5 180 18:43 09.06.2019
6595 Clear 24 1003 88 10000 3 170 18:25 09.06.2019
6596 Clear 23 1003 88 10000 3 150 17:53 09.06.2019
6597 Clear 23 1003 88 10000 3 150 17:30 09.06.2019
6598 Clear 24 1003 83 10000 3 120 16:58 09.06.2019
6599 Clear 24 1004 83 10000 4 150 16:39 09.06.2019
6600 Clouds 24 1004 83 10000 5 150 16:20 09.06.2019
6601 Clouds 24 1004 83 10000 5 150 16:20 09.06.2019
6602 Clouds 24 1003 83 10000 5 150 15:49 09.06.2019
6603 Clouds 25 1003 83 10000 5 150 15:28 09.06.2019
6604 Clear 25 1003 73 10000 6 160 14:51 09.06.2019
6605 Clear 25 1003 73 10000 6 160 14:51 09.06.2019
6606 Clear 24 1003 73 10000 6 160 14:33 09.06.2019
6607 Clear 25 1003 78 10000 5 140 13:57 09.06.2019
6608 Clear 25 1003 73 10000 5 130 13:38 09.06.2019
6609 Clouds 26 1002 65 10000 6 150 12:55 09.06.2019
6610 Clouds 26 1002 65 10000 6 150 12:34 09.06.2019
6611 Clouds 28 1001 61 10000 6 130 11:49 09.06.2019
6612 Clouds 28 1001 61 10000 6 130 11:30 09.06.2019
6613 Clouds 29 1001 51 10000 5 130 10:47 09.06.2019
6614 Clouds 30 1002 51 10000 5 140 10:26 09.06.2019
6615 -273 0 0 0 0 0 09:58 09.06.2019
6616 Clouds 29 1002 52 10000 4 120 09:38 09.06.2019
6617 Clouds 29 1002 52 10000 4 120 09:37 09.06.2019
6618 Clouds 30 1002 51 10000 3 110 09:18 09.06.2019
6619 Clouds 31 1002 55 10000 4 140 08:43 09.06.2019
6620 Clouds 31 1003 51 10000 4 140 07:51 09.06.2019
6621 Clouds 32 1003 58 10000 3 120 06:40 09.06.2019
6622 Clouds 30 1004 61 10000 4 120 05:52 09.06.2019
6623 Clouds 25 1004 73 10000 2 150 02:55 09.06.2019
6624 Clouds 26 1004 78 10000 2 140 01:36 09.06.2019
6625 Clouds 26 1004 78 10000 2 140 01:36 09.06.2019
6626 Clouds 26 1004 78 10000 2 140 01:36 09.06.2019
6627 Clouds 25 1004 83 10000 2 140 01:18 09.06.2019
6628 Clouds 23 1003 83 10000 3 120 00:22 09.06.2019
6629 Clouds 23 1003 83 10000 4 120 23:40 08.06.2019
6630 Clouds 23 1003 83 10000 3 140 23:22 08.06.2019
6631 Clouds 22 1003 83 10000 4 130 22:45 08.06.2019
6632 Clouds 23 1003 83 10000 4 130 22:26 08.06.2019
6633 Clouds 22 1004 83 10000 3 150 21:56 08.06.2019
6634 Clouds 22 1004 83 10000 3 140 21:38 08.06.2019
6635 Clouds 22 1004 83 10000 3 140 21:38 08.06.2019
6636 Clouds 23 1003 83 10000 4 140 21:19 08.06.2019
6637 Clouds 23 1004 83 10000 3 140 20:42 08.06.2019
6638 Clouds 23 1004 83 10000 4 150 20:24 08.06.2019
6639 Clouds 23 1004 83 10000 3 140 19:43 08.06.2019
6640 Clouds 23 1004 83 10000 5 140 19:23 08.06.2019
6641 Clouds 23 1004 83 10000 5 140 18:58 08.06.2019
6642 Clouds 23 1004 83 10000 6 150 18:39 08.06.2019
6643 Clouds 23 1004 83 10000 7 160 18:18 08.06.2019
6644 Clouds 23 1005 83 10000 4 150 17:42 08.06.2019
6645 Clear 23 1005 83 10000 5 150 17:19 08.06.2019
6646 Clear 23 1006 73 10000 5 130 16:45 08.06.2019
6647 Clear 23 1006 69 10000 5 130 16:24 08.06.2019
6648 Clear 24 1005 69 10000 5 130 15:40 08.06.2019
6649 Clear 24 1005 69 10000 5 130 15:40 08.06.2019
6650 Clear 24 1005 64 10000 5 140 15:21 08.06.2019
6651 Clear 24 1005 64 10000 5 130 14:42 08.06.2019
6652 Clear 24 1006 69 10000 4 130 14:24 08.06.2019
6653 Clear 25 1005 61 10000 6 130 13:38 08.06.2019
6654 Clear 26 1005 57 10000 6 140 12:47 08.06.2019
6655 Clear 27 1005 57 10000 6 150 12:27 08.06.2019
6656 Clear 27 1005 57 10000 6 160 11:44 08.06.2019
6657 Clear 27 1005 54 10000 5 120 11:24 08.06.2019
6658 Clear 28 1005 54 10000 6 160 10:45 08.06.2019
6659 Clear 28 1005 54 10000 6 140 10:24 08.06.2019
6660 Clear 28 1005 54 10000 5 170 09:51 08.06.2019
6661 Clouds 29 1005 51 10000 4 160 09:24 08.06.2019
6662 Clouds 30 1005 51 10000 5 160 08:38 08.06.2019
6663 Clouds 29 1005 51 10000 5 110 08:18 08.06.2019
6664 Clouds 30 1007 48 10000 4 140 06:51 08.06.2019
6665 Clouds 29 1007 51 10000 4 140 05:49 08.06.2019
6666 Clear 26 1008 61 10000 5 150 03:32 08.06.2019
6667 Clear 27 1008 73 10000 3 130 01:31 08.06.2019
6668 Clear 21 1009 88 10000 3 110 00:26 08.06.2019
6669 Clouds 22 1009 88 8000 3 120 23:47 07.06.2019
6670 Clouds 22 1009 88 8000 2 120 23:20 07.06.2019
6671 Clear 21 1009 88 10000 2 140 22:42 07.06.2019
6672 Clear 21 1009 88 10000 2 140 22:23 07.06.2019
6673 Clear 21 1009 83 10000 3 150 21:53 07.06.2019
6674 Clear 21 1009 83 10000 3 150 21:30 07.06.2019
6675 Clear 22 1009 83 10000 3 140 20:57 07.06.2019
6676 Clear 22 1009 83 10000 3 140 20:37 07.06.2019
6677 Clear 22 1009 83 10000 4 130 19:50 07.06.2019
6678 Clear 22 1009 83 10000 4 130 19:24 07.06.2019
6679 Clear 22 1009 83 10000 4 130 18:58 07.06.2019
6680 Clear 22 1009 83 10000 4 140 18:29 07.06.2019
6681 Clear 22 1009 78 10000 2 120 17:49 07.06.2019
6682 Clear 22 1009 78 10000 2 120 17:28 07.06.2019
6683 Clear 23 1010 78 10000 4 120 16:58 07.06.2019
6684 Clear 22 1009 78 10000 4 110 16:39 07.06.2019
6685 Clouds 23 1009 73 10000 4 130 15:52 07.06.2019
6686 Clouds 23 1009 73 10000 4 130 15:23 07.06.2019
6687 Clouds 23 1009 73 10000 4 130 15:23 07.06.2019
6688 Clouds 23 1009 73 10000 4 120 14:47 07.06.2019
6689 Clouds 24 1009 69 10000 4 130 14:26 07.06.2019
6690 Clouds 24 1009 61 10000 4 130 13:45 07.06.2019
6691 Clouds 24 1009 61 10000 4 130 13:25 07.06.2019
6692 Clouds 24 1009 61 10000 4 130 13:25 07.06.2019
6693 Clear 25 1009 54 10000 2 80 12:48 07.06.2019
6694 Clear 26 1008 54 10000 3 80 12:22 07.06.2019
6695 Clear 26 1009 54 10000 3 80 11:49 07.06.2019
6696 Clear 27 1009 54 10000 3 80 11:29 07.06.2019
6697 Clear 28 1009 47 10000 2 90 10:49 07.06.2019
6698 Clear 28 1009 51 10000 3 360 10:28 07.06.2019
6699 Clear 28 1009 48 10000 3 360 09:53 07.06.2019
6700 Clear 29 1009 48 10000 3 360 09:29 07.06.2019
6701 Clear 28 1009 51 10000 3 0 08:56 07.06.2019
6702 Clouds 28 1009 54 10000 4 10 08:31 07.06.2019
6703 Clouds 29 1009 54 10000 4 10 07:55 07.06.2019
6704 Clouds 29 1010 54 10000 4 10 07:24 07.06.2019
6705 Clouds 28 1010 54 10000 2 0 06:50 07.06.2019
6706 Clouds 27 1010 54 10000 2 0 06:28 07.06.2019
6707 Clouds 27 1010 61 10000 3 310 05:51 07.06.2019
6708 Clouds 27 1010 60 10000 5 320 03:35 07.06.2019
6709 Clouds 23 1009 68 10000 5 310 01:40 07.06.2019
6710 Clouds 23 1009 73 10000 6 330 00:51 07.06.2019
6711 Clouds 22 1009 68 10000 6 340 00:26 07.06.2019
6712 Clouds 22 1008 73 10000 6 330 23:43 06.06.2019
6713 Clouds 22 1008 73 10000 6 330 23:22 06.06.2019
6714 Clouds 22 1007 73 10000 5 320 22:39 06.06.2019
6715 Clouds 22 1007 68 10000 6 310 22:21 06.06.2019
6716 Clouds 22 1007 68 10000 5 320 21:57 06.06.2019
6717 Clouds 22 1007 68 10000 5 320 21:38 06.06.2019
6718 Clear 23 1006 64 10000 7 310 21:19 06.06.2019
6719 Clear 22 1006 64 10000 6 310 20:44 06.06.2019
6720 Clear 22 1006 64 10000 7 300 20:22 06.06.2019
6721 Clear 23 1006 64 10000 7 300 19:39 06.06.2019
6722 Clear 23 1006 64 10000 7 300 19:19 06.06.2019
6723 Clouds 24 1006 64 10000 9 300 18:52 06.06.2019
6724 Clouds 24 1006 64 10000 9 300 18:32 06.06.2019
6725 Clouds 24 1006 64 10000 9 290 17:57 06.06.2019
6726 Clouds 24 1006 69 10000 8 300 17:38 06.06.2019
6727 Clouds 25 1006 73 10000 7 290 17:20 06.06.2019
6728 Clouds 25 1005 73 10000 8 290 16:43 06.06.2019
6729 Clouds 25 1005 73 10000 9 290 16:22 06.06.2019
6730 Clouds 26 1004 65 10000 9 290 15:47 06.06.2019
6731 Clouds 27 1004 65 10000 9 290 15:26 06.06.2019
6732 Clear 27 1003 65 10000 7 280 14:46 06.06.2019
6733 Clear 27 1003 65 10000 7 280 14:46 06.06.2019
6734 Rain 27 1002 61 10000 8 280 14:20 06.06.2019
6735 Rain 28 1002 62 10000 8 300 13:54 06.06.2019
6736 Rain 29 1002 62 10000 8 300 13:31 06.06.2019
6737 Clouds 29 1001 66 10000 10 290 12:56 06.06.2019
6738 Rain 30 1001 58 10000 7 260 12:38 06.06.2019
6739 Clear 31 1000 55 10000 7 250 12:20 06.06.2019
6740 Clear 32 1000 55 10000 8 250 11:45 06.06.2019
6741 Clear 32 1000 55 10000 10 230 11:27 06.06.2019
6742 Clear 32 1000 52 10000 10 240 10:47 06.06.2019
6743 Clear 32 1000 52 10000 10 240 10:27 06.06.2019
6744 Clear 33 1000 55 10000 11 230 09:46 06.06.2019
6745 Clear 34 1000 55 10000 11 230 09:25 06.06.2019
6746 Clear 33 1000 49 10000 10 220 08:51 06.06.2019
6747 Clear 33 1000 49 10000 10 220 08:26 06.06.2019
6748 Clear 32 1001 70 10000 7 180 07:54 06.06.2019
6749 Clear 32 1001 70 10000 7 180 07:30 06.06.2019
6750 Rain 30 1002 83 10000 7 180 06:49 06.06.2019
6751 Rain 30 1002 78 10000 8 180 05:41 06.06.2019
6752 Rain 30 1002 83 10000 8 170 04:38 06.06.2019
6753 Rain 27 1004 78 10000 8 170 02:23 06.06.2019
6754 Rain 27 1004 83 10000 8 170 01:55 06.06.2019
6755 Rain 27 1004 83 10000 7 160 01:18 06.06.2019
6756 Rain 26 1004 83 10000 8 150 00:31 06.06.2019
6757 Clear 26 1004 83 10000 8 160 23:41 05.06.2019
6758 Clear 26 1004 83 10000 7 150 23:21 05.06.2019
6759 Clear 26 1003 83 10000 8 140 22:44 05.06.2019
6760 Clear 25 1004 83 10000 8 140 22:23 05.06.2019
6761 Clear 25 1004 83 10000 8 140 21:58 05.06.2019
6762 Clear 25 1004 83 10000 8 140 21:58 05.06.2019
6763 Clear 25 1004 83 10000 9 150 21:40 05.06.2019
6764 Clear 25 1005 83 10000 8 150 21:21 05.06.2019
6765 Clear 25 1005 83 10000 7 150 20:44 05.06.2019
6766 Clear 25 1005 83 10000 8 150 20:24 05.06.2019
6767 Clear 25 1006 83 10000 9 140 19:44 05.06.2019
6768 Clear 25 1006 83 10000 9 140 19:44 05.06.2019
6769 Clouds 25 1006 83 10000 9 140 19:19 05.06.2019
6770 Clouds 25 1007 83 10000 8 150 18:44 05.06.2019
6771 Clouds 25 1007 83 10000 8 140 18:25 05.06.2019
6772 Clouds 25 1007 83 10000 8 140 17:50 05.06.2019
6773 Clouds 25 1008 83 10000 7 140 17:23 05.06.2019
6774 Clouds 25 1008 83 10000 7 130 16:43 05.06.2019
6775 Clouds 25 1008 83 10000 7 130 16:20 05.06.2019
6776 Clouds 25 1008 83 10000 7 130 15:51 05.06.2019
6777 Clouds 26 1008 83 10000